Wetterdaten: Mittwoch, 13.09.2017
Datum Zeit Temp. A. Temp. A. max Feuchte A. Luftdruck Regen Wind Richtung Richtung Sonnenschein ET UV Solar Taupunkt Windchill Windböen
13.09.2017 00:00 8,7 °C 8,8 °C 81 % 1016,1 hPa 0,0 mm 4,8 km/h (1 Bft) W-SW 241 ° 0 min 0,000 mm 0,0 UV-I 0 W/m² 5,6 °C 8,3 °C 6,4 km/h (2 Bft)
13.09.2017 00:01 8,7 °C 8,7 °C 81 % 1016,1 hPa 0,0 mm 3,0 km/h (1 Bft) W-NW 284 ° 0 min 0,000 mm 0,0 UV-I 0 W/m² 5,6 °C 8,7 °C 6,4 km/h (2 Bft)
13.09.2017 00:02 8,7 °C 8,7 °C 81 % 1016,1 hPa 0,0 mm 6,6 km/h (2 Bft) W 264 ° 0 min 0,000 mm 0,0 UV-I 0 W/m² 5,6 °C 7,8 °C 12,9 km/h (3 Bft)
13.09.2017 00:03 8,7 °C 8,7 °C 81 % 1016,1 hPa 0,0 mm 5,0 km/h (1 Bft) W-SW 250 ° 0 min 0,000 mm 0,0 UV-I 0 W/m² 5,6 °C 8,3 °C 9,7 km/h (2 Bft)
13.09.2017 00:04 8,7 °C 8,7 °C 81 % 1016,1 hPa 0,0 mm 4,9 km/h (1 Bft) W 277 ° 0 min 0,000 mm 0,0 UV-I 0 W/m² 5,6 °C 8,3 °C 14,5 km/h (3 Bft)
13.09.2017 00:05 8,7 °C 8,7 °C 81 % 1016,1 hPa 0,0 mm 6,9 km/h (2 Bft) W-SW 250 ° 0 min 0,000 mm 0,0 UV-I 0 W/m² 5,6 °C 7,7 °C 12,9 km/h (3 Bft)
13.09.2017 00:06 8,8 °C 8,8 °C 81 % 1016,1 hPa 0,0 mm 9,1 km/h (2 Bft) W-SW 247 ° 0 min 0,000 mm 0,0 UV-I 0 W/m² 5,7 °C 7,4 °C 12,9 km/h (3 Bft)
13.09.2017 00:07 8,8 °C 8,8 °C 81 % 1016,1 hPa 0,0 mm 8,0 km/h (2 Bft) W 280 ° 0 min 0,000 mm 0,0 UV-I 0 W/m² 5,7 °C 7,6 °C 11,3 km/h (2 Bft)
13.09.2017 00:08 8,8 °C 8,8 °C 81 % 1016,1 hPa 0,0 mm 11,5 km/h (2 Bft) W 273 ° 0 min 0,000 mm 0,0 UV-I 0 W/m² 5,7 °C 6,9 °C 16,1 km/h (3 Bft)
13.09.2017 00:09 8,7 °C 8,8 °C 81 % 1016,1 hPa 0,0 mm 8,1 km/h (2 Bft) W-SW 240 ° 0 min 0,000 mm 0,0 UV-I 0 W/m² 5,6 °C 7,5 °C 14,5 km/h (3 Bft)
13.09.2017 00:10 8,7 °C 8,7 °C 81 % 1016,1 hPa 0,0 mm 5,2 km/h (1 Bft) SW 229 ° 0 min 0,000 mm 0,0 UV-I 0 W/m² 5,6 °C 8,2 °C 9,7 km/h (2 Bft)
13.09.2017 00:11 8,7 °C 8,7 °C 81 % 1016,1 hPa 0,0 mm 7,2 km/h (2 Bft) W-NW 283 ° 0 min 0,000 mm 0,0 UV-I 0 W/m² 5,6 °C 7,7 °C 12,9 km/h (3 Bft)
13.09.2017 00:12 8,7 °C 8,7 °C 81 % 1016,1 hPa 0,0 mm 11,3 km/h (2 Bft) W 260 ° 0 min 0,000 mm 0,0 UV-I 0 W/m² 5,6 °C 6,9 °C 16,1 km/h (3 Bft)
13.09.2017 00:13 8,8 °C 8,8 °C 80 % 1016,1 hPa 0,0 mm 10,5 km/h (2 Bft) SW 232 ° 0 min 0,000 mm 0,0 UV-I 0 W/m² 5,5 °C 7,1 °C 14,5 km/h (3 Bft)
13.09.2017 00:14 8,8 °C 8,8 °C 80 % 1016,1 hPa 0,0 mm 7,8 km/h (2 Bft) SW 235 ° 0 min 0,000 mm 0,0 UV-I 0 W/m² 5,5 °C 7,6 °C 17,7 km/h (3 Bft)
13.09.2017 00:15 8,8 °C 8,8 °C 80 % 1016,1 hPa 0,0 mm 7,6 km/h (2 Bft) W 262 ° 0 min 0,000 mm 0,0 UV-I 0 W/m² 5,5 °C 7,7 °C 12,9 km/h (3 Bft)
13.09.2017 00:16 8,7 °C 8,8 °C 80 % 1016,0 hPa 0,0 mm 10,9 km/h (2 Bft) W 260 ° 0 min 0,000 mm 0,0 UV-I 0 W/m² 5,4 °C 6,9 °C 17,7 km/h (3 Bft)
13.09.2017 00:17 8,8 °C 8,8 °C 80 % 1016,0 hPa 0,0 mm 4,0 km/h (1 Bft) SW 217 ° 0 min 0,000 mm 0,0 UV-I 0 W/m² 5,5 °C 8,8 °C 8,0 km/h (2 Bft)
13.09.2017 00:18 8,7 °C 8,8 °C 80 % 1016,1 hPa 0,0 mm 6,8 km/h (2 Bft) W 277 ° 0 min 0,000 mm 0,0 UV-I 0 W/m² 5,4 °C 7,8 °C 11,3 km/h (2 Bft)
13.09.2017 00:19 8,7 °C 8,7 °C 80 % 1016,1 hPa 0,0 mm 3,6 km/h (1 Bft) W 275 ° 0 min 0,000 mm 0,0 UV-I 0 W/m² 5,4 °C 8,7 °C 6,4 km/h (2 Bft)
13.09.2017 00:20 8,7 °C 8,7 °C 80 % 1016,1 hPa 0,0 mm 6,7 km/h (2 Bft) W-SW 240 ° 0 min 0,000 mm 0,0 UV-I 0 W/m² 5,4 °C 7,8 °C 11,3 km/h (2 Bft)
13.09.2017 00:21 8,7 °C 8,7 °C 80 % 1016,1 hPa 0,0 mm 6,2 km/h (2 Bft) W 270 ° 0 min 0,000 mm 0,0 UV-I 0 W/m² 5,4 °C 7,9 °C 9,7 km/h (2 Bft)
13.09.2017 00:22 8,7 °C 8,8 °C 80 % 1016,0 hPa 0,0 mm 4,0 km/h (1 Bft) W 270 ° 0 min 0,000 mm 0,0 UV-I 0 W/m² 5,4 °C 8,7 °C 6,4 km/h (2 Bft)
13.09.2017 00:23 8,7 °C 8,8 °C 80 % 1016,0 hPa 0,0 mm 5,2 km/h (1 Bft) W 262 ° 0 min 0,000 mm 0,0 UV-I 0 W/m² 5,4 °C 8,2 °C 9,7 km/h (2 Bft)
13.09.2017 00:24 8,7 °C 8,7 °C 80 % 1016,0 hPa 0,0 mm 9,5 km/h (2 Bft) W-SW 257 ° 0 min 0,000 mm 0,0 UV-I 0 W/m² 5,4 °C 7,2 °C 14,5 km/h (3 Bft)
13.09.2017 00:25 8,7 °C 8,7 °C 80 % 1016,0 hPa 0,0 mm 5,1 km/h (1 Bft) S 185 ° 0 min 0,000 mm 0,0 UV-I 0 W/m² 5,4 °C 8,2 °C 12,9 km/h (3 Bft)
13.09.2017 00:26 8,7 °C 8,7 °C 80 % 1016,0 hPa 0,0 mm 7,5 km/h (2 Bft) W 260 ° 0 min 0,000 mm 0,0 UV-I 0 W/m² 5,4 °C 7,6 °C 14,5 km/h (3 Bft)
13.09.2017 00:27 8,8 °C 8,8 °C 80 % 1016,0 hPa 0,0 mm 3,4 km/h (1 Bft) W-SW 248 ° 0 min 0,000 mm 0,0 UV-I 0 W/m² 5,5 °C 8,8 °C 6,4 km/h (2 Bft)
13.09.2017 00:28 8,8 °C 8,8 °C 80 % 1016,0 hPa 0,0 mm 3,3 km/h (1 Bft) S-SW 206 ° 0 min 0,000 mm 0,0 UV-I 0 W/m² 5,5 °C 8,8 °C 8,0 km/h (2 Bft)
13.09.2017 00:29 8,8 °C 8,8 °C 80 % 1016,0 hPa 0,0 mm 0,9 km/h (0 Bft) W-SW 245 ° 0 min 0,000 mm 0,0 UV-I 0 W/m² 5,5 °C 8,8 °C 3,2 km/h (1 Bft)
13.09.2017 00:30 8,8 °C 8,9 °C 80 % 1016,0 hPa 0,0 mm 2,0 km/h (1 Bft) SW 232 ° 0 min 0,000 mm 0,0 UV-I 0 W/m² 5,5 °C 8,8 °C 4,8 km/h (1 Bft)
13.09.2017 00:31 8,9 °C 8,9 °C 79 % 1016,0 hPa 0,0 mm 1,5 km/h (1 Bft) SW 223 ° 0 min 0,000 mm 0,0 UV-I 0 W/m² 5,5 °C 8,9 °C 4,8 km/h (1 Bft)
13.09.2017 00:32 8,8 °C 8,9 °C 79 % 1016,0 hPa 0,0 mm 7,1 km/h (2 Bft) W-SW 246 ° 0 min 0,000 mm 0,0 UV-I 0 W/m² 5,4 °C 7,8 °C 11,3 km/h (2 Bft)
13.09.2017 00:33 8,8 °C 8,9 °C 80 % 1015,9 hPa 0,0 mm 3,8 km/h (1 Bft) W-SW 239 ° 0 min 0,000 mm 0,0 UV-I 0 W/m² 5,5 °C 8,8 °C 11,3 km/h (2 Bft)
13.09.2017 00:34 8,8 °C 8,8 °C 80 % 1016,0 hPa 0,0 mm 3,2 km/h (1 Bft) W-NW 300 ° 0 min 0,000 mm 0,0 UV-I 0 W/m² 5,5 °C 8,8 °C 6,4 km/h (2 Bft)
13.09.2017 00:35 8,8 °C 8,8 °C 80 % 1015,9 hPa 0,0 mm 1,4 km/h (1 Bft) W-SW 246 ° 0 min 0,000 mm 0,0 UV-I 0 W/m² 5,5 °C 8,8 °C 3,2 km/h (1 Bft)
13.09.2017 00:36 8,8 °C 8,8 °C 80 % 1015,9 hPa 0,0 mm 0,9 km/h (0 Bft) W-SW 248 ° 0 min 0,000 mm 0,0 UV-I 0 W/m² 5,5 °C 8,8 °C 1,6 km/h (1 Bft)
13.09.2017 00:37 8,8 °C 8,8 °C 80 % 1015,9 hPa 0,0 mm 4,6 km/h (1 Bft) W-SW 253 ° 0 min 0,000 mm 0,0 UV-I 0 W/m² 5,5 °C 8,5 °C 11,3 km/h (2 Bft)
13.09.2017 00:38 8,8 °C 8,8 °C 80 % 1015,9 hPa 0,0 mm 6,8 km/h (2 Bft) W-SW 239 ° 0 min 0,000 mm 0,0 UV-I 0 W/m² 5,5 °C 7,9 °C 16,1 km/h (3 Bft)
13.09.2017 00:39 8,8 °C 8,8 °C 80 % 1015,9 hPa 0,0 mm 4,4 km/h (1 Bft) W 269 ° 0 min 0,000 mm 0,0 UV-I 0 W/m² 5,5 °C 8,8 °C 9,7 km/h (2 Bft)
13.09.2017 00:40 8,8 °C 8,8 °C 80 % 1015,9 hPa 0,0 mm 1,7 km/h (1 Bft) W 271 ° 0 min 0,000 mm 0,0 UV-I 0 W/m² 5,5 °C 8,8 °C 4,8 km/h (1 Bft)
13.09.2017 00:41 8,7 °C 8,8 °C 80 % 1015,9 hPa 0,0 mm 1,0 km/h (0 Bft) W 271 ° 0 min 0,000 mm 0,0 UV-I 0 W/m² 5,4 °C 8,7 °C 1,6 km/h (1 Bft)
13.09.2017 00:42 8,7 °C 8,8 °C 80 % 1016,0 hPa 0,0 mm 4,0 km/h (1 Bft) W 260 ° 0 min 0,000 mm 0,0 UV-I 0 W/m² 5,4 °C 8,7 °C 11,3 km/h (2 Bft)
13.09.2017 00:43 8,7 °C 8,7 °C 80 % 1015,9 hPa 0,0 mm 4,6 km/h (1 Bft) W-SW 244 ° 0 min 0,000 mm 0,0 UV-I 0 W/m² 5,4 °C 8,4 °C 8,0 km/h (2 Bft)
13.09.2017 00:44 8,7 °C 8,7 °C 80 % 1016,0 hPa 0,0 mm 3,5 km/h (1 Bft) W 262 ° 0 min 0,000 mm 0,0 UV-I 0 W/m² 5,4 °C 8,7 °C 9,7 km/h (2 Bft)
13.09.2017 00:45 8,6 °C 8,7 °C 80 % 1016,0 hPa 0,0 mm 6,0 km/h (2 Bft) SW 225 ° 0 min 0,000 mm 0,0 UV-I 0 W/m² 5,3 °C 7,9 °C 11,3 km/h (2 Bft)
13.09.2017 00:46 8,7 °C 8,7 °C 80 % 1015,9 hPa 0,0 mm 1,8 km/h (1 Bft) W 261 ° 0 min 0,000 mm 0,0 UV-I 0 W/m² 5,4 °C 8,7 °C 6,4 km/h (2 Bft)
13.09.2017 00:47 8,7 °C 8,7 °C 80 % 1015,9 hPa 0,0 mm 2,3 km/h (1 Bft) W 271 ° 0 min 0,000 mm 0,0 UV-I 0 W/m² 5,4 °C 8,7 °C 4,8 km/h (1 Bft)
13.09.2017 00:48 8,6 °C 8,7 °C 80 % 1015,9 hPa 0,0 mm 0,8 km/h (0 Bft) W 271 ° 0 min 0,000 mm 0,0 UV-I 0 W/m² 5,3 °C 8,6 °C 1,6 km/h (1 Bft)
13.09.2017 00:49 8,6 °C 8,6 °C 80 % 1015,9 hPa 0,0 mm 2,9 km/h (1 Bft) W 265 ° 0 min 0,000 mm 0,0 UV-I 0 W/m² 5,3 °C 8,6 °C 6,4 km/h (2 Bft)
13.09.2017 00:50 8,6 °C 8,6 °C 80 % 1015,9 hPa 0,0 mm 3,5 km/h (1 Bft) W 265 ° 0 min 0,000 mm 0,0 UV-I 0 W/m² 5,3 °C 8,6 °C 6,4 km/h (2 Bft)
13.09.2017 00:51 8,4 °C 8,6 °C 80 % 1015,9 hPa 0,0 mm 5,8 km/h (2 Bft) W-SW 257 ° 0 min 0,000 mm 0,0 UV-I 0 W/m² 5,2 °C 7,7 °C 12,9 km/h (3 Bft)
13.09.2017 00:52 8,4 °C 8,4 °C 80 % 1015,9 hPa 0,0 mm 3,2 km/h (1 Bft) W 266 ° 0 min 0,000 mm 0,0 UV-I 0 W/m² 5,2 °C 8,4 °C 9,7 km/h (2 Bft)
13.09.2017 00:53 8,3 °C 8,4 °C 80 % 1015,9 hPa 0,0 mm 2,7 km/h (1 Bft) W 265 ° 0 min 0,000 mm 0,0 UV-I 0 W/m² 5,1 °C 8,3 °C 4,8 km/h (1 Bft)
13.09.2017 00:54 8,3 °C 8,3 °C 81 % 1015,9 hPa 0,0 mm 7,9 km/h (2 Bft) W 271 ° 0 min 0,000 mm 0,0 UV-I 0 W/m² 5,2 °C 7,0 °C 11,3 km/h (2 Bft)
13.09.2017 00:55 8,3 °C 8,3 °C 81 % 1015,9 hPa 0,0 mm 4,2 km/h (1 Bft) W-SW 252 ° 0 min 0,000 mm 0,0 UV-I 0 W/m² 5,2 °C 8,3 °C 9,7 km/h (2 Bft)
13.09.2017 00:56 8,3 °C 8,3 °C 81 % 1015,9 hPa 0,0 mm 8,9 km/h (2 Bft) W 269 ° 0 min 0,000 mm 0,0 UV-I 0 W/m² 5,2 °C 6,8 °C 19,3 km/h (3 Bft)
13.09.2017 00:57 8,3 °C 8,3 °C 81 % 1015,9 hPa 0,0 mm 3,8 km/h (1 Bft) S 182 ° 0 min 0,000 mm 0,0 UV-I 0 W/m² 5,2 °C 8,3 °C 4,8 km/h (1 Bft)
13.09.2017 00:58 8,3 °C 8,3 °C 81 % 1015,9 hPa 0,0 mm 5,2 km/h (1 Bft) W-NW 289 ° 0 min 0,000 mm 0,0 UV-I 0 W/m² 5,2 °C 7,8 °C 11,3 km/h (2 Bft)
13.09.2017 00:59 8,3 °C 8,3 °C 81 % 1015,9 hPa 0,0 mm 5,1 km/h (1 Bft) S-SW 206 ° 0 min 0,000 mm 0,0 UV-I 0 W/m² 5,2 °C 7,8 °C 11,3 km/h (2 Bft)
13.09.2017 01:00 8,4 °C 8,4 °C 80 % 1015,8 hPa 0,0 mm 2,5 km/h (1 Bft) W-SW 238 ° 0 min 0,025 mm 0,0 UV-I 0 W/m² 5,2 °C 8,4 °C 6,4 km/h (2 Bft)
13.09.2017 01:01 8,4 °C 8,4 °C 80 % 1015,8 hPa 0,0 mm 1,5 km/h (1 Bft) SW 219 ° 0 min 0,000 mm 0,0 UV-I 0 W/m² 5,2 °C 8,4 °C 4,8 km/h (1 Bft)
13.09.2017 01:02 8,5 °C 8,6 °C 79 % 1015,9 hPa 0,0 mm 3,2 km/h (1 Bft) W-SW 256 ° 0 min 0,000 mm 0,0 UV-I 0 W/m² 5,1 °C 8,5 °C 6,4 km/h (2 Bft)
13.09.2017 01:03 8,6 °C 8,6 °C 79 % 1015,9 hPa 0,0 mm 4,7 km/h (1 Bft) W 269 ° 0 min 0,000 mm 0,0 UV-I 0 W/m² 5,2 °C 8,3 °C 9,7 km/h (2 Bft)
13.09.2017 01:04 8,6 °C 8,6 °C 79 % 1015,9 hPa 0,0 mm 1,7 km/h (1 Bft) W 275 ° 0 min 0,000 mm 0,0 UV-I 0 W/m² 5,2 °C 8,6 °C 6,4 km/h (2 Bft)
13.09.2017 01:05 8,6 °C 8,6 °C 79 % 1015,9 hPa 0,0 mm 2,1 km/h (1 Bft) W 275 ° 0 min 0,000 mm 0,0 UV-I 0 W/m² 5,2 °C 8,6 °C 4,8 km/h (1 Bft)
13.09.2017 01:06 8,6 °C 8,6 °C 79 % 1015,9 hPa 0,0 mm 3,9 km/h (1 Bft) W 259 ° 0 min 0,000 mm 0,0 UV-I 0 W/m² 5,2 °C 8,6 °C 9,7 km/h (2 Bft)
13.09.2017 01:07 8,6 °C 8,6 °C 79 % 1015,9 hPa 0,0 mm 2,5 km/h (1 Bft) W-SW 252 ° 0 min 0,000 mm 0,0 UV-I 0 W/m² 5,2 °C 8,6 °C 4,8 km/h (1 Bft)
13.09.2017 01:08 8,6 °C 8,6 °C 79 % 1015,9 hPa 0,0 mm 3,2 km/h (1 Bft) SW 225 ° 0 min 0,000 mm 0,0 UV-I 0 W/m² 5,2 °C 8,6 °C 6,4 km/h (2 Bft)
13.09.2017 01:09 8,6 °C 8,6 °C 79 % 1015,9 hPa 0,0 mm 2,1 km/h (1 Bft) SW 222 ° 0 min 0,000 mm 0,0 UV-I 0 W/m² 5,2 °C 8,6 °C 6,4 km/h (2 Bft)
13.09.2017 01:10 8,7 °C 8,7 °C 79 % 1016,0 hPa 0,0 mm 6,0 km/h (2 Bft) S-SW 201 ° 0 min 0,000 mm 0,0 UV-I 0 W/m² 5,3 °C 8,0 °C 12,9 km/h (3 Bft)
13.09.2017 01:11 8,7 °C 8,7 °C 79 % 1015,9 hPa 0,0 mm 3,9 km/h (1 Bft) S-SW 192 ° 0 min 0,000 mm 0,0 UV-I 0 W/m² 5,3 °C 8,7 °C 4,8 km/h (1 Bft)
13.09.2017 01:12 8,7 °C 8,7 °C 78 % 1015,9 hPa 0,0 mm 4,6 km/h (1 Bft) S 182 ° 0 min 0,000 mm 0,0 UV-I 0 W/m² 5,1 °C 8,4 °C 8,0 km/h (2 Bft)
13.09.2017 01:13 8,7 °C 8,7 °C 78 % 1015,9 hPa 0,0 mm 2,2 km/h (1 Bft) S 182 ° 0 min 0,000 mm 0,0 UV-I 0 W/m² 5,1 °C 8,7 °C 3,2 km/h (1 Bft)
13.09.2017 01:14 8,7 °C 8,7 °C 78 % 1015,9 hPa 0,0 mm 3,0 km/h (1 Bft) W 262 ° 0 min 0,000 mm 0,0 UV-I 0 W/m² 5,1 °C 8,7 °C 9,7 km/h (2 Bft)
13.09.2017 01:15 8,7 °C 8,7 °C 78 % 1015,9 hPa 0,0 mm 4,3 km/h (1 Bft) SW 232 ° 0 min 0,000 mm 0,0 UV-I 0 W/m² 5,1 °C 8,7 °C 9,7 km/h (2 Bft)
13.09.2017 01:16 8,7 °C 8,7 °C 78 % 1016,0 hPa 0,0 mm 2,6 km/h (1 Bft) W-SW 239 ° 0 min 0,000 mm 0,0 UV-I 0 W/m² 5,1 °C 8,7 °C 6,4 km/h (2 Bft)
13.09.2017 01:17 8,7 °C 8,8 °C 78 % 1015,9 hPa 0,0 mm 2,2 km/h (1 Bft) S-SW 202 ° 0 min 0,000 mm 0,0 UV-I 0 W/m² 5,1 °C 8,7 °C 6,4 km/h (2 Bft)
13.09.2017 01:18 8,8 °C 8,8 °C 78 % 1016,0 hPa 0,0 mm 2,7 km/h (1 Bft) S 180 ° 0 min 0,000 mm 0,0 UV-I 0 W/m² 5,2 °C 8,8 °C 6,4 km/h (2 Bft)
13.09.2017 01:19 8,8 °C 8,8 °C 78 % 1016,0 hPa 0,0 mm 2,1 km/h (1 Bft) S 180 ° 0 min 0,000 mm 0,0 UV-I 0 W/m² 5,2 °C 8,8 °C 3,2 km/h (1 Bft)
13.09.2017 01:20 8,7 °C 8,8 °C 78 % 1016,0 hPa 0,0 mm 2,3 km/h (1 Bft) S 180 ° 0 min 0,000 mm 0,0 UV-I 0 W/m² 5,1 °C 8,7 °C 4,8 km/h (1 Bft)
13.09.2017 01:21 8,7 °C 8,7 °C 78 % 1016,0 hPa 0,0 mm 1,1 km/h (1 Bft) S 180 ° 0 min 0,000 mm 0,0 UV-I 0 W/m² 5,1 °C 8,7 °C 1,6 km/h (1 Bft)
13.09.2017 01:22 8,7 °C 8,7 °C 78 % 1016,0 hPa 0,0 mm 2,6 km/h (1 Bft) S 180 ° 0 min 0,000 mm 0,0 UV-I 0 W/m² 5,1 °C 8,7 °C 4,8 km/h (1 Bft)
13.09.2017 01:23 8,6 °C 8,7 °C 80 % 1016,0 hPa 0,0 mm 2,6 km/h (1 Bft) S 180 ° 0 min 0,000 mm 0,0 UV-I 0 W/m² 5,3 °C 8,6 °C 3,2 km/h (1 Bft)
13.09.2017 01:24 8,4 °C 8,6 °C 80 % 1016,0 hPa 0,0 mm 3,8 km/h (1 Bft) S 181 ° 0 min 0,000 mm 0,0 UV-I 0 W/m² 5,2 °C 8,4 °C 6,4 km/h (2 Bft)
13.09.2017 01:25 8,4 °C 8,4 °C 80 % 1016,1 hPa 0,0 mm 1,8 km/h (1 Bft) S 181 ° 0 min 0,000 mm 0,0 UV-I 0 W/m² 5,2 °C 8,4 °C 3,2 km/h (1 Bft)
13.09.2017 01:26 8,3 °C 8,4 °C 81 % 1016,1 hPa 0,0 mm 3,2 km/h (1 Bft) S-SW 193 ° 0 min 0,000 mm 0,0 UV-I 0 W/m² 5,2 °C 8,3 °C 6,4 km/h (2 Bft)
13.09.2017 01:27 8,2 °C 8,3 °C 81 % 1016,1 hPa 0,0 mm 2,3 km/h (1 Bft) S 183 ° 0 min 0,000 mm 0,0 UV-I 0 W/m² 5,1 °C 8,2 °C 6,4 km/h (2 Bft)
13.09.2017 01:28 8,1 °C 8,2 °C 82 % 1016,1 hPa 0,0 mm 0,5 km/h (0 Bft) S 183 ° 0 min 0,000 mm 0,0 UV-I 0 W/m² 5,2 °C 8,1 °C 3,2 km/h (1 Bft)
13.09.2017 01:29 7,9 °C 8,1 °C 82 % 1016,1 hPa 0,0 mm 2,0 km/h (1 Bft) S 183 ° 0 min 0,000 mm 0,0 UV-I 0 W/m² 5,0 °C 7,9 °C 3,2 km/h (1 Bft)
13.09.2017 01:30 7,8 °C 7,9 °C 83 % 1016,1 hPa 0,0 mm 0,9 km/h (0 Bft) S 183 ° 0 min 0,000 mm 0,0 UV-I 0 W/m² 5,1 °C 7,8 °C 3,2 km/h (1 Bft)
13.09.2017 01:31 7,8 °C 7,8 °C 83 % 1016,1 hPa 0,0 mm 2,2 km/h (1 Bft) S 183 ° 0 min 0,000 mm 0,0 UV-I 0 W/m² 5,1 °C 7,8 °C 4,8 km/h (1 Bft)
13.09.2017 01:32 7,7 °C 7,8 °C 82 % 1016,1 hPa 0,0 mm 2,3 km/h (1 Bft) S 183 ° 0 min 0,000 mm 0,0 UV-I 0 W/m² 4,8 °C 7,7 °C 3,2 km/h (1 Bft)
13.09.2017 01:33 7,6 °C 7,7 °C 83 % 1016,1 hPa 0,0 mm 1,5 km/h (1 Bft) S 183 ° 0 min 0,000 mm 0,0 UV-I 0 W/m² 4,9 °C 7,6 °C 1,6 km/h (1 Bft)
13.09.2017 01:34 7,6 °C 7,6 °C 82 % 1016,2 hPa 0,0 mm 1,1 km/h (1 Bft) S 183 ° 0 min 0,000 mm 0,0 UV-I 0 W/m² 4,7 °C 7,6 °C 3,2 km/h (1 Bft)
13.09.2017 01:35 7,5 °C 7,6 °C 82 % 1016,1 hPa 0,0 mm 1,7 km/h (1 Bft) S 183 ° 0 min 0,000 mm 0,0 UV-I 0 W/m² 4,6 °C 7,5 °C 3,2 km/h (1 Bft)
13.09.2017 01:36 7,5 °C 7,5 °C 84 % 1016,1 hPa 0,0 mm 1,6 km/h (1 Bft) S 183 ° 0 min 0,000 mm 0,0 UV-I 0 W/m² 5,0 °C 7,5 °C 3,2 km/h (1 Bft)
13.09.2017 01:37 7,4 °C 7,5 °C 85 % 1016,1 hPa 0,0 mm 1,2 km/h (1 Bft) S 183 ° 0 min 0,000 mm 0,0 UV-I 0 W/m² 5,0 °C 7,4 °C 3,2 km/h (1 Bft)
13.09.2017 01:38 7,4 °C 7,4 °C 85 % 1016,1 hPa 0,0 mm 1,0 km/h (0 Bft) S 183 ° 0 min 0,000 mm 0,0 UV-I 0 W/m² 5,0 °C 7,4 °C 3,2 km/h (1 Bft)
13.09.2017 01:39 7,3 °C 7,4 °C 84 % 1016,1 hPa 0,0 mm 1,5 km/h (1 Bft) S 183 ° 0 min 0,000 mm 0,0 UV-I 0 W/m² 4,8 °C 7,3 °C 1,6 km/h (1 Bft)
13.09.2017 01:40 7,2 °C 7,3 °C 83 % 1016,1 hPa 0,0 mm 1,9 km/h (1 Bft) S 183 ° 0 min 0,000 mm 0,0 UV-I 0 W/m² 4,5 °C 7,2 °C 3,2 km/h (1 Bft)
13.09.2017 01:41 7,1 °C 7,2 °C 84 % 1016,2 hPa 0,0 mm 1,4 km/h (1 Bft) S 183 ° 0 min 0,000 mm 0,0 UV-I 0 W/m² 4,6 °C 7,1 °C 1,6 km/h (1 Bft)
13.09.2017 01:42 7,1 °C 7,1 °C 85 % 1016,2 hPa 0,0 mm 2,3 km/h (1 Bft) S 184 ° 0 min 0,000 mm 0,0 UV-I 0 W/m² 4,8 °C 7,1 °C 4,8 km/h (1 Bft)
13.09.2017 01:43 7,1 °C 7,1 °C 85 % 1016,2 hPa 0,0 mm 2,0 km/h (1 Bft) S 184 ° 0 min 0,000 mm 0,0 UV-I 0 W/m² 4,8 °C 7,1 °C 3,2 km/h (1 Bft)
13.09.2017 01:44 7,1 °C 7,1 °C 86 % 1016,2 hPa 0,0 mm 1,6 km/h (1 Bft) S 184 ° 0 min 0,000 mm 0,0 UV-I 0 W/m² 4,9 °C 7,1 °C 3,2 km/h (1 Bft)
13.09.2017 01:45 7,0 °C 7,1 °C 85 % 1016,2 hPa 0,0 mm 1,3 km/h (1 Bft) S 184 ° 0 min 0,000 mm 0,0 UV-I 0 W/m² 4,7 °C 7,0 °C 3,2 km/h (1 Bft)
13.09.2017 01:46 7,1 °C 7,1 °C 85 % 1016,2 hPa 0,0 mm 1,6 km/h (1 Bft) S 184 ° 0 min 0,000 mm 0,0 UV-I 0 W/m² 4,8 °C 7,1 °C 6,4 km/h (2 Bft)
13.09.2017 01:47 7,1 °C 7,1 °C 84 % 1016,3 hPa 0,0 mm 2,4 km/h (1 Bft) S 184 ° 0 min 0,000 mm 0,0 UV-I 0 W/m² 4,6 °C 7,1 °C 4,8 km/h (1 Bft)
13.09.2017 01:48 7,1 °C 7,1 °C 85 % 1016,2 hPa 0,0 mm 2,7 km/h (1 Bft) S 184 ° 0 min 0,000 mm 0,0 UV-I 0 W/m² 4,8 °C 7,1 °C 4,8 km/h (1 Bft)
13.09.2017 01:49 7,2 °C 7,2 °C 85 % 1016,3 hPa 0,0 mm 3,5 km/h (1 Bft) S 184 ° 0 min 0,000 mm 0,0 UV-I 0 W/m² 4,9 °C 7,2 °C 4,8 km/h (1 Bft)
13.09.2017 01:50 7,2 °C 7,2 °C 84 % 1016,3 hPa 0,0 mm 2,8 km/h (1 Bft) S 184 ° 0 min 0,000 mm 0,0 UV-I 0 W/m² 4,7 °C 7,2 °C 4,8 km/h (1 Bft)
13.09.2017 01:51 7,2 °C 7,2 °C 85 % 1016,3 hPa 0,0 mm 1,5 km/h (1 Bft) S 184 ° 0 min 0,000 mm 0,0 UV-I 0 W/m² 4,9 °C 7,2 °C 3,2 km/h (1 Bft)
13.09.2017 01:52 7,2 °C 7,2 °C 85 % 1016,3 hPa 0,0 mm 2,3 km/h (1 Bft) S 184 ° 0 min 0,000 mm 0,0 UV-I 0 W/m² 4,9 °C 7,2 °C 4,8 km/h (1 Bft)
13.09.2017 01:53 7,2 °C 7,2 °C 84 % 1016,3 hPa 0,0 mm 1,3 km/h (1 Bft) S 184 ° 0 min 0,000 mm 0,0 UV-I 0 W/m² 4,7 °C 7,2 °C 3,2 km/h (1 Bft)
13.09.2017 01:54 7,2 °C 7,2 °C 85 % 1016,3 hPa 0,0 mm 0,1 km/h (0 Bft) S 184 ° 0 min 0,000 mm 0,0 UV-I 0 W/m² 4,9 °C 7,2 °C 1,6 km/h (1 Bft)
13.09.2017 01:55 7,2 °C 7,2 °C 85 % 1016,3 hPa 0,0 mm 0,0 km/h (0 Bft) S 184 ° 0 min 0,000 mm 0,0 UV-I 0 W/m² 4,9 °C 7,2 °C 0,0 km/h (0 Bft)
13.09.2017 01:56 7,2 °C 7,2 °C 85 % 1016,3 hPa 0,0 mm 0,0 km/h (0 Bft) S 184 ° 0 min 0,000 mm 0,0 UV-I 0 W/m² 4,9 °C 7,2 °C 0,0 km/h (0 Bft)
13.09.2017 01:57 7,1 °C 7,2 °C 84 % 1016,3 hPa 0,0 mm 0,0 km/h (0 Bft) S 184 ° 0 min 0,000 mm 0,0 UV-I 0 W/m² 4,6 °C 7,1 °C 0,0 km/h (0 Bft)
13.09.2017 01:58 7,1 °C 7,1 °C 84 % 1016,3 hPa 0,0 mm 0,1 km/h (0 Bft) S 184 ° 0 min 0,000 mm 0,0 UV-I 0 W/m² 4,6 °C 7,1 °C 1,6 km/h (1 Bft)
13.09.2017 01:59 7,0 °C 7,1 °C 84 % 1016,3 hPa 0,0 mm 0,1 km/h (0 Bft) S 184 ° 0 min 0,000 mm 0,0 UV-I 0 W/m² 4,5 °C 7,0 °C 1,6 km/h (1 Bft)
13.09.2017 02:00 6,9 °C 7,0 °C 83 % 1016,3 hPa 0,0 mm 0,0 km/h (0 Bft) S 184 ° 0 min 0,026 mm 0,0 UV-I 0 W/m² 4,2 °C 6,9 °C 0,0 km/h (0 Bft)
13.09.2017 02:01 6,8 °C 6,9 °C 84 % 1016,3 hPa 0,0 mm 0,0 km/h (0 Bft) S 184 ° 0 min 0,000 mm 0,0 UV-I 0 W/m² 4,3 °C 6,8 °C 0,0 km/h (0 Bft)
13.09.2017 02:02 6,7 °C 6,8 °C 84 % 1016,3 hPa 0,0 mm 0,5 km/h (0 Bft) S 184 ° 0 min 0,000 mm 0,0 UV-I 0 W/m² 4,2 °C 6,7 °C 1,6 km/h (1 Bft)
13.09.2017 02:03 6,7 °C 6,7 °C 84 % 1016,3 hPa 0,0 mm 0,0 km/h (0 Bft) S 184 ° 0 min 0,000 mm 0,0 UV-I 0 W/m² 4,2 °C 6,7 °C 0,0 km/h (0 Bft)
13.09.2017 02:04 6,7 °C 6,7 °C 84 % 1016,2 hPa 0,0 mm 0,0 km/h (0 Bft) S 184 ° 0 min 0,000 mm 0,0 UV-I 0 W/m² 4,2 °C 6,7 °C 0,0 km/h (0 Bft)
13.09.2017 02:05 6,7 °C 6,7 °C 84 % 1016,2 hPa 0,0 mm 0,0 km/h (0 Bft) S 184 ° 0 min 0,000 mm 0,0 UV-I 0 W/m² 4,2 °C 6,7 °C 0,0 km/h (0 Bft)
13.09.2017 02:06 6,6 °C 6,7 °C 85 % 1016,3 hPa 0,0 mm 0,6 km/h (0 Bft) S 184 ° 0 min 0,000 mm 0,0 UV-I 0 W/m² 4,3 °C 6,6 °C 3,2 km/h (1 Bft)
13.09.2017 02:07 6,6 °C 6,6 °C 85 % 1016,2 hPa 0,0 mm 0,3 km/h (0 Bft) S 184 ° 0 min 0,000 mm 0,0 UV-I 0 W/m² 4,3 °C 6,6 °C 1,6 km/h (1 Bft)
13.09.2017 02:08 6,5 °C 6,6 °C 85 % 1016,2 hPa 0,0 mm 0,0 km/h (0 Bft) S 184 ° 0 min 0,000 mm 0,0 UV-I 0 W/m² 4,2 °C 6,5 °C 0,0 km/h (0 Bft)
13.09.2017 02:09 6,4 °C 6,5 °C 85 % 1016,3 hPa 0,0 mm 0,0 km/h (0 Bft) S 184 ° 0 min 0,000 mm 0,0 UV-I 0 W/m² 4,1 °C 6,4 °C 0,0 km/h (0 Bft)
13.09.2017 02:10 6,4 °C 6,4 °C 85 % 1016,2 hPa 0,0 mm 0,0 km/h (0 Bft) S 184 ° 0 min 0,000 mm 0,0 UV-I 0 W/m² 4,1 °C 6,4 °C 0,0 km/h (0 Bft)
13.09.2017 02:11 6,4 °C 6,4 °C 86 % 1016,2 hPa 0,0 mm 0,0 km/h (0 Bft) S 184 ° 0 min 0,000 mm 0,0 UV-I 0 W/m² 4,2 °C 6,4 °C 0,0 km/h (0 Bft)
13.09.2017 02:12 6,4 °C 6,4 °C 86 % 1016,2 hPa 0,0 mm 0,7 km/h (0 Bft) S 184 ° 0 min 0,000 mm 0,0 UV-I 0 W/m² 4,2 °C 6,4 °C 1,6 km/h (1 Bft)
13.09.2017 02:13 6,4 °C 6,4 °C 87 % 1016,2 hPa 0,0 mm 1,2 km/h (1 Bft) S 184 ° 0 min 0,000 mm 0,0 UV-I 0 W/m² 4,4 °C 6,4 °C 1,6 km/h (1 Bft)
13.09.2017 02:14 6,4 °C 6,4 °C 86 % 1016,2 hPa 0,0 mm 1,7 km/h (1 Bft) S 184 ° 0 min 0,000 mm 0,0 UV-I 0 W/m² 4,2 °C 6,4 °C 3,2 km/h (1 Bft)
13.09.2017 02:15 6,4 °C 6,4 °C 86 % 1016,1 hPa 0,0 mm 2,1 km/h (1 Bft) S 184 ° 0 min 0,000 mm 0,0 UV-I 0 W/m² 4,2 °C 6,4 °C 3,2 km/h (1 Bft)
13.09.2017 02:16 6,5 °C 6,5 °C 87 % 1016,1 hPa 0,0 mm 0,7 km/h (0 Bft) S 184 ° 0 min 0,000 mm 0,0 UV-I 0 W/m² 4,5 °C 6,5 °C 1,6 km/h (1 Bft)
13.09.2017 02:17 6,5 °C 6,5 °C 87 % 1016,2 hPa 0,0 mm 1,1 km/h (1 Bft) S 184 ° 0 min 0,000 mm 0,0 UV-I 0 W/m² 4,5 °C 6,5 °C 3,2 km/h (1 Bft)
13.09.2017 02:18 6,6 °C 6,6 °C 87 % 1016,2 hPa 0,0 mm 1,6 km/h (1 Bft) S 184 ° 0 min 0,000 mm 0,0 UV-I 0 W/m² 4,6 °C 6,6 °C 3,2 km/h (1 Bft)
13.09.2017 02:19 6,5 °C 6,6 °C 87 % 1016,2 hPa 0,0 mm 1,9 km/h (1 Bft) S 184 ° 0 min 0,000 mm 0,0 UV-I 0 W/m² 4,5 °C 6,5 °C 3,2 km/h (1 Bft)
13.09.2017 02:20 6,5 °C 6,6 °C 86 % 1016,2 hPa 0,0 mm 1,8 km/h (1 Bft) S 184 ° 0 min 0,000 mm 0,0 UV-I 0 W/m² 4,3 °C 6,5 °C 3,2 km/h (1 Bft)
13.09.2017 02:21 6,4 °C 6,5 °C 86 % 1016,1 hPa 0,0 mm 2,1 km/h (1 Bft) S 184 ° 0 min 0,000 mm 0,0 UV-I 0 W/m² 4,2 °C 6,4 °C 3,2 km/h (1 Bft)
13.09.2017 02:22 6,3 °C 6,4 °C 86 % 1016,1 hPa 0,0 mm 0,5 km/h (0 Bft) S 184 ° 0 min 0,000 mm 0,0 UV-I 0 W/m² 4,1 °C 6,3 °C 1,6 km/h (1 Bft)
13.09.2017 02:23 6,2 °C 6,3 °C 86 % 1016,2 hPa 0,0 mm 1,9 km/h (1 Bft) S 184 ° 0 min 0,000 mm 0,0 UV-I 0 W/m² 4,0 °C 6,2 °C 3,2 km/h (1 Bft)
13.09.2017 02:24 6,2 °C 6,2 °C 87 % 1016,1 hPa 0,0 mm 0,3 km/h (0 Bft) S 184 ° 0 min 0,000 mm 0,0 UV-I 0 W/m² 4,2 °C 6,2 °C 1,6 km/h (1 Bft)
13.09.2017 02:25 6,1 °C 6,2 °C 87 % 1016,1 hPa 0,0 mm 0,9 km/h (0 Bft) S 184 ° 0 min 0,000 mm 0,0 UV-I 0 W/m² 4,1 °C 6,1 °C 3,2 km/h (1 Bft)
13.09.2017 02:26 5,9 °C 6,1 °C 87 % 1016,1 hPa 0,0 mm 1,9 km/h (1 Bft) S 184 ° 0 min 0,000 mm 0,0 UV-I 0 W/m² 3,9 °C 5,9 °C 3,2 km/h (1 Bft)
13.09.2017 02:27 5,9 °C 5,9 °C 87 % 1016,1 hPa 0,0 mm 2,0 km/h (1 Bft) S 184 ° 0 min 0,000 mm 0,0 UV-I 0 W/m² 3,9 °C 5,9 °C 3,2 km/h (1 Bft)
13.09.2017 02:28 5,8 °C 5,9 °C 88 % 1016,1 hPa 0,0 mm 1,3 km/h (1 Bft) S 184 ° 0 min 0,000 mm 0,0 UV-I 0 W/m² 4,0 °C 5,8 °C 1,6 km/h (1 Bft)
13.09.2017 02:29 5,9 °C 5,9 °C 88 % 1016,1 hPa 0,0 mm 0,0 km/h (0 Bft) S 184 ° 0 min 0,000 mm 0,0 UV-I 0 W/m² 4,1 °C 5,9 °C 0,0 km/h (0 Bft)
13.09.2017 02:30 5,8 °C 5,9 °C 88 % 1016,1 hPa 0,0 mm 0,0 km/h (0 Bft) S 184 ° 0 min 0,000 mm 0,0 UV-I 0 W/m² 4,0 °C 5,8 °C 0,0 km/h (0 Bft)
13.09.2017 02:31 5,8 °C 5,8 °C 88 % 1016,1 hPa 0,0 mm 1,5 km/h (1 Bft) S 184 ° 0 min 0,000 mm 0,0 UV-I 0 W/m² 4,0 °C 5,8 °C 3,2 km/h (1 Bft)
13.09.2017 02:32 5,8 °C 5,8 °C 88 % 1016,1 hPa 0,0 mm 0,0 km/h (0 Bft) S 184 ° 0 min 0,000 mm 0,0 UV-I 0 W/m² 4,0 °C 5,8 °C 0,0 km/h (0 Bft)
13.09.2017 02:33 5,8 °C 5,8 °C 88 % 1016,1 hPa 0,0 mm 1,3 km/h (1 Bft) S 184 ° 0 min 0,000 mm 0,0 UV-I 0 W/m² 4,0 °C 5,8 °C 1,6 km/h (1 Bft)
13.09.2017 02:34 5,8 °C 5,8 °C 88 % 1016,1 hPa 0,0 mm 0,8 km/h (0 Bft) S 184 ° 0 min 0,000 mm 0,0 UV-I 0 W/m² 4,0 °C 5,8 °C 1,6 km/h (1 Bft)
13.09.2017 02:35 5,7 °C 5,8 °C 87 % 1016,2 hPa 0,0 mm 0,0 km/h (0 Bft) S 184 ° 0 min 0,000 mm 0,0 UV-I 0 W/m² 3,7 °C 5,7 °C 0,0 km/h (0 Bft)
13.09.2017 02:36 5,7 °C 5,7 °C 87 % 1016,2 hPa 0,0 mm 0,6 km/h (0 Bft) S 184 ° 0 min 0,000 mm 0,0 UV-I 0 W/m² 3,7 °C 5,7 °C 1,6 km/h (1 Bft)
13.09.2017 02:37 5,6 °C 5,7 °C 88 % 1016,2 hPa 0,0 mm 0,0 km/h (0 Bft) S 184 ° 0 min 0,000 mm 0,0 UV-I 0 W/m² 3,8 °C 5,6 °C 0,0 km/h (0 Bft)
13.09.2017 02:38 5,5 °C 5,6 °C 88 % 1016,2 hPa 0,0 mm 0,0 km/h (0 Bft) S 184 ° 0 min 0,000 mm 0,0 UV-I 0 W/m² 3,7 °C 5,5 °C 0,0 km/h (0 Bft)
13.09.2017 02:39 5,4 °C 5,5 °C 88 % 1016,2 hPa 0,0 mm 0,0 km/h (0 Bft) S 184 ° 0 min 0,000 mm 0,0 UV-I 0 W/m² 3,6 °C 5,4 °C 0,0 km/h (0 Bft)
13.09.2017 02:40 5,3 °C 5,4 °C 89 % 1016,2 hPa 0,0 mm 0,0 km/h (0 Bft) S 184 ° 0 min 0,000 mm 0,0 UV-I 0 W/m² 3,6 °C 5,3 °C 0,0 km/h (0 Bft)
13.09.2017 02:41 5,2 °C 5,3 °C 89 % 1016,2 hPa 0,0 mm 0,0 km/h (0 Bft) S 184 ° 0 min 0,000 mm 0,0 UV-I 0 W/m² 3,5 °C 5,2 °C 0,0 km/h (0 Bft)
13.09.2017 02:42 5,2 °C 5,2 °C 89 % 1016,1 hPa 0,0 mm 0,0 km/h (0 Bft) S 184 ° 0 min 0,000 mm 0,0 UV-I 0 W/m² 3,5 °C 5,2 °C 0,0 km/h (0 Bft)
13.09.2017 02:43 5,2 °C 5,2 °C 90 % 1016,0 hPa 0,0 mm 0,0 km/h (0 Bft) S 184 ° 0 min 0,000 mm 0,0 UV-I 0 W/m² 3,7 °C 5,2 °C 0,0 km/h (0 Bft)
13.09.2017 02:44 5,1 °C 5,2 °C 90 % 1015,9 hPa 0,0 mm 0,0 km/h (0 Bft) S 184 ° 0 min 0,000 mm 0,0 UV-I 0 W/m² 3,6 °C 5,1 °C 0,0 km/h (0 Bft)
13.09.2017 02:45 5,1 °C 5,1 °C 90 % 1015,9 hPa 0,0 mm 0,0 km/h (0 Bft) S 184 ° 0 min 0,000 mm 0,0 UV-I 0 W/m² 3,6 °C 5,1 °C 0,0 km/h (0 Bft)
13.09.2017 02:46 5,1 °C 5,1 °C 90 % 1016,0 hPa 0,0 mm 0,0 km/h (0 Bft) S 184 ° 0 min 0,000 mm 0,0 UV-I 0 W/m² 3,6 °C 5,1 °C 0,0 km/h (0 Bft)
13.09.2017 02:47 5,1 °C 5,1 °C 90 % 1016,0 hPa 0,0 mm 0,0 km/h (0 Bft) S 184 ° 0 min 0,000 mm 0,0 UV-I 0 W/m² 3,6 °C 5,1 °C 0,0 km/h (0 Bft)
13.09.2017 02:48 5,0 °C 5,1 °C 90 % 1015,9 hPa 0,0 mm 0,0 km/h (0 Bft) S 184 ° 0 min 0,000 mm 0,0 UV-I 0 W/m² 3,5 °C 5,0 °C 0,0 km/h (0 Bft)
13.09.2017 02:49 5,0 °C 5,0 °C 90 % 1015,9 hPa 0,0 mm 0,0 km/h (0 Bft) S 184 ° 0 min 0,000 mm 0,0 UV-I 0 W/m² 3,5 °C 5,0 °C 0,0 km/h (0 Bft)
13.09.2017 02:50 5,0 °C 5,1 °C 90 % 1015,9 hPa 0,0 mm 0,0 km/h (0 Bft) S 184 ° 0 min 0,000 mm 0,0 UV-I 0 W/m² 3,5 °C 5,0 °C 0,0 km/h (0 Bft)
13.09.2017 02:51 5,1 °C 5,1 °C 90 % 1015,9 hPa 0,0 mm 0,0 km/h (0 Bft) S 184 ° 0 min 0,000 mm 0,0 UV-I 0 W/m² 3,6 °C 5,1 °C 0,0 km/h (0 Bft)
13.09.2017 02:52 5,0 °C 5,1 °C 90 % 1015,9 hPa 0,0 mm 0,0 km/h (0 Bft) S 184 ° 0 min 0,000 mm 0,0 UV-I 0 W/m² 3,5 °C 5,0 °C 0,0 km/h (0 Bft)
13.09.2017 02:53 4,9 °C 5,0 °C 90 % 1016,0 hPa 0,0 mm 0,0 km/h (0 Bft) S 184 ° 0 min 0,000 mm 0,0 UV-I 0 W/m² 3,4 °C 4,9 °C 0,0 km/h (0 Bft)
13.09.2017 02:54 4,9 °C 4,9 °C 90 % 1016,0 hPa 0,0 mm 0,0 km/h (0 Bft) S 184 ° 0 min 0,000 mm 0,0 UV-I 0 W/m² 3,4 °C 4,9 °C 0,0 km/h (0 Bft)
13.09.2017 02:55 4,9 °C 4,9 °C 90 % 1016,0 hPa 0,0 mm 0,0 km/h (0 Bft) S 184 ° 0 min 0,000 mm 0,0 UV-I 0 W/m² 3,4 °C 4,9 °C 0,0 km/h (0 Bft)
13.09.2017 02:56 4,8 °C 4,9 °C 91 % 1016,0 hPa 0,0 mm 0,0 km/h (0 Bft) S 184 ° 0 min 0,000 mm 0,0 UV-I 0 W/m² 3,5 °C 4,8 °C 0,0 km/h (0 Bft)
13.09.2017 02:57 4,9 °C 4,9 °C 91 % 1016,0 hPa 0,0 mm 0,0 km/h (0 Bft) S 184 ° 0 min 0,000 mm 0,0 UV-I 0 W/m² 3,6 °C 4,9 °C 0,0 km/h (0 Bft)
13.09.2017 02:58 4,9 °C 4,9 °C 91 % 1016,1 hPa 0,0 mm 0,0 km/h (0 Bft) S 184 ° 0 min 0,000 mm 0,0 UV-I 0 W/m² 3,6 °C 4,9 °C 0,0 km/h (0 Bft)
13.09.2017 02:59 4,9 °C 4,9 °C 91 % 1016,1 hPa 0,0 mm 0,0 km/h (0 Bft) S 184 ° 0 min 0,000 mm 0,0 UV-I 0 W/m² 3,6 °C 4,9 °C 0,0 km/h (0 Bft)
13.09.2017 03:00 4,9 °C 4,9 °C 91 % 1016,0 hPa 0,0 mm 0,0 km/h (0 Bft) S 184 ° 0 min 0,000 mm 0,0 UV-I 0 W/m² 3,6 °C 4,9 °C 0,0 km/h (0 Bft)
13.09.2017 03:01 5,1 °C 5,1 °C 91 % 1016,0 hPa 0,0 mm 0,0 km/h (0 Bft) S 184 ° 0 min 0,000 mm 0,0 UV-I 0 W/m² 3,8 °C 5,1 °C 0,0 km/h (0 Bft)
13.09.2017 03:02 5,1 °C 5,1 °C 92 % 1016,0 hPa 0,0 mm 0,0 km/h (0 Bft) S 184 ° 0 min 0,000 mm 0,0 UV-I 0 W/m² 3,9 °C 5,1 °C 0,0 km/h (0 Bft)
13.09.2017 03:03 5,1 °C 5,1 °C 91 % 1016,0 hPa 0,0 mm 0,0 km/h (0 Bft) S 184 ° 0 min 0,000 mm 0,0 UV-I 0 W/m² 3,8 °C 5,1 °C 0,0 km/h (0 Bft)
13.09.2017 03:04 5,1 °C 5,1 °C 90 % 1016,0 hPa 0,0 mm 0,0 km/h (0 Bft) S 184 ° 0 min 0,000 mm 0,0 UV-I 0 W/m² 3,6 °C 5,1 °C 0,0 km/h (0 Bft)
13.09.2017 03:05 4,9 °C 5,1 °C 90 % 1016,1 hPa 0,0 mm 0,0 km/h (0 Bft) S 184 ° 0 min 0,000 mm 0,0 UV-I 0 W/m² 3,4 °C 4,9 °C 0,0 km/h (0 Bft)
13.09.2017 03:06 4,9 °C 4,9 °C 90 % 1016,0 hPa 0,0 mm 0,0 km/h (0 Bft) S 184 ° 0 min 0,000 mm 0,0 UV-I 0 W/m² 3,4 °C 4,9 °C 0,0 km/h (0 Bft)
13.09.2017 03:07 4,9 °C 4,9 °C 91 % 1016,1 hPa 0,0 mm 0,0 km/h (0 Bft) S 184 ° 0 min 0,000 mm 0,0 UV-I 0 W/m² 3,6 °C 4,9 °C 0,0 km/h (0 Bft)
13.09.2017 03:08 4,9 °C 4,9 °C 91 % 1016,1 hPa 0,0 mm 0,1 km/h (0 Bft) S 184 ° 0 min 0,000 mm 0,0 UV-I 0 W/m² 3,6 °C 4,9 °C 1,6 km/h (1 Bft)
13.09.2017 03:09 5,0 °C 5,0 °C 91 % 1016,1 hPa 0,0 mm 0,0 km/h (0 Bft) S 184 ° 0 min 0,000 mm 0,0 UV-I 0 W/m² 3,7 °C 5,0 °C 0,0 km/h (0 Bft)
13.09.2017 03:10 5,1 °C 5,1 °C 92 % 1016,1 hPa 0,0 mm 0,3 km/h (0 Bft) S 184 ° 0 min 0,000 mm 0,0 UV-I 0 W/m² 3,9 °C 5,1 °C 1,6 km/h (1 Bft)
13.09.2017 03:11 5,3 °C 5,3 °C 92 % 1016,1 hPa 0,0 mm 1,2 km/h (1 Bft) S 184 ° 0 min 0,000 mm 0,0 UV-I 0 W/m² 4,1 °C 5,3 °C 3,2 km/h (1 Bft)
13.09.2017 03:12 5,4 °C 5,4 °C 91 % 1016,1 hPa 0,0 mm 1,1 km/h (1 Bft) S 184 ° 0 min 0,000 mm 0,0 UV-I 0 W/m² 4,1 °C 5,4 °C 3,2 km/h (1 Bft)
13.09.2017 03:13 5,4 °C 5,4 °C 90 % 1016,1 hPa 0,0 mm 0,2 km/h (0 Bft) S 184 ° 0 min 0,000 mm 0,0 UV-I 0 W/m² 3,9 °C 5,4 °C 1,6 km/h (1 Bft)
13.09.2017 03:14 5,4 °C 5,4 °C 90 % 1016,1 hPa 0,0 mm 0,0 km/h (0 Bft) S 184 ° 0 min 0,000 mm 0,0 UV-I 0 W/m² 3,9 °C 5,4 °C 0,0 km/h (0 Bft)
13.09.2017 03:15 5,4 °C 5,5 °C 89 % 1016,1 hPa 0,0 mm 0,0 km/h (0 Bft) S 184 ° 0 min 0,000 mm 0,0 UV-I 0 W/m² 3,7 °C 5,4 °C 0,0 km/h (0 Bft)
13.09.2017 03:16 5,3 °C 5,4 °C 89 % 1016,1 hPa 0,0 mm 0,0 km/h (0 Bft) S 184 ° 0 min 0,000 mm 0,0 UV-I 0 W/m² 3,6 °C 5,3 °C 0,0 km/h (0 Bft)
13.09.2017 03:17 5,3 °C 5,3 °C 89 % 1016,1 hPa 0,0 mm 0,0 km/h (0 Bft) S 184 ° 0 min 0,000 mm 0,0 UV-I 0 W/m² 3,6 °C 5,3 °C 0,0 km/h (0 Bft)
13.09.2017 03:18 5,2 °C 5,3 °C 89 % 1016,1 hPa 0,0 mm 0,0 km/h (0 Bft) S 184 ° 0 min 0,000 mm 0,0 UV-I 0 W/m² 3,5 °C 5,2 °C 0,0 km/h (0 Bft)
13.09.2017 03:19 5,1 °C 5,2 °C 89 % 1016,1 hPa 0,0 mm 0,0 km/h (0 Bft) S 184 ° 0 min 0,000 mm 0,0 UV-I 0 W/m² 3,4 °C 5,1 °C 0,0 km/h (0 Bft)
13.09.2017 03:20 5,0 °C 5,1 °C 90 % 1016,1 hPa 0,0 mm 0,0 km/h (0 Bft) S 184 ° 0 min 0,000 mm 0,0 UV-I 0 W/m² 3,5 °C 5,0 °C 0,0 km/h (0 Bft)
13.09.2017 03:21 4,9 °C 5,0 °C 90 % 1016,1 hPa 0,0 mm 0,7 km/h (0 Bft) S 184 ° 0 min 0,000 mm 0,0 UV-I 0 W/m² 3,4 °C 4,9 °C 3,2 km/h (1 Bft)
13.09.2017 03:22 4,8 °C 4,9 °C 90 % 1016,1 hPa 0,0 mm 1,4 km/h (1 Bft) S 184 ° 0 min 0,000 mm 0,0 UV-I 0 W/m² 3,3 °C 4,8 °C 3,2 km/h (1 Bft)
13.09.2017 03:23 4,8 °C 4,8 °C 90 % 1016,0 hPa 0,0 mm 0,0 km/h (0 Bft) S 184 ° 0 min 0,000 mm 0,0 UV-I 0 W/m² 3,3 °C 4,8 °C 0,0 km/h (0 Bft)
13.09.2017 03:24 4,8 °C 4,8 °C 91 % 1016,0 hPa 0,0 mm 0,0 km/h (0 Bft) S 184 ° 0 min 0,000 mm 0,0 UV-I 0 W/m² 3,5 °C 4,8 °C 0,0 km/h (0 Bft)
13.09.2017 03:25 4,8 °C 4,8 °C 91 % 1016,0 hPa 0,0 mm 0,0 km/h (0 Bft) S 184 ° 0 min 0,000 mm 0,0 UV-I 0 W/m² 3,5 °C 4,8 °C 0,0 km/h (0 Bft)
13.09.2017 03:26 4,8 °C 4,8 °C 91 % 1016,0 hPa 0,0 mm 0,0 km/h (0 Bft) S 184 ° 0 min 0,000 mm 0,0 UV-I 0 W/m² 3,5 °C 4,8 °C 0,0 km/h (0 Bft)
13.09.2017 03:27 4,8 °C 4,8 °C 91 % 1016,0 hPa 0,0 mm 0,0 km/h (0 Bft) S 184 ° 0 min 0,000 mm 0,0 UV-I 0 W/m² 3,5 °C 4,8 °C 0,0 km/h (0 Bft)
13.09.2017 03:28 4,8 °C 4,8 °C 91 % 1016,0 hPa 0,0 mm 0,1 km/h (0 Bft) S 184 ° 0 min 0,000 mm 0,0 UV-I 0 W/m² 3,5 °C 4,8 °C 1,6 km/h (1 Bft)
13.09.2017 03:29 4,8 °C 4,8 °C 91 % 1015,9 hPa 0,0 mm 2,1 km/h (1 Bft) S 184 ° 0 min 0,000 mm 0,0 UV-I 0 W/m² 3,5 °C 4,8 °C 4,8 km/h (1 Bft)
13.09.2017 03:30 4,8 °C 4,8 °C 91 % 1015,9 hPa 0,0 mm 0,8 km/h (0 Bft) S 184 ° 0 min 0,000 mm 0,0 UV-I 0 W/m² 3,5 °C 4,8 °C 1,6 km/h (1 Bft)
13.09.2017 03:31 4,9 °C 4,9 °C 91 % 1015,9 hPa 0,0 mm 0,3 km/h (0 Bft) S 184 ° 0 min 0,000 mm 0,0 UV-I 0 W/m² 3,6 °C 4,9 °C 1,6 km/h (1 Bft)
13.09.2017 03:32 5,0 °C 5,1 °C 91 % 1015,9 hPa 0,0 mm 0,0 km/h (0 Bft) S 184 ° 0 min 0,000 mm 0,0 UV-I 0 W/m² 3,7 °C 5,0 °C 0,0 km/h (0 Bft)
13.09.2017 03:33 5,1 °C 5,1 °C 91 % 1015,9 hPa 0,0 mm 0,0 km/h (0 Bft) S 184 ° 0 min 0,000 mm 0,0 UV-I 0 W/m² 3,8 °C 5,1 °C 0,0 km/h (0 Bft)
13.09.2017 03:34 5,1 °C 5,2 °C 90 % 1015,9 hPa 0,0 mm 0,0 km/h (0 Bft) S 184 ° 0 min 0,000 mm 0,0 UV-I 0 W/m² 3,6 °C 5,1 °C 0,0 km/h (0 Bft)
13.09.2017 03:35 5,2 °C 5,2 °C 91 % 1015,9 hPa 0,0 mm 0,0 km/h (0 Bft) S 184 ° 0 min 0,000 mm 0,0 UV-I 0 W/m² 3,9 °C 5,2 °C 0,0 km/h (0 Bft)
13.09.2017 03:36 5,2 °C 5,2 °C 90 % 1015,9 hPa 0,0 mm 0,0 km/h (0 Bft) S 184 ° 0 min 0,000 mm 0,0 UV-I 0 W/m² 3,7 °C 5,2 °C 0,0 km/h (0 Bft)
13.09.2017 03:37 5,2 °C 5,2 °C 90 % 1015,9 hPa 0,0 mm 0,0 km/h (0 Bft) S 184 ° 0 min 0,000 mm 0,0 UV-I 0 W/m² 3,7 °C 5,2 °C 0,0 km/h (0 Bft)
13.09.2017 03:38 5,1 °C 5,2 °C 90 % 1015,8 hPa 0,0 mm 0,0 km/h (0 Bft) S 184 ° 0 min 0,000 mm 0,0 UV-I 0 W/m² 3,6 °C 5,1 °C 0,0 km/h (0 Bft)
13.09.2017 03:39 5,1 °C 5,1 °C 90 % 1015,9 hPa 0,0 mm 0,0 km/h (0 Bft) S 184 ° 0 min 0,000 mm 0,0 UV-I 0 W/m² 3,6 °C 5,1 °C 0,0 km/h (0 Bft)
13.09.2017 03:40 5,0 °C 5,1 °C 90 % 1015,9 hPa 0,0 mm 0,0 km/h (0 Bft) S 184 ° 0 min 0,000 mm 0,0 UV-I 0 W/m² 3,5 °C 5,0 °C 0,0 km/h (0 Bft)
13.09.2017 03:41 4,9 °C 5,0 °C 90 % 1016,0 hPa 0,0 mm 0,0 km/h (0 Bft) S 184 ° 0 min 0,000 mm 0,0 UV-I 0 W/m² 3,4 °C 4,9 °C 0,0 km/h (0 Bft)
13.09.2017 03:42 4,9 °C 4,9 °C 90 % 1015,9 hPa 0,0 mm 0,0 km/h (0 Bft) S 184 ° 0 min 0,000 mm 0,0 UV-I 0 W/m² 3,4 °C 4,9 °C 0,0 km/h (0 Bft)
13.09.2017 03:43 4,9 °C 4,9 °C 90 % 1015,9 hPa 0,0 mm 0,0 km/h (0 Bft) S 184 ° 0 min 0,000 mm 0,0 UV-I 0 W/m² 3,4 °C 4,9 °C 0,0 km/h (0 Bft)
13.09.2017 03:44 4,8 °C 4,9 °C 91 % 1015,9 hPa 0,0 mm 0,0 km/h (0 Bft) S 184 ° 0 min 0,000 mm 0,0 UV-I 0 W/m² 3,5 °C 4,8 °C 0,0 km/h (0 Bft)
13.09.2017 03:45 4,8 °C 4,8 °C 91 % 1015,9 hPa 0,0 mm 0,0 km/h (0 Bft) S 184 ° 0 min 0,000 mm 0,0 UV-I 0 W/m² 3,5 °C 4,8 °C 0,0 km/h (0 Bft)
13.09.2017 03:46 4,8 °C 4,8 °C 91 % 1015,8 hPa 0,0 mm 0,0 km/h (0 Bft) S 184 ° 0 min 0,000 mm 0,0 UV-I 0 W/m² 3,5 °C 4,8 °C 0,0 km/h (0 Bft)
13.09.2017 03:47 4,8 °C 4,8 °C 91 % 1015,9 hPa 0,0 mm 0,0 km/h (0 Bft) S 184 ° 0 min 0,000 mm 0,0 UV-I 0 W/m² 3,5 °C 4,8 °C 0,0 km/h (0 Bft)
13.09.2017 03:48 4,9 °C 4,9 °C 91 % 1015,9 hPa 0,0 mm 0,0 km/h (0 Bft) S 184 ° 0 min 0,000 mm 0,0 UV-I 0 W/m² 3,6 °C 4,9 °C 0,0 km/h (0 Bft)
13.09.2017 03:49 4,9 °C 4,9 °C 91 % 1015,8 hPa 0,0 mm 0,6 km/h (0 Bft) S 184 ° 0 min 0,000 mm 0,0 UV-I 0 W/m² 3,6 °C 4,9 °C 3,2 km/h (1 Bft)
13.09.2017 03:50 4,9 °C 4,9 °C 91 % 1015,8 hPa 0,0 mm 2,3 km/h (1 Bft) S 184 ° 0 min 0,000 mm 0,0 UV-I 0 W/m² 3,6 °C 4,9 °C 3,2 km/h (1 Bft)
13.09.2017 03:51 5,1 °C 5,1 °C 92 % 1015,8 hPa 0,0 mm 2,2 km/h (1 Bft) S 184 ° 0 min 0,000 mm 0,0 UV-I 0 W/m² 3,9 °C 5,1 °C 3,2 km/h (1 Bft)
13.09.2017 03:52 5,1 °C 5,1 °C 91 % 1015,8 hPa 0,0 mm 1,3 km/h (1 Bft) S 184 ° 0 min 0,000 mm 0,0 UV-I 0 W/m² 3,8 °C 5,1 °C 3,2 km/h (1 Bft)
13.09.2017 03:53 5,0 °C 5,1 °C 91 % 1015,8 hPa 0,0 mm 0,3 km/h (0 Bft) S 184 ° 0 min 0,000 mm 0,0 UV-I 0 W/m² 3,7 °C 5,0 °C 1,6 km/h (1 Bft)
13.09.2017 03:54 5,0 °C 5,1 °C 91 % 1015,8 hPa 0,0 mm 0,0 km/h (0 Bft) S 184 ° 0 min 0,000 mm 0,0 UV-I 0 W/m² 3,7 °C 5,0 °C 0,0 km/h (0 Bft)
13.09.2017 03:55 5,1 °C 5,1 °C 91 % 1015,8 hPa 0,0 mm 0,7 km/h (0 Bft) S 184 ° 0 min 0,000 mm 0,0 UV-I 0 W/m² 3,8 °C 5,1 °C 1,6 km/h (1 Bft)
13.09.2017 03:56 5,2 °C 5,2 °C 92 % 1015,8 hPa 0,0 mm 0,9 km/h (0 Bft) S 184 ° 0 min 0,000 mm 0,0 UV-I 0 W/m² 4,0 °C 5,2 °C 3,2 km/h (1 Bft)
13.09.2017 03:57 5,2 °C 5,2 °C 91 % 1015,8 hPa 0,0 mm 0,3 km/h (0 Bft) S 184 ° 0 min 0,000 mm 0,0 UV-I 0 W/m² 3,9 °C 5,2 °C 1,6 km/h (1 Bft)
13.09.2017 03:58 5,2 °C 5,2 °C 91 % 1015,7 hPa 0,0 mm 0,7 km/h (0 Bft) S 184 ° 0 min 0,000 mm 0,0 UV-I 0 W/m² 3,9 °C 5,2 °C 1,6 km/h (1 Bft)
13.09.2017 03:59 5,3 °C 5,3 °C 91 % 1015,7 hPa 0,0 mm 0,0 km/h (0 Bft) S 184 ° 0 min 0,000 mm 0,0 UV-I 0 W/m² 4,0 °C 5,3 °C 0,0 km/h (0 Bft)
13.09.2017 04:00 5,3 °C 5,4 °C 91 % 1015,7 hPa 0,0 mm 0,0 km/h (0 Bft) S 184 ° 0 min 0,000 mm 0,0 UV-I 0 W/m² 4,0 °C 5,3 °C 0,0 km/h (0 Bft)
13.09.2017 04:01 5,4 °C 5,4 °C 91 % 1015,7 hPa 0,0 mm 0,0 km/h (0 Bft) S 184 ° 0 min 0,000 mm 0,0 UV-I 0 W/m² 4,1 °C 5,4 °C 0,0 km/h (0 Bft)
13.09.2017 04:02 5,4 °C 5,4 °C 90 % 1015,7 hPa 0,0 mm 0,0 km/h (0 Bft) S 184 ° 0 min 0,000 mm 0,0 UV-I 0 W/m² 3,9 °C 5,4 °C 0,0 km/h (0 Bft)
13.09.2017 04:03 5,4 °C 5,4 °C 91 % 1015,7 hPa 0,0 mm 1,5 km/h (1 Bft) S 184 ° 0 min 0,000 mm 0,0 UV-I 0 W/m² 4,1 °C 5,4 °C 3,2 km/h (1 Bft)
13.09.2017 04:04 5,4 °C 5,4 °C 90 % 1015,6 hPa 0,0 mm 2,2 km/h (1 Bft) S 184 ° 0 min 0,000 mm 0,0 UV-I 0 W/m² 3,9 °C 5,4 °C 3,2 km/h (1 Bft)
13.09.2017 04:05 5,5 °C 5,5 °C 90 % 1015,6 hPa 0,0 mm 2,3 km/h (1 Bft) S 184 ° 0 min 0,000 mm 0,0 UV-I 0 W/m² 4,0 °C 5,5 °C 4,8 km/h (1 Bft)
13.09.2017 04:06 5,5 °C 5,5 °C 90 % 1015,7 hPa 0,0 mm 0,0 km/h (0 Bft) S 184 ° 0 min 0,000 mm 0,0 UV-I 0 W/m² 4,0 °C 5,5 °C 0,0 km/h (0 Bft)
13.09.2017 04:07 5,5 °C 5,5 °C 90 % 1015,7 hPa 0,0 mm 0,0 km/h (0 Bft) S 184 ° 0 min 0,000 mm 0,0 UV-I 0 W/m² 4,0 °C 5,5 °C 0,0 km/h (0 Bft)
13.09.2017 04:08 5,5 °C 5,5 °C 90 % 1015,6 hPa 0,0 mm 0,0 km/h (0 Bft) S 184 ° 0 min 0,000 mm 0,0 UV-I 0 W/m² 4,0 °C 5,5 °C 0,0 km/h (0 Bft)
13.09.2017 04:09 5,5 °C 5,5 °C 90 % 1015,6 hPa 0,0 mm 1,2 km/h (1 Bft) S 184 ° 0 min 0,000 mm 0,0 UV-I 0 W/m² 4,0 °C 5,5 °C 3,2 km/h (1 Bft)
13.09.2017 04:10 5,5 °C 5,6 °C 90 % 1015,6 hPa 0,0 mm 1,1 km/h (1 Bft) S 184 ° 0 min 0,000 mm 0,0 UV-I 0 W/m² 4,0 °C 5,5 °C 1,6 km/h (1 Bft)
13.09.2017 04:11 5,5 °C 5,6 °C 89 % 1015,5 hPa 0,0 mm 0,8 km/h (0 Bft) S 184 ° 0 min 0,000 mm 0,0 UV-I 0 W/m² 3,8 °C 5,5 °C 1,6 km/h (1 Bft)
13.09.2017 04:12 5,5 °C 5,6 °C 89 % 1015,5 hPa 0,0 mm 0,1 km/h (0 Bft) S 184 ° 0 min 0,000 mm 0,0 UV-I 0 W/m² 3,8 °C 5,5 °C 1,6 km/h (1 Bft)
13.09.2017 04:13 5,5 °C 5,5 °C 89 % 1015,5 hPa 0,0 mm 0,5 km/h (0 Bft) S 184 ° 0 min 0,000 mm 0,0 UV-I 0 W/m² 3,8 °C 5,5 °C 3,2 km/h (1 Bft)
13.09.2017 04:14 5,4 °C 5,5 °C 89 % 1015,4 hPa 0,0 mm 3,4 km/h (1 Bft) S 183 ° 0 min 0,000 mm 0,0 UV-I 0 W/m² 3,7 °C 5,4 °C 4,8 km/h (1 Bft)
13.09.2017 04:15 5,5 °C 5,5 °C 90 % 1015,4 hPa 0,0 mm 2,5 km/h (1 Bft) S 183 ° 0 min 0,000 mm 0,0 UV-I 0 W/m² 4,0 °C 5,5 °C 3,2 km/h (1 Bft)
13.09.2017 04:16 5,5 °C 5,5 °C 90 % 1015,4 hPa 0,0 mm 2,1 km/h (1 Bft) O-SO 105 ° 0 min 0,000 mm 0,0 UV-I 0 W/m² 4,0 °C 5,5 °C 3,2 km/h (1 Bft)
13.09.2017 04:17 5,4 °C 5,5 °C 90 % 1015,3 hPa 0,0 mm 2,4 km/h (1 Bft) O-SO 105 ° 0 min 0,000 mm 0,0 UV-I 0 W/m² 3,9 °C 5,4 °C 3,2 km/h (1 Bft)
13.09.2017 04:18 5,4 °C 5,4 °C 90 % 1015,3 hPa 0,0 mm 2,0 km/h (1 Bft) O-SO 105 ° 0 min 0,000 mm 0,0 UV-I 0 W/m² 3,9 °C 5,4 °C 3,2 km/h (1 Bft)
13.09.2017 04:19 5,4 °C 5,4 °C 90 % 1015,2 hPa 0,0 mm 1,2 km/h (1 Bft) O-SO 105 ° 0 min 0,000 mm 0,0 UV-I 0 W/m² 3,9 °C 5,4 °C 3,2 km/h (1 Bft)
13.09.2017 04:20 5,3 °C 5,4 °C 90 % 1015,3 hPa 0,0 mm 0,0 km/h (0 Bft) O-SO 105 ° 0 min 0,000 mm 0,0 UV-I 0 W/m² 3,8 °C 5,3 °C 0,0 km/h (0 Bft)
13.09.2017 04:21 5,3 °C 5,3 °C 90 % 1015,2 hPa 0,0 mm 0,0 km/h (0 Bft) O-SO 105 ° 0 min 0,000 mm 0,0 UV-I 0 W/m² 3,8 °C 5,3 °C 0,0 km/h (0 Bft)
13.09.2017 04:22 5,3 °C 5,3 °C 90 % 1015,2 hPa 0,0 mm 0,6 km/h (0 Bft) O-SO 105 ° 0 min 0,000 mm 0,0 UV-I 0 W/m² 3,8 °C 5,3 °C 1,6 km/h (1 Bft)
13.09.2017 04:23 5,3 °C 5,3 °C 90 % 1015,3 hPa 0,0 mm 1,5 km/h (1 Bft) O-SO 109 ° 0 min 0,000 mm 0,0 UV-I 0 W/m² 3,8 °C 5,3 °C 3,2 km/h (1 Bft)
13.09.2017 04:24 5,3 °C 5,3 °C 90 % 1015,2 hPa 0,0 mm 1,2 km/h (1 Bft) O-SO 109 ° 0 min 0,000 mm 0,0 UV-I 0 W/m² 3,8 °C 5,3 °C 3,2 km/h (1 Bft)
13.09.2017 04:25 5,4 °C 5,4 °C 90 % 1015,2 hPa 0,0 mm 1,4 km/h (1 Bft) O-SO 109 ° 0 min 0,000 mm 0,0 UV-I 0 W/m² 3,9 °C 5,4 °C 3,2 km/h (1 Bft)
13.09.2017 04:26 5,3 °C 5,4 °C 90 % 1015,2 hPa 0,0 mm 0,7 km/h (0 Bft) O-SO 109 ° 0 min 0,000 mm 0,0 UV-I 0 W/m² 3,8 °C 5,3 °C 1,6 km/h (1 Bft)
13.09.2017 04:27 5,3 °C 5,4 °C 90 % 1015,2 hPa 0,0 mm 1,9 km/h (1 Bft) O-SO 109 ° 0 min 0,000 mm 0,0 UV-I 0 W/m² 3,8 °C 5,3 °C 3,2 km/h (1 Bft)
13.09.2017 04:28 5,4 °C 5,4 °C 90 % 1015,2 hPa 0,0 mm 3,4 km/h (1 Bft) SO 136 ° 0 min 0,000 mm 0,0 UV-I 0 W/m² 3,9 °C 5,4 °C 4,8 km/h (1 Bft)
13.09.2017 04:29 5,4 °C 5,4 °C 90 % 1015,2 hPa 0,0 mm 2,1 km/h (1 Bft) SO 146 ° 0 min 0,000 mm 0,0 UV-I 0 W/m² 3,9 °C 5,4 °C 6,4 km/h (2 Bft)
13.09.2017 04:30 5,5 °C 5,5 °C 89 % 1015,2 hPa 0,0 mm 0,8 km/h (0 Bft) SO 146 ° 0 min 0,000 mm 0,0 UV-I 0 W/m² 3,8 °C 5,5 °C 3,2 km/h (1 Bft)
13.09.2017 04:31 5,4 °C 5,5 °C 89 % 1015,2 hPa 0,0 mm 1,7 km/h (1 Bft) W-NW 283 ° 0 min 0,000 mm 0,0 UV-I 0 W/m² 3,7 °C 5,4 °C 3,2 km/h (1 Bft)
13.09.2017 04:32 5,4 °C 5,4 °C 89 % 1015,2 hPa 0,0 mm 0,0 km/h (0 Bft) W-NW 283 ° 0 min 0,000 mm 0,0 UV-I 0 W/m² 3,7 °C 5,4 °C 0,0 km/h (0 Bft)
13.09.2017 04:33 5,3 °C 5,4 °C 89 % 1015,2 hPa 0,0 mm 0,3 km/h (0 Bft) W-NW 283 ° 0 min 0,000 mm 0,0 UV-I 0 W/m² 3,6 °C 5,3 °C 1,6 km/h (1 Bft)
13.09.2017 04:34 5,3 °C 5,3 °C 89 % 1015,2 hPa 0,0 mm 0,0 km/h (0 Bft) W-NW 283 ° 0 min 0,000 mm 0,0 UV-I 0 W/m² 3,6 °C 5,3 °C 0,0 km/h (0 Bft)
13.09.2017 04:35 5,3 °C 5,3 °C 89 % 1015,2 hPa 0,0 mm 0,0 km/h (0 Bft) W-NW 283 ° 0 min 0,000 mm 0,0 UV-I 0 W/m² 3,6 °C 5,3 °C 0,0 km/h (0 Bft)
13.09.2017 04:36 5,2 °C 5,3 °C 89 % 1015,2 hPa 0,0 mm 0,9 km/h (0 Bft) W-NW 282 ° 0 min 0,000 mm 0,0 UV-I 0 W/m² 3,5 °C 5,2 °C 3,2 km/h (1 Bft)
13.09.2017 04:37 5,2 °C 5,3 °C 89 % 1015,1 hPa 0,0 mm 0,1 km/h (0 Bft) W-NW 282 ° 0 min 0,000 mm 0,0 UV-I 0 W/m² 3,5 °C 5,2 °C 1,6 km/h (1 Bft)
13.09.2017 04:38 5,2 °C 5,2 °C 89 % 1015,2 hPa 0,0 mm 0,3 km/h (0 Bft) W-NW 282 ° 0 min 0,000 mm 0,0 UV-I 0 W/m² 3,5 °C 5,2 °C 1,6 km/h (1 Bft)
13.09.2017 04:39 5,2 °C 5,2 °C 89 % 1015,2 hPa 0,0 mm 0,9 km/h (0 Bft) W-NW 282 ° 0 min 0,000 mm 0,0 UV-I 0 W/m² 3,5 °C 5,2 °C 1,6 km/h (1 Bft)
13.09.2017 04:40 5,1 °C 5,2 °C 89 % 1015,1 hPa 0,0 mm 0,2 km/h (0 Bft) W-NW 282 ° 0 min 0,000 mm 0,0 UV-I 0 W/m² 3,4 °C 5,1 °C 1,6 km/h (1 Bft)
13.09.2017 04:41 4,8 °C 5,1 °C 88 % 1015,1 hPa 0,0 mm 0,0 km/h (0 Bft) W-NW 282 ° 0 min 0,000 mm 0,0 UV-I 0 W/m² 3,0 °C 4,8 °C 0,0 km/h (0 Bft)
13.09.2017 04:42 4,7 °C 4,8 °C 89 % 1015,1 hPa 0,0 mm 0,0 km/h (0 Bft) W-NW 282 ° 0 min 0,000 mm 0,0 UV-I 0 W/m² 3,0 °C 4,7 °C 0,0 km/h (0 Bft)
13.09.2017 04:43 4,6 °C 4,7 °C 90 % 1015,1 hPa 0,0 mm 0,0 km/h (0 Bft) W-NW 282 ° 0 min 0,000 mm 0,0 UV-I 0 W/m² 3,1 °C 4,6 °C 0,0 km/h (0 Bft)
13.09.2017 04:44 4,5 °C 4,6 °C 90 % 1015,1 hPa 0,0 mm 0,0 km/h (0 Bft) W-NW 282 ° 0 min 0,000 mm 0,0 UV-I 0 W/m² 3,0 °C 4,5 °C 0,0 km/h (0 Bft)
13.09.2017 04:45 4,5 °C 4,5 °C 90 % 1015,1 hPa 0,0 mm 0,0 km/h (0 Bft) W-NW 282 ° 0 min 0,000 mm 0,0 UV-I 0 W/m² 3,0 °C 4,5 °C 0,0 km/h (0 Bft)
13.09.2017 04:46 4,4 °C 4,5 °C 90 % 1015,1 hPa 0,0 mm 0,0 km/h (0 Bft) W-NW 282 ° 0 min 0,000 mm 0,0 UV-I 0 W/m² 2,9 °C 4,4 °C 0,0 km/h (0 Bft)
13.09.2017 04:47 4,3 °C 4,4 °C 90 % 1015,0 hPa 0,0 mm 0,0 km/h (0 Bft) W-NW 282 ° 0 min 0,000 mm 0,0 UV-I 0 W/m² 2,8 °C 4,3 °C 0,0 km/h (0 Bft)
13.09.2017 04:48 4,3 °C 4,3 °C 90 % 1015,0 hPa 0,0 mm 0,0 km/h (0 Bft) W-NW 282 ° 0 min 0,000 mm 0,0 UV-I 0 W/m² 2,8 °C 4,3 °C 0,0 km/h (0 Bft)
13.09.2017 04:49 4,2 °C 4,3 °C 91 % 1015,0 hPa 0,0 mm 0,0 km/h (0 Bft) W-NW 282 ° 0 min 0,000 mm 0,0 UV-I 0 W/m² 2,9 °C 4,2 °C 0,0 km/h (0 Bft)
13.09.2017 04:50 4,2 °C 4,2 °C 91 % 1015,0 hPa 0,0 mm 0,0 km/h (0 Bft) W-NW 282 ° 0 min 0,000 mm 0,0 UV-I 0 W/m² 2,9 °C 4,2 °C 0,0 km/h (0 Bft)
13.09.2017 04:51 4,2 °C 4,2 °C 91 % 1015,0 hPa 0,0 mm 0,0 km/h (0 Bft) W-NW 282 ° 0 min 0,000 mm 0,0 UV-I 0 W/m² 2,9 °C 4,2 °C 0,0 km/h (0 Bft)
13.09.2017 04:52 4,2 °C 4,2 °C 91 % 1014,9 hPa 0,0 mm 0,0 km/h (0 Bft) W-NW 282 ° 0 min 0,000 mm 0,0 UV-I 0 W/m² 2,9 °C 4,2 °C 0,0 km/h (0 Bft)
13.09.2017 04:53 4,1 °C 4,2 °C 91 % 1014,9 hPa 0,0 mm 0,0 km/h (0 Bft) W-NW 282 ° 0 min 0,000 mm 0,0 UV-I 0 W/m² 2,8 °C 4,1 °C 0,0 km/h (0 Bft)
13.09.2017 04:54 4,0 °C 4,1 °C 91 % 1014,9 hPa 0,0 mm 0,0 km/h (0 Bft) W-NW 282 ° 0 min 0,000 mm 0,0 UV-I 0 W/m² 2,7 °C 4,0 °C 0,0 km/h (0 Bft)
13.09.2017 04:55 4,0 °C 4,1 °C 91 % 1014,9 hPa 0,0 mm 0,0 km/h (0 Bft) W-NW 282 ° 0 min 0,000 mm 0,0 UV-I 0 W/m² 2,7 °C 4,0 °C 0,0 km/h (0 Bft)
13.09.2017 04:56 3,9 °C 4,0 °C 91 % 1014,9 hPa 0,0 mm 0,0 km/h (0 Bft) W-NW 282 ° 0 min 0,000 mm 0,0 UV-I 0 W/m² 2,6 °C 3,9 °C 0,0 km/h (0 Bft)
13.09.2017 04:57 3,9 °C 3,9 °C 92 % 1014,9 hPa 0,0 mm 0,0 km/h (0 Bft) W-NW 282 ° 0 min 0,000 mm 0,0 UV-I 0 W/m² 2,7 °C 3,9 °C 0,0 km/h (0 Bft)
13.09.2017 04:58 3,9 °C 3,9 °C 92 % 1014,9 hPa 0,0 mm 0,0 km/h (0 Bft) W-NW 282 ° 0 min 0,000 mm 0,0 UV-I 0 W/m² 2,7 °C 3,9 °C 0,0 km/h (0 Bft)
13.09.2017 04:59 3,9 °C 4,0 °C 92 % 1014,8 hPa 0,0 mm 0,0 km/h (0 Bft) W-NW 282 ° 0 min 0,000 mm 0,0 UV-I 0 W/m² 2,7 °C 3,9 °C 0,0 km/h (0 Bft)
13.09.2017 05:00 3,9 °C 3,9 °C 92 % 1014,9 hPa 0,0 mm 0,0 km/h (0 Bft) W-NW 282 ° 0 min 0,000 mm 0,0 UV-I 0 W/m² 2,7 °C 3,9 °C 0,0 km/h (0 Bft)
13.09.2017 05:01 3,9 °C 3,9 °C 92 % 1014,9 hPa 0,0 mm 0,0 km/h (0 Bft) W-NW 282 ° 0 min 0,000 mm 0,0 UV-I 0 W/m² 2,7 °C 3,9 °C 0,0 km/h (0 Bft)
13.09.2017 05:02 3,9 °C 3,9 °C 92 % 1014,8 hPa 0,0 mm 0,0 km/h (0 Bft) W-NW 282 ° 0 min 0,000 mm 0,0 UV-I 0 W/m² 2,7 °C 3,9 °C 0,0 km/h (0 Bft)
13.09.2017 05:03 3,9 °C 3,9 °C 92 % 1014,9 hPa 0,0 mm 0,0 km/h (0 Bft) W-NW 282 ° 0 min 0,000 mm 0,0 UV-I 0 W/m² 2,7 °C 3,9 °C 0,0 km/h (0 Bft)
13.09.2017 05:04 3,9 °C 3,9 °C 92 % 1014,8 hPa 0,0 mm 0,0 km/h (0 Bft) W-NW 282 ° 0 min 0,000 mm 0,0 UV-I 0 W/m² 2,7 °C 3,9 °C 0,0 km/h (0 Bft)
13.09.2017 05:05 3,9 °C 3,9 °C 92 % 1014,8 hPa 0,0 mm 0,0 km/h (0 Bft) W-NW 282 ° 0 min 0,000 mm 0,0 UV-I 0 W/m² 2,7 °C 3,9 °C 0,0 km/h (0 Bft)
13.09.2017 05:06 3,9 °C 3,9 °C 92 % 1014,7 hPa 0,0 mm 0,0 km/h (0 Bft) W-NW 282 ° 0 min 0,000 mm 0,0 UV-I 0 W/m² 2,7 °C 3,9 °C 0,0 km/h (0 Bft)
13.09.2017 05:07 3,9 °C 3,9 °C 92 % 1014,6 hPa 0,0 mm 0,0 km/h (0 Bft) W-NW 282 ° 0 min 0,000 mm 0,0 UV-I 0 W/m² 2,7 °C 3,9 °C 0,0 km/h (0 Bft)
13.09.2017 05:08 3,9 °C 3,9 °C 92 % 1014,6 hPa 0,0 mm 0,0 km/h (0 Bft) W-NW 282 ° 0 min 0,000 mm 0,0 UV-I 0 W/m² 2,7 °C 3,9 °C 0,0 km/h (0 Bft)
13.09.2017 05:09 3,9 °C 3,9 °C 92 % 1014,6 hPa 0,0 mm 0,0 km/h (0 Bft) W-NW 282 ° 0 min 0,000 mm 0,0 UV-I 0 W/m² 2,7 °C 3,9 °C 0,0 km/h (0 Bft)
13.09.2017 05:10 3,9 °C 3,9 °C 92 % 1014,6 hPa 0,0 mm 0,1 km/h (0 Bft) W-NW 282 ° 0 min 0,000 mm 0,0 UV-I 0 W/m² 2,7 °C 3,9 °C 1,6 km/h (1 Bft)
13.09.2017 05:11 3,9 °C 3,9 °C 93 % 1014,6 hPa 0,0 mm 0,0 km/h (0 Bft) W-NW 282 ° 0 min 0,000 mm 0,0 UV-I 0 W/m² 2,9 °C 3,9 °C 0,0 km/h (0 Bft)
13.09.2017 05:12 3,9 °C 3,9 °C 93 % 1014,5 hPa 0,0 mm 0,0 km/h (0 Bft) W-NW 282 ° 0 min 0,000 mm 0,0 UV-I 0 W/m² 2,9 °C 3,9 °C 0,0 km/h (0 Bft)
13.09.2017 05:13 4,0 °C 4,0 °C 93 % 1014,5 hPa 0,0 mm 0,0 km/h (0 Bft) W-NW 282 ° 0 min 0,000 mm 0,0 UV-I 0 W/m² 3,0 °C 4,0 °C 0,0 km/h (0 Bft)
13.09.2017 05:14 4,0 °C 4,1 °C 93 % 1014,6 hPa 0,0 mm 0,0 km/h (0 Bft) W-NW 282 ° 0 min 0,000 mm 0,0 UV-I 0 W/m² 3,0 °C 4,0 °C 0,0 km/h (0 Bft)
13.09.2017 05:15 4,0 °C 4,1 °C 93 % 1014,5 hPa 0,0 mm 0,0 km/h (0 Bft) W-NW 282 ° 0 min 0,000 mm 0,0 UV-I 0 W/m² 3,0 °C 4,0 °C 0,0 km/h (0 Bft)
13.09.2017 05:16 4,1 °C 4,1 °C 93 % 1014,5 hPa 0,0 mm 0,7 km/h (0 Bft) W-NW 282 ° 0 min 0,000 mm 0,0 UV-I 0 W/m² 3,1 °C 4,1 °C 3,2 km/h (1 Bft)
13.09.2017 05:17 4,1 °C 4,1 °C 93 % 1014,5 hPa 0,0 mm 0,0 km/h (0 Bft) W-NW 282 ° 0 min 0,000 mm 0,0 UV-I 0 W/m² 3,1 °C 4,1 °C 0,0 km/h (0 Bft)
13.09.2017 05:18 4,1 °C 4,1 °C 93 % 1014,5 hPa 0,0 mm 0,0 km/h (0 Bft) W-NW 282 ° 0 min 0,000 mm 0,0 UV-I 0 W/m² 3,1 °C 4,1 °C 0,0 km/h (0 Bft)
13.09.2017 05:19 4,1 °C 4,1 °C 93 % 1014,5 hPa 0,0 mm 0,2 km/h (0 Bft) W-NW 282 ° 0 min 0,000 mm 0,0 UV-I 0 W/m² 3,1 °C 4,1 °C 1,6 km/h (1 Bft)
13.09.2017 05:20 4,1 °C 4,1 °C 93 % 1014,6 hPa 0,0 mm 0,4 km/h (0 Bft) W-NW 282 ° 0 min 0,000 mm 0,0 UV-I 0 W/m² 3,1 °C 4,1 °C 1,6 km/h (1 Bft)
13.09.2017 05:21 4,1 °C 4,1 °C 93 % 1014,6 hPa 0,0 mm 0,9 km/h (0 Bft) W-NW 282 ° 0 min 0,000 mm 0,0 UV-I 0 W/m² 3,1 °C 4,1 °C 3,2 km/h (1 Bft)
13.09.2017 05:22 4,2 °C 4,2 °C 93 % 1014,6 hPa 0,0 mm 0,0 km/h (0 Bft) W-NW 282 ° 0 min 0,000 mm 0,0 UV-I 0 W/m² 3,2 °C 4,2 °C 0,0 km/h (0 Bft)
13.09.2017 05:23 4,2 °C 4,2 °C 93 % 1014,6 hPa 0,0 mm 0,2 km/h (0 Bft) W-NW 282 ° 0 min 0,000 mm 0,0 UV-I 0 W/m² 3,2 °C 4,2 °C 1,6 km/h (1 Bft)
13.09.2017 05:24 4,3 °C 4,3 °C 93 % 1014,6 hPa 0,0 mm 0,1 km/h (0 Bft) W-NW 282 ° 0 min 0,000 mm 0,0 UV-I 0 W/m² 3,3 °C 4,3 °C 1,6 km/h (1 Bft)
13.09.2017 05:25 4,3 °C 4,3 °C 93 % 1014,6 hPa 0,0 mm 0,0 km/h (0 Bft) W-NW 282 ° 0 min 0,000 mm 0,0 UV-I 0 W/m² 3,3 °C 4,3 °C 0,0 km/h (0 Bft)
13.09.2017 05:26 4,3 °C 4,3 °C 93 % 1014,6 hPa 0,0 mm 0,0 km/h (0 Bft) W-NW 282 ° 0 min 0,000 mm 0,0 UV-I 0 W/m² 3,3 °C 4,3 °C 0,0 km/h (0 Bft)
13.09.2017 05:27 4,2 °C 4,3 °C 92 % 1014,6 hPa 0,0 mm 0,0 km/h (0 Bft) W-NW 282 ° 0 min 0,000 mm 0,0 UV-I 0 W/m² 3,0 °C 4,2 °C 0,0 km/h (0 Bft)
13.09.2017 05:28 4,2 °C 4,2 °C 92 % 1014,5 hPa 0,0 mm 0,0 km/h (0 Bft) W-NW 282 ° 0 min 0,000 mm 0,0 UV-I 0 W/m² 3,0 °C 4,2 °C 0,0 km/h (0 Bft)
13.09.2017 05:29 4,2 °C 4,2 °C 92 % 1014,5 hPa 0,0 mm 0,1 km/h (0 Bft) W-NW 282 ° 0 min 0,000 mm 0,0 UV-I 0 W/m² 3,0 °C 4,2 °C 1,6 km/h (1 Bft)
13.09.2017 05:30 4,1 °C 4,2 °C 92 % 1014,5 hPa 0,0 mm 0,0 km/h (0 Bft) W-NW 282 ° 0 min 0,000 mm 0,0 UV-I 0 W/m² 2,9 °C 4,1 °C 0,0 km/h (0 Bft)
13.09.2017 05:31 4,2 °C 4,2 °C 92 % 1014,6 hPa 0,0 mm 0,6 km/h (0 Bft) W-NW 282 ° 0 min 0,000 mm 0,0 UV-I 0 W/m² 3,0 °C 4,2 °C 3,2 km/h (1 Bft)
13.09.2017 05:32 4,1 °C 4,2 °C 92 % 1014,6 hPa 0,0 mm 2,7 km/h (1 Bft) W-NW 283 ° 0 min 0,000 mm 0,0 UV-I 0 W/m² 2,9 °C 4,1 °C 3,2 km/h (1 Bft)
13.09.2017 05:33 4,1 °C 4,1 °C 92 % 1014,6 hPa 0,0 mm 1,2 km/h (1 Bft) W-NW 283 ° 0 min 0,000 mm 0,0 UV-I 0 W/m² 2,9 °C 4,1 °C 3,2 km/h (1 Bft)
13.09.2017 05:34 4,1 °C 4,1 °C 92 % 1014,6 hPa 0,0 mm 1,0 km/h (0 Bft) W-NW 283 ° 0 min 0,000 mm 0,0 UV-I 0 W/m² 2,9 °C 4,1 °C 3,2 km/h (1 Bft)
13.09.2017 05:35 4,1 °C 4,1 °C 92 % 1014,6 hPa 0,0 mm 0,0 km/h (0 Bft) W-NW 283 ° 0 min 0,000 mm 0,0 UV-I 0 W/m² 2,9 °C 4,1 °C 0,0 km/h (0 Bft)
13.09.2017 05:36 4,1 °C 4,1 °C 92 % 1014,5 hPa 0,0 mm 0,5 km/h (0 Bft) W-NW 283 ° 0 min 0,000 mm 0,0 UV-I 0 W/m² 2,9 °C 4,1 °C 1,6 km/h (1 Bft)
13.09.2017 05:37 4,1 °C 4,1 °C 92 % 1014,4 hPa 0,0 mm 0,0 km/h (0 Bft) W-NW 283 ° 0 min 0,000 mm 0,0 UV-I 0 W/m² 2,9 °C 4,1 °C 0,0 km/h (0 Bft)
13.09.2017 05:38 4,1 °C 4,1 °C 92 % 1014,4 hPa 0,0 mm 0,0 km/h (0 Bft) W-NW 283 ° 0 min 0,000 mm 0,0 UV-I 0 W/m² 2,9 °C 4,1 °C 0,0 km/h (0 Bft)
13.09.2017 05:39 4,0 °C 4,1 °C 92 % 1014,4 hPa 0,0 mm 0,0 km/h (0 Bft) W-NW 283 ° 0 min 0,000 mm 0,0 UV-I 0 W/m² 2,8 °C 4,0 °C 0,0 km/h (0 Bft)
13.09.2017 05:40 4,1 °C 4,1 °C 92 % 1014,4 hPa 0,0 mm 0,0 km/h (0 Bft) W-NW 283 ° 0 min 0,000 mm 0,0 UV-I 0 W/m² 2,9 °C 4,1 °C 0,0 km/h (0 Bft)
13.09.2017 05:41 4,1 °C 4,1 °C 92 % 1014,4 hPa 0,0 mm 0,1 km/h (0 Bft) W-NW 283 ° 0 min 0,000 mm 0,0 UV-I 0 W/m² 2,9 °C 4,1 °C 1,6 km/h (1 Bft)
13.09.2017 05:42 4,1 °C 4,1 °C 92 % 1014,4 hPa 0,0 mm 0,7 km/h (0 Bft) W-NW 283 ° 0 min 0,000 mm 0,0 UV-I 0 W/m² 2,9 °C 4,1 °C 1,6 km/h (1 Bft)
13.09.2017 05:43 4,1 °C 4,1 °C 92 % 1014,4 hPa 0,0 mm 0,0 km/h (0 Bft) W-NW 283 ° 0 min 0,000 mm 0,0 UV-I 0 W/m² 2,9 °C 4,1 °C 0,0 km/h (0 Bft)
13.09.2017 05:44 4,1 °C 4,1 °C 92 % 1014,3 hPa 0,0 mm 0,0 km/h (0 Bft) W-NW 283 ° 0 min 0,000 mm 0,0 UV-I 0 W/m² 2,9 °C 4,1 °C 0,0 km/h (0 Bft)
13.09.2017 05:45 4,1 °C 4,1 °C 92 % 1014,3 hPa 0,0 mm 0,0 km/h (0 Bft) W-NW 283 ° 0 min 0,000 mm 0,0 UV-I 0 W/m² 2,9 °C 4,1 °C 0,0 km/h (0 Bft)
13.09.2017 05:46 4,1 °C 4,1 °C 92 % 1014,3 hPa 0,0 mm 0,0 km/h (0 Bft) W-NW 283 ° 0 min 0,000 mm 0,0 UV-I 0 W/m² 2,9 °C 4,1 °C 0,0 km/h (0 Bft)
13.09.2017 05:47 4,0 °C 4,1 °C 92 % 1014,4 hPa 0,0 mm 0,0 km/h (0 Bft) W-NW 283 ° 0 min 0,000 mm 0,0 UV-I 0 W/m² 2,8 °C 4,0 °C 0,0 km/h (0 Bft)
13.09.2017 05:48 3,9 °C 4,0 °C 91 % 1014,4 hPa 0,0 mm 0,0 km/h (0 Bft) W-NW 283 ° 0 min 0,000 mm 0,0 UV-I 0 W/m² 2,6 °C 3,9 °C 0,0 km/h (0 Bft)
13.09.2017 05:49 3,9 °C 3,9 °C 91 % 1014,3 hPa 0,0 mm 0,0 km/h (0 Bft) W-NW 283 ° 0 min 0,000 mm 0,0 UV-I 0 W/m² 2,6 °C 3,9 °C 0,0 km/h (0 Bft)
13.09.2017 05:50 3,9 °C 3,9 °C 91 % 1014,3 hPa 0,0 mm 0,0 km/h (0 Bft) W-NW 283 ° 0 min 0,000 mm 0,0 UV-I 0 W/m² 2,6 °C 3,9 °C 0,0 km/h (0 Bft)
13.09.2017 05:51 3,8 °C 3,9 °C 91 % 1014,3 hPa 0,0 mm 0,0 km/h (0 Bft) W-NW 283 ° 0 min 0,000 mm 0,0 UV-I 0 W/m² 2,5 °C 3,8 °C 0,0 km/h (0 Bft)
13.09.2017 05:52 3,8 °C 3,8 °C 92 % 1014,2 hPa 0,0 mm 0,0 km/h (0 Bft) W-NW 283 ° 0 min 0,000 mm 0,0 UV-I 0 W/m² 2,6 °C 3,8 °C 0,0 km/h (0 Bft)
13.09.2017 05:53 3,8 °C 3,8 °C 92 % 1014,2 hPa 0,0 mm 0,0 km/h (0 Bft) W-NW 283 ° 0 min 0,000 mm 0,0 UV-I 0 W/m² 2,6 °C 3,8 °C 0,0 km/h (0 Bft)
13.09.2017 05:54 3,8 °C 3,8 °C 92 % 1014,2 hPa 0,0 mm 0,0 km/h (0 Bft) W-NW 283 ° 0 min 0,000 mm 0,0 UV-I 0 W/m² 2,6 °C 3,8 °C 0,0 km/h (0 Bft)
13.09.2017 05:55 3,9 °C 3,9 °C 92 % 1014,2 hPa 0,0 mm 0,0 km/h (0 Bft) W-NW 283 ° 0 min 0,000 mm 0,0 UV-I 0 W/m² 2,7 °C 3,9 °C 0,0 km/h (0 Bft)
13.09.2017 05:56 3,8 °C 3,9 °C 92 % 1014,2 hPa 0,0 mm 0,0 km/h (0 Bft) W-NW 283 ° 0 min 0,000 mm 0,0 UV-I 0 W/m² 2,6 °C 3,8 °C 0,0 km/h (0 Bft)
13.09.2017 05:57 3,8 °C 3,8 °C 92 % 1014,3 hPa 0,0 mm 0,0 km/h (0 Bft) W-NW 283 ° 0 min 0,000 mm 0,0 UV-I 0 W/m² 2,6 °C 3,8 °C 0,0 km/h (0 Bft)
13.09.2017 05:58 3,9 °C 3,9 °C 92 % 1014,2 hPa 0,0 mm 0,0 km/h (0 Bft) W-NW 283 ° 0 min 0,000 mm 0,0 UV-I 0 W/m² 2,7 °C 3,9 °C 0,0 km/h (0 Bft)
13.09.2017 05:59 3,9 °C 3,9 °C 92 % 1014,2 hPa 0,0 mm 0,1 km/h (0 Bft) W-NW 283 ° 0 min 0,000 mm 0,0 UV-I 0 W/m² 2,7 °C 3,9 °C 1,6 km/h (1 Bft)
13.09.2017 06:00 3,9 °C 3,9 °C 93 % 1014,1 hPa 0,0 mm 0,6 km/h (0 Bft) W-NW 300 ° 0 min 0,000 mm 0,0 UV-I 0 W/m² 2,9 °C 3,9 °C 3,2 km/h (1 Bft)
13.09.2017 06:01 4,0 °C 4,0 °C 93 % 1014,1 hPa 0,0 mm 0,0 km/h (0 Bft) W-NW 300 ° 0 min 0,000 mm 0,0 UV-I 0 W/m² 3,0 °C 4,0 °C 0,0 km/h (0 Bft)
13.09.2017 06:02 4,1 °C 4,1 °C 93 % 1014,1 hPa 0,0 mm 0,0 km/h (0 Bft) W-NW 300 ° 0 min 0,000 mm 0,0 UV-I 0 W/m² 3,1 °C 4,1 °C 0,0 km/h (0 Bft)
13.09.2017 06:03 4,1 °C 4,1 °C 93 % 1014,1 hPa 0,0 mm 0,0 km/h (0 Bft) W-NW 300 ° 0 min 0,000 mm 0,0 UV-I 0 W/m² 3,1 °C 4,1 °C 0,0 km/h (0 Bft)
13.09.2017 06:04 4,1 °C 4,1 °C 92 % 1014,1 hPa 0,0 mm 0,0 km/h (0 Bft) W-NW 300 ° 0 min 0,000 mm 0,0 UV-I 0 W/m² 2,9 °C 4,1 °C 0,0 km/h (0 Bft)
13.09.2017 06:05 4,2 °C 4,2 °C 92 % 1014,1 hPa 0,0 mm 0,0 km/h (0 Bft) W-NW 300 ° 0 min 0,000 mm 0,0 UV-I 0 W/m² 3,0 °C 4,2 °C 0,0 km/h (0 Bft)
13.09.2017 06:06 4,2 °C 4,2 °C 92 % 1014,1 hPa 0,0 mm 0,0 km/h (0 Bft) W-NW 300 ° 0 min 0,000 mm 0,0 UV-I 0 W/m² 3,0 °C 4,2 °C 0,0 km/h (0 Bft)
13.09.2017 06:07 4,3 °C 4,3 °C 92 % 1014,0 hPa 0,0 mm 0,0 km/h (0 Bft) W-NW 300 ° 0 min 0,000 mm 0,0 UV-I 0 W/m² 3,1 °C 4,3 °C 0,0 km/h (0 Bft)
13.09.2017 06:08 4,3 °C 4,3 °C 92 % 1014,1 hPa 0,0 mm 0,0 km/h (0 Bft) W-NW 300 ° 0 min 0,000 mm 0,0 UV-I 0 W/m² 3,1 °C 4,3 °C 0,0 km/h (0 Bft)
13.09.2017 06:09 4,4 °C 4,4 °C 92 % 1014,1 hPa 0,0 mm 0,0 km/h (0 Bft) W-NW 300 ° 0 min 0,000 mm 0,0 UV-I 0 W/m² 3,2 °C 4,4 °C 0,0 km/h (0 Bft)
13.09.2017 06:10 4,4 °C 4,4 °C 92 % 1014,1 hPa 0,0 mm 1,7 km/h (1 Bft) W-NW 300 ° 0 min 0,000 mm 0,0 UV-I 0 W/m² 3,2 °C 4,4 °C 3,2 km/h (1 Bft)
13.09.2017 06:11 4,4 °C 4,4 °C 92 % 1014,2 hPa 0,0 mm 0,9 km/h (0 Bft) W-NW 300 ° 0 min 0,000 mm 0,0 UV-I 0 W/m² 3,2 °C 4,4 °C 1,6 km/h (1 Bft)
13.09.2017 06:12 4,5 °C 4,5 °C 92 % 1014,2 hPa 0,0 mm 0,1 km/h (0 Bft) W-NW 300 ° 0 min 0,000 mm 0,0 UV-I 0 W/m² 3,3 °C 4,5 °C 1,6 km/h (1 Bft)
13.09.2017 06:13 4,6 °C 4,6 °C 92 % 1014,2 hPa 0,0 mm 0,0 km/h (0 Bft) W-NW 300 ° 0 min 0,000 mm 0,0 UV-I 0 W/m² 3,4 °C 4,6 °C 0,0 km/h (0 Bft)
13.09.2017 06:14 4,7 °C 4,7 °C 92 % 1014,2 hPa 0,0 mm 0,0 km/h (0 Bft) W-NW 300 ° 0 min 0,000 mm 0,0 UV-I 0 W/m² 3,5 °C 4,7 °C 0,0 km/h (0 Bft)
13.09.2017 06:15 4,7 °C 4,7 °C 92 % 1014,1 hPa 0,0 mm 0,2 km/h (0 Bft) W-NW 300 ° 0 min 0,000 mm 0,0 UV-I 0 W/m² 3,5 °C 4,7 °C 1,6 km/h (1 Bft)
13.09.2017 06:16 4,6 °C 4,7 °C 92 % 1014,1 hPa 0,0 mm 0,0 km/h (0 Bft) W-NW 300 ° 0 min 0,000 mm 0,0 UV-I 0 W/m² 3,4 °C 4,6 °C 0,0 km/h (0 Bft)
13.09.2017 06:17 4,7 °C 4,7 °C 92 % 1014,1 hPa 0,0 mm 0,1 km/h (0 Bft) W-NW 300 ° 0 min 0,000 mm 0,0 UV-I 0 W/m² 3,5 °C 4,7 °C 1,6 km/h (1 Bft)
13.09.2017 06:18 4,7 °C 4,7 °C 91 % 1014,1 hPa 0,0 mm 2,3 km/h (1 Bft) N 5 ° 0 min 0,000 mm 0,0 UV-I 0 W/m² 3,4 °C 4,7 °C 4,8 km/h (1 Bft)
13.09.2017 06:19 4,7 °C 4,7 °C 91 % 1014,0 hPa 0,0 mm 0,8 km/h (0 Bft) N 5 ° 0 min 0,000 mm 0,0 UV-I 0 W/m² 3,4 °C 4,7 °C 3,2 km/h (1 Bft)
13.09.2017 06:20 4,7 °C 4,7 °C 91 % 1013,9 hPa 0,0 mm 0,0 km/h (0 Bft) N 5 ° 0 min 0,000 mm 0,0 UV-I 0 W/m² 3,4 °C 4,7 °C 0,0 km/h (0 Bft)
13.09.2017 06:21 4,7 °C 4,7 °C 91 % 1013,9 hPa 0,0 mm 0,0 km/h (0 Bft) N 5 ° 0 min 0,000 mm 0,0 UV-I 0 W/m² 3,4 °C 4,7 °C 0,0 km/h (0 Bft)
13.09.2017 06:22 4,7 °C 4,7 °C 91 % 1013,8 hPa 0,0 mm 0,0 km/h (0 Bft) N-NO 14 ° 0 min 0,000 mm 0,0 UV-I 0 W/m² 3,4 °C 4,7 °C 0,0 km/h (0 Bft)
13.09.2017 06:23 4,7 °C 4,7 °C 91 % 1013,8 hPa 0,0 mm 0,0 km/h (0 Bft) N-NO 14 ° 0 min 0,000 mm 0,0 UV-I 0 W/m² 3,4 °C 4,7 °C 0,0 km/h (0 Bft)
13.09.2017 06:24 4,7 °C 4,7 °C 91 % 1013,7 hPa 0,0 mm 0,0 km/h (0 Bft) N-NO 14 ° 0 min 0,000 mm 0,0 UV-I 0 W/m² 3,4 °C 4,7 °C 0,0 km/h (0 Bft)
13.09.2017 06:25 4,7 °C 4,7 °C 91 % 1013,7 hPa 0,0 mm 0,0 km/h (0 Bft) N-NO 14 ° 0 min 0,000 mm 0,0 UV-I 0 W/m² 3,4 °C 4,7 °C 0,0 km/h (0 Bft)
13.09.2017 06:26 4,7 °C 4,7 °C 91 % 1013,7 hPa 0,0 mm 0,0 km/h (0 Bft) N-NO 14 ° 0 min 0,000 mm 0,0 UV-I 0 W/m² 3,4 °C 4,7 °C 0,0 km/h (0 Bft)
13.09.2017 06:27 4,8 °C 4,8 °C 91 % 1013,7 hPa 0,0 mm 0,3 km/h (0 Bft) N-NO 13 ° 0 min 0,000 mm 0,0 UV-I 0 W/m² 3,5 °C 4,8 °C 1,6 km/h (1 Bft)
13.09.2017 06:28 4,8 °C 4,8 °C 91 % 1013,7 hPa 0,0 mm 0,0 km/h (0 Bft) N-NO 13 ° 0 min 0,000 mm 0,0 UV-I 0 W/m² 3,5 °C 4,8 °C 0,0 km/h (0 Bft)
13.09.2017 06:29 4,8 °C 4,8 °C 91 % 1013,6 hPa 0,0 mm 0,3 km/h (0 Bft) N-NO 13 ° 0 min 0,000 mm 0,0 UV-I 0 W/m² 3,5 °C 4,8 °C 1,6 km/h (1 Bft)
13.09.2017 06:30 4,8 °C 4,8 °C 91 % 1013,6 hPa 0,0 mm 2,0 km/h (1 Bft) N 5 ° 0 min 0,000 mm 0,0 UV-I 0 W/m² 3,5 °C 4,8 °C 3,2 km/h (1 Bft)
13.09.2017 06:31 4,9 °C 4,9 °C 91 % 1013,6 hPa 0,0 mm 0,5 km/h (0 Bft) N 5 ° 0 min 0,000 mm 0,0 UV-I 0 W/m² 3,6 °C 4,9 °C 1,6 km/h (1 Bft)
13.09.2017 06:32 4,9 °C 4,9 °C 91 % 1013,6 hPa 0,0 mm 0,0 km/h (0 Bft) N 5 ° 0 min 0,000 mm 0,0 UV-I 0 W/m² 3,6 °C 4,9 °C 0,0 km/h (0 Bft)
13.09.2017 06:33 4,8 °C 4,9 °C 91 % 1013,6 hPa 0,0 mm 0,6 km/h (0 Bft) N 5 ° 0 min 0,000 mm 0,0 UV-I 0 W/m² 3,5 °C 4,8 °C 3,2 km/h (1 Bft)
13.09.2017 06:34 4,8 °C 4,9 °C 91 % 1013,6 hPa 0,0 mm 0,0 km/h (0 Bft) N 5 ° 0 min 0,000 mm 0,0 UV-I 0 W/m² 3,5 °C 4,8 °C 0,0 km/h (0 Bft)
13.09.2017 06:35 4,8 °C 4,9 °C 91 % 1013,5 hPa 0,0 mm 0,0 km/h (0 Bft) N 5 ° 0 min 0,000 mm 0,0 UV-I 0 W/m² 3,5 °C 4,8 °C 0,0 km/h (0 Bft)
13.09.2017 06:36 4,9 °C 4,9 °C 91 % 1013,5 hPa 0,0 mm 0,0 km/h (0 Bft) N 5 ° 0 min 0,000 mm 0,0 UV-I 0 W/m² 3,6 °C 4,9 °C 0,0 km/h (0 Bft)
13.09.2017 06:37 4,9 °C 4,9 °C 91 % 1013,6 hPa 0,0 mm 0,7 km/h (0 Bft) N 5 ° 0 min 0,000 mm 0,0 UV-I 0 W/m² 3,6 °C 4,9 °C 1,6 km/h (1 Bft)
13.09.2017 06:38 4,9 °C 4,9 °C 91 % 1013,6 hPa 0,0 mm 1,1 km/h (1 Bft) N-NW 331 ° 0 min 0,000 mm 0,0 UV-I 0 W/m² 3,6 °C 4,9 °C 4,8 km/h (1 Bft)
13.09.2017 06:39 4,8 °C 4,9 °C 91 % 1013,6 hPa 0,0 mm 0,0 km/h (0 Bft) N-NW 331 ° 0 min 0,000 mm 0,0 UV-I 0 W/m² 3,5 °C 4,8 °C 0,0 km/h (0 Bft)
13.09.2017 06:40 4,8 °C 4,8 °C 91 % 1013,6 hPa 0,0 mm 0,9 km/h (0 Bft) N-NW 331 ° 0 min 0,000 mm 0,0 UV-I 0 W/m² 3,5 °C 4,8 °C 1,6 km/h (1 Bft)
13.09.2017 06:41 4,9 °C 4,9 °C 91 % 1013,6 hPa 0,0 mm 0,0 km/h (0 Bft) N-NW 331 ° 0 min 0,000 mm 0,0 UV-I 0 W/m² 3,6 °C 4,9 °C 0,0 km/h (0 Bft)
13.09.2017 06:42 4,9 °C 4,9 °C 91 % 1013,6 hPa 0,0 mm 0,0 km/h (0 Bft) N-NW 331 ° 0 min 0,000 mm 0,0 UV-I 0 W/m² 3,6 °C 4,9 °C 0,0 km/h (0 Bft)
13.09.2017 06:43 4,9 °C 4,9 °C 91 % 1013,6 hPa 0,0 mm 0,0 km/h (0 Bft) N-NW 331 ° 0 min 0,000 mm 0,0 UV-I 0 W/m² 3,6 °C 4,9 °C 0,0 km/h (0 Bft)
13.09.2017 06:44 4,9 °C 4,9 °C 91 % 1013,6 hPa 0,0 mm 0,0 km/h (0 Bft) N-NW 331 ° 0 min 0,000 mm 0,0 UV-I 0 W/m² 3,6 °C 4,9 °C 0,0 km/h (0 Bft)
13.09.2017 06:45 4,9 °C 4,9 °C 91 % 1013,6 hPa 0,0 mm 0,0 km/h (0 Bft) N-NW 331 ° 0 min 0,000 mm 0,0 UV-I 0 W/m² 3,6 °C 4,9 °C 0,0 km/h (0 Bft)
13.09.2017 06:46 4,9 °C 4,9 °C 91 % 1013,6 hPa 0,0 mm 0,0 km/h (0 Bft) N-NW 331 ° 0 min 0,000 mm 0,0 UV-I 0 W/m² 3,6 °C 4,9 °C 0,0 km/h (0 Bft)
13.09.2017 06:47 4,8 °C 4,9 °C 91 % 1013,6 hPa 0,0 mm 0,0 km/h (0 Bft) N-NW 331 ° 0 min 0,000 mm 0,0 UV-I 0 W/m² 3,5 °C 4,8 °C 0,0 km/h (0 Bft)
13.09.2017 06:48 4,9 °C 4,9 °C 91 % 1013,7 hPa 0,0 mm 0,0 km/h (0 Bft) N-NW 331 ° 0 min 0,000 mm 0,0 UV-I 0 W/m² 3,6 °C 4,9 °C 0,0 km/h (0 Bft)
13.09.2017 06:49 4,8 °C 4,9 °C 90 % 1013,7 hPa 0,0 mm 0,0 km/h (0 Bft) N-NW 331 ° 0 min 0,000 mm 0,0 UV-I 0 W/m² 3,3 °C 4,8 °C 0,0 km/h (0 Bft)
13.09.2017 06:50 4,8 °C 4,8 °C 90 % 1013,7 hPa 0,0 mm 0,1 km/h (0 Bft) N-NW 331 ° 0 min 0,000 mm 0,0 UV-I 5 W/m² 3,3 °C 4,8 °C 1,6 km/h (1 Bft)
13.09.2017 06:51 4,8 °C 4,8 °C 91 % 1013,6 hPa 0,0 mm 0,0 km/h (0 Bft) N-NW 331 ° 0 min 0,000 mm 0,0 UV-I 5 W/m² 3,5 °C 4,8 °C 0,0 km/h (0 Bft)
13.09.2017 06:52 4,7 °C 4,8 °C 91 % 1013,7 hPa 0,0 mm 0,0 km/h (0 Bft) N-NW 331 ° 0 min 0,000 mm 0,0 UV-I 5 W/m² 3,4 °C 4,7 °C 0,0 km/h (0 Bft)
13.09.2017 06:53 4,8 °C 4,8 °C 91 % 1013,7 hPa 0,0 mm 0,0 km/h (0 Bft) N-NW 331 ° 0 min 0,000 mm 0,0 UV-I 5 W/m² 3,5 °C 4,8 °C 0,0 km/h (0 Bft)
13.09.2017 06:54 4,7 °C 4,8 °C 90 % 1013,7 hPa 0,0 mm 0,0 km/h (0 Bft) N-NW 331 ° 0 min 0,000 mm 0,0 UV-I 5 W/m² 3,2 °C 4,7 °C 0,0 km/h (0 Bft)
13.09.2017 06:55 4,8 °C 4,8 °C 91 % 1013,6 hPa 0,0 mm 0,0 km/h (0 Bft) N-NW 331 ° 0 min 0,000 mm 0,0 UV-I 7 W/m² 3,5 °C 4,8 °C 0,0 km/h (0 Bft)
13.09.2017 06:56 4,8 °C 4,8 °C 90 % 1013,6 hPa 0,0 mm 0,0 km/h (0 Bft) N-NW 331 ° 0 min 0,000 mm 0,0 UV-I 7 W/m² 3,3 °C 4,8 °C 0,0 km/h (0 Bft)
13.09.2017 06:57 4,7 °C 4,8 °C 91 % 1013,6 hPa 0,0 mm 0,0 km/h (0 Bft) N-NW 331 ° 0 min 0,000 mm 0,0 UV-I 7 W/m² 3,4 °C 4,7 °C 0,0 km/h (0 Bft)
13.09.2017 06:58 4,7 °C 4,7 °C 91 % 1013,5 hPa 0,0 mm 0,0 km/h (0 Bft) N-NW 331 ° 0 min 0,000 mm 0,0 UV-I 9 W/m² 3,4 °C 4,7 °C 0,0 km/h (0 Bft)
13.09.2017 06:59 4,7 °C 4,8 °C 91 % 1013,5 hPa 0,0 mm 0,1 km/h (0 Bft) N-NW 331 ° 0 min 0,000 mm 0,0 UV-I 9 W/m² 3,4 °C 4,7 °C 1,6 km/h (1 Bft)
13.09.2017 07:00 4,8 °C 4,8 °C 91 % 1013,4 hPa 0,0 mm 0,0 km/h (0 Bft) N-NW 331 ° 0 min 0,000 mm 0,0 UV-I 9 W/m² 3,5 °C 4,8 °C 0,0 km/h (0 Bft)
13.09.2017 07:01 4,8 °C 4,8 °C 91 % 1013,5 hPa 0,0 mm 0,0 km/h (0 Bft) N-NW 331 ° 0 min 0,000 mm 0,0 UV-I 9 W/m² 3,5 °C 4,8 °C 0,0 km/h (0 Bft)
13.09.2017 07:02 4,8 °C 4,8 °C 91 % 1013,5 hPa 0,0 mm 0,0 km/h (0 Bft) N-NW 331 ° 0 min 0,000 mm 0,0 UV-I 11 W/m² 3,5 °C 4,8 °C 0,0 km/h (0 Bft)
13.09.2017 07:03 4,8 °C 4,8 °C 90 % 1013,5 hPa 0,0 mm 0,4 km/h (0 Bft) N-NW 331 ° 0 min 0,000 mm 0,0 UV-I 11 W/m² 3,3 °C 4,8 °C 1,6 km/h (1 Bft)
13.09.2017 07:04 4,8 °C 4,8 °C 90 % 1013,6 hPa 0,0 mm 0,0 km/h (0 Bft) N-NW 331 ° 0 min 0,000 mm 0,0 UV-I 11 W/m² 3,3 °C 4,8 °C 0,0 km/h (0 Bft)
13.09.2017 07:05 4,8 °C 4,8 °C 90 % 1013,6 hPa 0,0 mm 0,0 km/h (0 Bft) N-NW 331 ° 0 min 0,000 mm 0,0 UV-I 11 W/m² 3,3 °C 4,8 °C 0,0 km/h (0 Bft)
13.09.2017 07:06 4,8 °C 4,8 °C 91 % 1013,6 hPa 0,0 mm 0,0 km/h (0 Bft) N-NW 331 ° 0 min 0,000 mm 0,0 UV-I 12 W/m² 3,5 °C 4,8 °C 0,0 km/h (0 Bft)
13.09.2017 07:07 4,8 °C 4,8 °C 91 % 1013,5 hPa 0,0 mm 0,0 km/h (0 Bft) N-NW 331 ° 0 min 0,000 mm 0,0 UV-I 12 W/m² 3,5 °C 4,8 °C 0,0 km/h (0 Bft)
13.09.2017 07:08 4,8 °C 4,8 °C 90 % 1013,5 hPa 0,0 mm 0,0 km/h (0 Bft) N-NW 331 ° 0 min 0,000 mm 0,0 UV-I 12 W/m² 3,3 °C 4,8 °C 0,0 km/h (0 Bft)
13.09.2017 07:09 4,7 °C 4,8 °C 90 % 1013,5 hPa 0,0 mm 0,0 km/h (0 Bft) N-NW 331 ° 0 min 0,000 mm 0,0 UV-I 12 W/m² 3,2 °C 4,7 °C 0,0 km/h (0 Bft)
13.09.2017 07:10 4,7 °C 4,7 °C 91 % 1013,5 hPa 0,0 mm 0,0 km/h (0 Bft) N-NW 331 ° 0 min 0,000 mm 0,0 UV-I 14 W/m² 3,4 °C 4,7 °C 0,0 km/h (0 Bft)
13.09.2017 07:11 4,7 °C 4,7 °C 91 % 1013,6 hPa 0,0 mm 0,0 km/h (0 Bft) N-NW 331 ° 0 min 0,000 mm 0,0 UV-I 14 W/m² 3,4 °C 4,7 °C 0,0 km/h (0 Bft)
13.09.2017 07:12 4,7 °C 4,7 °C 91 % 1013,7 hPa 0,0 mm 0,0 km/h (0 Bft) N-NW 331 ° 0 min 0,000 mm 0,0 UV-I 14 W/m² 3,4 °C 4,7 °C 0,0 km/h (0 Bft)
13.09.2017 07:13 4,7 °C 4,7 °C 91 % 1013,7 hPa 0,0 mm 0,0 km/h (0 Bft) N-NW 331 ° 0 min 0,000 mm 0,0 UV-I 16 W/m² 3,4 °C 4,7 °C 0,0 km/h (0 Bft)
13.09.2017 07:14 4,7 °C 4,7 °C 91 % 1013,7 hPa 0,0 mm 0,0 km/h (0 Bft) N-NW 331 ° 0 min 0,000 mm 0,0 UV-I 16 W/m² 3,4 °C 4,7 °C 0,0 km/h (0 Bft)
13.09.2017 07:15 4,8 °C 4,8 °C 91 % 1013,7 hPa 0,0 mm 0,0 km/h (0 Bft) N-NW 331 ° 0 min 0,000 mm 0,0 UV-I 18 W/m² 3,5 °C 4,8 °C 0,0 km/h (0 Bft)
13.09.2017 07:16 4,8 °C 4,8 °C 91 % 1013,7 hPa 0,0 mm 0,0 km/h (0 Bft) N-NW 331 ° 0 min 0,000 mm 0,0 UV-I 18 W/m² 3,5 °C 4,8 °C 0,0 km/h (0 Bft)
13.09.2017 07:17 4,8 °C 4,8 °C 91 % 1013,6 hPa 0,0 mm 0,5 km/h (0 Bft) N-NW 331 ° 0 min 0,000 mm 0,0 UV-I 18 W/m² 3,5 °C 4,8 °C 1,6 km/h (1 Bft)
13.09.2017 07:18 4,8 °C 4,8 °C 91 % 1013,6 hPa 0,0 mm 0,0 km/h (0 Bft) N-NW 331 ° 0 min 0,000 mm 0,0 UV-I 19 W/m² 3,5 °C 4,8 °C 0,0 km/h (0 Bft)
13.09.2017 07:19 4,8 °C 4,8 °C 91 % 1013,5 hPa 0,0 mm 0,2 km/h (0 Bft) N-NW 331 ° 0 min 0,000 mm 0,0 UV-I 19 W/m² 3,5 °C 4,8 °C 1,6 km/h (1 Bft)
13.09.2017 07:20 4,8 °C 4,8 °C 91 % 1013,5 hPa 0,0 mm 1,3 km/h (1 Bft) W-SW 254 ° 0 min 0,000 mm 0,0 UV-I 21 W/m² 3,5 °C 4,8 °C 3,2 km/h (1 Bft)
13.09.2017 07:21 4,8 °C 4,8 °C 91 % 1013,4 hPa 0,0 mm 0,0 km/h (0 Bft) W-SW 254 ° 0 min 0,000 mm 0,0 UV-I 21 W/m² 3,5 °C 4,8 °C 0,0 km/h (0 Bft)
13.09.2017 07:22 4,8 °C 4,8 °C 91 % 1013,4 hPa 0,0 mm 0,0 km/h (0 Bft) W-SW 254 ° 0 min 0,000 mm 0,0 UV-I 21 W/m² 3,5 °C 4,8 °C 0,0 km/h (0 Bft)
13.09.2017 07:23 4,8 °C 4,8 °C 91 % 1013,5 hPa 0,0 mm 0,5 km/h (0 Bft) W-NW 285 ° 0 min 0,000 mm 0,0 UV-I 23 W/m² 3,5 °C 4,8 °C 3,2 km/h (1 Bft)
13.09.2017 07:24 4,8 °C 4,8 °C 91 % 1013,4 hPa 0,0 mm 1,3 km/h (1 Bft) W-NW 285 ° 0 min 0,000 mm 0,0 UV-I 25 W/m² 3,5 °C 4,8 °C 1,6 km/h (1 Bft)
13.09.2017 07:25 4,8 °C 4,8 °C 91 % 1013,5 hPa 0,0 mm 0,0 km/h (0 Bft) W-NW 299 ° 0 min 0,000 mm 0,0 UV-I 25 W/m² 3,5 °C 4,8 °C 0,0 km/h (0 Bft)
13.09.2017 07:26 4,8 °C 4,8 °C 91 % 1013,4 hPa 0,0 mm 2,2 km/h (1 Bft) S 177 ° 0 min 0,000 mm 0,0 UV-I 26 W/m² 3,5 °C 4,8 °C 4,8 km/h (1 Bft)
13.09.2017 07:27 4,9 °C 4,9 °C 91 % 1013,4 hPa 0,0 mm 0,0 km/h (0 Bft) S 177 ° 0 min 0,000 mm 0,0 UV-I 26 W/m² 3,6 °C 4,9 °C 0,0 km/h (0 Bft)
13.09.2017 07:28 4,9 °C 4,9 °C 91 % 1013,4 hPa 0,0 mm 0,5 km/h (0 Bft) S 177 ° 0 min 0,000 mm 0,0 UV-I 26 W/m² 3,6 °C 4,9 °C 1,6 km/h (1 Bft)
13.09.2017 07:29 4,9 °C 4,9 °C 91 % 1013,4 hPa 0,0 mm 1,1 km/h (1 Bft) NW 322 ° 0 min 0,000 mm 0,0 UV-I 28 W/m² 3,6 °C 4,9 °C 3,2 km/h (1 Bft)
13.09.2017 07:30 4,9 °C 4,9 °C 90 % 1013,4 hPa 0,0 mm 1,1 km/h (1 Bft) NW 322 ° 0 min 0,000 mm 0,0 UV-I 28 W/m² 3,4 °C 4,9 °C 3,2 km/h (1 Bft)
13.09.2017 07:31 4,9 °C 5,0 °C 91 % 1013,5 hPa 0,0 mm 1,0 km/h (0 Bft) NW 322 ° 0 min 0,000 mm 0,0 UV-I 30 W/m² 3,6 °C 4,9 °C 1,6 km/h (1 Bft)
13.09.2017 07:32 4,9 °C 5,0 °C 90 % 1013,5 hPa 0,0 mm 1,3 km/h (1 Bft) NW 321 ° 0 min 0,000 mm 0,0 UV-I 32 W/m² 3,4 °C 4,9 °C 3,2 km/h (1 Bft)
13.09.2017 07:33 5,1 °C 5,1 °C 91 % 1013,5 hPa 0,0 mm 1,1 km/h (1 Bft) NW 309 ° 0 min 0,000 mm 0,0 UV-I 32 W/m² 3,8 °C 5,1 °C 1,6 km/h (1 Bft)
13.09.2017 07:34 5,1 °C 5,1 °C 90 % 1013,5 hPa 0,0 mm 0,9 km/h (0 Bft) NW 309 ° 0 min 0,000 mm 0,0 UV-I 33 W/m² 3,6 °C 5,1 °C 1,6 km/h (1 Bft)
13.09.2017 07:35 5,2 °C 5,2 °C 90 % 1013,5 hPa 0,0 mm 0,0 km/h (0 Bft) NW 309 ° 0 min 0,000 mm 0,0 UV-I 33 W/m² 3,7 °C 5,2 °C 0,0 km/h (0 Bft)
13.09.2017 07:36 5,2 °C 5,2 °C 90 % 1013,5 hPa 0,0 mm 0,0 km/h (0 Bft) NW 309 ° 0 min 0,000 mm 0,0 UV-I 35 W/m² 3,7 °C 5,2 °C 0,0 km/h (0 Bft)
13.09.2017 07:37 5,2 °C 5,2 °C 90 % 1013,5 hPa 0,0 mm 0,0 km/h (0 Bft) NW 309 ° 0 min 0,000 mm 0,0 UV-I 35 W/m² 3,7 °C 5,2 °C 0,0 km/h (0 Bft)
13.09.2017 07:38 5,2 °C 5,2 °C 90 % 1013,5 hPa 0,0 mm 0,1 km/h (0 Bft) NW 309 ° 0 min 0,000 mm 0,0 UV-I 37 W/m² 3,7 °C 5,2 °C 1,6 km/h (1 Bft)
13.09.2017 07:39 5,3 °C 5,3 °C 90 % 1013,5 hPa 0,0 mm 0,0 km/h (0 Bft) NW 309 ° 0 min 0,000 mm 0,0 UV-I 37 W/m² 3,8 °C 5,3 °C 0,0 km/h (0 Bft)
13.09.2017 07:40 5,3 °C 5,3 °C 90 % 1013,5 hPa 0,0 mm 0,0 km/h (0 Bft) NW 309 ° 0 min 0,000 mm 0,0 UV-I 39 W/m² 3,8 °C 5,3 °C 0,0 km/h (0 Bft)
13.09.2017 07:41 5,3 °C 5,3 °C 90 % 1013,4 hPa 0,0 mm 1,5 km/h (1 Bft) NW 309 ° 0 min 0,000 mm 0,0 UV-I 40 W/m² 3,8 °C 5,3 °C 4,8 km/h (1 Bft)
13.09.2017 07:42 5,3 °C 5,4 °C 90 % 1013,5 hPa 0,0 mm 0,9 km/h (0 Bft) NW 309 ° 0 min 0,000 mm 0,0 UV-I 42 W/m² 3,8 °C 5,3 °C 3,2 km/h (1 Bft)
13.09.2017 07:43 5,3 °C 5,4 °C 90 % 1013,4 hPa 0,0 mm 0,5 km/h (0 Bft) NW 309 ° 0 min 0,000 mm 0,0 UV-I 44 W/m² 3,8 °C 5,3 °C 1,6 km/h (1 Bft)
13.09.2017 07:44 5,4 °C 5,4 °C 90 % 1013,4 hPa 0,0 mm 0,0 km/h (0 Bft) NW 309 ° 0 min 0,000 mm 0,0 UV-I 44 W/m² 3,9 °C 5,4 °C 0,0 km/h (0 Bft)
13.09.2017 07:45 5,4 °C 5,4 °C 90 % 1013,4 hPa 0,0 mm 0,7 km/h (0 Bft) NW 309 ° 0 min 0,000 mm 0,0 UV-I 44 W/m² 3,9 °C 5,4 °C 1,6 km/h (1 Bft)
13.09.2017 07:46 5,4 °C 5,4 °C 90 % 1013,4 hPa 0,0 mm 0,7 km/h (0 Bft) NW 309 ° 0 min 0,000 mm 0,0 UV-I 46 W/m² 3,9 °C 5,4 °C 3,2 km/h (1 Bft)
13.09.2017 07:47 5,4 °C 5,4 °C 90 % 1013,4 hPa 0,0 mm 0,1 km/h (0 Bft) NW 309 ° 0 min 0,000 mm 0,0 UV-I 47 W/m² 3,9 °C 5,4 °C 1,6 km/h (1 Bft)
13.09.2017 07:48 5,4 °C 5,4 °C 90 % 1013,4 hPa 0,0 mm 0,0 km/h (0 Bft) NW 309 ° 0 min 0,000 mm 0,0 UV-I 47 W/m² 3,9 °C 5,4 °C 0,0 km/h (0 Bft)
13.09.2017 07:49 5,5 °C 5,5 °C 90 % 1013,4 hPa 0,0 mm 0,0 km/h (0 Bft) NW 309 ° 0 min 0,000 mm 0,0 UV-I 47 W/m² 4,0 °C 5,5 °C 0,0 km/h (0 Bft)
13.09.2017 07:50 5,5 °C 5,6 °C 90 % 1013,5 hPa 0,0 mm 0,0 km/h (0 Bft) NW 309 ° 0 min 0,000 mm 0,0 UV-I 49 W/m² 4,0 °C 5,5 °C 0,0 km/h (0 Bft)
13.09.2017 07:51 5,6 °C 5,6 °C 90 % 1013,5 hPa 0,0 mm 1,1 km/h (1 Bft) NW 309 ° 0 min 0,000 mm 0,0 UV-I 47 W/m² 4,1 °C 5,6 °C 3,2 km/h (1 Bft)
13.09.2017 07:52 5,7 °C 5,7 °C 90 % 1013,4 hPa 0,0 mm 1,5 km/h (1 Bft) NW 309 ° 0 min 0,000 mm 0,0 UV-I 47 W/m² 4,2 °C 5,7 °C 3,2 km/h (1 Bft)
13.09.2017 07:53 5,7 °C 5,7 °C 89 % 1013,5 hPa 0,0 mm 0,1 km/h (0 Bft) NW 309 ° 0 min 0,000 mm 0,0 UV-I 49 W/m² 4,0 °C 5,7 °C 1,6 km/h (1 Bft)
13.09.2017 07:54 5,8 °C 5,8 °C 89 % 1013,5 hPa 0,0 mm 0,0 km/h (0 Bft) NW 309 ° 0 min 0,000 mm 0,0 UV-I 47 W/m² 4,1 °C 5,8 °C 0,0 km/h (0 Bft)
13.09.2017 07:55 5,8 °C 5,9 °C 89 % 1013,4 hPa 0,0 mm 0,0 km/h (0 Bft) NW 309 ° 0 min 0,000 mm 0,0 UV-I 47 W/m² 4,1 °C 5,8 °C 0,0 km/h (0 Bft)
13.09.2017 07:56 5,8 °C 5,9 °C 89 % 1013,4 hPa 0,0 mm 0,5 km/h (0 Bft) W 268 ° 0 min 0,000 mm 0,0 UV-I 47 W/m² 4,1 °C 5,8 °C 3,2 km/h (1 Bft)
13.09.2017 07:57 5,9 °C 5,9 °C 89 % 1013,4 hPa 0,0 mm 2,6 km/h (1 Bft) S-SW 206 ° 0 min 0,000 mm 0,0 UV-I 47 W/m² 4,2 °C 5,9 °C 4,8 km/h (1 Bft)
13.09.2017 07:58 5,9 °C 5,9 °C 89 % 1013,4 hPa 0,0 mm 2,3 km/h (1 Bft) N-NO 32 ° 0 min 0,000 mm 0,0 UV-I 49 W/m² 4,2 °C 5,9 °C 8,0 km/h (2 Bft)
13.09.2017 07:59 6,1 °C 6,1 °C 88 % 1013,4 hPa 0,0 mm 1,0 km/h (0 Bft) O 90 ° 0 min 0,000 mm 0,0 UV-I 53 W/m² 4,3 °C 6,1 °C 3,2 km/h (1 Bft)
13.09.2017 08:00 6,2 °C 6,2 °C 88 % 1013,4 hPa 0,0 mm 0,0 km/h (0 Bft) O 90 ° 0 min 0,000 mm 0,0 UV-I 54 W/m² 4,4 °C 6,2 °C 0,0 km/h (0 Bft)
13.09.2017 08:01 6,2 °C 6,2 °C 88 % 1013,4 hPa 0,0 mm 1,3 km/h (1 Bft) O-NO 78 ° 0 min 0,025 mm 0,0 UV-I 58 W/m² 4,4 °C 6,2 °C 3,2 km/h (1 Bft)
13.09.2017 08:02 6,2 °C 6,3 °C 88 % 1013,4 hPa 0,0 mm 0,3 km/h (0 Bft) O 79 ° 0 min 0,000 mm 0,0 UV-I 58 W/m² 4,4 °C 6,2 °C 1,6 km/h (1 Bft)
13.09.2017 08:03 6,3 °C 6,3 °C 88 % 1013,4 hPa 0,0 mm 0,4 km/h (0 Bft) O-NO 77 ° 0 min 0,000 mm 0,0 UV-I 58 W/m² 4,5 °C 6,3 °C 3,2 km/h (1 Bft)
13.09.2017 08:04 6,3 °C 6,3 °C 88 % 1013,4 hPa 0,0 mm 0,6 km/h (0 Bft) O-NO 78 ° 0 min 0,000 mm 0,0 UV-I 60 W/m² 4,5 °C 6,3 °C 3,2 km/h (1 Bft)
13.09.2017 08:05 6,3 °C 6,3 °C 88 % 1013,3 hPa 0,0 mm 1,1 km/h (1 Bft) O-NO 78 ° 0 min 0,000 mm 0,0 UV-I 58 W/m² 4,5 °C 6,3 °C 1,6 km/h (1 Bft)
13.09.2017 08:06 6,3 °C 6,3 °C 89 % 1013,3 hPa 0,0 mm 0,3 km/h (0 Bft) O-NO 78 ° 0 min 0,000 mm 0,0 UV-I 53 W/m² 4,6 °C 6,3 °C 1,6 km/h (1 Bft)
13.09.2017 08:07 6,3 °C 6,3 °C 89 % 1013,3 hPa 0,0 mm 0,2 km/h (0 Bft) O-NO 78 ° 0 min 0,000 mm 0,5 UV-I 56 W/m² 4,6 °C 6,3 °C 1,6 km/h (1 Bft)
13.09.2017 08:08 6,3 °C 6,3 °C 88 % 1013,4 hPa 0,0 mm 2,1 km/h (1 Bft) NW 322 ° 0 min 0,000 mm 0,5 UV-I 63 W/m² 4,5 °C 6,3 °C 4,8 km/h (1 Bft)
13.09.2017 08:09 6,3 °C 6,3 °C 88 % 1013,3 hPa 0,0 mm 2,1 km/h (1 Bft) N-NO 29 ° 0 min 0,000 mm 0,5 UV-I 58 W/m² 4,5 °C 6,3 °C 4,8 km/h (1 Bft)
13.09.2017 08:10 6,4 °C 6,4 °C 88 % 1013,3 hPa 0,0 mm 2,3 km/h (1 Bft) W-SW 238 ° 0 min 0,000 mm 0,5 UV-I 79 W/m² 4,6 °C 6,4 °C 4,8 km/h (1 Bft)
13.09.2017 08:11 6,5 °C 6,5 °C 88 % 1013,3 hPa 0,0 mm 0,8 km/h (0 Bft) W-SW 238 ° 0 min 0,000 mm 0,5 UV-I 76 W/m² 4,7 °C 6,5 °C 3,2 km/h (1 Bft)
13.09.2017 08:12 6,5 °C 6,5 °C 88 % 1013,4 hPa 0,0 mm 0,0 km/h (0 Bft) W-SW 238 ° 0 min 0,000 mm 0,5 UV-I 76 W/m² 4,7 °C 6,5 °C 0,0 km/h (0 Bft)
13.09.2017 08:13 6,6 °C 6,6 °C 87 % 1013,3 hPa 0,0 mm 0,0 km/h (0 Bft) W-SW 238 ° 0 min 0,000 mm 0,5 UV-I 70 W/m² 4,6 °C 6,6 °C 0,0 km/h (0 Bft)
13.09.2017 08:14 6,6 °C 6,6 °C 88 % 1013,3 hPa 0,0 mm 1,6 km/h (1 Bft) SW 225 ° 0 min 0,000 mm 0,5 UV-I 72 W/m² 4,8 °C 6,6 °C 4,8 km/h (1 Bft)
13.09.2017 08:15 6,6 °C 6,6 °C 88 % 1013,3 hPa 0,0 mm 2,4 km/h (1 Bft) N-NW 332 ° 0 min 0,000 mm 0,5 UV-I 69 W/m² 4,8 °C 6,6 °C 3,2 km/h (1 Bft)
13.09.2017 08:16 6,6 °C 6,6 °C 88 % 1013,3 hPa 0,0 mm 1,1 km/h (1 Bft) N-NW 332 ° 0 min 0,000 mm 0,6 UV-I 84 W/m² 4,8 °C 6,6 °C 3,2 km/h (1 Bft)
13.09.2017 08:17 6,7 °C 6,7 °C 88 % 1013,2 hPa 0,0 mm 1,5 km/h (1 Bft) N-NW 332 ° 0 min 0,000 mm 0,6 UV-I 88 W/m² 4,9 °C 6,7 °C 3,2 km/h (1 Bft)
13.09.2017 08:18 6,7 °C 6,7 °C 87 % 1013,2 hPa 0,0 mm 2,4 km/h (1 Bft) W-NW 288 ° 0 min 0,000 mm 0,6 UV-I 81 W/m² 4,7 °C 6,7 °C 4,8 km/h (1 Bft)
13.09.2017 08:19 6,8 °C 6,8 °C 87 % 1013,2 hPa 0,0 mm 1,9 km/h (1 Bft) N-NW 340 ° 0 min 0,000 mm 0,6 UV-I 76 W/m² 4,8 °C 6,8 °C 4,8 km/h (1 Bft)
13.09.2017 08:20 6,8 °C 6,8 °C 87 % 1013,2 hPa 0,0 mm 2,2 km/h (1 Bft) O-NO 77 ° 0 min 0,000 mm 0,6 UV-I 74 W/m² 4,8 °C 6,8 °C 4,8 km/h (1 Bft)
13.09.2017 08:21 6,8 °C 6,9 °C 87 % 1013,1 hPa 0,0 mm 3,0 km/h (1 Bft) O 82 ° 0 min 0,000 mm 0,6 UV-I 72 W/m² 4,8 °C 6,8 °C 4,8 km/h (1 Bft)
13.09.2017 08:22 6,9 °C 6,9 °C 87 % 1013,1 hPa 0,0 mm 0,1 km/h (0 Bft) O 82 ° 0 min 0,000 mm 0,6 UV-I 77 W/m² 4,9 °C 6,9 °C 1,6 km/h (1 Bft)
13.09.2017 08:23 6,8 °C 6,9 °C 88 % 1013,1 hPa 0,0 mm 1,1 km/h (1 Bft) O-NO 57 ° 0 min 0,000 mm 0,6 UV-I 83 W/m² 5,0 °C 6,8 °C 3,2 km/h (1 Bft)
13.09.2017 08:24 7,0 °C 7,0 °C 88 % 1013,1 hPa 0,0 mm 3,6 km/h (1 Bft) NW 304 ° 0 min 0,000 mm 0,7 UV-I 90 W/m² 5,2 °C 7,0 °C 4,8 km/h (1 Bft)
13.09.2017 08:25 7,2 °C 7,2 °C 87 % 1013,1 hPa 0,0 mm 2,8 km/h (1 Bft) W-SW 254 ° 0 min 0,000 mm 0,7 UV-I 104 W/m² 5,2 °C 7,2 °C 4,8 km/h (1 Bft)
13.09.2017 08:26 7,2 °C 7,2 °C 87 % 1013,1 hPa 0,0 mm 3,2 km/h (1 Bft) S-SW 211 ° 0 min 0,000 mm 0,7 UV-I 116 W/m² 5,2 °C 7,2 °C 4,8 km/h (1 Bft)
13.09.2017 08:27 7,3 °C 7,3 °C 86 % 1013,1 hPa 0,0 mm 0,9 km/h (0 Bft) SW 227 ° 0 min 0,000 mm 0,7 UV-I 127 W/m² 5,1 °C 7,3 °C 3,2 km/h (1 Bft)
13.09.2017 08:28 7,4 °C 7,4 °C 86 % 1013,0 hPa 0,0 mm 2,8 km/h (1 Bft) SO 135 ° 0 min 0,000 mm 0,7 UV-I 146 W/m² 5,2 °C 7,4 °C 6,4 km/h (2 Bft)
13.09.2017 08:29 7,5 °C 7,5 °C 87 % 1013,1 hPa 0,0 mm 0,1 km/h (0 Bft) SO 135 ° 0 min 0,000 mm 0,7 UV-I 156 W/m² 5,5 °C 7,5 °C 1,6 km/h (1 Bft)
13.09.2017 08:30 7,7 °C 7,7 °C 87 % 1013,1 hPa 0,0 mm 0,0 km/h (0 Bft) SO 135 ° 0 min 0,000 mm 0,7 UV-I 165 W/m² 5,7 °C 7,7 °C 0,0 km/h (0 Bft)
13.09.2017 08:31 7,9 °C 7,9 °C 87 % 1013,1 hPa 0,0 mm 1,3 km/h (1 Bft) O-NO 74 ° 0 min 0,000 mm 0,7 UV-I 163 W/m² 5,9 °C 7,9 °C 3,2 km/h (1 Bft)
13.09.2017 08:32 8,1 °C 8,1 °C 86 % 1013,1 hPa 0,0 mm 2,9 km/h (1 Bft) NO 53 ° 0 min 0,000 mm 0,7 UV-I 160 W/m² 5,9 °C 8,1 °C 4,8 km/h (1 Bft)
13.09.2017 08:33 8,2 °C 8,2 °C 85 % 1013,0 hPa 0,0 mm 2,0 km/h (1 Bft) O-NO 61 ° 0 min 0,000 mm 0,7 UV-I 151 W/m² 5,8 °C 8,2 °C 4,8 km/h (1 Bft)
13.09.2017 08:34 8,2 °C 8,3 °C 86 % 1013,0 hPa 0,0 mm 0,7 km/h (0 Bft) O-NO 61 ° 0 min 0,000 mm 0,7 UV-I 151 W/m² 6,0 °C 8,2 °C 3,2 km/h (1 Bft)
13.09.2017 08:35 8,3 °C 8,3 °C 85 % 1013,0 hPa 0,0 mm 0,0 km/h (0 Bft) O-NO 61 ° 0 min 0,000 mm 0,7 UV-I 174 W/m² 5,9 °C 8,3 °C 0,0 km/h (0 Bft)
13.09.2017 08:36 8,5 °C 8,5 °C 85 % 1013,0 hPa 0,0 mm 2,1 km/h (1 Bft) N-NO 31 ° 0 min 0,000 mm 0,7 UV-I 174 W/m² 6,1 °C 8,5 °C 4,8 km/h (1 Bft)
13.09.2017 08:37 8,7 °C 8,7 °C 84 % 1013,1 hPa 0,0 mm 2,5 km/h (1 Bft) N-NW 345 ° 0 min 0,000 mm 0,7 UV-I 195 W/m² 6,2 °C 8,7 °C 4,8 km/h (1 Bft)
13.09.2017 08:38 8,9 °C 8,9 °C 84 % 1013,0 hPa 0,0 mm 0,8 km/h (0 Bft) N-NW 345 ° 0 min 0,000 mm 0,7 UV-I 207 W/m² 6,3 °C 8,9 °C 3,2 km/h (1 Bft)
13.09.2017 08:39 9,0 °C 9,0 °C 84 % 1013,0 hPa 0,0 mm 0,1 km/h (0 Bft) N-NW 345 ° 0 min 0,000 mm 0,7 UV-I 158 W/m² 6,4 °C 9,0 °C 1,6 km/h (1 Bft)
13.09.2017 08:40 9,1 °C 9,1 °C 84 % 1013,0 hPa 0,0 mm 0,0 km/h (0 Bft) N-NW 345 ° 0 min 0,000 mm 0,7 UV-I 160 W/m² 6,5 °C 9,1 °C 0,0 km/h (0 Bft)
13.09.2017 08:41 9,1 °C 9,1 °C 83 % 1013,0 hPa 0,0 mm 0,4 km/h (0 Bft) N-NW 345 ° 0 min 0,000 mm 0,6 UV-I 137 W/m² 6,4 °C 9,1 °C 3,2 km/h (1 Bft)
13.09.2017 08:42 9,1 °C 9,1 °C 82 % 1013,0 hPa 0,0 mm 1,2 km/h (1 Bft) N-NW 345 ° 0 min 0,000 mm 0,7 UV-I 135 W/m² 6,2 °C 9,1 °C 3,2 km/h (1 Bft)
13.09.2017 08:43 9,1 °C 9,1 °C 84 % 1013,0 hPa 0,0 mm 0,4 km/h (0 Bft) N-NW 345 ° 0 min 0,000 mm 0,6 UV-I 123 W/m² 6,5 °C 9,1 °C 1,6 km/h (1 Bft)
13.09.2017 08:44 9,1 °C 9,1 °C 82 % 1013,1 hPa 0,0 mm 1,9 km/h (1 Bft) N-NW 327 ° 0 min 0,000 mm 0,7 UV-I 171 W/m² 6,2 °C 9,1 °C 4,8 km/h (1 Bft)
13.09.2017 08:45 9,2 °C 9,2 °C 84 % 1013,0 hPa 0,0 mm 1,4 km/h (1 Bft) N-NW 327 ° 0 min 0,000 mm 0,7 UV-I 105 W/m² 6,6 °C 9,2 °C 3,2 km/h (1 Bft)
13.09.2017 08:46 9,2 °C 9,2 °C 83 % 1013,0 hPa 0,0 mm 0,0 km/h (0 Bft) N-NW 327 ° 0 min 0,000 mm 0,7 UV-I 105 W/m² 6,5 °C 9,2 °C 0,0 km/h (0 Bft)
13.09.2017 08:47 9,2 °C 9,2 °C 81 % 1013,0 hPa 0,0 mm 0,0 km/h (0 Bft) N-NW 327 ° 0 min 0,000 mm 0,7 UV-I 111 W/m² 6,1 °C 9,2 °C 0,0 km/h (0 Bft)
13.09.2017 08:48 9,2 °C 9,2 °C 82 % 1013,0 hPa 0,0 mm 0,1 km/h (0 Bft) N-NW 327 ° 0 min 0,000 mm 0,8 UV-I 118 W/m² 6,3 °C 9,2 °C 1,6 km/h (1 Bft)
13.09.2017 08:49 9,1 °C 9,2 °C 82 % 1013,0 hPa 0,0 mm 0,1 km/h (0 Bft) N-NW 327 ° 0 min 0,000 mm 0,8 UV-I 125 W/m² 6,2 °C 9,1 °C 1,6 km/h (1 Bft)
13.09.2017 08:50 9,1 °C 9,1 °C 81 % 1013,0 hPa 0,0 mm 0,8 km/h (0 Bft) N-NW 334 ° 0 min 0,000 mm 0,8 UV-I 132 W/m² 6,0 °C 9,1 °C 3,2 km/h (1 Bft)
13.09.2017 08:51 9,1 °C 9,1 °C 83 % 1013,0 hPa 0,0 mm 0,2 km/h (0 Bft) N-NW 334 ° 0 min 0,000 mm 0,8 UV-I 146 W/m² 6,4 °C 9,1 °C 1,6 km/h (1 Bft)
13.09.2017 08:52 9,1 °C 9,1 °C 82 % 1013,0 hPa 0,0 mm 0,2 km/h (0 Bft) N-NW 334 ° 0 min 0,000 mm 0,9 UV-I 229 W/m² 6,2 °C 9,1 °C 1,6 km/h (1 Bft)
13.09.2017 08:53 9,1 °C 9,1 °C 83 % 1013,0 hPa 0,0 mm 0,6 km/h (0 Bft) N-NW 334 ° 0 min 0,000 mm 0,9 UV-I 202 W/m² 6,4 °C 9,1 °C 1,6 km/h (1 Bft)
13.09.2017 08:54 9,1 °C 9,1 °C 82 % 1013,0 hPa 0,0 mm 2,2 km/h (1 Bft) N-NW 334 ° 0 min 0,000 mm 1,0 UV-I 193 W/m² 6,2 °C 9,1 °C 3,2 km/h (1 Bft)
13.09.2017 08:55 9,2 °C 9,2 °C 82 % 1013,0 hPa 0,0 mm 0,7 km/h (0 Bft) N-NW 334 ° 0 min 0,000 mm 1,0 UV-I 257 W/m² 6,3 °C 9,2 °C 1,6 km/h (1 Bft)
13.09.2017 08:56 9,2 °C 9,2 °C 81 % 1013,0 hPa 0,0 mm 0,0 km/h (0 Bft) N-NW 334 ° 0 min 0,000 mm 0,9 UV-I 167 W/m² 6,1 °C 9,2 °C 0,0 km/h (0 Bft)
13.09.2017 08:57 9,3 °C 9,3 °C 81 % 1012,9 hPa 0,0 mm 1,0 km/h (0 Bft) N-NO 19 ° 0 min 0,000 mm 0,9 UV-I 142 W/m² 6,2 °C 9,3 °C 3,2 km/h (1 Bft)
13.09.2017 08:58 9,4 °C 9,4 °C 82 % 1012,9 hPa 0,0 mm 2,2 km/h (1 Bft) NW 320 ° 0 min 0,000 mm 1,0 UV-I 149 W/m² 6,5 °C 9,4 °C 3,2 km/h (1 Bft)
13.09.2017 08:59 9,4 °C 9,4 °C 81 % 1012,9 hPa 0,0 mm 1,2 km/h (1 Bft) NW 320 ° 0 min 0,000 mm 1,0 UV-I 162 W/m² 6,3 °C 9,4 °C 3,2 km/h (1 Bft)
13.09.2017 09:00 9,4 °C 9,4 °C 82 % 1012,9 hPa 0,0 mm 1,4 km/h (1 Bft) W-SW 242 ° 0 min 0,000 mm 1,1 UV-I 183 W/m² 6,5 °C 9,4 °C 4,8 km/h (1 Bft)
13.09.2017 09:01 9,5 °C 9,5 °C 80 % 1012,9 hPa 0,0 mm 0,4 km/h (0 Bft) W-SW 242 ° 0 min 0,051 mm 1,2 UV-I 211 W/m² 6,2 °C 9,5 °C 1,6 km/h (1 Bft)
13.09.2017 09:02 9,6 °C 9,6 °C 81 % 1012,8 hPa 0,0 mm 1,4 km/h (1 Bft) W-SW 242 ° 0 min 0,000 mm 1,1 UV-I 188 W/m² 6,5 °C 9,6 °C 3,2 km/h (1 Bft)
13.09.2017 09:03 9,6 °C 9,6 °C 81 % 1012,9 hPa 0,0 mm 1,3 km/h (1 Bft) NW 321 ° 0 min 0,000 mm 1,0 UV-I 153 W/m² 6,5 °C 9,6 °C 4,8 km/h (1 Bft)
13.09.2017 09:04 9,7 °C 9,7 °C 82 % 1012,9 hPa 0,0 mm 3,3 km/h (1 Bft) W 273 ° 0 min 0,000 mm 1,1 UV-I 185 W/m² 6,8 °C 9,7 °C 4,8 km/h (1 Bft)
13.09.2017 09:05 9,7 °C 9,7 °C 80 % 1012,9 hPa 0,0 mm 2,1 km/h (1 Bft) W 273 ° 0 min 0,000 mm 1,3 UV-I 223 W/m² 6,4 °C 9,7 °C 3,2 km/h (1 Bft)
13.09.2017 09:06 9,7 °C 9,7 °C 79 % 1012,9 hPa 0,0 mm 1,3 km/h (1 Bft) W 274 ° 0 min 0,000 mm 1,1 UV-I 167 W/m² 6,2 °C 9,7 °C 3,2 km/h (1 Bft)
13.09.2017 09:07 9,7 °C 9,7 °C 81 % 1012,9 hPa 0,0 mm 2,2 km/h (1 Bft) W 274 ° 0 min 0,000 mm 1,1 UV-I 160 W/m² 6,6 °C 9,7 °C 4,8 km/h (1 Bft)
13.09.2017 09:08 9,7 °C 9,7 °C 79 % 1012,9 hPa 0,0 mm 1,7 km/h (1 Bft) W 274 ° 0 min 0,000 mm 1,2 UV-I 178 W/m² 6,2 °C 9,7 °C 3,2 km/h (1 Bft)
13.09.2017 09:09 9,7 °C 9,7 °C 79 % 1012,9 hPa 0,0 mm 0,5 km/h (0 Bft) W 274 ° 0 min 0,000 mm 1,4 UV-I 216 W/m² 6,2 °C 9,7 °C 1,6 km/h (1 Bft)
13.09.2017 09:10 9,9 °C 9,9 °C 79 % 1012,9 hPa 0,0 mm 1,5 km/h (1 Bft) W-SW 247 ° 0 min 0,000 mm 1,4 UV-I 248 W/m² 6,4 °C 9,9 °C 4,8 km/h (1 Bft)
13.09.2017 09:11 10,0 °C 10,0 °C 81 % 1012,9 hPa 0,0 mm 2,8 km/h (1 Bft) W 279 ° 0 min 0,000 mm 1,4 UV-I 279 W/m² 6,9 °C 10,0 °C 4,8 km/h (1 Bft)
13.09.2017 09:12 10,1 °C 10,1 °C 79 % 1012,8 hPa 0,0 mm 2,6 km/h (1 Bft) W 271 ° 0 min 0,000 mm 1,3 UV-I 225 W/m² 6,6 °C 10,1 °C 4,8 km/h (1 Bft)
13.09.2017 09:13 10,2 °C 10,2 °C 78 % 1012,8 hPa 0,0 mm 2,0 km/h (1 Bft) W 271 ° 0 min 0,000 mm 1,3 UV-I 202 W/m² 6,5 °C 10,2 °C 4,8 km/h (1 Bft)
13.09.2017 09:14 10,3 °C 10,3 °C 81 % 1012,7 hPa 0,0 mm 1,1 km/h (1 Bft) W 271 ° 0 min 0,000 mm 1,4 UV-I 229 W/m² 7,2 °C 10,3 °C 1,6 km/h (1 Bft)
13.09.2017 09:15 10,2 °C 10,3 °C 81 % 1012,7 hPa 0,0 mm 0,0 km/h (0 Bft) W 271 ° 1 min 0,000 mm 1,5 UV-I 309 W/m² 7,1 °C 10,2 °C 0,0 km/h (0 Bft)
13.09.2017 09:16 10,2 °C 10,2 °C 78 % 1012,7 hPa 0,0 mm 0,0 km/h (0 Bft) W 271 ° 0 min 0,000 mm 1,5 UV-I 283 W/m² 6,5 °C 10,2 °C 0,0 km/h (0 Bft)
13.09.2017 09:17 10,2 °C 10,2 °C 81 % 1012,6 hPa 0,0 mm 0,1 km/h (0 Bft) W 271 ° 0 min 0,000 mm 1,5 UV-I 283 W/m² 7,1 °C 10,2 °C 1,6 km/h (1 Bft)
13.09.2017 09:18 10,3 °C 10,3 °C 82 % 1012,6 hPa 0,0 mm 1,3 km/h (1 Bft) W 274 ° 1 min 0,000 mm 1,5 UV-I 313 W/m² 7,4 °C 10,3 °C 3,2 km/h (1 Bft)
13.09.2017 09:19 10,5 °C 10,5 °C 80 % 1012,6 hPa 0,0 mm 3,1 km/h (1 Bft) W 275 ° 1 min 0,000 mm 1,5 UV-I 359 W/m² 7,2 °C 10,5 °C 4,8 km/h (1 Bft)
13.09.2017 09:20 10,7 °C 10,7 °C 78 % 1012,5 hPa 0,0 mm 3,6 km/h (1 Bft) NW 317 ° 0 min 0,000 mm 1,5 UV-I 267 W/m² 7,0 °C 10,7 °C 4,8 km/h (1 Bft)
13.09.2017 09:21 10,7 °C 10,7 °C 76 % 1012,5 hPa 0,0 mm 1,5 km/h (1 Bft) NW 317 ° 0 min 0,000 mm 1,4 UV-I 255 W/m² 6,6 °C 10,7 °C 3,2 km/h (1 Bft)
13.09.2017 09:22 10,7 °C 10,7 °C 77 % 1012,5 hPa 0,0 mm 0,1 km/h (0 Bft) NW 317 ° 0 min 0,000 mm 1,3 UV-I 244 W/m² 6,8 °C 10,7 °C 1,6 km/h (1 Bft)
13.09.2017 09:23 10,7 °C 10,7 °C 81 % 1012,5 hPa 0,0 mm 0,1 km/h (0 Bft) NW 317 ° 0 min 0,000 mm 1,3 UV-I 236 W/m² 7,6 °C 10,7 °C 1,6 km/h (1 Bft)
13.09.2017 09:24 10,7 °C 10,7 °C 83 % 1012,6 hPa 0,0 mm 1,3 km/h (1 Bft) NW 317 ° 0 min 0,000 mm 1,3 UV-I 218 W/m² 7,9 °C 10,7 °C 3,2 km/h (1 Bft)
13.09.2017 09:25 10,6 °C 10,7 °C 78 % 1012,6 hPa 0,0 mm 0,5 km/h (0 Bft) NW 317 ° 0 min 0,000 mm 1,2 UV-I 204 W/m² 6,9 °C 10,6 °C 3,2 km/h (1 Bft)
13.09.2017 09:26 10,7 °C 10,7 °C 76 % 1012,5 hPa 0,0 mm 0,0 km/h (0 Bft) NW 317 ° 0 min 0,000 mm 1,2 UV-I 167 W/m² 6,6 °C 10,7 °C 0,0 km/h (0 Bft)
13.09.2017 09:27 10,7 °C 10,7 °C 77 % 1012,5 hPa 0,0 mm 0,0 km/h (0 Bft) NW 317 ° 0 min 0,000 mm 1,2 UV-I 163 W/m² 6,8 °C 10,7 °C 0,0 km/h (0 Bft)
13.09.2017 09:28 10,7 °C 10,7 °C 77 % 1012,5 hPa 0,0 mm 0,0 km/h (0 Bft) NW 317 ° 0 min 0,000 mm 1,2 UV-I 162 W/m² 6,8 °C 10,7 °C 0,0 km/h (0 Bft)
13.09.2017 09:29 10,7 °C 10,7 °C 78 % 1012,5 hPa 0,0 mm 0,0 km/h (0 Bft) NW 317 ° 0 min 0,000 mm 1,2 UV-I 158 W/m² 7,0 °C 10,7 °C 0,0 km/h (0 Bft)
13.09.2017 09:30 10,7 °C 10,7 °C 78 % 1012,4 hPa 0,0 mm 0,0 km/h (0 Bft) NW 317 ° 0 min 0,000 mm 1,2 UV-I 155 W/m² 7,0 °C 10,7 °C 0,0 km/h (0 Bft)
13.09.2017 09:31 10,7 °C 10,7 °C 76 % 1012,5 hPa 0,0 mm 0,0 km/h (0 Bft) NW 317 ° 0 min 0,000 mm 1,2 UV-I 158 W/m² 6,6 °C 10,7 °C 0,0 km/h (0 Bft)
13.09.2017 09:32 10,8 °C 10,8 °C 77 % 1012,5 hPa 0,0 mm 0,5 km/h (0 Bft) NW 317 ° 0 min 0,000 mm 1,2 UV-I 176 W/m² 6,9 °C 10,8 °C 3,2 km/h (1 Bft)
13.09.2017 09:33 10,8 °C 10,8 °C 77 % 1012,4 hPa 0,0 mm 3,0 km/h (1 Bft) NW 320 ° 0 min 0,000 mm 1,4 UV-I 253 W/m² 6,9 °C 10,8 °C 4,8 km/h (1 Bft)
13.09.2017 09:34 10,9 °C 10,9 °C 77 % 1012,3 hPa 0,0 mm 1,3 km/h (1 Bft) NW 320 ° 0 min 0,000 mm 1,3 UV-I 185 W/m² 7,0 °C 10,9 °C 3,2 km/h (1 Bft)
13.09.2017 09:35 11,1 °C 11,1 °C 78 % 1012,3 hPa 0,0 mm 1,0 km/h (0 Bft) NW 320 ° 0 min 0,000 mm 1,3 UV-I 176 W/m² 7,4 °C 11,1 °C 3,2 km/h (1 Bft)
13.09.2017 09:36 11,0 °C 11,1 °C 77 % 1012,3 hPa 0,0 mm 0,4 km/h (0 Bft) NW 321 ° 0 min 0,000 mm 1,3 UV-I 169 W/m² 7,1 °C 11,0 °C 1,6 km/h (1 Bft)
13.09.2017 09:37 11,1 °C 11,1 °C 77 % 1012,4 hPa 0,0 mm 3,8 km/h (1 Bft) NW 320 ° 0 min 0,000 mm 1,3 UV-I 176 W/m² 7,2 °C 11,1 °C 6,4 km/h (2 Bft)
13.09.2017 09:38 11,1 °C 11,1 °C 76 % 1012,4 hPa 0,0 mm 4,8 km/h (1 Bft) NW 311 ° 0 min 0,000 mm 1,3 UV-I 223 W/m² 7,0 °C 11,1 °C 6,4 km/h (2 Bft)
13.09.2017 09:39 11,1 °C 11,1 °C 76 % 1012,5 hPa 0,0 mm 2,3 km/h (1 Bft) NW 311 ° 0 min 0,000 mm 1,4 UV-I 221 W/m² 7,0 °C 11,1 °C 4,8 km/h (1 Bft)
13.09.2017 09:40 11,2 °C 11,2 °C 73 % 1012,6 hPa 0,0 mm 0,9 km/h (0 Bft) NW 311 ° 0 min 0,000 mm 1,3 UV-I 218 W/m² 6,5 °C 11,2 °C 3,2 km/h (1 Bft)
13.09.2017 09:41 11,2 °C 11,2 °C 76 % 1012,6 hPa 0,0 mm 1,1 km/h (1 Bft) N 355 ° 0 min 0,000 mm 1,3 UV-I 206 W/m² 7,1 °C 11,2 °C 3,2 km/h (1 Bft)
13.09.2017 09:42 11,3 °C 11,3 °C 77 % 1012,5 hPa 0,0 mm 3,5 km/h (1 Bft) N 5 ° 0 min 0,000 mm 1,3 UV-I 190 W/m² 7,4 °C 11,3 °C 4,8 km/h (1 Bft)
13.09.2017 09:43 11,3 °C 11,3 °C 76 % 1012,5 hPa 0,0 mm 0,9 km/h (0 Bft) N-NO 14 ° 0 min 0,000 mm 1,3 UV-I 186 W/m² 7,2 °C 11,3 °C 3,2 km/h (1 Bft)
13.09.2017 09:44 11,3 °C 11,3 °C 76 % 1012,5 hPa 0,0 mm 0,9 km/h (0 Bft) N-NO 13 ° 0 min 0,000 mm 1,4 UV-I 206 W/m² 7,2 °C 11,3 °C 1,6 km/h (1 Bft)
13.09.2017 09:45 11,4 °C 11,4 °C 78 % 1012,5 hPa 0,0 mm 3,4 km/h (1 Bft) NW 310 ° 0 min 0,000 mm 1,5 UV-I 230 W/m² 7,7 °C 11,4 °C 4,8 km/h (1 Bft)
13.09.2017 09:46 11,4 °C 11,4 °C 76 % 1012,6 hPa 0,0 mm 4,2 km/h (1 Bft) NW 319 ° 0 min 0,000 mm 1,5 UV-I 229 W/m² 7,3 °C 11,4 °C 6,4 km/h (2 Bft)
13.09.2017 09:47 11,5 °C 11,5 °C 74 % 1012,6 hPa 0,0 mm 1,9 km/h (1 Bft) NW 319 ° 0 min 0,000 mm 1,5 UV-I 223 W/m² 7,0 °C 11,5 °C 3,2 km/h (1 Bft)
13.09.2017 09:48 11,6 °C 11,6 °C 78 % 1012,5 hPa 0,0 mm 0,7 km/h (0 Bft) NW 319 ° 0 min 0,000 mm 1,6 UV-I 241 W/m² 7,9 °C 11,6 °C 3,2 km/h (1 Bft)
13.09.2017 09:49 11,6 °C 11,6 °C 75 % 1012,5 hPa 0,0 mm 0,7 km/h (0 Bft) NW 319 ° 0 min 0,000 mm 1,7 UV-I 276 W/m² 7,3 °C 11,6 °C 3,2 km/h (1 Bft)
13.09.2017 09:50 11,5 °C 11,6 °C 75 % 1012,5 hPa 0,0 mm 0,3 km/h (0 Bft) NW 319 ° 1 min 0,000 mm 1,8 UV-I 353 W/m² 7,2 °C 11,5 °C 1,6 km/h (1 Bft)
13.09.2017 09:51 11,6 °C 11,6 °C 76 % 1012,4 hPa 0,0 mm 0,4 km/h (0 Bft) NW 319 ° 1 min 0,000 mm 1,8 UV-I 309 W/m² 7,5 °C 11,6 °C 3,2 km/h (1 Bft)
13.09.2017 09:52 11,7 °C 11,7 °C 78 % 1012,4 hPa 0,0 mm 1,3 km/h (1 Bft) N-NW 338 ° 1 min 0,000 mm 1,9 UV-I 378 W/m² 8,0 °C 11,7 °C 3,2 km/h (1 Bft)
13.09.2017 09:53 11,8 °C 11,8 °C 75 % 1012,4 hPa 0,0 mm 3,8 km/h (1 Bft) N-NW 336 ° 1 min 0,000 mm 1,9 UV-I 329 W/m² 7,5 °C 11,8 °C 4,8 km/h (1 Bft)
13.09.2017 09:54 11,9 °C 11,9 °C 75 % 1012,4 hPa 0,0 mm 3,3 km/h (1 Bft) N-NW 333 ° 0 min 0,000 mm 1,6 UV-I 285 W/m² 7,6 °C 11,9 °C 4,8 km/h (1 Bft)
13.09.2017 09:55 12,1 °C 12,1 °C 74 % 1012,4 hPa 0,0 mm 1,7 km/h (1 Bft) N-NW 333 ° 0 min 0,000 mm 1,4 UV-I 237 W/m² 7,6 °C 12,1 °C 4,8 km/h (1 Bft)
13.09.2017 09:56 12,1 °C 12,1 °C 70 % 1012,3 hPa 0,0 mm 0,9 km/h (0 Bft) N-NW 331 ° 0 min 0,000 mm 1,3 UV-I 199 W/m² 6,8 °C 12,1 °C 1,6 km/h (1 Bft)
13.09.2017 09:57 12,1 °C 12,1 °C 69 % 1012,2 hPa 0,0 mm 1,5 km/h (1 Bft) N-NW 337 ° 0 min 0,000 mm 1,2 UV-I 181 W/m² 6,6 °C 12,1 °C 3,2 km/h (1 Bft)
13.09.2017 09:58 12,1 °C 12,2 °C 70 % 1012,2 hPa 0,0 mm 2,2 km/h (1 Bft) N-NW 337 ° 0 min 0,000 mm 1,2 UV-I 172 W/m² 6,8 °C 12,1 °C 3,2 km/h (1 Bft)
13.09.2017 09:59 12,2 °C 12,2 °C 73 % 1012,3 hPa 0,0 mm 0,5 km/h (0 Bft) N-NW 337 ° 0 min 0,000 mm 1,2 UV-I 172 W/m² 7,5 °C 12,2 °C 3,2 km/h (1 Bft)
13.09.2017 10:00 12,1 °C 12,2 °C 73 % 1012,2 hPa 0,0 mm 3,6 km/h (1 Bft) N 5 ° 0 min 0,000 mm 1,1 UV-I 169 W/m² 7,4 °C 12,1 °C 4,8 km/h (1 Bft)
13.09.2017 10:01 12,2 °C 12,2 °C 74 % 1012,2 hPa 0,0 mm 1,4 km/h (1 Bft) N 360 ° 0 min 0,102 mm 1,1 UV-I 155 W/m² 7,7 °C 12,2 °C 3,2 km/h (1 Bft)
13.09.2017 10:02 12,2 °C 12,2 °C 75 % 1012,2 hPa 0,0 mm 0,7 km/h (0 Bft) N-NO 12 ° 0 min 0,000 mm 1,1 UV-I 153 W/m² 7,9 °C 12,2 °C 1,6 km/h (1 Bft)
13.09.2017 10:03 12,2 °C 12,3 °C 77 % 1012,2 hPa 0,0 mm 0,1 km/h (0 Bft) N 10 ° 0 min 0,000 mm 1,2 UV-I 160 W/m² 8,3 °C 12,2 °C 1,6 km/h (1 Bft)
13.09.2017 10:04 12,1 °C 12,2 °C 77 % 1012,1 hPa 0,0 mm 0,1 km/h (0 Bft) N-NO 12 ° 0 min 0,000 mm 1,3 UV-I 171 W/m² 8,2 °C 12,1 °C 1,6 km/h (1 Bft)
13.09.2017 10:05 12,1 °C 12,1 °C 75 % 1012,2 hPa 0,0 mm 3,6 km/h (1 Bft) N-NW 336 ° 0 min 0,000 mm 1,4 UV-I 188 W/m² 7,8 °C 12,1 °C 4,8 km/h (1 Bft)
13.09.2017 10:06 12,1 °C 12,1 °C 74 % 1012,2 hPa 0,0 mm 2,9 km/h (1 Bft) W-NW 290 ° 0 min 0,000 mm 1,5 UV-I 207 W/m² 7,6 °C 12,1 °C 4,8 km/h (1 Bft)
13.09.2017 10:07 12,2 °C 12,2 °C 76 % 1012,3 hPa 0,0 mm 0,7 km/h (0 Bft) W-NW 290 ° 0 min 0,000 mm 1,5 UV-I 237 W/m² 8,1 °C 12,2 °C 1,6 km/h (1 Bft)
13.09.2017 10:08 12,2 °C 12,2 °C 76 % 1012,2 hPa 0,0 mm 1,0 km/h (0 Bft) N-NO 24 ° 0 min 0,000 mm 1,6 UV-I 243 W/m² 8,1 °C 12,2 °C 3,2 km/h (1 Bft)
13.09.2017 10:09 12,2 °C 12,2 °C 77 % 1012,2 hPa 0,0 mm 2,3 km/h (1 Bft) NO 56 ° 0 min 0,000 mm 1,7 UV-I 243 W/m² 8,3 °C 12,2 °C 4,8 km/h (1 Bft)
13.09.2017 10:10 12,2 °C 12,2 °C 77 % 1012,2 hPa 0,0 mm 0,0 km/h (0 Bft) NO 56 ° 0 min 0,000 mm 1,6 UV-I 236 W/m² 8,3 °C 12,2 °C 0,0 km/h (0 Bft)
13.09.2017 10:11 12,2 °C 12,2 °C 74 % 1012,2 hPa 0,0 mm 1,3 km/h (1 Bft) NO 54 ° 0 min 0,000 mm 1,6 UV-I 230 W/m² 7,7 °C 12,2 °C 3,2 km/h (1 Bft)
13.09.2017 10:12 12,3 °C 12,3 °C 74 % 1012,2 hPa 0,0 mm 2,0 km/h (1 Bft) NO 53 ° 0 min 0,000 mm 1,6 UV-I 232 W/m² 7,8 °C 12,3 °C 3,2 km/h (1 Bft)
13.09.2017 10:13 12,4 °C 12,4 °C 73 % 1012,2 hPa 0,0 mm 0,4 km/h (0 Bft) NO 53 ° 0 min 0,000 mm 1,6 UV-I 232 W/m² 7,7 °C 12,4 °C 1,6 km/h (1 Bft)
13.09.2017 10:14 12,4 °C 12,4 °C 75 % 1012,2 hPa 0,0 mm 0,3 km/h (0 Bft) NO 53 ° 0 min 0,000 mm 1,8 UV-I 237 W/m² 8,1 °C 12,4 °C 3,2 km/h (1 Bft)
13.09.2017 10:15 12,4 °C 12,4 °C 74 % 1012,1 hPa 0,0 mm 1,9 km/h (1 Bft) NO 38 ° 0 min 0,000 mm 1,8 UV-I 246 W/m² 7,9 °C 12,4 °C 4,8 km/h (1 Bft)
13.09.2017 10:16 12,5 °C 12,5 °C 75 % 1012,2 hPa 0,0 mm 0,3 km/h (0 Bft) NO 38 ° 0 min 0,000 mm 1,8 UV-I 244 W/m² 8,2 °C 12,5 °C 1,6 km/h (1 Bft)
13.09.2017 10:17 12,6 °C 12,6 °C 75 % 1012,2 hPa 0,0 mm 0,1 km/h (0 Bft) NO 38 ° 0 min 0,000 mm 1,8 UV-I 237 W/m² 8,3 °C 12,6 °C 1,6 km/h (1 Bft)
13.09.2017 10:18 12,7 °C 12,7 °C 77 % 1012,2 hPa 0,0 mm 0,0 km/h (0 Bft) NO 38 ° 0 min 0,000 mm 1,8 UV-I 236 W/m² 8,8 °C 12,7 °C 0,0 km/h (0 Bft)
13.09.2017 10:19 12,7 °C 12,7 °C 74 % 1012,2 hPa 0,0 mm 0,0 km/h (0 Bft) NO 38 ° 0 min 0,000 mm 1,9 UV-I 255 W/m² 8,2 °C 12,7 °C 0,0 km/h (0 Bft)
13.09.2017 10:20 12,6 °C 12,7 °C 75 % 1012,2 hPa 0,0 mm 0,0 km/h (0 Bft) NO 38 ° 0 min 0,000 mm 1,9 UV-I 262 W/m² 8,3 °C 12,6 °C 0,0 km/h (0 Bft)
13.09.2017 10:21 12,6 °C 12,6 °C 77 % 1012,1 hPa 0,0 mm 0,0 km/h (0 Bft) NO 38 ° 0 min 0,000 mm 1,9 UV-I 251 W/m² 8,7 °C 12,6 °C 0,0 km/h (0 Bft)
13.09.2017 10:22 12,6 °C 12,6 °C 76 % 1012,1 hPa 0,0 mm 0,0 km/h (0 Bft) NO 38 ° 0 min 0,000 mm 1,9 UV-I 237 W/m² 8,5 °C 12,6 °C 0,0 km/h (0 Bft)
13.09.2017 10:23 12,6 °C 12,6 °C 77 % 1012,1 hPa 0,0 mm 0,7 km/h (0 Bft) NO 38 ° 0 min 0,000 mm 1,9 UV-I 234 W/m² 8,7 °C 12,6 °C 1,6 km/h (1 Bft)
13.09.2017 10:24 12,7 °C 12,7 °C 72 % 1012,1 hPa 0,0 mm 0,7 km/h (0 Bft) NO 38 ° 0 min 0,000 mm 1,9 UV-I 244 W/m² 7,8 °C 12,7 °C 3,2 km/h (1 Bft)
13.09.2017 10:25 12,8 °C 12,8 °C 77 % 1012,1 hPa 0,0 mm 1,1 km/h (1 Bft) NO 38 ° 0 min 0,000 mm 1,9 UV-I 258 W/m² 8,9 °C 12,8 °C 4,8 km/h (1 Bft)
13.09.2017 10:26 12,9 °C 12,9 °C 78 % 1012,1 hPa 0,0 mm 0,0 km/h (0 Bft) NO 38 ° 0 min 0,000 mm 1,9 UV-I 271 W/m² 9,2 °C 12,9 °C 0,0 km/h (0 Bft)
13.09.2017 10:27 13,0 °C 13,0 °C 76 % 1012,1 hPa 0,0 mm 0,7 km/h (0 Bft) NO 38 ° 0 min 0,000 mm 1,9 UV-I 258 W/m² 8,9 °C 13,0 °C 1,6 km/h (1 Bft)
13.09.2017 10:28 13,0 °C 13,0 °C 73 % 1012,2 hPa 0,0 mm 1,7 km/h (1 Bft) NO 38 ° 0 min 0,000 mm 1,8 UV-I 250 W/m² 8,3 °C 13,0 °C 3,2 km/h (1 Bft)
13.09.2017 10:29 13,2 °C 13,2 °C 70 % 1012,2 hPa 0,0 mm 1,3 km/h (1 Bft) NO 38 ° 0 min 0,000 mm 1,7 UV-I 229 W/m² 7,9 °C 13,2 °C 3,2 km/h (1 Bft)
13.09.2017 10:30 13,2 °C 13,2 °C 70 % 1012,2 hPa 0,0 mm 0,0 km/h (0 Bft) NO 38 ° 0 min 0,000 mm 1,7 UV-I 220 W/m² 7,9 °C 13,2 °C 0,0 km/h (0 Bft)
13.09.2017 10:31 13,3 °C 13,3 °C 73 % 1012,1 hPa 0,0 mm 0,0 km/h (0 Bft) NO 38 ° 0 min 0,000 mm 1,8 UV-I 237 W/m² 8,6 °C 13,3 °C 0,0 km/h (0 Bft)
13.09.2017 10:32 13,4 °C 13,4 °C 73 % 1012,1 hPa 0,0 mm 2,8 km/h (1 Bft) NO 42 ° 0 min 0,000 mm 1,9 UV-I 241 W/m² 8,7 °C 13,4 °C 4,8 km/h (1 Bft)
13.09.2017 10:33 13,3 °C 13,4 °C 70 % 1012,1 hPa 0,0 mm 2,4 km/h (1 Bft) NO 42 ° 0 min 0,000 mm 2,0 UV-I 251 W/m² 7,9 °C 13,3 °C 3,2 km/h (1 Bft)
13.09.2017 10:34 13,2 °C 13,3 °C 75 % 1012,1 hPa 0,0 mm 0,3 km/h (0 Bft) NO 42 ° 0 min 0,000 mm 2,1 UV-I 285 W/m² 8,9 °C 13,2 °C 3,2 km/h (1 Bft)
13.09.2017 10:35 13,2 °C 13,3 °C 78 % 1012,0 hPa 0,0 mm 0,7 km/h (0 Bft) NO 42 ° 0 min 0,000 mm 2,5 UV-I 285 W/m² 9,4 °C 13,2 °C 1,6 km/h (1 Bft)
13.09.2017 10:36 13,2 °C 13,2 °C 77 % 1012,1 hPa 0,0 mm 0,1 km/h (0 Bft) NO 42 ° 1 min 0,000 mm 2,4 UV-I 322 W/m² 9,3 °C 13,2 °C 1,6 km/h (1 Bft)
13.09.2017 10:37 13,3 °C 13,3 °C 72 % 1012,0 hPa 0,0 mm 1,5 km/h (1 Bft) NO 42 ° 1 min 0,000 mm 2,2 UV-I 299 W/m² 8,4 °C 13,3 °C 3,2 km/h (1 Bft)
13.09.2017 10:38 13,3 °C 13,3 °C 75 % 1012,0 hPa 0,0 mm 1,1 km/h (1 Bft) NO 42 ° 1 min 0,000 mm 2,6 UV-I 329 W/m² 9,0 °C 13,3 °C 1,6 km/h (1 Bft)
13.09.2017 10:39 13,3 °C 13,3 °C 75 % 1012,1 hPa 0,0 mm 0,0 km/h (0 Bft) NO 42 ° 1 min 0,000 mm 2,4 UV-I 394 W/m² 9,0 °C 13,3 °C 0,0 km/h (0 Bft)
13.09.2017 10:40 13,4 °C 13,4 °C 78 % 1012,1 hPa 0,0 mm 0,1 km/h (0 Bft) NO 42 ° 1 min 0,000 mm 2,2 UV-I 394 W/m² 9,6 °C 13,4 °C 1,6 km/h (1 Bft)
13.09.2017 10:41 13,6 °C 13,6 °C 76 % 1012,0 hPa 0,0 mm 0,0 km/h (0 Bft) NO 42 ° 1 min 0,000 mm 2,5 UV-I 309 W/m² 9,4 °C 13,6 °C 0,0 km/h (0 Bft)
13.09.2017 10:42 13,6 °C 13,6 °C 75 % 1012,0 hPa 0,0 mm 0,0 km/h (0 Bft) NO 42 ° 1 min 0,000 mm 2,5 UV-I 369 W/m² 9,3 °C 13,6 °C 0,0 km/h (0 Bft)
13.09.2017 10:43 13,7 °C 13,7 °C 75 % 1012,1 hPa 0,0 mm 0,1 km/h (0 Bft) NO 42 ° 1 min 0,000 mm 2,6 UV-I 318 W/m² 9,3 °C 13,7 °C 1,6 km/h (1 Bft)
13.09.2017 10:44 13,8 °C 13,8 °C 73 % 1012,0 hPa 0,0 mm 1,7 km/h (1 Bft) NO 41 ° 1 min 0,000 mm 2,7 UV-I 306 W/m² 9,0 °C 13,8 °C 3,2 km/h (1 Bft)
13.09.2017 10:45 14,1 °C 14,1 °C 74 % 1011,9 hPa 0,0 mm 0,7 km/h (0 Bft) NO 41 ° 1 min 0,000 mm 2,4 UV-I 403 W/m² 9,5 °C 14,1 °C 1,6 km/h (1 Bft)
13.09.2017 10:46 14,3 °C 14,3 °C 72 % 1011,9 hPa 0,0 mm 3,1 km/h (1 Bft) N 350 ° 1 min 0,000 mm 2,3 UV-I 403 W/m² 9,3 °C 14,3 °C 4,8 km/h (1 Bft)
13.09.2017 10:47 14,4 °C 14,4 °C 71 % 1011,9 hPa 0,0 mm 0,7 km/h (0 Bft) N 5 ° 1 min 0,000 mm 2,7 UV-I 290 W/m² 9,2 °C 14,4 °C 3,2 km/h (1 Bft)
13.09.2017 10:48 14,4 °C 14,4 °C 70 % 1011,8 hPa 0,0 mm 3,8 km/h (1 Bft) N-NO 32 ° 1 min 0,000 mm 2,5 UV-I 338 W/m² 9,0 °C 14,4 °C 4,8 km/h (1 Bft)
13.09.2017 10:49 14,4 °C 14,4 °C 68 % 1011,8 hPa 0,0 mm 2,1 km/h (1 Bft) N-NO 32 ° 1 min 0,000 mm 2,7 UV-I 322 W/m² 8,6 °C 14,4 °C 3,2 km/h (1 Bft)
13.09.2017 10:50 14,3 °C 14,4 °C 68 % 1011,8 hPa 0,0 mm 1,4 km/h (1 Bft) N-NO 32 ° 1 min 0,000 mm 2,6 UV-I 323 W/m² 8,5 °C 14,3 °C 3,2 km/h (1 Bft)
13.09.2017 10:51 14,3 °C 14,3 °C 66 % 1011,8 hPa 0,0 mm 0,9 km/h (0 Bft) N-NO 32 ° 1 min 0,000 mm 2,6 UV-I 329 W/m² 8,0 °C 14,3 °C 1,6 km/h (1 Bft)
13.09.2017 10:52 14,2 °C 14,3 °C 68 % 1011,8 hPa 0,0 mm 0,1 km/h (0 Bft) N-NO 32 ° 1 min 0,000 mm 2,5 UV-I 301 W/m² 8,4 °C 14,2 °C 1,6 km/h (1 Bft)
13.09.2017 10:53 14,2 °C 14,2 °C 68 % 1011,8 hPa 0,0 mm 0,0 km/h (0 Bft) N-NO 32 ° 0 min 0,000 mm 2,3 UV-I 281 W/m² 8,4 °C 14,2 °C 0,0 km/h (0 Bft)
13.09.2017 10:54 14,2 °C 14,2 °C 69 % 1011,8 hPa 0,0 mm 0,0 km/h (0 Bft) N-NO 32 ° 1 min 0,000 mm 2,3 UV-I 292 W/m² 8,6 °C 14,2 °C 0,0 km/h (0 Bft)
13.09.2017 10:55 14,3 °C 14,3 °C 69 % 1011,8 hPa 0,0 mm 0,0 km/h (0 Bft) N-NO 32 ° 1 min 0,000 mm 2,5 UV-I 311 W/m² 8,7 °C 14,3 °C 0,0 km/h (0 Bft)
13.09.2017 10:56 14,4 °C 14,4 °C 70 % 1011,7 hPa 0,0 mm 0,0 km/h (0 Bft) N-NO 32 ° 1 min 0,000 mm 2,3 UV-I 332 W/m² 9,0 °C 14,4 °C 0,0 km/h (0 Bft)
13.09.2017 10:57 14,4 °C 14,4 °C 66 % 1011,7 hPa 0,0 mm 0,0 km/h (0 Bft) N-NO 32 ° 0 min 0,000 mm 2,2 UV-I 251 W/m² 8,1 °C 14,4 °C 0,0 km/h (0 Bft)
13.09.2017 10:58 14,5 °C 14,5 °C 65 % 1011,7 hPa 0,0 mm 0,0 km/h (0 Bft) N-NO 32 ° 0 min 0,000 mm 2,2 UV-I 236 W/m² 8,0 °C 14,5 °C 0,0 km/h (0 Bft)
13.09.2017 10:59 14,6 °C 14,6 °C 65 % 1011,7 hPa 0,0 mm 0,0 km/h (0 Bft) N-NO 32 ° 0 min 0,000 mm 2,2 UV-I 225 W/m² 8,1 °C 14,6 °C 0,0 km/h (0 Bft)
13.09.2017 11:00 14,6 °C 14,6 °C 67 % 1011,6 hPa 0,0 mm 0,1 km/h (0 Bft) N-NO 32 ° 0 min 0,000 mm 2,1 UV-I 221 W/m² 8,5 °C 14,6 °C 1,6 km/h (1 Bft)
13.09.2017 11:01 14,7 °C 14,7 °C 70 % 1011,6 hPa 0,0 mm 0,0 km/h (0 Bft) N-NO 32 ° 0 min 0,127 mm 2,2 UV-I 209 W/m² 9,3 °C 14,7 °C 0,0 km/h (0 Bft)
13.09.2017 11:02 14,6 °C 14,7 °C 70 % 1011,6 hPa 0,0 mm 0,1 km/h (0 Bft) N-NO 32 ° 0 min 0,000 mm 2,2 UV-I 213 W/m² 9,2 °C 14,6 °C 1,6 km/h (1 Bft)
13.09.2017 11:03 14,5 °C 14,6 °C 69 % 1011,6 hPa 0,0 mm 0,3 km/h (0 Bft) N-NO 32 ° 0 min 0,000 mm 2,3 UV-I 230 W/m² 8,9 °C 14,5 °C 1,6 km/h (1 Bft)
13.09.2017 11:04 14,4 °C 14,5 °C 69 % 1011,7 hPa 0,0 mm 0,0 km/h (0 Bft) N-NO 32 ° 1 min 0,000 mm 2,5 UV-I 322 W/m² 8,8 °C 14,4 °C 0,0 km/h (0 Bft)
13.09.2017 11:05 14,4 °C 14,4 °C 75 % 1011,7 hPa 0,0 mm 0,0 km/h (0 Bft) N-NO 32 ° 0 min 0,000 mm 2,5 UV-I 258 W/m² 10,0 °C 14,4 °C 0,0 km/h (0 Bft)
13.09.2017 11:06 14,6 °C 14,6 °C 75 % 1011,6 hPa 0,0 mm 0,0 km/h (0 Bft) N-NO 32 ° 0 min 0,000 mm 2,5 UV-I 218 W/m² 10,2 °C 14,6 °C 0,0 km/h (0 Bft)
13.09.2017 11:07 14,5 °C 14,6 °C 74 % 1011,6 hPa 0,0 mm 0,0 km/h (0 Bft) N-NO 32 ° 0 min 0,000 mm 2,3 UV-I 192 W/m² 9,9 °C 14,5 °C 0,0 km/h (0 Bft)
13.09.2017 11:08 14,5 °C 14,6 °C 73 % 1011,6 hPa 0,0 mm 4,2 km/h (1 Bft) W-NW 299 ° 0 min 0,000 mm 2,4 UV-I 211 W/m² 9,7 °C 14,5 °C 9,7 km/h (2 Bft)
13.09.2017 11:09 14,6 °C 14,6 °C 71 % 1011,6 hPa 0,0 mm 3,8 km/h (1 Bft) S 189 ° 0 min 0,000 mm 2,7 UV-I 246 W/m² 9,4 °C 14,6 °C 8,0 km/h (2 Bft)
13.09.2017 11:10 14,4 °C 14,6 °C 71 % 1011,6 hPa 0,0 mm 0,9 km/h (0 Bft) S 190 ° 0 min 0,000 mm 2,5 UV-I 276 W/m² 9,2 °C 14,4 °C 3,2 km/h (1 Bft)
13.09.2017 11:11 14,3 °C 14,4 °C 72 % 1011,6 hPa 0,0 mm 0,8 km/h (0 Bft) S 190 ° 0 min 0,000 mm 2,7 UV-I 258 W/m² 9,3 °C 14,3 °C 1,6 km/h (1 Bft)
13.09.2017 11:12 14,3 °C 14,3 °C 75 % 1011,5 hPa 0,0 mm 2,2 km/h (1 Bft) W-NW 302 ° 1 min 0,000 mm 2,8 UV-I 355 W/m² 9,9 °C 14,3 °C 3,2 km/h (1 Bft)
13.09.2017 11:13 14,3 °C 14,3 °C 75 % 1011,5 hPa 0,0 mm 3,8 km/h (1 Bft) W-NW 284 ° 1 min 0,000 mm 2,6 UV-I 322 W/m² 9,9 °C 14,3 °C 12,9 km/h (3 Bft)
13.09.2017 11:14 14,4 °C 14,4 °C 76 % 1011,4 hPa 0,0 mm 8,1 km/h (2 Bft) W 276 ° 1 min 0,000 mm 3,0 UV-I 380 W/m² 10,2 °C 14,4 °C 11,3 km/h (2 Bft)
13.09.2017 11:15 14,6 °C 14,6 °C 74 % 1011,5 hPa 0,0 mm 4,5 km/h (1 Bft) W-NW 301 ° 1 min 0,000 mm 3,0 UV-I 403 W/m² 10,0 °C 14,6 °C 6,4 km/h (2 Bft)
13.09.2017 11:16 15,0 °C 15,0 °C 73 % 1011,4 hPa 0,0 mm 6,6 km/h (2 Bft) W-SW 257 ° 1 min 0,000 mm 2,8 UV-I 327 W/m² 10,2 °C 15,0 °C 11,3 km/h (2 Bft)
13.09.2017 11:17 15,5 °C 15,5 °C 71 % 1011,4 hPa 0,0 mm 8,8 km/h (2 Bft) W-SW 254 ° 1 min 0,000 mm 2,8 UV-I 301 W/m² 10,3 °C 15,5 °C 12,9 km/h (3 Bft)
13.09.2017 11:18 15,9 °C 15,9 °C 70 % 1011,4 hPa 0,0 mm 7,0 km/h (2 Bft) W 266 ° 1 min 0,000 mm 3,2 UV-I 404 W/m² 10,4 °C 15,9 °C 11,3 km/h (2 Bft)
13.09.2017 11:19 16,1 °C 16,1 °C 68 % 1011,3 hPa 0,0 mm 4,8 km/h (1 Bft) NW 304 ° 1 min 0,000 mm 2,9 UV-I 401 W/m² 10,2 °C 16,1 °C 9,7 km/h (2 Bft)
13.09.2017 11:20 16,2 °C 16,2 °C 71 % 1011,4 hPa 0,0 mm 7,2 km/h (2 Bft) W-SW 244 ° 1 min 0,000 mm 2,7 UV-I 330 W/m² 10,9 °C 16,2 °C 11,3 km/h (2 Bft)
13.09.2017 11:21 16,4 °C 16,4 °C 68 % 1011,4 hPa 0,0 mm 8,0 km/h (2 Bft) W 273 ° 0 min 0,000 mm 2,4 UV-I 272 W/m² 10,5 °C 16,4 °C 12,9 km/h (3 Bft)
13.09.2017 11:22 16,6 °C 16,6 °C 63 % 1011,3 hPa 0,0 mm 3,7 km/h (1 Bft) W-NW 288 ° 0 min 0,000 mm 2,4 UV-I 255 W/m² 9,5 °C 16,6 °C 6,4 km/h (2 Bft)
13.09.2017 11:23 16,7 °C 16,7 °C 62 % 1011,3 hPa 0,0 mm 10,3 km/h (2 Bft) W-NW 295 ° 0 min 0,000 mm 2,1 UV-I 176 W/m² 9,4 °C 16,7 °C 14,5 km/h (3 Bft)
13.09.2017 11:24 16,8 °C 16,8 °C 61 % 1011,3 hPa 0,0 mm 4,6 km/h (1 Bft) W-SW 249 ° 0 min 0,000 mm 2,1 UV-I 192 W/m² 9,2 °C 16,8 °C 8,0 km/h (2 Bft)
13.09.2017 11:25 16,9 °C 16,9 °C 62 % 1011,3 hPa 0,0 mm 5,5 km/h (1 Bft) W 265 ° 0 min 0,000 mm 2,3 UV-I 207 W/m² 9,6 °C 16,9 °C 11,3 km/h (2 Bft)
13.09.2017 11:26 16,9 °C 16,9 °C 68 % 1011,3 hPa 0,0 mm 4,6 km/h (1 Bft) NW 305 ° 0 min 0,000 mm 2,5 UV-I 232 W/m² 11,0 °C 16,9 °C 11,3 km/h (2 Bft)
13.09.2017 11:27 16,9 °C 16,9 °C 64 % 1011,3 hPa 0,0 mm 9,1 km/h (2 Bft) W 270 ° 0 min 0,000 mm 2,7 UV-I 232 W/m² 10,0 °C 16,9 °C 14,5 km/h (3 Bft)
13.09.2017 11:28 17,0 °C 17,0 °C 63 % 1011,3 hPa 0,0 mm 8,0 km/h (2 Bft) W-NW 297 ° 1 min 0,000 mm 3,4 UV-I 353 W/m² 9,9 °C 17,0 °C 14,5 km/h (3 Bft)
13.09.2017 11:29 17,1 °C 17,1 °C 63 % 1011,3 hPa 0,0 mm 4,9 km/h (1 Bft) W-SW 252 ° 0 min 0,000 mm 2,6 UV-I 243 W/m² 10,0 °C 17,1 °C 6,4 km/h (2 Bft)
13.09.2017 11:30 17,1 °C 17,1 °C 64 % 1011,3 hPa 0,0 mm 5,0 km/h (1 Bft) W 274 ° 0 min 0,000 mm 2,4 UV-I 251 W/m² 10,2 °C 17,1 °C 8,0 km/h (2 Bft)
13.09.2017 11:31 17,2 °C 17,2 °C 61 % 1011,3 hPa 0,0 mm 7,8 km/h (2 Bft) W 269 ° 0 min 0,000 mm 2,7 UV-I 279 W/m² 9,6 °C 17,2 °C 11,3 km/h (2 Bft)
13.09.2017 11:32 17,2 °C 17,2 °C 62 % 1011,4 hPa 0,0 mm 6,8 km/h (2 Bft) W-NW 300 ° 1 min 0,000 mm 2,8 UV-I 311 W/m² 9,9 °C 17,2 °C 12,9 km/h (3 Bft)
13.09.2017 11:33 17,2 °C 17,3 °C 63 % 1011,4 hPa 0,0 mm 6,0 km/h (2 Bft) W-NW 295 ° 0 min 0,000 mm 2,6 UV-I 272 W/m² 10,1 °C 17,2 °C 11,3 km/h (2 Bft)
13.09.2017 11:34 17,3 °C 17,3 °C 61 % 1011,4 hPa 0,0 mm 10,6 km/h (2 Bft) W 279 ° 0 min 0,000 mm 2,4 UV-I 257 W/m² 9,7 °C 17,3 °C 22,5 km/h (4 Bft)
13.09.2017 11:35 17,4 °C 17,4 °C 60 % 1011,4 hPa 0,0 mm 10,3 km/h (2 Bft) W-SW 248 ° 0 min 0,000 mm 2,2 UV-I 216 W/m² 9,6 °C 17,4 °C 16,1 km/h (3 Bft)
13.09.2017 11:36 17,4 °C 17,4 °C 61 % 1011,4 hPa 0,0 mm 9,2 km/h (2 Bft) W-NW 285 ° 0 min 0,000 mm 2,6 UV-I 250 W/m² 9,8 °C 17,4 °C 14,5 km/h (3 Bft)
13.09.2017 11:37 17,4 °C 17,4 °C 60 % 1011,4 hPa 0,0 mm 9,3 km/h (2 Bft) W 265 ° 1 min 0,000 mm 2,9 UV-I 304 W/m² 9,6 °C 17,4 °C 14,5 km/h (3 Bft)
13.09.2017 11:38 17,4 °C 17,4 °C 62 % 1011,4 hPa 0,0 mm 9,9 km/h (2 Bft) W-NW 292 ° 1 min 0,000 mm 3,3 UV-I 401 W/m² 10,0 °C 17,4 °C 16,1 km/h (3 Bft)
13.09.2017 11:39 17,5 °C 17,5 °C 61 % 1011,4 hPa 0,0 mm 12,4 km/h (3 Bft) W-SW 254 ° 1 min 0,000 mm 2,8 UV-I 306 W/m² 9,9 °C 17,5 °C 20,9 km/h (4 Bft)
13.09.2017 11:40 17,6 °C 17,6 °C 63 % 1011,4 hPa 0,0 mm 7,0 km/h (2 Bft) W-NW 286 ° 1 min 0,000 mm 3,2 UV-I 330 W/m² 10,5 °C 17,6 °C 14,5 km/h (3 Bft)
13.09.2017 11:41 17,6 °C 17,6 °C 63 % 1011,4 hPa 0,0 mm 6,5 km/h (2 Bft) W 267 ° 1 min 0,000 mm 3,1 UV-I 330 W/m² 10,5 °C 17,6 °C 11,3 km/h (2 Bft)
13.09.2017 11:42 17,7 °C 17,7 °C 62 % 1011,4 hPa 0,0 mm 10,3 km/h (2 Bft) W-NW 289 ° 1 min 0,000 mm 3,2 UV-I 332 W/m² 10,3 °C 17,7 °C 14,5 km/h (3 Bft)
13.09.2017 11:43 17,7 °C 17,7 °C 62 % 1011,5 hPa 0,0 mm 7,2 km/h (2 Bft) W-SW 242 ° 1 min 0,000 mm 3,8 UV-I 420 W/m² 10,3 °C 17,7 °C 11,3 km/h (2 Bft)
13.09.2017 11:44 17,7 °C 17,8 °C 64 % 1011,4 hPa 0,0 mm 7,6 km/h (2 Bft) SW 235 ° 1 min 0,000 mm 3,5 UV-I 420 W/m² 10,8 °C 17,7 °C 9,7 km/h (2 Bft)
13.09.2017 11:45 17,8 °C 17,8 °C 61 % 1011,5 hPa 0,0 mm 12,3 km/h (3 Bft) SW 215 ° 1 min 0,000 mm 3,0 UV-I 420 W/m² 10,2 °C 17,8 °C 19,3 km/h (3 Bft)
13.09.2017 11:46 17,8 °C 17,8 °C 60 % 1011,4 hPa 0,0 mm 16,3 km/h (3 Bft) W-SW 254 ° 1 min 0,000 mm 4,6 UV-I 420 W/m² 9,9 °C 17,8 °C 25,7 km/h (4 Bft)
13.09.2017 11:47 17,9 °C 17,9 °C 62 % 1011,3 hPa 0,0 mm 16,1 km/h (3 Bft) NW 324 ° 1 min 0,000 mm 4,8 UV-I 687 W/m² 10,5 °C 17,9 °C 22,5 km/h (4 Bft)
13.09.2017 11:48 18,1 °C 18,1 °C 61 % 1011,3 hPa 0,0 mm 15,4 km/h (3 Bft) W-SW 242 ° 1 min 0,000 mm 4,9 UV-I 712 W/m² 10,5 °C 18,1 °C 20,9 km/h (4 Bft)
13.09.2017 11:49 18,3 °C 18,3 °C 61 % 1011,3 hPa 0,0 mm 12,5 km/h (3 Bft) W-SW 246 ° 1 min 0,000 mm 3,6 UV-I 712 W/m² 10,6 °C 18,3 °C 19,3 km/h (3 Bft)
13.09.2017 11:50 18,3 °C 18,3 °C 62 % 1011,3 hPa 0,0 mm 12,0 km/h (2 Bft) W 263 ° 1 min 0,000 mm 4,5 UV-I 712 W/m² 10,9 °C 18,3 °C 19,3 km/h (3 Bft)
13.09.2017 11:51 18,5 °C 18,5 °C 62 % 1011,3 hPa 0,0 mm 9,7 km/h (2 Bft) SW 226 ° 1 min 0,000 mm 5,1 UV-I 712 W/m² 11,1 °C 18,5 °C 12,9 km/h (3 Bft)
13.09.2017 11:52 18,6 °C 18,6 °C 61 % 1011,3 hPa 0,0 mm 12,6 km/h (3 Bft) W-NW 290 ° 1 min 0,000 mm 3,7 UV-I 712 W/m² 10,9 °C 18,6 °C 22,5 km/h (4 Bft)
13.09.2017 11:53 18,6 °C 18,6 °C 61 % 1011,3 hPa 0,0 mm 10,1 km/h (2 Bft) W 262 ° 1 min 0,000 mm 3,7 UV-I 327 W/m² 10,9 °C 18,6 °C 17,7 km/h (3 Bft)
13.09.2017 11:54 18,7 °C 18,7 °C 63 % 1011,4 hPa 0,0 mm 8,1 km/h (2 Bft) W-NW 302 ° 1 min 0,000 mm 4,6 UV-I 327 W/m² 11,5 °C 18,7 °C 16,1 km/h (3 Bft)
13.09.2017 11:55 18,7 °C 18,7 °C 62 % 1011,2 hPa 0,0 mm 17,9 km/h (3 Bft) W 265 ° 1 min 0,000 mm 4,1 UV-I 696 W/m² 11,3 °C 18,7 °C 25,7 km/h (4 Bft)
13.09.2017 11:56 18,8 °C 18,8 °C 61 % 1011,3 hPa 0,0 mm 7,3 km/h (2 Bft) W-NW 300 ° 1 min 0,000 mm 4,1 UV-I 696 W/m² 11,1 °C 18,8 °C 12,9 km/h (3 Bft)
13.09.2017 11:57 18,8 °C 18,8 °C 60 % 1011,3 hPa 0,0 mm 12,7 km/h (3 Bft) W 279 ° 1 min 0,000 mm 3,7 UV-I 696 W/m² 10,9 °C 18,8 °C 16,1 km/h (3 Bft)
13.09.2017 11:58 18,9 °C 18,9 °C 61 % 1011,3 hPa 0,0 mm 11,2 km/h (2 Bft) W 262 ° 1 min 0,000 mm 4,1 UV-I 348 W/m² 11,2 °C 18,9 °C 22,5 km/h (4 Bft)
13.09.2017 11:59 19,0 °C 19,0 °C 61 % 1011,2 hPa 0,0 mm 15,5 km/h (3 Bft) W 271 ° 1 min 0,000 mm 5,4 UV-I 738 W/m² 11,3 °C 19,0 °C 22,5 km/h (4 Bft)
13.09.2017 12:00 19,1 °C 19,1 °C 60 % 1011,3 hPa 0,0 mm 18,7 km/h (3 Bft) W 270 ° 1 min 0,000 mm 4,4 UV-I 738 W/m² 11,1 °C 19,1 °C 27,4 km/h (4 Bft)
13.09.2017 12:01 19,1 °C 19,2 °C 59 % 1011,3 hPa 0,0 mm 13,5 km/h (3 Bft) NW 312 ° 1 min 0,228 mm 4,9 UV-I 738 W/m² 10,9 °C 19,1 °C 16,1 km/h (3 Bft)
13.09.2017 12:02 19,3 °C 19,3 °C 60 % 1011,3 hPa 0,0 mm 8,6 km/h (2 Bft) W-NW 288 ° 1 min 0,000 mm 5,4 UV-I 738 W/m² 11,3 °C 19,3 °C 12,9 km/h (3 Bft)
13.09.2017 12:03 19,4 °C 19,4 °C 62 % 1011,3 hPa 0,0 mm 8,4 km/h (2 Bft) SW 216 ° 1 min 0,000 mm 3,6 UV-I 828 W/m² 11,9 °C 19,4 °C 16,1 km/h (3 Bft)
13.09.2017 12:04 19,5 °C 19,5 °C 61 % 1011,3 hPa 0,0 mm 10,2 km/h (2 Bft) SW 219 ° 1 min 0,000 mm 4,2 UV-I 828 W/m² 11,8 °C 19,5 °C 16,1 km/h (3 Bft)
13.09.2017 12:05 19,6 °C 19,6 °C 62 % 1011,3 hPa 0,0 mm 7,3 km/h (2 Bft) W 277 ° 1 min 0,000 mm 3,6 UV-I 828 W/m² 12,1 °C 19,6 °C 11,3 km/h (2 Bft)
13.09.2017 12:06 19,6 °C 19,6 °C 62 % 1011,3 hPa 0,0 mm 16,1 km/h (3 Bft) W-NW 290 ° 1 min 0,000 mm 2,9 UV-I 828 W/m² 12,1 °C 19,6 °C 25,7 km/h (4 Bft)
13.09.2017 12:07 19,5 °C 19,6 °C 58 % 1011,4 hPa 0,0 mm 12,8 km/h (3 Bft) W-SW 253 ° 1 min 0,000 mm 2,8 UV-I 338 W/m² 11,0 °C 19,5 °C 22,5 km/h (4 Bft)
13.09.2017 12:08 19,4 °C 19,5 °C 59 % 1011,3 hPa 0,0 mm 13,6 km/h (3 Bft) W-NW 292 ° 1 min 0,000 mm 2,7 UV-I 338 W/m² 11,2 °C 19,4 °C 19,3 km/h (3 Bft)
13.09.2017 12:09 19,3 °C 19,4 °C 58 % 1011,4 hPa 0,0 mm 11,9 km/h (2 Bft) W 266 ° 1 min 0,000 mm 2,5 UV-I 355 W/m² 10,8 °C 19,3 °C 19,3 km/h (3 Bft)
13.09.2017 12:10 19,2 °C 19,3 °C 58 % 1011,5 hPa 0,0 mm 11,9 km/h (2 Bft) W 275 ° 0 min 0,000 mm 2,0 UV-I 209 W/m² 10,7 °C 19,2 °C 17,7 km/h (3 Bft)
13.09.2017 12:11 19,1 °C 19,2 °C 59 % 1011,5 hPa 0,0 mm 8,9 km/h (2 Bft) W-SW 246 ° 0 min 0,000 mm 1,6 UV-I 181 W/m² 10,9 °C 19,1 °C 14,5 km/h (3 Bft)
13.09.2017 12:12 18,9 °C 19,1 °C 60 % 1011,6 hPa 0,0 mm 7,0 km/h (2 Bft) SW 233 ° 0 min 0,000 mm 1,3 UV-I 151 W/m² 11,0 °C 18,9 °C 16,1 km/h (3 Bft)
13.09.2017 12:13 18,8 °C 18,9 °C 59 % 1011,4 hPa 0,0 mm 9,2 km/h (2 Bft) W 269 ° 0 min 0,000 mm 1,2 UV-I 127 W/m² 10,6 °C 18,8 °C 16,1 km/h (3 Bft)
13.09.2017 12:14 18,7 °C 18,8 °C 60 % 1011,5 hPa 0,0 mm 12,1 km/h (2 Bft) W 276 ° 0 min 0,000 mm 1,1 UV-I 116 W/m² 10,8 °C 18,7 °C 14,5 km/h (3 Bft)
13.09.2017 12:15 18,5 °C 18,7 °C 61 % 1011,5 hPa 0,0 mm 10,8 km/h (2 Bft) NW 309 ° 0 min 0,000 mm 1,0 UV-I 111 W/m² 10,8 °C 18,5 °C 19,3 km/h (3 Bft)
13.09.2017 12:16 18,4 °C 18,5 °C 59 % 1011,4 hPa 0,0 mm 10,0 km/h (2 Bft) W 261 ° 0 min 0,000 mm 1,0 UV-I 105 W/m² 10,2 °C 18,4 °C 24,1 km/h (4 Bft)
13.09.2017 12:17 18,4 °C 18,4 °C 60 % 1011,6 hPa 0,0 mm 19,8 km/h (3 Bft) W-NW 294 ° 0 min 0,000 mm 1,1 UV-I 105 W/m² 10,5 °C 18,4 °C 27,4 km/h (4 Bft)
13.09.2017 12:18 18,3 °C 18,4 °C 59 % 1011,5 hPa 0,0 mm 19,0 km/h (3 Bft) W 277 ° 0 min 0,000 mm 1,3 UV-I 134 W/m² 10,1 °C 18,3 °C 27,4 km/h (4 Bft)
13.09.2017 12:19 18,3 °C 18,3 °C 60 % 1011,5 hPa 0,0 mm 18,2 km/h (3 Bft) W 272 ° 0 min 0,000 mm 1,3 UV-I 139 W/m² 10,4 °C 18,3 °C 25,7 km/h (4 Bft)
13.09.2017 12:20 18,2 °C 18,3 °C 59 % 1011,5 hPa 0,0 mm 9,7 km/h (2 Bft) SW 233 ° 0 min 0,000 mm 1,3 UV-I 142 W/m² 10,1 °C 18,2 °C 16,1 km/h (3 Bft)
13.09.2017 12:21 18,2 °C 18,2 °C 60 % 1011,5 hPa 0,0 mm 13,4 km/h (3 Bft) W 261 ° 0 min 0,000 mm 1,3 UV-I 139 W/m² 10,3 °C 18,2 °C 20,9 km/h (4 Bft)
13.09.2017 12:22 18,1 °C 18,2 °C 59 % 1011,6 hPa 0,0 mm 13,9 km/h (3 Bft) W 263 ° 0 min 0,000 mm 1,2 UV-I 132 W/m² 10,0 °C 18,1 °C 25,7 km/h (4 Bft)
13.09.2017 12:23 18,1 °C 18,1 °C 60 % 1011,6 hPa 0,0 mm 20,9 km/h (4 Bft) W-NW 282 ° 0 min 0,000 mm 1,2 UV-I 132 W/m² 10,2 °C 18,1 °C 32,2 km/h (5 Bft)
13.09.2017 12:24 18,1 °C 18,1 °C 59 % 1011,6 hPa 0,0 mm 15,4 km/h (3 Bft) W 279 ° 0 min 0,000 mm 1,2 UV-I 127 W/m² 10,0 °C 18,1 °C 22,5 km/h (4 Bft)
13.09.2017 12:25 18,1 °C 18,1 °C 59 % 1011,6 hPa 0,0 mm 13,2 km/h (3 Bft) W-NW 285 ° 0 min 0,000 mm 1,1 UV-I 118 W/m² 10,0 °C 18,1 °C 19,3 km/h (3 Bft)
13.09.2017 12:26 18,1 °C 18,1 °C 60 % 1011,5 hPa 0,0 mm 13,0 km/h (3 Bft) W-NW 298 ° 0 min 0,000 mm 1,0 UV-I 105 W/m² 10,2 °C 18,1 °C 16,1 km/h (3 Bft)
13.09.2017 12:27 18,0 °C 18,1 °C 61 % 1011,7 hPa 0,0 mm 15,5 km/h (3 Bft) W-NW 292 ° 0 min 0,000 mm 0,9 UV-I 100 W/m² 10,4 °C 18,0 °C 27,4 km/h (4 Bft)
13.09.2017 12:28 17,9 °C 18,0 °C 60 % 1011,6 hPa 0,0 mm 9,7 km/h (2 Bft) W-NW 288 ° 0 min 0,000 mm 1,0 UV-I 107 W/m² 10,0 °C 17,9 °C 14,5 km/h (3 Bft)
13.09.2017 12:29 17,8 °C 17,9 °C 60 % 1011,7 hPa 0,0 mm 9,0 km/h (2 Bft) W 265 ° 0 min 0,000 mm 1,2 UV-I 121 W/m² 9,9 °C 17,8 °C 12,9 km/h (3 Bft)
13.09.2017 12:30 17,7 °C 17,8 °C 62 % 1011,7 hPa 0,0 mm 7,4 km/h (2 Bft) W 274 ° 0 min 0,000 mm 1,4 UV-I 141 W/m² 10,3 °C 17,7 °C 11,3 km/h (2 Bft)
13.09.2017 12:31 17,7 °C 17,7 °C 62 % 1011,7 hPa 0,0 mm 8,1 km/h (2 Bft) N-NW 329 ° 0 min 0,000 mm 1,7 UV-I 169 W/m² 10,3 °C 17,7 °C 14,5 km/h (3 Bft)
13.09.2017 12:32 17,6 °C 17,7 °C 62 % 1011,7 hPa 0,0 mm 11,5 km/h (2 Bft) W 279 ° 0 min 0,000 mm 1,8 UV-I 186 W/m² 10,2 °C 17,6 °C 14,5 km/h (3 Bft)
13.09.2017 12:33 17,6 °C 17,6 °C 62 % 1011,6 hPa 0,0 mm 14,1 km/h (3 Bft) W-NW 286 ° 0 min 0,000 mm 2,0 UV-I 206 W/m² 10,2 °C 17,6 °C 20,9 km/h (4 Bft)
13.09.2017 12:34 17,6 °C 17,6 °C 63 % 1011,8 hPa 0,0 mm 12,5 km/h (3 Bft) W-SW 243 ° 0 min 0,000 mm 2,1 UV-I 216 W/m² 10,5 °C 17,6 °C 20,9 km/h (4 Bft)
13.09.2017 12:35 17,6 °C 17,6 °C 62 % 1011,8 hPa 0,0 mm 12,7 km/h (3 Bft) W-SW 252 ° 0 min 0,000 mm 1,8 UV-I 188 W/m² 10,2 °C 17,6 °C 20,9 km/h (4 Bft)
13.09.2017 12:36 17,4 °C 17,6 °C 63 % 1011,8 hPa 0,0 mm 13,5 km/h (3 Bft) W 280 ° 0 min 0,000 mm 1,9 UV-I 188 W/m² 10,3 °C 17,4 °C 20,9 km/h (4 Bft)
13.09.2017 12:37 17,4 °C 17,5 °C 62 % 1011,8 hPa 0,0 mm 16,9 km/h (3 Bft) W 277 ° 0 min 0,000 mm 2,0 UV-I 200 W/m² 10,0 °C 17,4 °C 22,5 km/h (4 Bft)
13.09.2017 12:38 17,4 °C 17,4 °C 61 % 1011,8 hPa 0,0 mm 10,2 km/h (2 Bft) W-NW 296 ° 0 min 0,000 mm 1,9 UV-I 200 W/m² 9,8 °C 17,4 °C 14,5 km/h (3 Bft)
13.09.2017 12:39 17,3 °C 17,4 °C 62 % 1011,7 hPa 0,0 mm 8,3 km/h (2 Bft) W-NW 295 ° 0 min 0,000 mm 1,8 UV-I 214 W/m² 9,9 °C 17,3 °C 11,3 km/h (2 Bft)
13.09.2017 12:40 17,3 °C 17,3 °C 62 % 1011,8 hPa 0,0 mm 6,4 km/h (2 Bft) NW 319 ° 0 min 0,000 mm 2,0 UV-I 267 W/m² 9,9 °C 17,3 °C 9,7 km/h (2 Bft)
13.09.2017 12:41 17,3 °C 17,3 °C 62 % 1011,8 hPa 0,0 mm 11,5 km/h (2 Bft) W-NW 298 ° 0 min 0,000 mm 2,4 UV-I 271 W/m² 9,9 °C 17,3 °C 17,7 km/h (3 Bft)
13.09.2017 12:42 17,3 °C 17,3 °C 64 % 1011,9 hPa 0,0 mm 5,5 km/h (1 Bft) W-NW 300 ° 1 min 0,000 mm 2,1 UV-I 297 W/m² 10,4 °C 17,3 °C 12,9 km/h (3 Bft)
13.09.2017 12:43 17,3 °C 17,3 °C 64 % 1011,8 hPa 0,0 mm 7,1 km/h (2 Bft) NW 309 ° 0 min 0,000 mm 2,0 UV-I 223 W/m² 10,4 °C 17,3 °C 11,3 km/h (2 Bft)
13.09.2017 12:44 17,4 °C 17,4 °C 65 % 1011,9 hPa 0,0 mm 4,8 km/h (1 Bft) W 280 ° 0 min 0,000 mm 1,8 UV-I 199 W/m² 10,8 °C 17,4 °C 9,7 km/h (2 Bft)
13.09.2017 12:45 17,4 °C 17,4 °C 65 % 1011,8 hPa 0,0 mm 8,0 km/h (2 Bft) W-NW 286 ° 0 min 0,000 mm 1,7 UV-I 176 W/m² 10,8 °C 17,4 °C 12,9 km/h (3 Bft)
13.09.2017 12:46 17,4 °C 17,4 °C 65 % 1011,9 hPa 0,0 mm 5,8 km/h (2 Bft) W 278 ° 0 min 0,000 mm 1,7 UV-I 181 W/m² 10,8 °C 17,4 °C 9,7 km/h (2 Bft)
13.09.2017 12:47 17,3 °C 17,4 °C 64 % 1011,9 hPa 0,0 mm 6,0 km/h (2 Bft) NW 326 ° 0 min 0,000 mm 1,8 UV-I 190 W/m² 10,4 °C 17,3 °C 11,3 km/h (2 Bft)
13.09.2017 12:48 17,3 °C 17,3 °C 64 % 1011,9 hPa 0,0 mm 11,0 km/h (2 Bft) W 278 ° 0 min 0,000 mm 1,8 UV-I 193 W/m² 10,4 °C 17,3 °C 16,1 km/h (3 Bft)
13.09.2017 12:49 17,3 °C 17,3 °C 64 % 1011,9 hPa 0,0 mm 5,3 km/h (1 Bft) W-NW 282 ° 0 min 0,000 mm 2,1 UV-I 223 W/m² 10,4 °C 17,3 °C 8,0 km/h (2 Bft)
13.09.2017 12:50 17,2 °C 17,3 °C 66 % 1011,8 hPa 0,0 mm 4,4 km/h (1 Bft) W-SW 252 ° 0 min 0,000 mm 2,4 UV-I 267 W/m² 10,8 °C 17,2 °C 6,4 km/h (2 Bft)
13.09.2017 12:51 17,2 °C 17,2 °C 67 % 1011,8 hPa 0,0 mm 6,8 km/h (2 Bft) W-SW 254 ° 1 min 0,000 mm 2,7 UV-I 313 W/m² 11,0 °C 17,2 °C 9,7 km/h (2 Bft)
13.09.2017 12:52 17,2 °C 17,2 °C 66 % 1011,8 hPa 0,0 mm 6,0 km/h (2 Bft) W 262 ° 0 min 0,000 mm 2,4 UV-I 241 W/m² 10,8 °C 17,2 °C 12,9 km/h (3 Bft)
13.09.2017 12:53 17,2 °C 17,2 °C 69 % 1011,8 hPa 0,0 mm 7,0 km/h (2 Bft) W-SW 257 ° 0 min 0,000 mm 2,4 UV-I 264 W/m² 11,5 °C 17,2 °C 11,3 km/h (2 Bft)
13.09.2017 12:54 17,2 °C 17,2 °C 69 % 1011,8 hPa 0,0 mm 7,6 km/h (2 Bft) W-NW 284 ° 0 min 0,000 mm 2,2 UV-I 251 W/m² 11,5 °C 17,2 °C 12,9 km/h (3 Bft)
13.09.2017 12:55 17,1 °C 17,2 °C 69 % 1011,7 hPa 0,0 mm 9,7 km/h (2 Bft) W-SW 252 ° 0 min 0,000 mm 2,0 UV-I 223 W/m² 11,4 °C 17,1 °C 12,9 km/h (3 Bft)
13.09.2017 12:56 17,0 °C 17,1 °C 70 % 1011,8 hPa 0,0 mm 8,0 km/h (2 Bft) W-SW 254 ° 0 min 0,000 mm 1,9 UV-I 211 W/m² 11,5 °C 17,0 °C 12,9 km/h (3 Bft)
13.09.2017 12:57 16,9 °C 17,0 °C 69 % 1011,9 hPa 0,0 mm 7,6 km/h (2 Bft) W-SW 242 ° 1 min 0,000 mm 2,2 UV-I 306 W/m² 11,2 °C 16,9 °C 14,5 km/h (3 Bft)
13.09.2017 12:58 16,9 °C 16,9 °C 67 % 1011,7 hPa 0,0 mm 2,1 km/h (1 Bft) W-SW 251 ° 1 min 0,000 mm 2,9 UV-I 357 W/m² 10,7 °C 16,9 °C 4,8 km/h (1 Bft)
13.09.2017 12:59 16,9 °C 16,9 °C 70 % 1011,6 hPa 0,0 mm 11,4 km/h (2 Bft) W-SW 250 ° 1 min 0,000 mm 2,5 UV-I 383 W/m² 11,4 °C 16,9 °C 20,9 km/h (4 Bft)
13.09.2017 13:00 16,9 °C 16,9 °C 69 % 1011,8 hPa 0,0 mm 10,2 km/h (2 Bft) W-NW 296 ° 1 min 0,000 mm 2,6 UV-I 383 W/m² 11,2 °C 16,9 °C 16,1 km/h (3 Bft)
13.09.2017 13:01 16,8 °C 16,9 °C 69 % 1011,8 hPa 0,0 mm 8,6 km/h (2 Bft) W 263 ° 1 min 0,203 mm 3,0 UV-I 320 W/m² 11,1 °C 16,8 °C 12,9 km/h (3 Bft)
13.09.2017 13:02 16,9 °C 16,9 °C 70 % 1011,8 hPa 0,0 mm 13,8 km/h (3 Bft) W-SW 249 ° 1 min 0,000 mm 3,0 UV-I 336 W/m² 11,4 °C 16,9 °C 20,9 km/h (4 Bft)
13.09.2017 13:03 16,9 °C 16,9 °C 69 % 1011,8 hPa 0,0 mm 8,9 km/h (2 Bft) W-NW 299 ° 1 min 0,000 mm 3,1 UV-I 338 W/m² 11,2 °C 16,9 °C 11,3 km/h (2 Bft)
13.09.2017 13:04 16,9 °C 16,9 °C 73 % 1011,9 hPa 0,0 mm 9,7 km/h (2 Bft) W-SW 257 ° 1 min 0,000 mm 2,9 UV-I 343 W/m² 12,0 °C 16,9 °C 16,1 km/h (3 Bft)
13.09.2017 13:05 17,0 °C 17,0 °C 70 % 1011,8 hPa 0,0 mm 8,2 km/h (2 Bft) W 259 ° 1 min 0,000 mm 3,0 UV-I 378 W/m² 11,5 °C 17,0 °C 12,9 km/h (3 Bft)
13.09.2017 13:06 17,1 °C 17,1 °C 70 % 1011,8 hPa 0,0 mm 8,8 km/h (2 Bft) W-NW 292 ° 1 min 0,000 mm 2,9 UV-I 322 W/m² 11,6 °C 17,1 °C 16,1 km/h (3 Bft)
13.09.2017 13:07 17,1 °C 17,1 °C 72 % 1011,8 hPa 0,0 mm 6,7 km/h (2 Bft) W 281 ° 0 min 0,000 mm 2,3 UV-I 285 W/m² 12,0 °C 17,1 °C 11,3 km/h (2 Bft)
13.09.2017 13:08 17,1 °C 17,2 °C 72 % 1011,8 hPa 0,0 mm 9,5 km/h (2 Bft) W-NW 283 ° 0 min 0,000 mm 3,7 UV-I 285 W/m² 12,0 °C 17,1 °C 12,9 km/h (3 Bft)
13.09.2017 13:09 17,2 °C 17,2 °C 72 % 1011,8 hPa 0,0 mm 7,8 km/h (2 Bft) W-NW 294 ° 0 min 0,000 mm 1,9 UV-I 197 W/m² 12,1 °C 17,2 °C 12,9 km/h (3 Bft)
13.09.2017 13:10 17,2 °C 17,2 °C 71 % 1011,8 hPa 0,0 mm 6,0 km/h (2 Bft) W-SW 246 ° 0 min 0,000 mm 1,8 UV-I 204 W/m² 11,9 °C 17,2 °C 11,3 km/h (2 Bft)
13.09.2017 13:11 17,2 °C 17,2 °C 71 % 1011,8 hPa 0,0 mm 11,6 km/h (2 Bft) W-SW 249 ° 0 min 0,000 mm 1,9 UV-I 220 W/m² 11,9 °C 17,2 °C 17,7 km/h (3 Bft)
13.09.2017 13:12 17,1 °C 17,2 °C 69 % 1011,6 hPa 0,0 mm 9,6 km/h (2 Bft) W-SW 252 ° 0 min 0,000 mm 2,1 UV-I 241 W/m² 11,4 °C 17,1 °C 16,1 km/h (3 Bft)
13.09.2017 13:13 17,1 °C 17,2 °C 69 % 1011,6 hPa 0,0 mm 12,1 km/h (2 Bft) W 279 ° 0 min 0,000 mm 2,3 UV-I 258 W/m² 11,4 °C 17,1 °C 20,9 km/h (4 Bft)
13.09.2017 13:14 17,1 °C 17,1 °C 70 % 1011,7 hPa 0,0 mm 6,5 km/h (2 Bft) W 273 ° 0 min 0,000 mm 2,5 UV-I 269 W/m² 11,6 °C 17,1 °C 11,3 km/h (2 Bft)
13.09.2017 13:15 17,1 °C 17,2 °C 71 % 1011,7 hPa 0,0 mm 9,7 km/h (2 Bft) W-SW 252 ° 1 min 0,000 mm 2,6 UV-I 301 W/m² 11,8 °C 17,1 °C 14,5 km/h (3 Bft)
13.09.2017 13:16 17,2 °C 17,2 °C 71 % 1011,7 hPa 0,0 mm 8,6 km/h (2 Bft) W-SW 245 ° 1 min 0,000 mm 3,5 UV-I 301 W/m² 11,9 °C 17,2 °C 16,1 km/h (3 Bft)
13.09.2017 13:17 17,3 °C 17,3 °C 73 % 1011,6 hPa 0,0 mm 6,8 km/h (2 Bft) W-NW 291 ° 1 min 0,000 mm 2,6 UV-I 301 W/m² 12,4 °C 17,3 °C 11,3 km/h (2 Bft)
13.09.2017 13:18 17,4 °C 17,4 °C 69 % 1011,5 hPa 0,0 mm 7,0 km/h (2 Bft) W-NW 293 ° 0 min 0,000 mm 2,3 UV-I 241 W/m² 11,7 °C 17,4 °C 11,3 km/h (2 Bft)
13.09.2017 13:19 17,5 °C 17,5 °C 69 % 1011,5 hPa 0,0 mm 10,7 km/h (2 Bft) W-SW 255 ° 0 min 0,000 mm 2,0 UV-I 209 W/m² 11,7 °C 17,5 °C 17,7 km/h (3 Bft)
13.09.2017 13:20 17,5 °C 17,5 °C 67 % 1011,6 hPa 0,0 mm 8,9 km/h (2 Bft) W-SW 254 ° 0 min 0,000 mm 1,9 UV-I 199 W/m² 11,3 °C 17,5 °C 12,9 km/h (3 Bft)
13.09.2017 13:21 17,4 °C 17,5 °C 69 % 1011,6 hPa 0,0 mm 8,3 km/h (2 Bft) W 277 ° 0 min 0,000 mm 2,0 UV-I 204 W/m² 11,7 °C 17,4 °C 16,1 km/h (3 Bft)
13.09.2017 13:22 17,4 °C 17,4 °C 69 % 1011,4 hPa 0,0 mm 6,8 km/h (2 Bft) W-SW 244 ° 0 min 0,000 mm 1,9 UV-I 209 W/m² 11,7 °C 17,4 °C 11,3 km/h (2 Bft)
13.09.2017 13:23 17,4 °C 17,4 °C 69 % 1011,4 hPa 0,0 mm 4,8 km/h (1 Bft) W 270 ° 0 min 0,000 mm 1,7 UV-I 186 W/m² 11,7 °C 17,4 °C 9,7 km/h (2 Bft)
13.09.2017 13:24 17,4 °C 17,4 °C 69 % 1011,5 hPa 0,0 mm 8,6 km/h (2 Bft) W 266 ° 0 min 0,000 mm 1,5 UV-I 163 W/m² 11,7 °C 17,4 °C 12,9 km/h (3 Bft)
13.09.2017 13:25 17,4 °C 17,4 °C 70 % 1011,6 hPa 0,0 mm 4,9 km/h (1 Bft) W 265 ° 0 min 0,000 mm 1,7 UV-I 178 W/m² 11,9 °C 17,4 °C 9,7 km/h (2 Bft)
13.09.2017 13:26 17,3 °C 17,4 °C 71 % 1011,6 hPa 0,0 mm 2,9 km/h (1 Bft) W 263 ° 0 min 0,000 mm 1,9 UV-I 211 W/m² 12,0 °C 17,3 °C 4,8 km/h (1 Bft)
13.09.2017 13:27 17,3 °C 17,3 °C 72 % 1011,5 hPa 0,0 mm 2,7 km/h (1 Bft) W 275 ° 0 min 0,000 mm 1,9 UV-I 220 W/m² 12,2 °C 17,3 °C 6,4 km/h (2 Bft)
13.09.2017 13:28 17,3 °C 17,3 °C 70 % 1011,4 hPa 0,0 mm 2,8 km/h (1 Bft) W-SW 250 ° 0 min 0,000 mm 2,2 UV-I 229 W/m² 11,8 °C 17,3 °C 6,4 km/h (2 Bft)
13.09.2017 13:29 17,3 °C 17,3 °C 72 % 1011,3 hPa 0,0 mm 2,2 km/h (1 Bft) W-SW 250 ° 0 min 0,000 mm 2,2 UV-I 230 W/m² 12,2 °C 17,3 °C 4,8 km/h (1 Bft)
13.09.2017 13:30 17,3 °C 17,3 °C 71 % 1011,4 hPa 0,0 mm 2,3 km/h (1 Bft) W-SW 257 ° 0 min 0,000 mm 2,1 UV-I 223 W/m² 12,0 °C 17,3 °C 4,8 km/h (1 Bft)
13.09.2017 13:31 17,4 °C 17,4 °C 72 % 1011,3 hPa 0,0 mm 1,3 km/h (1 Bft) W-SW 238 ° 0 min 0,000 mm 2,1 UV-I 206 W/m² 12,3 °C 17,4 °C 3,2 km/h (1 Bft)
13.09.2017 13:32 17,5 °C 17,5 °C 69 % 1011,3 hPa 0,0 mm 3,5 km/h (1 Bft) W-NW 290 ° 0 min 0,000 mm 1,7 UV-I 160 W/m² 11,7 °C 17,5 °C 8,0 km/h (2 Bft)
13.09.2017 13:33 17,5 °C 17,5 °C 70 % 1011,4 hPa 0,0 mm 12,3 km/h (3 Bft) W 265 ° 0 min 0,000 mm 1,3 UV-I 141 W/m² 12,0 °C 17,5 °C 19,3 km/h (3 Bft)
13.09.2017 13:34 17,5 °C 17,5 °C 69 % 1011,4 hPa 0,0 mm 9,3 km/h (2 Bft) W-SW 248 ° 0 min 0,000 mm 1,2 UV-I 130 W/m² 11,7 °C 17,5 °C 12,9 km/h (3 Bft)
13.09.2017 13:35 17,4 °C 17,5 °C 70 % 1011,4 hPa 0,0 mm 6,6 km/h (2 Bft) W 265 ° 0 min 0,000 mm 1,1 UV-I 120 W/m² 11,9 °C 17,4 °C 11,3 km/h (2 Bft)
13.09.2017 13:36 17,4 °C 17,4 °C 70 % 1011,4 hPa 0,0 mm 6,6 km/h (2 Bft) W 261 ° 0 min 0,000 mm 1,1 UV-I 121 W/m² 11,9 °C 17,4 °C 11,3 km/h (2 Bft)
13.09.2017 13:37 17,4 °C 17,4 °C 71 % 1011,4 hPa 0,0 mm 4,4 km/h (1 Bft) W-NW 296 ° 0 min 0,000 mm 1,2 UV-I 132 W/m² 12,1 °C 17,4 °C 6,4 km/h (2 Bft)
13.09.2017 13:38 17,3 °C 17,4 °C 69 % 1011,3 hPa 0,0 mm 2,3 km/h (1 Bft) W 269 ° 0 min 0,000 mm 1,2 UV-I 132 W/m² 11,6 °C 17,3 °C 4,8 km/h (1 Bft)
13.09.2017 13:39 17,3 °C 17,3 °C 70 % 1011,3 hPa 0,0 mm 7,8 km/h (2 Bft) W-SW 252 ° 0 min 0,000 mm 1,4 UV-I 155 W/m² 11,8 °C 17,3 °C 16,1 km/h (3 Bft)
13.09.2017 13:40 17,3 °C 17,3 °C 71 % 1011,4 hPa 0,0 mm 9,3 km/h (2 Bft) W 270 ° 0 min 0,000 mm 1,7 UV-I 192 W/m² 12,0 °C 17,3 °C 17,7 km/h (3 Bft)
13.09.2017 13:41 17,3 °C 17,3 °C 70 % 1011,4 hPa 0,0 mm 9,0 km/h (2 Bft) W 263 ° 0 min 0,000 mm 1,9 UV-I 223 W/m² 11,8 °C 17,3 °C 12,9 km/h (3 Bft)
13.09.2017 13:42 17,4 °C 17,4 °C 68 % 1011,3 hPa 0,0 mm 13,9 km/h (3 Bft) W 264 ° 0 min 0,000 mm 1,9 UV-I 220 W/m² 11,4 °C 17,4 °C 19,3 km/h (3 Bft)
13.09.2017 13:43 17,4 °C 17,5 °C 69 % 1011,3 hPa 0,0 mm 9,5 km/h (2 Bft) W-NW 292 ° 0 min 0,000 mm 1,8 UV-I 209 W/m² 11,7 °C 17,4 °C 12,9 km/h (3 Bft)
13.09.2017 13:44 17,5 °C 17,5 °C 67 % 1011,3 hPa 0,0 mm 6,5 km/h (2 Bft) W-SW 252 ° 0 min 0,000 mm 1,6 UV-I 153 W/m² 11,3 °C 17,5 °C 9,7 km/h (2 Bft)
13.09.2017 13:45 17,6 °C 17,6 °C 70 % 1011,3 hPa 0,0 mm 12,8 km/h (3 Bft) W 276 ° 0 min 0,000 mm 1,4 UV-I 153 W/m² 12,1 °C 17,6 °C 17,7 km/h (3 Bft)
13.09.2017 13:46 17,6 °C 17,6 °C 69 % 1011,6 hPa 0,0 mm 13,7 km/h (3 Bft) W-NW 297 ° 0 min 0,000 mm 1,6 UV-I 174 W/m² 11,8 °C 17,6 °C 19,3 km/h (3 Bft)
13.09.2017 13:47 17,6 °C 17,6 °C 68 % 1011,5 hPa 0,0 mm 7,2 km/h (2 Bft) SW 222 ° 0 min 0,000 mm 1,8 UV-I 199 W/m² 11,6 °C 17,6 °C 14,5 km/h (3 Bft)
13.09.2017 13:48 17,6 °C 17,6 °C 70 % 1011,2 hPa 0,0 mm 4,4 km/h (1 Bft) W 281 ° 0 min 0,000 mm 2,2 UV-I 258 W/m² 12,1 °C 17,6 °C 11,3 km/h (2 Bft)
13.09.2017 13:49 17,6 °C 17,6 °C 70 % 1011,1 hPa 0,0 mm 8,9 km/h (2 Bft) W-SW 251 ° 0 min 0,000 mm 2,1 UV-I 241 W/m² 12,1 °C 17,6 °C 11,3 km/h (2 Bft)
13.09.2017 13:50 17,6 °C 17,6 °C 70 % 1011,3 hPa 0,0 mm 8,4 km/h (2 Bft) W 265 ° 1 min 0,000 mm 2,3 UV-I 302 W/m² 12,1 °C 17,6 °C 12,9 km/h (3 Bft)
13.09.2017 13:51 17,7 °C 17,7 °C 67 % 1011,2 hPa 0,0 mm 14,4 km/h (3 Bft) W-NW 302 ° 1 min 0,000 mm 3,2 UV-I 378 W/m² 11,5 °C 17,7 °C 20,9 km/h (4 Bft)
13.09.2017 13:52 17,7 °C 17,7 °C 68 % 1011,2 hPa 0,0 mm 11,9 km/h (2 Bft) W-SW 245 ° 1 min 0,000 mm 3,1 UV-I 325 W/m² 11,7 °C 17,7 °C 14,5 km/h (3 Bft)
13.09.2017 13:53 17,8 °C 17,8 °C 69 % 1011,2 hPa 0,0 mm 10,3 km/h (2 Bft) W-NW 296 ° 1 min 0,000 mm 4,1 UV-I 325 W/m² 12,0 °C 17,8 °C 16,1 km/h (3 Bft)
13.09.2017 13:54 17,9 °C 17,9 °C 71 % 1011,1 hPa 0,0 mm 7,8 km/h (2 Bft) W 265 ° 1 min 0,000 mm 3,0 UV-I 408 W/m² 12,6 °C 17,9 °C 12,9 km/h (3 Bft)
13.09.2017 13:55 18,1 °C 18,1 °C 70 % 1011,2 hPa 0,0 mm 8,1 km/h (2 Bft) SW 230 ° 1 min 0,000 mm 2,7 UV-I 311 W/m² 12,5 °C 18,1 °C 17,7 km/h (3 Bft)
13.09.2017 13:56 18,2 °C 18,2 °C 70 % 1011,2 hPa 0,0 mm 9,1 km/h (2 Bft) W-NW 301 ° 1 min 0,000 mm 4,5 UV-I 450 W/m² 12,6 °C 18,2 °C 14,5 km/h (3 Bft)
13.09.2017 13:57 18,2 °C 18,2 °C 69 % 1011,2 hPa 0,0 mm 12,9 km/h (3 Bft) W 281 ° 1 min 0,000 mm 3,4 UV-I 353 W/m² 12,4 °C 18,2 °C 22,5 km/h (4 Bft)
13.09.2017 13:58 18,3 °C 18,3 °C 67 % 1011,1 hPa 0,0 mm 11,3 km/h (2 Bft) W-NW 292 ° 1 min 0,000 mm 4,4 UV-I 353 W/m² 12,1 °C 18,3 °C 24,1 km/h (4 Bft)
13.09.2017 13:59 18,3 °C 18,3 °C 69 % 1011,3 hPa 0,0 mm 13,4 km/h (3 Bft) W 261 ° 1 min 0,000 mm 4,7 UV-I 353 W/m² 12,5 °C 18,3 °C 29,0 km/h (5 Bft)
13.09.2017 14:00 18,4 °C 18,4 °C 67 % 1011,2 hPa 0,0 mm 19,2 km/h (3 Bft) W-SW 257 ° 1 min 0,000 mm 4,5 UV-I 353 W/m² 12,2 °C 18,4 °C 27,4 km/h (4 Bft)
13.09.2017 14:01 18,4 °C 18,4 °C 66 % 1011,0 hPa 0,0 mm 15,6 km/h (3 Bft) W 261 ° 1 min 0,178 mm 3,8 UV-I 689 W/m² 11,9 °C 18,4 °C 20,9 km/h (4 Bft)
13.09.2017 14:02 18,4 °C 18,4 °C 66 % 1011,2 hPa 0,0 mm 14,0 km/h (3 Bft) W-NW 284 ° 1 min 0,000 mm 3,9 UV-I 432 W/m² 11,9 °C 18,4 °C 22,5 km/h (4 Bft)
13.09.2017 14:03 18,5 °C 18,5 °C 66 % 1011,2 hPa 0,0 mm 11,1 km/h (2 Bft) NW 315 ° 1 min 0,000 mm 4,3 UV-I 496 W/m² 12,0 °C 18,5 °C 16,1 km/h (3 Bft)
13.09.2017 14:04 18,6 °C 18,6 °C 66 % 1011,1 hPa 0,0 mm 10,1 km/h (2 Bft) NW 319 ° 1 min 0,000 mm 4,3 UV-I 596 W/m² 12,1 °C 18,6 °C 17,7 km/h (3 Bft)
13.09.2017 14:05 18,6 °C 18,6 °C 66 % 1011,1 hPa 0,0 mm 11,3 km/h (2 Bft) W 267 ° 1 min 0,000 mm 4,1 UV-I 596 W/m² 12,1 °C 18,6 °C 16,1 km/h (3 Bft)
13.09.2017 14:06 18,7 °C 18,7 °C 66 % 1011,1 hPa 0,0 mm 10,5 km/h (2 Bft) W-NW 282 ° 1 min 0,000 mm 2,8 UV-I 536 W/m² 12,2 °C 18,7 °C 14,5 km/h (3 Bft)
13.09.2017 14:07 18,7 °C 18,7 °C 66 % 1011,1 hPa 0,0 mm 14,2 km/h (3 Bft) W-SW 257 ° 1 min 0,000 mm 3,1 UV-I 536 W/m² 12,2 °C 18,7 °C 19,3 km/h (3 Bft)
13.09.2017 14:08 18,7 °C 18,8 °C 66 % 1011,3 hPa 0,0 mm 13,3 km/h (3 Bft) W 273 ° 1 min 0,000 mm 4,5 UV-I 536 W/m² 12,2 °C 18,7 °C 19,3 km/h (3 Bft)
13.09.2017 14:09 18,8 °C 18,8 °C 67 % 1011,1 hPa 0,0 mm 17,7 km/h (3 Bft) W-SW 248 ° 1 min 0,000 mm 3,5 UV-I 388 W/m² 12,5 °C 18,8 °C 22,5 km/h (4 Bft)
13.09.2017 14:10 18,8 °C 18,8 °C 65 % 1011,3 hPa 0,0 mm 17,5 km/h (3 Bft) W 260 ° 1 min 0,000 mm 4,8 UV-I 388 W/m² 12,1 °C 18,8 °C 24,1 km/h (4 Bft)
13.09.2017 14:11 18,8 °C 18,8 °C 66 % 1011,3 hPa 0,0 mm 16,0 km/h (3 Bft) W-SW 240 ° 1 min 0,000 mm 3,9 UV-I 664 W/m² 12,3 °C 18,8 °C 24,1 km/h (4 Bft)
13.09.2017 14:12 18,8 °C 18,9 °C 66 % 1011,3 hPa 0,0 mm 15,0 km/h (3 Bft) W-SW 242 ° 1 min 0,000 mm 3,2 UV-I 664 W/m² 12,3 °C 18,8 °C 19,3 km/h (3 Bft)
13.09.2017 14:13 18,8 °C 18,9 °C 65 % 1011,2 hPa 0,0 mm 10,4 km/h (2 Bft) W-NW 300 ° 1 min 0,000 mm 3,8 UV-I 427 W/m² 12,1 °C 18,8 °C 14,5 km/h (3 Bft)
13.09.2017 14:14 18,8 °C 18,8 °C 65 % 1011,3 hPa 0,0 mm 14,1 km/h (3 Bft) NW 322 ° 1 min 0,000 mm 3,2 UV-I 341 W/m² 12,1 °C 18,8 °C 19,3 km/h (3 Bft)
13.09.2017 14:15 18,8 °C 18,8 °C 66 % 1011,2 hPa 0,0 mm 13,9 km/h (3 Bft) W 263 ° 1 min 0,000 mm 2,7 UV-I 306 W/m² 12,3 °C 18,8 °C 27,4 km/h (4 Bft)
13.09.2017 14:16 18,8 °C 18,8 °C 64 % 1011,2 hPa 0,0 mm 13,7 km/h (3 Bft) NW 306 ° 0 min 0,000 mm 2,4 UV-I 278 W/m² 11,8 °C 18,8 °C 20,9 km/h (4 Bft)
13.09.2017 14:17 18,8 °C 18,8 °C 66 % 1011,2 hPa 0,0 mm 14,3 km/h (3 Bft) W-NW 294 ° 0 min 0,000 mm 2,2 UV-I 255 W/m² 12,3 °C 18,8 °C 22,5 km/h (4 Bft)
13.09.2017 14:18 18,7 °C 18,8 °C 64 % 1011,2 hPa 0,0 mm 11,3 km/h (2 Bft) W-SW 253 ° 0 min 0,000 mm 2,9 UV-I 272 W/m² 11,7 °C 18,7 °C 16,1 km/h (3 Bft)
13.09.2017 14:19 18,6 °C 18,7 °C 66 % 1011,3 hPa 0,0 mm 14,6 km/h (3 Bft) W-SW 258 ° 0 min 0,000 mm 2,4 UV-I 258 W/m² 12,1 °C 18,6 °C 25,7 km/h (4 Bft)
13.09.2017 14:20 18,6 °C 18,6 °C 67 % 1011,4 hPa 0,0 mm 14,7 km/h (3 Bft) NW 316 ° 0 min 0,000 mm 2,2 UV-I 257 W/m² 12,3 °C 18,6 °C 20,9 km/h (4 Bft)
13.09.2017 14:21 18,6 °C 18,6 °C 66 % 1011,3 hPa 0,0 mm 8,4 km/h (2 Bft) W-NW 296 ° 0 min 0,000 mm 2,2 UV-I 251 W/m² 12,1 °C 18,6 °C 14,5 km/h (3 Bft)
13.09.2017 14:22 18,5 °C 18,6 °C 66 % 1011,2 hPa 0,0 mm 7,4 km/h (2 Bft) W-SW 250 ° 0 min 0,000 mm 2,1 UV-I 272 W/m² 12,0 °C 18,5 °C 11,3 km/h (2 Bft)
13.09.2017 14:23 18,5 °C 18,5 °C 66 % 1011,3 hPa 0,0 mm 13,1 km/h (3 Bft) W 261 ° 0 min 0,000 mm 2,3 UV-I 272 W/m² 12,0 °C 18,5 °C 19,3 km/h (3 Bft)
13.09.2017 14:24 18,4 °C 18,5 °C 69 % 1011,3 hPa 0,0 mm 6,0 km/h (2 Bft) SW 222 ° 0 min 0,000 mm 2,2 UV-I 250 W/m² 12,6 °C 18,4 °C 9,7 km/h (2 Bft)
13.09.2017 14:25 18,4 °C 18,4 °C 66 % 1011,2 hPa 0,0 mm 4,9 km/h (1 Bft) W 273 ° 0 min 0,000 mm 2,0 UV-I 202 W/m² 11,9 °C 18,4 °C 11,3 km/h (2 Bft)
13.09.2017 14:26 18,4 °C 18,4 °C 67 % 1011,4 hPa 0,0 mm 11,5 km/h (2 Bft) W 273 ° 0 min 0,000 mm 1,8 UV-I 202 W/m² 12,2 °C 18,4 °C 14,5 km/h (3 Bft)
13.09.2017 14:27 18,4 °C 18,4 °C 67 % 1011,5 hPa 0,0 mm 16,2 km/h (3 Bft) W-SW 254 ° 0 min 0,000 mm 1,8 UV-I 206 W/m² 12,2 °C 18,4 °C 22,5 km/h (4 Bft)
13.09.2017 14:28 18,3 °C 18,4 °C 66 % 1011,5 hPa 0,0 mm 12,2 km/h (2 Bft) NW 312 ° 0 min 0,000 mm 1,8 UV-I 206 W/m² 11,8 °C 18,3 °C 17,7 km/h (3 Bft)
13.09.2017 14:29 18,3 °C 18,3 °C 68 % 1011,5 hPa 0,0 mm 4,8 km/h (1 Bft) W-SW 247 ° 0 min 0,000 mm 1,7 UV-I 193 W/m² 12,3 °C 18,3 °C 12,9 km/h (3 Bft)
13.09.2017 14:30 18,3 °C 18,3 °C 69 % 1011,5 hPa 0,0 mm 7,2 km/h (2 Bft) W 260 ° 0 min 0,000 mm 1,7 UV-I 188 W/m² 12,5 °C 18,3 °C 11,3 km/h (2 Bft)
13.09.2017 14:31 18,2 °C 18,3 °C 69 % 1011,6 hPa 0,0 mm 11,9 km/h (2 Bft) W-SW 251 ° 0 min 0,000 mm 2,0 UV-I 262 W/m² 12,4 °C 18,2 °C 16,1 km/h (3 Bft)
13.09.2017 14:32 18,2 °C 18,2 °C 69 % 1011,5 hPa 0,0 mm 5,7 km/h (1 Bft) W-NW 293 ° 0 min 0,000 mm 2,4 UV-I 278 W/m² 12,4 °C 18,2 °C 12,9 km/h (3 Bft)
13.09.2017 14:33 18,2 °C 18,2 °C 69 % 1011,6 hPa 0,0 mm 10,3 km/h (2 Bft) W 269 ° 0 min 0,000 mm 2,5 UV-I 272 W/m² 12,4 °C 18,2 °C 17,7 km/h (3 Bft)
13.09.2017 14:34 18,2 °C 18,2 °C 68 % 1011,6 hPa 0,0 mm 15,7 km/h (3 Bft) S-SW 200 ° 0 min 0,000 mm 2,6 UV-I 278 W/m² 12,2 °C 18,2 °C 24,1 km/h (4 Bft)
13.09.2017 14:35 18,3 °C 18,3 °C 69 % 1011,6 hPa 0,0 mm 5,8 km/h (2 Bft) W 269 ° 0 min 0,000 mm 2,6 UV-I 283 W/m² 12,5 °C 18,3 °C 11,3 km/h (2 Bft)
13.09.2017 14:36 18,3 °C 18,3 °C 68 % 1011,7 hPa 0,0 mm 12,9 km/h (3 Bft) W 275 ° 0 min 0,000 mm 2,5 UV-I 262 W/m² 12,3 °C 18,3 °C 19,3 km/h (3 Bft)
13.09.2017 14:37 18,3 °C 18,3 °C 68 % 1011,7 hPa 0,0 mm 12,4 km/h (3 Bft) W 268 ° 0 min 0,000 mm 2,4 UV-I 264 W/m² 12,3 °C 18,3 °C 17,7 km/h (3 Bft)
13.09.2017 14:38 18,3 °C 18,3 °C 68 % 1011,6 hPa 0,0 mm 10,1 km/h (2 Bft) W-NW 296 ° 0 min 0,000 mm 2,3 UV-I 264 W/m² 12,3 °C 18,3 °C 17,7 km/h (3 Bft)
13.09.2017 14:39 18,2 °C 18,3 °C 68 % 1011,5 hPa 0,0 mm 8,7 km/h (2 Bft) NW 311 ° 0 min 0,000 mm 2,1 UV-I 216 W/m² 12,2 °C 18,2 °C 14,5 km/h (3 Bft)
13.09.2017 14:40 18,2 °C 18,3 °C 68 % 1011,6 hPa 0,0 mm 11,5 km/h (2 Bft) W 263 ° 0 min 0,000 mm 2,0 UV-I 200 W/m² 12,2 °C 18,2 °C 14,5 km/h (3 Bft)
13.09.2017 14:41 18,2 °C 18,2 °C 68 % 1011,8 hPa 0,0 mm 13,0 km/h (3 Bft) W 265 ° 0 min 0,000 mm 2,2 UV-I 200 W/m² 12,2 °C 18,2 °C 19,3 km/h (3 Bft)
13.09.2017 14:42 18,2 °C 18,2 °C 68 % 1011,7 hPa 0,0 mm 7,6 km/h (2 Bft) W-NW 298 ° 0 min 0,000 mm 2,3 UV-I 246 W/m² 12,2 °C 18,2 °C 14,5 km/h (3 Bft)
13.09.2017 14:43 18,2 °C 18,2 °C 69 % 1011,7 hPa 0,0 mm 6,0 km/h (2 Bft) NW 307 ° 0 min 0,000 mm 2,4 UV-I 234 W/m² 12,4 °C 18,2 °C 11,3 km/h (2 Bft)
13.09.2017 14:44 18,2 °C 18,2 °C 69 % 1011,7 hPa 0,0 mm 10,2 km/h (2 Bft) W 259 ° 0 min 0,000 mm 2,2 UV-I 234 W/m² 12,4 °C 18,2 °C 14,5 km/h (3 Bft)
13.09.2017 14:45 18,2 °C 18,2 °C 69 % 1012,0 hPa 0,0 mm 8,3 km/h (2 Bft) W 271 ° 0 min 0,000 mm 2,4 UV-I 234 W/m² 12,4 °C 18,2 °C 14,5 km/h (3 Bft)
13.09.2017 14:46 18,2 °C 18,3 °C 68 % 1011,7 hPa 0,0 mm 13,3 km/h (3 Bft) W-NW 283 ° 0 min 0,000 mm 2,5 UV-I 271 W/m² 12,2 °C 18,2 °C 17,7 km/h (3 Bft)
13.09.2017 14:47 18,3 °C 18,3 °C 69 % 1011,8 hPa 0,0 mm 10,3 km/h (2 Bft) W 268 ° 1 min 0,000 mm 3,0 UV-I 334 W/m² 12,5 °C 18,3 °C 19,3 km/h (3 Bft)
13.09.2017 14:48 18,3 °C 18,3 °C 69 % 1011,8 hPa 0,0 mm 6,8 km/h (2 Bft) W-NW 295 ° 1 min 0,000 mm 5,0 UV-I 835 W/m² 12,5 °C 18,3 °C 14,5 km/h (3 Bft)
13.09.2017 14:49 18,4 °C 18,4 °C 70 % 1011,8 hPa 0,0 mm 13,5 km/h (3 Bft) W 270 ° 1 min 0,000 mm 3,8 UV-I 835 W/m² 12,8 °C 18,4 °C 22,5 km/h (4 Bft)
13.09.2017 14:50 18,5 °C 18,5 °C 69 % 1011,8 hPa 0,0 mm 10,5 km/h (2 Bft) W-NW 301 ° 0 min 0,000 mm 2,2 UV-I 213 W/m² 12,7 °C 18,5 °C 16,1 km/h (3 Bft)
13.09.2017 14:51 18,4 °C 18,5 °C 68 % 1011,8 hPa 0,0 mm 13,5 km/h (3 Bft) S-SW 204 ° 0 min 0,000 mm 2,5 UV-I 246 W/m² 12,4 °C 18,4 °C 19,3 km/h (3 Bft)
13.09.2017 14:52 18,4 °C 18,5 °C 68 % 1012,0 hPa 0,0 mm 13,0 km/h (3 Bft) W-SW 246 ° 0 min 0,000 mm 4,3 UV-I 246 W/m² 12,4 °C 18,4 °C 22,5 km/h (4 Bft)
13.09.2017 14:53 18,4 °C 18,4 °C 68 % 1011,8 hPa 0,0 mm 3,1 km/h (1 Bft) W-SW 239 ° 1 min 0,000 mm 4,5 UV-I 817 W/m² 12,4 °C 18,4 °C 8,0 km/h (2 Bft)
13.09.2017 14:54 18,5 °C 18,5 °C 68 % 1011,7 hPa 0,0 mm 11,8 km/h (2 Bft) W 262 ° 0 min 0,000 mm 2,5 UV-I 204 W/m² 12,5 °C 18,5 °C 19,3 km/h (3 Bft)
13.09.2017 14:55 18,5 °C 18,5 °C 68 % 1011,8 hPa 0,0 mm 15,9 km/h (3 Bft) NW 312 ° 0 min 0,000 mm 2,1 UV-I 218 W/m² 12,5 °C 18,5 °C 24,1 km/h (4 Bft)
13.09.2017 14:56 18,4 °C 18,5 °C 67 % 1011,9 hPa 0,0 mm 12,5 km/h (3 Bft) W 281 ° 0 min 0,000 mm 3,2 UV-I 218 W/m² 12,2 °C 18,4 °C 16,1 km/h (3 Bft)
13.09.2017 14:57 18,4 °C 18,4 °C 69 % 1011,9 hPa 0,0 mm 12,9 km/h (3 Bft) W-SW 240 ° 0 min 0,000 mm 2,8 UV-I 218 W/m² 12,6 °C 18,4 °C 24,1 km/h (4 Bft)
13.09.2017 14:58 18,4 °C 18,4 °C 68 % 1011,8 hPa 0,0 mm 15,0 km/h (3 Bft) W-SW 240 ° 1 min 0,000 mm 2,7 UV-I 299 W/m² 12,4 °C 18,4 °C 20,9 km/h (4 Bft)
13.09.2017 14:59 18,3 °C 18,4 °C 68 % 1011,9 hPa 0,0 mm 16,0 km/h (3 Bft) S-SW 207 ° 1 min 0,000 mm 2,6 UV-I 299 W/m² 12,3 °C 18,3 °C 25,7 km/h (4 Bft)
13.09.2017 15:00 18,3 °C 18,4 °C 67 % 1011,9 hPa 0,0 mm 9,9 km/h (2 Bft) SW 222 ° 1 min 0,000 mm 2,5 UV-I 299 W/m² 12,1 °C 18,3 °C 14,5 km/h (3 Bft)
13.09.2017 15:01 18,3 °C 18,3 °C 68 % 1011,9 hPa 0,0 mm 11,3 km/h (2 Bft) W 260 ° 1 min 0,254 mm 2,7 UV-I 299 W/m² 12,3 °C 18,3 °C 17,7 km/h (3 Bft)
13.09.2017 15:02 18,3 °C 18,3 °C 69 % 1011,9 hPa 0,0 mm 13,2 km/h (3 Bft) W 276 ° 0 min 0,000 mm 2,7 UV-I 287 W/m² 12,5 °C 18,3 °C 22,5 km/h (4 Bft)
13.09.2017 15:03 18,3 °C 18,3 °C 69 % 1011,7 hPa 0,0 mm 9,4 km/h (2 Bft) W-SW 252 ° 0 min 0,000 mm 2,1 UV-I 257 W/m² 12,5 °C 18,3 °C 16,1 km/h (3 Bft)
13.09.2017 15:04 18,3 °C 18,3 °C 69 % 1011,9 hPa 0,0 mm 11,8 km/h (2 Bft) W 272 ° 0 min 0,000 mm 2,1 UV-I 216 W/m² 12,5 °C 18,3 °C 19,3 km/h (3 Bft)
13.09.2017 15:05 18,2 °C 18,3 °C 69 % 1011,9 hPa 0,0 mm 10,3 km/h (2 Bft) W 261 ° 0 min 0,000 mm 2,4 UV-I 260 W/m² 12,4 °C 18,2 °C 14,5 km/h (3 Bft)
13.09.2017 15:06 18,2 °C 18,2 °C 70 % 1012,0 hPa 0,0 mm 11,5 km/h (2 Bft) W 281 ° 1 min 0,000 mm 2,6 UV-I 308 W/m² 12,6 °C 18,2 °C 17,7 km/h (3 Bft)
13.09.2017 15:07 18,1 °C 18,2 °C 70 % 1011,9 hPa 0,0 mm 12,0 km/h (2 Bft) SW 235 ° 0 min 0,000 mm 2,0 UV-I 232 W/m² 12,5 °C 18,1 °C 17,7 km/h (3 Bft)
13.09.2017 15:08 18,1 °C 18,2 °C 70 % 1011,8 hPa 0,0 mm 7,2 km/h (2 Bft) SO 137 ° 0 min 0,000 mm 1,8 UV-I 190 W/m² 12,5 °C 18,1 °C 11,3 km/h (2 Bft)
13.09.2017 15:09 18,1 °C 18,1 °C 71 % 1011,8 hPa 0,0 mm 10,4 km/h (2 Bft) W 267 ° 0 min 0,000 mm 1,7 UV-I 190 W/m² 12,8 °C 18,1 °C 17,7 km/h (3 Bft)
13.09.2017 15:10 18,0 °C 18,1 °C 69 % 1012,0 hPa 0,0 mm 8,6 km/h (2 Bft) S-SO 165 ° 0 min 0,000 mm 1,8 UV-I 181 W/m² 12,2 °C 18,0 °C 14,5 km/h (3 Bft)
13.09.2017 15:11 17,9 °C 18,0 °C 70 % 1011,9 hPa 0,0 mm 6,2 km/h (2 Bft) W 279 ° 0 min 0,000 mm 2,0 UV-I 200 W/m² 12,3 °C 17,9 °C 12,9 km/h (3 Bft)
13.09.2017 15:12 17,9 °C 17,9 °C 71 % 1011,9 hPa 0,0 mm 7,4 km/h (2 Bft) W 276 ° 0 min 0,000 mm 2,1 UV-I 195 W/m² 12,6 °C 17,9 °C 14,5 km/h (3 Bft)
13.09.2017 15:13 17,8 °C 17,9 °C 72 % 1011,9 hPa 0,0 mm 8,7 km/h (2 Bft) W-SW 252 ° 0 min 0,000 mm 1,6 UV-I 171 W/m² 12,7 °C 17,8 °C 14,5 km/h (3 Bft)
13.09.2017 15:14 17,8 °C 17,9 °C 70 % 1011,9 hPa 0,0 mm 8,0 km/h (2 Bft) W 265 ° 0 min 0,000 mm 1,5 UV-I 165 W/m² 12,3 °C 17,8 °C 14,5 km/h (3 Bft)
13.09.2017 15:15 17,8 °C 17,8 °C 71 % 1011,9 hPa 0,0 mm 11,2 km/h (2 Bft) SW 221 ° 0 min 0,000 mm 1,8 UV-I 206 W/m² 12,5 °C 17,8 °C 16,1 km/h (3 Bft)
13.09.2017 15:16 17,7 °C 17,8 °C 71 % 1011,9 hPa 0,0 mm 6,2 km/h (2 Bft) S 190 ° 0 min 0,000 mm 2,2 UV-I 255 W/m² 12,4 °C 17,7 °C 9,7 km/h (2 Bft)
13.09.2017 15:17 17,7 °C 17,7 °C 72 % 1011,9 hPa 0,0 mm 4,6 km/h (1 Bft) S-SW 199 ° 0 min 0,000 mm 2,0 UV-I 255 W/m² 12,6 °C 17,7 °C 8,0 km/h (2 Bft)
13.09.2017 15:18 17,7 °C 17,7 °C 70 % 1011,9 hPa 0,0 mm 5,2 km/h (1 Bft) W 281 ° 0 min 0,000 mm 1,6 UV-I 151 W/m² 12,2 °C 17,7 °C 11,3 km/h (2 Bft)
13.09.2017 15:19 17,6 °C 17,7 °C 71 % 1011,9 hPa 0,0 mm 7,6 km/h (2 Bft) SW 228 ° 0 min 0,000 mm 1,1 UV-I 127 W/m² 12,3 °C 17,6 °C 11,3 km/h (2 Bft)
13.09.2017 15:20 17,6 °C 17,6 °C 69 % 1011,9 hPa 0,0 mm 7,7 km/h (2 Bft) S-SW 194 ° 0 min 0,000 mm 1,1 UV-I 111 W/m² 11,8 °C 17,6 °C 14,5 km/h (3 Bft)
13.09.2017 15:21 17,6 °C 17,6 °C 70 % 1012,1 hPa 0,0 mm 4,1 km/h (1 Bft) W-SW 257 ° 0 min 0,000 mm 1,0 UV-I 113 W/m² 12,1 °C 17,6 °C 6,4 km/h (2 Bft)
13.09.2017 15:22 17,4 °C 17,6 °C 71 % 1012,1 hPa 0,0 mm 12,1 km/h (2 Bft) W 266 ° 0 min 0,000 mm 1,1 UV-I 120 W/m² 12,1 °C 17,4 °C 16,1 km/h (3 Bft)
13.09.2017 15:23 17,4 °C 17,4 °C 72 % 1012,1 hPa 0,0 mm 7,0 km/h (2 Bft) SW 215 ° 0 min 0,000 mm 1,1 UV-I 125 W/m² 12,3 °C 17,4 °C 11,3 km/h (2 Bft)
13.09.2017 15:24 17,3 °C 17,4 °C 71 % 1012,1 hPa 0,0 mm 4,6 km/h (1 Bft) NO 38 ° 0 min 0,000 mm 1,1 UV-I 141 W/m² 12,0 °C 17,3 °C 8,0 km/h (2 Bft)
13.09.2017 15:25 17,2 °C 17,3 °C 72 % 1012,1 hPa 0,0 mm 20,7 km/h (4 Bft) W 277 ° 0 min 0,000 mm 1,2 UV-I 139 W/m² 12,1 °C 17,2 °C 27,4 km/h (4 Bft)
13.09.2017 15:26 17,1 °C 17,2 °C 72 % 1012,3 hPa 0,0 mm 16,8 km/h (3 Bft) W 276 ° 0 min 0,000 mm 1,2 UV-I 134 W/m² 12,0 °C 17,1 °C 24,1 km/h (4 Bft)
13.09.2017 15:27 17,0 °C 17,1 °C 73 % 1012,2 hPa 0,0 mm 17,0 km/h (3 Bft) W 268 ° 0 min 0,000 mm 1,1 UV-I 128 W/m² 12,1 °C 17,0 °C 22,5 km/h (4 Bft)
13.09.2017 15:28 16,9 °C 17,0 °C 73 % 1012,2 hPa 0,0 mm 19,6 km/h (3 Bft) NW 315 ° 0 min 0,000 mm 1,1 UV-I 123 W/m² 12,0 °C 16,9 °C 25,7 km/h (4 Bft)
13.09.2017 15:29 16,8 °C 16,9 °C 73 % 1012,1 hPa 0,0 mm 13,7 km/h (3 Bft) W 265 ° 0 min 0,000 mm 1,4 UV-I 162 W/m² 11,9 °C 16,8 °C 17,7 km/h (3 Bft)
13.09.2017 15:30 16,8 °C 16,8 °C 75 % 1012,2 hPa 0,0 mm 11,0 km/h (2 Bft) W-SW 244 ° 0 min 0,000 mm 1,7 UV-I 188 W/m² 12,3 °C 16,8 °C 19,3 km/h (3 Bft)
13.09.2017 15:31 16,8 °C 16,8 °C 75 % 1012,1 hPa 0,0 mm 7,7 km/h (2 Bft) W 281 ° 0 min 0,000 mm 1,5 UV-I 171 W/m² 12,3 °C 16,8 °C 17,7 km/h (3 Bft)
13.09.2017 15:32 16,8 °C 16,8 °C 74 % 1012,1 hPa 0,0 mm 13,4 km/h (3 Bft) W-SW 247 ° 0 min 0,000 mm 1,7 UV-I 202 W/m² 12,1 °C 16,8 °C 20,9 km/h (4 Bft)
13.09.2017 15:33 16,8 °C 16,8 °C 75 % 1012,1 hPa 0,0 mm 13,9 km/h (3 Bft) W-SW 240 ° 0 min 0,000 mm 1,8 UV-I 211 W/m² 12,3 °C 16,8 °C 20,9 km/h (4 Bft)
13.09.2017 15:34 16,8 °C 16,8 °C 74 % 1012,1 hPa 0,0 mm 13,3 km/h (3 Bft) S-SW 211 ° 0 min 0,000 mm 1,8 UV-I 236 W/m² 12,1 °C 16,8 °C 17,7 km/h (3 Bft)
13.09.2017 15:35 16,8 °C 16,8 °C 74 % 1012,1 hPa 0,0 mm 8,8 km/h (2 Bft) SW 227 ° 0 min 0,000 mm 1,5 UV-I 156 W/m² 12,1 °C 16,8 °C 16,1 km/h (3 Bft)
13.09.2017 15:36 16,8 °C 16,8 °C 75 % 1012,1 hPa 0,0 mm 17,3 km/h (3 Bft) SW 227 ° 0 min 0,000 mm 1,3 UV-I 151 W/m² 12,3 °C 16,8 °C 30,6 km/h (5 Bft)
13.09.2017 15:37 16,8 °C 16,8 °C 74 % 1012,4 hPa 0,0 mm 23,6 km/h (4 Bft) W 275 ° 0 min 0,000 mm 1,2 UV-I 146 W/m² 12,1 °C 16,8 °C 40,2 km/h (6 Bft)
13.09.2017 15:38 16,8 °C 16,8 °C 74 % 1012,2 hPa 0,0 mm 16,9 km/h (3 Bft) SW 236 ° 0 min 0,000 mm 1,2 UV-I 130 W/m² 12,1 °C 16,8 °C 32,2 km/h (5 Bft)
13.09.2017 15:39 16,8 °C 16,8 °C 74 % 1012,1 hPa 0,0 mm 12,7 km/h (3 Bft) W-NW 294 ° 0 min 0,000 mm 1,0 UV-I 125 W/m² 12,1 °C 16,8 °C 20,9 km/h (4 Bft)
13.09.2017 15:40 16,8 °C 16,8 °C 75 % 1012,3 hPa 0,0 mm 15,4 km/h (3 Bft) W 276 ° 0 min 0,000 mm 1,1 UV-I 128 W/m² 12,3 °C 16,8 °C 24,1 km/h (4 Bft)
13.09.2017 15:41 16,7 °C 16,8 °C 75 % 1012,3 hPa 0,0 mm 15,4 km/h (3 Bft) W-SW 254 ° 0 min 0,000 mm 1,3 UV-I 132 W/m² 12,2 °C 16,7 °C 24,1 km/h (4 Bft)
13.09.2017 15:42 16,7 °C 16,7 °C 74 % 1012,2 hPa 0,0 mm 12,7 km/h (3 Bft) W-SW 256 ° 0 min 0,000 mm 1,0 UV-I 132 W/m² 12,0 °C 16,7 °C 19,3 km/h (3 Bft)
13.09.2017 15:43 16,7 °C 16,7 °C 74 % 1012,3 hPa 0,0 mm 7,4 km/h (2 Bft) S 183 ° 0 min 0,000 mm 1,0 UV-I 121 W/m² 12,0 °C 16,7 °C 14,5 km/h (3 Bft)
13.09.2017 15:44 16,7 °C 16,7 °C 75 % 1012,4 hPa 0,0 mm 13,1 km/h (3 Bft) W-SW 252 ° 0 min 0,000 mm 1,0 UV-I 125 W/m² 12,2 °C 16,7 °C 19,3 km/h (3 Bft)
13.09.2017 15:45 16,7 °C 16,7 °C 75 % 1012,3 hPa 0,0 mm 8,9 km/h (2 Bft) W-SW 248 ° 0 min 0,000 mm 1,1 UV-I 128 W/m² 12,2 °C 16,7 °C 14,5 km/h (3 Bft)
13.09.2017 15:46 16,6 °C 16,7 °C 76 % 1012,3 hPa 0,0 mm 5,5 km/h (1 Bft) W 262 ° 0 min 0,000 mm 1,0 UV-I 113 W/m² 12,3 °C 16,6 °C 9,7 km/h (2 Bft)
13.09.2017 15:47 16,6 °C 16,6 °C 75 % 1012,3 hPa 0,0 mm 6,2 km/h (2 Bft) W 271 ° 0 min 0,000 mm 0,9 UV-I 97 W/m² 12,1 °C 16,6 °C 16,1 km/h (3 Bft)
13.09.2017 15:48 16,6 °C 16,6 °C 76 % 1012,4 hPa 0,0 mm 9,4 km/h (2 Bft) SW 228 ° 0 min 0,000 mm 0,9 UV-I 111 W/m² 12,3 °C 16,6 °C 14,5 km/h (3 Bft)
13.09.2017 15:49 16,6 °C 16,6 °C 75 % 1012,3 hPa 0,0 mm 5,6 km/h (1 Bft) W-SW 250 ° 0 min 0,000 mm 1,0 UV-I 125 W/m² 12,1 °C 16,6 °C 11,3 km/h (2 Bft)
13.09.2017 15:50 16,6 °C 16,6 °C 76 % 1012,3 hPa 0,0 mm 6,2 km/h (2 Bft) SW 214 ° 0 min 0,000 mm 1,0 UV-I 132 W/m² 12,3 °C 16,6 °C 12,9 km/h (3 Bft)
13.09.2017 15:51 16,5 °C 16,6 °C 76 % 1012,3 hPa 0,0 mm 9,0 km/h (2 Bft) W 265 ° 0 min 0,000 mm 0,9 UV-I 116 W/m² 12,3 °C 16,5 °C 16,1 km/h (3 Bft)
13.09.2017 15:52 16,5 °C 16,6 °C 77 % 1012,4 hPa 0,0 mm 7,6 km/h (2 Bft) W 263 ° 0 min 0,000 mm 0,9 UV-I 105 W/m² 12,5 °C 16,5 °C 12,9 km/h (3 Bft)
13.09.2017 15:53 16,5 °C 16,6 °C 75 % 1012,4 hPa 0,0 mm 7,6 km/h (2 Bft) W 261 ° 0 min 0,000 mm 0,9 UV-I 95 W/m² 12,1 °C 16,5 °C 16,1 km/h (3 Bft)
13.09.2017 15:54 16,5 °C 16,5 °C 76 % 1012,5 hPa 0,0 mm 8,5 km/h (2 Bft) W-NW 286 ° 0 min 0,000 mm 0,8 UV-I 93 W/m² 12,3 °C 16,5 °C 17,7 km/h (3 Bft)
13.09.2017 15:55 16,5 °C 16,5 °C 75 % 1012,3 hPa 0,0 mm 12,8 km/h (3 Bft) S-SW 202 ° 0 min 0,000 mm 0,7 UV-I 88 W/m² 12,1 °C 16,5 °C 22,5 km/h (4 Bft)
13.09.2017 15:56 16,5 °C 16,6 °C 75 % 1012,5 hPa 0,0 mm 12,8 km/h (3 Bft) W-SW 253 ° 0 min 0,000 mm 0,7 UV-I 88 W/m² 12,1 °C 16,5 °C 24,1 km/h (4 Bft)
13.09.2017 15:57 16,6 °C 16,6 °C 75 % 1012,5 hPa 0,0 mm 9,7 km/h (2 Bft) W 277 ° 0 min 0,000 mm 0,8 UV-I 98 W/m² 12,1 °C 16,6 °C 19,3 km/h (3 Bft)
13.09.2017 15:58 16,6 °C 16,6 °C 76 % 1012,7 hPa 0,0 mm 9,4 km/h (2 Bft) SW 225 ° 0 min 0,000 mm 1,0 UV-I 120 W/m² 12,3 °C 16,6 °C 16,1 km/h (3 Bft)
13.09.2017 15:59 16,6 °C 16,6 °C 76 % 1012,7 hPa 0,0 mm 8,7 km/h (2 Bft) S 178 ° 0 min 0,000 mm 1,0 UV-I 116 W/m² 12,3 °C 16,6 °C 12,9 km/h (3 Bft)
13.09.2017 16:00 16,6 °C 16,6 °C 75 % 1012,5 hPa 0,0 mm 9,7 km/h (2 Bft) S-SW 207 ° 0 min 0,000 mm 0,8 UV-I 100 W/m² 12,1 °C 16,6 °C 22,5 km/h (4 Bft)
13.09.2017 16:01 16,6 °C 16,6 °C 75 % 1012,5 hPa 0,0 mm 12,5 km/h (3 Bft) W-NW 284 ° 0 min 0,127 mm 0,8 UV-I 98 W/m² 12,1 °C 16,6 °C 22,5 km/h (4 Bft)
13.09.2017 16:02 16,5 °C 16,6 °C 75 % 1012,7 hPa 0,0 mm 12,1 km/h (2 Bft) S-SW 205 ° 0 min 0,000 mm 0,8 UV-I 90 W/m² 12,1 °C 16,5 °C 20,9 km/h (4 Bft)
13.09.2017 16:03 16,5 °C 16,6 °C 75 % 1012,4 hPa 0,0 mm 19,8 km/h (3 Bft) W-SW 253 ° 0 min 0,000 mm 0,7 UV-I 81 W/m² 12,1 °C 16,5 °C 29,0 km/h (5 Bft)
13.09.2017 16:04 16,4 °C 16,6 °C 76 % 1012,6 hPa 0,0 mm 6,1 km/h (2 Bft) W-SW 247 ° 0 min 0,000 mm 0,6 UV-I 77 W/m² 12,2 °C 16,4 °C 12,9 km/h (3 Bft)
13.09.2017 16:05 16,5 °C 16,5 °C 76 % 1012,6 hPa 0,0 mm 14,7 km/h (3 Bft) W 259 ° 0 min 0,000 mm 0,6 UV-I 81 W/m² 12,3 °C 16,5 °C 27,4 km/h (4 Bft)
13.09.2017 16:06 16,4 °C 16,5 °C 76 % 1012,6 hPa 0,0 mm 15,4 km/h (3 Bft) W 273 ° 0 min 0,000 mm 0,6 UV-I 74 W/m² 12,2 °C 16,4 °C 20,9 km/h (4 Bft)
13.09.2017 16:07 16,4 °C 16,5 °C 76 % 1012,7 hPa 0,0 mm 12,5 km/h (3 Bft) S-SW 202 ° 0 min 0,000 mm 0,6 UV-I 65 W/m² 12,2 °C 16,4 °C 20,9 km/h (4 Bft)
13.09.2017 16:08 16,4 °C 16,4 °C 76 % 1012,6 hPa 0,0 mm 3,8 km/h (1 Bft) W-SW 257 ° 0 min 0,000 mm 0,5 UV-I 63 W/m² 12,2 °C 16,4 °C 8,0 km/h (2 Bft)
13.09.2017 16:09 16,4 °C 16,4 °C 76 % 1012,7 hPa 0,0 mm 13,1 km/h (3 Bft) W-SW 252 ° 0 min 0,000 mm 0,6 UV-I 70 W/m² 12,2 °C 16,4 °C 22,5 km/h (4 Bft)
13.09.2017 16:10 16,4 °C 16,4 °C 76 % 1012,7 hPa 0,0 mm 11,7 km/h (2 Bft) NW 309 ° 0 min 0,000 mm 0,6 UV-I 83 W/m² 12,2 °C 16,4 °C 24,1 km/h (4 Bft)
13.09.2017 16:11 16,4 °C 16,4 °C 76 % 1012,7 hPa 0,0 mm 8,5 km/h (2 Bft) W 265 ° 0 min 0,000 mm 0,6 UV-I 74 W/m² 12,2 °C 16,4 °C 14,5 km/h (3 Bft)
13.09.2017 16:12 16,4 °C 16,4 °C 76 % 1012,8 hPa 0,0 mm 10,8 km/h (2 Bft) S-SW 207 ° 0 min 0,000 mm 0,6 UV-I 81 W/m² 12,2 °C 16,4 °C 14,5 km/h (3 Bft)
13.09.2017 16:13 16,4 °C 16,4 °C 76 % 1012,8 hPa 0,0 mm 7,1 km/h (2 Bft) W-NW 294 ° 0 min 0,000 mm 0,7 UV-I 91 W/m² 12,2 °C 16,4 °C 16,1 km/h (3 Bft)
13.09.2017 16:14 16,4 °C 16,4 °C 77 % 1012,7 hPa 0,0 mm 7,9 km/h (2 Bft) W-SW 248 ° 0 min 0,000 mm 0,7 UV-I 100 W/m² 12,4 °C 16,4 °C 12,9 km/h (3 Bft)
13.09.2017 16:15 16,4 °C 16,4 °C 77 % 1012,8 hPa 0,0 mm 6,7 km/h (2 Bft) W 277 ° 0 min 0,000 mm 0,8 UV-I 113 W/m² 12,4 °C 16,4 °C 17,7 km/h (3 Bft)
13.09.2017 16:16 16,4 °C 16,4 °C 76 % 1012,7 hPa 0,0 mm 12,5 km/h (3 Bft) W 271 ° 0 min 0,000 mm 0,8 UV-I 97 W/m² 12,2 °C 16,4 °C 20,9 km/h (4 Bft)
13.09.2017 16:17 16,3 °C 16,4 °C 77 % 1012,8 hPa 0,0 mm 15,2 km/h (3 Bft) W-SW 248 ° 0 min 0,000 mm 0,8 UV-I 100 W/m² 12,3 °C 16,3 °C 25,7 km/h (4 Bft)
13.09.2017 16:18 16,3 °C 16,4 °C 77 % 1012,8 hPa 0,0 mm 18,7 km/h (3 Bft) W 266 ° 0 min 0,000 mm 0,8 UV-I 113 W/m² 12,3 °C 16,3 °C 30,6 km/h (5 Bft)
13.09.2017 16:19 16,3 °C 16,3 °C 77 % 1012,7 hPa 0,0 mm 16,5 km/h (3 Bft) W-SW 252 ° 0 min 0,000 mm 0,9 UV-I 123 W/m² 12,3 °C 16,3 °C 27,4 km/h (4 Bft)
13.09.2017 16:20 16,3 °C 16,3 °C 77 % 1012,7 hPa 0,0 mm 12,4 km/h (3 Bft) S 187 ° 0 min 0,000 mm 0,8 UV-I 114 W/m² 12,3 °C 16,3 °C 17,7 km/h (3 Bft)
13.09.2017 16:21 16,3 °C 16,3 °C 78 % 1012,7 hPa 0,0 mm 11,9 km/h (2 Bft) W-NW 282 ° 0 min 0,000 mm 0,9 UV-I 130 W/m² 12,5 °C 16,3 °C 17,7 km/h (3 Bft)
13.09.2017 16:22 16,3 °C 16,3 °C 77 % 1012,7 hPa 0,0 mm 6,2 km/h (2 Bft) W-NW 294 ° 0 min 0,000 mm 1,0 UV-I 144 W/m² 12,3 °C 16,3 °C 11,3 km/h (2 Bft)
13.09.2017 16:23 16,3 °C 16,3 °C 78 % 1012,7 hPa 0,0 mm 13,7 km/h (3 Bft) W 263 ° 0 min 0,000 mm 1,0 UV-I 137 W/m² 12,5 °C 16,3 °C 29,0 km/h (5 Bft)
13.09.2017 16:24 16,2 °C 16,3 °C 78 % 1012,6 hPa 0,0 mm 11,9 km/h (2 Bft) W-SW 240 ° 0 min 0,000 mm 1,0 UV-I 144 W/m² 12,4 °C 16,2 °C 20,9 km/h (4 Bft)
13.09.2017 16:25 16,2 °C 16,2 °C 79 % 1012,6 hPa 0,0 mm 9,4 km/h (2 Bft) W 262 ° 0 min 0,000 mm 1,1 UV-I 149 W/m² 12,6 °C 16,2 °C 17,7 km/h (3 Bft)
13.09.2017 16:26 16,2 °C 16,2 °C 79 % 1012,6 hPa 0,0 mm 11,9 km/h (2 Bft) W-SW 246 ° 0 min 0,000 mm 0,9 UV-I 134 W/m² 12,6 °C 16,2 °C 25,7 km/h (4 Bft)
13.09.2017 16:27 16,1 °C 16,2 °C 79 % 1012,7 hPa 0,0 mm 12,5 km/h (3 Bft) W-NW 302 ° 0 min 0,000 mm 0,9 UV-I 128 W/m² 12,5 °C 16,1 °C 16,1 km/h (3 Bft)
13.09.2017 16:28 16,1 °C 16,1 °C 79 % 1012,7 hPa 0,0 mm 9,7 km/h (2 Bft) SW 220 ° 0 min 0,000 mm 1,0 UV-I 132 W/m² 12,5 °C 16,1 °C 19,3 km/h (3 Bft)
13.09.2017 16:29 16,1 °C 16,1 °C 79 % 1012,6 hPa 0,0 mm 12,9 km/h (3 Bft) W-SW 242 ° 0 min 0,000 mm 1,0 UV-I 149 W/m² 12,5 °C 16,1 °C 25,7 km/h (4 Bft)
13.09.2017 16:30 16,1 °C 16,1 °C 79 % 1012,5 hPa 0,0 mm 9,0 km/h (2 Bft) W-SW 251 ° 0 min 0,000 mm 1,3 UV-I 181 W/m² 12,5 °C 16,1 °C 16,1 km/h (3 Bft)
13.09.2017 16:31 16,0 °C 16,1 °C 80 % 1012,5 hPa 0,0 mm 7,6 km/h (2 Bft) S-SW 194 ° 0 min 0,000 mm 1,3 UV-I 186 W/m² 12,5 °C 16,0 °C 11,3 km/h (2 Bft)
13.09.2017 16:32 16,0 °C 16,0 °C 80 % 1012,5 hPa 0,0 mm 4,8 km/h (1 Bft) W 262 ° 0 min 0,000 mm 1,3 UV-I 185 W/m² 12,5 °C 16,0 °C 9,7 km/h (2 Bft)
13.09.2017 16:33 16,0 °C 16,0 °C 79 % 1012,7 hPa 0,0 mm 11,3 km/h (2 Bft) W 269 ° 0 min 0,000 mm 1,2 UV-I 172 W/m² 12,4 °C 16,0 °C 16,1 km/h (3 Bft)
13.09.2017 16:34 16,0 °C 16,1 °C 81 % 1012,6 hPa 0,0 mm 4,1 km/h (1 Bft) W 267 ° 0 min 0,000 mm 1,2 UV-I 197 W/m² 12,7 °C 16,0 °C 11,3 km/h (2 Bft)
13.09.2017 16:35 16,1 °C 16,1 °C 80 % 1012,5 hPa 0,0 mm 5,8 km/h (2 Bft) S-SW 196 ° 0 min 0,000 mm 1,5 UV-I 230 W/m² 12,6 °C 16,1 °C 11,3 km/h (2 Bft)
13.09.2017 16:36 16,1 °C 16,1 °C 80 % 1012,5 hPa 0,0 mm 7,2 km/h (2 Bft) W 276 ° 0 min 0,000 mm 1,6 UV-I 250 W/m² 12,6 °C 16,1 °C 12,9 km/h (3 Bft)
13.09.2017 16:37 16,2 °C 16,2 °C 80 % 1012,5 hPa 0,0 mm 10,1 km/h (2 Bft) W 263 ° 0 min 0,000 mm 1,6 UV-I 239 W/m² 12,7 °C 16,2 °C 16,1 km/h (3 Bft)
13.09.2017 16:38 16,2 °C 16,2 °C 80 % 1012,5 hPa 0,0 mm 4,2 km/h (1 Bft) W-SW 245 ° 0 min 0,000 mm 1,6 UV-I 243 W/m² 12,7 °C 16,2 °C 6,4 km/h (2 Bft)
13.09.2017 16:39 16,3 °C 16,3 °C 80 % 1012,5 hPa 0,0 mm 6,0 km/h (2 Bft) W 269 ° 0 min 0,000 mm 1,6 UV-I 221 W/m² 12,8 °C 16,3 °C 14,5 km/h (3 Bft)
13.09.2017 16:40 16,3 °C 16,3 °C 79 % 1012,6 hPa 0,0 mm 9,2 km/h (2 Bft) SW 223 ° 0 min 0,000 mm 1,5 UV-I 218 W/m² 12,6 °C 16,3 °C 14,5 km/h (3 Bft)
13.09.2017 16:41 16,4 °C 16,4 °C 78 % 1012,5 hPa 0,0 mm 6,1 km/h (2 Bft) W 259 ° 0 min 0,000 mm 1,4 UV-I 193 W/m² 12,6 °C 16,4 °C 9,7 km/h (2 Bft)
13.09.2017 16:42 16,4 °C 16,4 °C 79 % 1012,4 hPa 0,0 mm 9,7 km/h (2 Bft) SW 215 ° 0 min 0,000 mm 1,3 UV-I 188 W/m² 12,7 °C 16,4 °C 17,7 km/h (3 Bft)
13.09.2017 16:43 16,4 °C 16,4 °C 78 % 1012,5 hPa 0,0 mm 13,4 km/h (3 Bft) W-SW 258 ° 0 min 0,000 mm 1,2 UV-I 185 W/m² 12,6 °C 16,4 °C 27,4 km/h (4 Bft)
13.09.2017 16:44 16,4 °C 16,4 °C 79 % 1012,4 hPa 0,0 mm 12,4 km/h (3 Bft) W 271 ° 0 min 0,000 mm 1,3 UV-I 199 W/m² 12,7 °C 16,4 °C 24,1 km/h (4 Bft)
13.09.2017 16:45 16,4 °C 16,4 °C 79 % 1012,4 hPa 0,0 mm 4,8 km/h (1 Bft) W 269 ° 0 min 0,000 mm 1,3 UV-I 202 W/m² 12,7 °C 16,4 °C 11,3 km/h (2 Bft)
13.09.2017 16:46 16,4 °C 16,4 °C 79 % 1012,3 hPa 0,0 mm 6,2 km/h (2 Bft) S-SW 209 ° 0 min 0,000 mm 1,2 UV-I 186 W/m² 12,7 °C 16,4 °C 19,3 km/h (3 Bft)
13.09.2017 16:47 16,4 °C 16,4 °C 78 % 1012,4 hPa 0,0 mm 10,7 km/h (2 Bft) W 264 ° 0 min 0,000 mm 1,0 UV-I 153 W/m² 12,6 °C 16,4 °C 12,9 km/h (3 Bft)
13.09.2017 16:48 16,4 °C 16,4 °C 79 % 1012,2 hPa 0,0 mm 7,4 km/h (2 Bft) NW 308 ° 0 min 0,000 mm 1,0 UV-I 149 W/m² 12,7 °C 16,4 °C 17,7 km/h (3 Bft)
13.09.2017 16:49 16,4 °C 16,4 °C 79 % 1012,3 hPa 0,0 mm 3,9 km/h (1 Bft) W-SW 250 ° 0 min 0,000 mm 1,0 UV-I 144 W/m² 12,7 °C 16,4 °C 6,4 km/h (2 Bft)
13.09.2017 16:50 16,5 °C 16,5 °C 80 % 1012,2 hPa 0,0 mm 5,3 km/h (1 Bft) W 271 ° 0 min 0,000 mm 1,0 UV-I 163 W/m² 13,0 °C 16,5 °C 6,4 km/h (2 Bft)
13.09.2017 16:51 16,5 °C 16,5 °C 80 % 1012,3 hPa 0,0 mm 6,8 km/h (2 Bft) W-SW 246 ° 0 min 0,000 mm 1,2 UV-I 192 W/m² 13,0 °C 16,5 °C 11,3 km/h (2 Bft)
13.09.2017 16:52 16,5 °C 16,5 °C 80 % 1012,2 hPa 0,0 mm 5,0 km/h (1 Bft) W-NW 294 ° 0 min 0,000 mm 1,3 UV-I 214 W/m² 13,0 °C 16,5 °C 9,7 km/h (2 Bft)
13.09.2017 16:53 16,6 °C 16,6 °C 81 % 1012,1 hPa 0,0 mm 8,8 km/h (2 Bft) SW 231 ° 0 min 0,000 mm 1,2 UV-I 206 W/m² 13,3 °C 16,6 °C 12,9 km/h (3 Bft)
13.09.2017 16:54 16,6 °C 16,6 °C 80 % 1012,1 hPa 0,0 mm 6,9 km/h (2 Bft) W-NW 283 ° 0 min 0,000 mm 1,2 UV-I 206 W/m² 13,1 °C 16,6 °C 11,3 km/h (2 Bft)
13.09.2017 16:55 16,6 °C 16,6 °C 79 % 1012,3 hPa 0,0 mm 12,0 km/h (2 Bft) W 273 ° 0 min 0,000 mm 1,2 UV-I 204 W/m² 12,9 °C 16,6 °C 14,5 km/h (3 Bft)
13.09.2017 16:56 16,6 °C 16,6 °C 79 % 1012,1 hPa 0,0 mm 5,4 km/h (1 Bft) W-NW 294 ° 0 min 0,000 mm 1,1 UV-I 186 W/m² 12,9 °C 16,6 °C 11,3 km/h (2 Bft)
13.09.2017 16:57 16,6 °C 16,6 °C 79 % 1012,1 hPa 0,0 mm 9,1 km/h (2 Bft) W-SW 254 ° 0 min 0,000 mm 0,9 UV-I 153 W/m² 12,9 °C 16,6 °C 14,5 km/h (3 Bft)
13.09.2017 16:58 16,6 °C 16,6 °C 80 % 1012,1 hPa 0,0 mm 5,4 km/h (1 Bft) W-SW 257 ° 0 min 0,000 mm 0,8 UV-I 107 W/m² 13,1 °C 16,6 °C 11,3 km/h (2 Bft)
13.09.2017 16:59 16,6 °C 16,6 °C 79 % 1012,0 hPa 0,0 mm 2,4 km/h (1 Bft) W-NW 290 ° 0 min 0,000 mm 0,7 UV-I 113 W/m² 12,9 °C 16,6 °C 9,7 km/h (2 Bft)
13.09.2017 17:00 16,6 °C 16,6 °C 79 % 1012,1 hPa 0,0 mm 6,5 km/h (2 Bft) W-NW 294 ° 0 min 0,000 mm 0,7 UV-I 113 W/m² 12,9 °C 16,6 °C 9,7 km/h (2 Bft)
13.09.2017 17:01 16,5 °C 16,6 °C 79 % 1012,0 hPa 0,0 mm 3,0 km/h (1 Bft) W-NW 284 ° 0 min 0,102 mm 0,6 UV-I 105 W/m² 12,8 °C 16,5 °C 6,4 km/h (2 Bft)
13.09.2017 17:02 16,4 °C 16,5 °C 80 % 1012,1 hPa 0,0 mm 3,9 km/h (1 Bft) W 281 ° 0 min 0,000 mm 0,6 UV-I 95 W/m² 12,9 °C 16,4 °C 6,4 km/h (2 Bft)
13.09.2017 17:03 16,4 °C 16,5 °C 80 % 1012,1 hPa 0,0 mm 0,9 km/h (0 Bft) W 281 ° 0 min 0,000 mm 0,5 UV-I 67 W/m² 12,9 °C 16,4 °C 3,2 km/h (1 Bft)
13.09.2017 17:04 16,4 °C 16,4 °C 80 % 1012,0 hPa 0,0 mm 2,7 km/h (1 Bft) W 281 ° 0 min 0,000 mm 0,0 UV-I 67 W/m² 12,9 °C 16,4 °C 4,8 km/h (1 Bft)
13.09.2017 17:05 16,4 °C 16,4 °C 80 % 1012,0 hPa 0,0 mm 1,9 km/h (1 Bft) W 281 ° 0 min 0,000 mm 0,0 UV-I 69 W/m² 12,9 °C 16,4 °C 4,8 km/h (1 Bft)
13.09.2017 17:06 16,4 °C 16,4 °C 80 % 1012,1 hPa 0,0 mm 1,4 km/h (1 Bft) W-SW 256 ° 0 min 0,000 mm 0,5 UV-I 76 W/m² 12,9 °C 16,4 °C 4,8 km/h (1 Bft)
13.09.2017 17:07 16,4 °C 16,4 °C 80 % 1012,1 hPa 0,0 mm 1,3 km/h (1 Bft) W 259 ° 0 min 0,000 mm 0,5 UV-I 77 W/m² 12,9 °C 16,4 °C 3,2 km/h (1 Bft)
13.09.2017 17:08 16,4 °C 16,4 °C 80 % 1012,0 hPa 0,0 mm 0,8 km/h (0 Bft) W 259 ° 0 min 0,000 mm 0,5 UV-I 76 W/m² 12,9 °C 16,4 °C 3,2 km/h (1 Bft)
13.09.2017 17:09 16,4 °C 16,4 °C 81 % 1012,0 hPa 0,0 mm 3,0 km/h (1 Bft) S-SW 209 ° 0 min 0,000 mm 0,5 UV-I 62 W/m² 13,1 °C 16,4 °C 4,8 km/h (1 Bft)
13.09.2017 17:10 16,3 °C 16,4 °C 80 % 1012,1 hPa 0,0 mm 2,3 km/h (1 Bft) W-SW 251 ° 0 min 0,000 mm 0,0 UV-I 56 W/m² 12,8 °C 16,3 °C 8,0 km/h (2 Bft)
13.09.2017 17:11 16,3 °C 16,4 °C 81 % 1012,0 hPa 0,0 mm 3,9 km/h (1 Bft) W-SW 241 ° 0 min 0,000 mm 0,0 UV-I 56 W/m² 13,0 °C 16,3 °C 11,3 km/h (2 Bft)
13.09.2017 17:12 16,3 °C 16,3 °C 80 % 1012,0 hPa 0,0 mm 3,1 km/h (1 Bft) W-SW 242 ° 0 min 0,000 mm 0,0 UV-I 58 W/m² 12,8 °C 16,3 °C 4,8 km/h (1 Bft)
13.09.2017 17:13 16,3 °C 16,3 °C 80 % 1012,0 hPa 0,0 mm 1,9 km/h (1 Bft) W-SW 243 ° 0 min 0,000 mm 0,0 UV-I 60 W/m² 12,8 °C 16,3 °C 3,2 km/h (1 Bft)
13.09.2017 17:14 16,3 °C 16,3 °C 80 % 1012,0 hPa 0,0 mm 3,4 km/h (1 Bft) W-SW 257 ° 0 min 0,000 mm 0,5 UV-I 65 W/m² 12,8 °C 16,3 °C 4,8 km/h (1 Bft)
13.09.2017 17:15 16,3 °C 16,3 °C 80 % 1012,0 hPa 0,0 mm 5,7 km/h (1 Bft) W-SW 240 ° 0 min 0,000 mm 0,5 UV-I 63 W/m² 12,8 °C 16,3 °C 9,7 km/h (2 Bft)
13.09.2017 17:16 16,3 °C 16,3 °C 79 % 1011,9 hPa 0,0 mm 3,0 km/h (1 Bft) W-SW 240 ° 0 min 0,000 mm 0,5 UV-I 67 W/m² 12,6 °C 16,3 °C 4,8 km/h (1 Bft)
13.09.2017 17:17 16,3 °C 16,3 °C 80 % 1011,9 hPa 0,0 mm 2,3 km/h (1 Bft) W-SW 240 ° 0 min 0,000 mm 0,5 UV-I 72 W/m² 12,8 °C 16,3 °C 3,2 km/h (1 Bft)
13.09.2017 17:18 16,3 °C 16,3 °C 80 % 1011,8 hPa 0,0 mm 2,0 km/h (1 Bft) W-SW 240 ° 0 min 0,000 mm 0,5 UV-I 76 W/m² 12,8 °C 16,3 °C 3,2 km/h (1 Bft)
13.09.2017 17:19 16,3 °C 16,3 °C 81 % 1011,8 hPa 0,0 mm 2,1 km/h (1 Bft) W-SW 250 ° 0 min 0,000 mm 0,5 UV-I 76 W/m² 13,0 °C 16,3 °C 4,8 km/h (1 Bft)
13.09.2017 17:20 16,3 °C 16,3 °C 81 % 1011,8 hPa 0,0 mm 2,6 km/h (1 Bft) NW 307 ° 0 min 0,000 mm 0,5 UV-I 70 W/m² 13,0 °C 16,3 °C 4,8 km/h (1 Bft)
13.09.2017 17:21 16,3 °C 16,3 °C 81 % 1011,8 hPa 0,0 mm 2,2 km/h (1 Bft) W-NW 301 ° 0 min 0,000 mm 0,5 UV-I 65 W/m² 13,0 °C 16,3 °C 3,2 km/h (1 Bft)
13.09.2017 17:22 16,3 °C 16,3 °C 82 % 1011,8 hPa 0,0 mm 4,5 km/h (1 Bft) W-NW 282 ° 0 min 0,000 mm 0,0 UV-I 65 W/m² 13,2 °C 16,3 °C 14,5 km/h (3 Bft)
13.09.2017 17:23 16,2 °C 16,3 °C 81 % 1011,8 hPa 0,0 mm 8,0 km/h (2 Bft) W-SW 255 ° 0 min 0,000 mm 0,5 UV-I 69 W/m² 12,9 °C 16,2 °C 11,3 km/h (2 Bft)
13.09.2017 17:24 16,2 °C 16,2 °C 80 % 1011,7 hPa 0,0 mm 2,9 km/h (1 Bft) W-SW 251 ° 0 min 0,000 mm 0,5 UV-I 74 W/m² 12,7 °C 16,2 °C 8,0 km/h (2 Bft)
13.09.2017 17:25 16,2 °C 16,2 °C 80 % 1011,6 hPa 0,0 mm 3,2 km/h (1 Bft) S-SW 212 ° 0 min 0,000 mm 0,5 UV-I 79 W/m² 12,7 °C 16,2 °C 6,4 km/h (2 Bft)
13.09.2017 17:26 16,2 °C 16,2 °C 81 % 1011,5 hPa 0,0 mm 1,9 km/h (1 Bft) W-SW 257 ° 0 min 0,000 mm 0,5 UV-I 86 W/m² 12,9 °C 16,2 °C 4,8 km/h (1 Bft)
13.09.2017 17:27 16,2 °C 16,2 °C 81 % 1011,6 hPa 0,0 mm 0,6 km/h (0 Bft) W-SW 244 ° 0 min 0,000 mm 0,6 UV-I 90 W/m² 12,9 °C 16,2 °C 1,6 km/h (1 Bft)
13.09.2017 17:28 16,2 °C 16,2 °C 82 % 1011,5 hPa 0,0 mm 1,5 km/h (1 Bft) W-SW 244 ° 0 min 0,000 mm 0,6 UV-I 91 W/m² 13,1 °C 16,2 °C 3,2 km/h (1 Bft)
13.09.2017 17:29 16,1 °C 16,2 °C 83 % 1011,6 hPa 0,0 mm 3,9 km/h (1 Bft) W-NW 283 ° 0 min 0,000 mm 0,6 UV-I 95 W/m² 13,2 °C 16,1 °C 6,4 km/h (2 Bft)
13.09.2017 17:30 16,1 °C 16,1 °C 83 % 1011,6 hPa 0,0 mm 3,9 km/h (1 Bft) W-SW 251 ° 0 min 0,000 mm 0,6 UV-I 95 W/m² 13,2 °C 16,1 °C 6,4 km/h (2 Bft)
13.09.2017 17:31 16,1 °C 16,1 °C 83 % 1011,6 hPa 0,0 mm 3,7 km/h (1 Bft) W-NW 296 ° 0 min 0,000 mm 0,6 UV-I 98 W/m² 13,2 °C 16,1 °C 4,8 km/h (1 Bft)
13.09.2017 17:32 16,0 °C 16,1 °C 83 % 1011,6 hPa 0,0 mm 4,0 km/h (1 Bft) W-NW 290 ° 0 min 0,000 mm 0,6 UV-I 93 W/m² 13,1 °C 16,0 °C 6,4 km/h (2 Bft)
13.09.2017 17:33 16,0 °C 16,0 °C 83 % 1011,6 hPa 0,0 mm 5,0 km/h (1 Bft) W 277 ° 0 min 0,000 mm 0,6 UV-I 102 W/m² 13,1 °C 16,0 °C 6,4 km/h (2 Bft)
13.09.2017 17:34 16,0 °C 16,0 °C 83 % 1011,6 hPa 0,0 mm 5,2 km/h (1 Bft) W 269 ° 0 min 0,000 mm 0,6 UV-I 104 W/m² 13,1 °C 16,0 °C 9,7 km/h (2 Bft)
13.09.2017 17:35 15,9 °C 16,0 °C 84 % 1011,6 hPa 0,0 mm 3,4 km/h (1 Bft) W 266 ° 0 min 0,000 mm 0,6 UV-I 104 W/m² 13,2 °C 15,9 °C 4,8 km/h (1 Bft)
13.09.2017 17:36 15,9 °C 15,9 °C 84 % 1011,6 hPa 0,0 mm 4,1 km/h (1 Bft) W 266 ° 0 min 0,000 mm 0,6 UV-I 111 W/m² 13,2 °C 15,9 °C 11,3 km/h (2 Bft)
13.09.2017 17:37 15,9 °C 15,9 °C 83 % 1011,6 hPa 0,0 mm 4,8 km/h (1 Bft) W 266 ° 0 min 0,000 mm 0,6 UV-I 114 W/m² 13,0 °C 15,9 °C 9,7 km/h (2 Bft)
13.09.2017 17:38 15,9 °C 15,9 °C 84 % 1011,6 hPa 0,0 mm 4,6 km/h (1 Bft) W-NW 292 ° 0 min 0,000 mm 0,7 UV-I 109 W/m² 13,2 °C 15,9 °C 9,7 km/h (2 Bft)
13.09.2017 17:39 15,9 °C 15,9 °C 85 % 1011,5 hPa 0,0 mm 3,5 km/h (1 Bft) W-NW 292 ° 0 min 0,000 mm 0,6 UV-I 109 W/m² 13,4 °C 15,9 °C 4,8 km/h (1 Bft)
13.09.2017 17:40 15,9 °C 15,9 °C 84 % 1011,6 hPa 0,0 mm 3,8 km/h (1 Bft) W 261 ° 0 min 0,000 mm 0,6 UV-I 109 W/m² 13,2 °C 15,9 °C 6,4 km/h (2 Bft)
13.09.2017 17:41 15,9 °C 15,9 °C 83 % 1011,5 hPa 0,0 mm 5,4 km/h (1 Bft) W 263 ° 0 min 0,000 mm 0,5 UV-I 76 W/m² 13,0 °C 15,9 °C 11,3 km/h (2 Bft)
13.09.2017 17:42 15,9 °C 15,9 °C 84 % 1011,6 hPa 0,0 mm 11,0 km/h (2 Bft) W 273 ° 0 min 0,000 mm 0,5 UV-I 69 W/m² 13,2 °C 15,9 °C 17,7 km/h (3 Bft)
13.09.2017 17:43 15,8 °C 15,9 °C 83 % 1011,6 hPa 0,0 mm 10,1 km/h (2 Bft) W 269 ° 0 min 0,000 mm 0,0 UV-I 63 W/m² 12,9 °C 15,8 °C 16,1 km/h (3 Bft)
13.09.2017 17:44 15,8 °C 15,8 °C 83 % 1011,6 hPa 0,0 mm 9,0 km/h (2 Bft) W 264 ° 0 min 0,000 mm 0,0 UV-I 51 W/m² 12,9 °C 15,8 °C 12,9 km/h (3 Bft)
13.09.2017 17:45 15,8 °C 15,8 °C 83 % 1011,6 hPa 0,0 mm 5,0 km/h (1 Bft) NW 304 ° 0 min 0,000 mm 0,0 UV-I 47 W/m² 12,9 °C 15,8 °C 9,7 km/h (2 Bft)
13.09.2017 17:46 15,7 °C 15,8 °C 83 % 1011,6 hPa 0,0 mm 9,0 km/h (2 Bft) W 273 ° 0 min 0,000 mm 0,0 UV-I 51 W/m² 12,8 °C 15,7 °C 17,7 km/h (3 Bft)
13.09.2017 17:47 15,7 °C 15,8 °C 83 % 1011,5 hPa 0,0 mm 8,9 km/h (2 Bft) W-NW 294 ° 0 min 0,000 mm 0,0 UV-I 51 W/m² 12,8 °C 15,7 °C 12,9 km/h (3 Bft)
13.09.2017 17:48 15,7 °C 15,7 °C 83 % 1011,4 hPa 0,0 mm 6,3 km/h (2 Bft) W 279 ° 0 min 0,000 mm 0,0 UV-I 49 W/m² 12,8 °C 15,7 °C 14,5 km/h (3 Bft)
13.09.2017 17:49 15,7 °C 15,7 °C 83 % 1011,4 hPa 0,0 mm 7,3 km/h (2 Bft) W 267 ° 0 min 0,000 mm 0,0 UV-I 51 W/m² 12,8 °C 15,7 °C 12,9 km/h (3 Bft)
13.09.2017 17:50 15,7 °C 15,7 °C 83 % 1011,4 hPa 0,0 mm 6,4 km/h (2 Bft) W 267 ° 0 min 0,000 mm 0,0 UV-I 51 W/m² 12,8 °C 15,7 °C 11,3 km/h (2 Bft)
13.09.2017 17:51 15,6 °C 15,7 °C 84 % 1011,4 hPa 0,0 mm 4,8 km/h (1 Bft) W 277 ° 0 min 0,000 mm 0,0 UV-I 63 W/m² 12,9 °C 15,6 °C 9,7 km/h (2 Bft)
13.09.2017 17:52 15,6 °C 15,6 °C 84 % 1011,4 hPa 0,0 mm 4,7 km/h (1 Bft) W-NW 293 ° 0 min 0,000 mm 0,0 UV-I 67 W/m² 12,9 °C 15,6 °C 6,4 km/h (2 Bft)
13.09.2017 17:53 15,6 °C 15,6 °C 84 % 1011,3 hPa 0,0 mm 6,4 km/h (2 Bft) W 279 ° 0 min 0,000 mm 0,0 UV-I 54 W/m² 12,9 °C 15,6 °C 11,3 km/h (2 Bft)
13.09.2017 17:54 15,6 °C 15,6 °C 84 % 1011,2 hPa 0,0 mm 2,1 km/h (1 Bft) W 267 ° 0 min 0,000 mm 0,0 UV-I 46 W/m² 12,9 °C 15,6 °C 4,8 km/h (1 Bft)
13.09.2017 17:55 15,5 °C 15,6 °C 84 % 1011,2 hPa 0,0 mm 7,4 km/h (2 Bft) W 265 ° 0 min 0,000 mm 0,0 UV-I 42 W/m² 12,8 °C 15,5 °C 14,5 km/h (3 Bft)
13.09.2017 17:56 15,5 °C 15,5 °C 84 % 1011,2 hPa 0,0 mm 8,8 km/h (2 Bft) W-NW 290 ° 0 min 0,000 mm 0,0 UV-I 47 W/m² 12,8 °C 15,5 °C 12,9 km/h (3 Bft)
13.09.2017 17:57 15,5 °C 15,5 °C 84 % 1011,3 hPa 0,0 mm 5,8 km/h (2 Bft) W-NW 287 ° 0 min 0,000 mm 0,0 UV-I 60 W/m² 12,8 °C 15,5 °C 9,7 km/h (2 Bft)
13.09.2017 17:58 15,5 °C 15,5 °C 84 % 1011,2 hPa 0,0 mm 9,8 km/h (2 Bft) W-NW 289 ° 0 min 0,000 mm 0,0 UV-I 60 W/m² 12,8 °C 15,5 °C 14,5 km/h (3 Bft)
13.09.2017 17:59 15,5 °C 15,5 °C 84 % 1011,2 hPa 0,0 mm 5,7 km/h (1 Bft) W 273 ° 0 min 0,000 mm 0,0 UV-I 58 W/m² 12,8 °C 15,5 °C 12,9 km/h (3 Bft)
13.09.2017 18:00 15,5 °C 15,5 °C 84 % 1011,2 hPa 0,0 mm 5,4 km/h (1 Bft) W 263 ° 0 min 0,000 mm 0,0 UV-I 54 W/m² 12,8 °C 15,5 °C 11,3 km/h (2 Bft)
13.09.2017 18:01 15,5 °C 15,5 °C 83 % 1011,3 hPa 0,0 mm 12,7 km/h (3 Bft) W-NW 285 ° 0 min 0,051 mm 0,0 UV-I 54 W/m² 12,6 °C 15,5 °C 17,7 km/h (3 Bft)
13.09.2017 18:02 15,5 °C 15,6 °C 84 % 1011,3 hPa 0,0 mm 7,2 km/h (2 Bft) W 273 ° 0 min 0,000 mm 0,0 UV-I 51 W/m² 12,8 °C 15,5 °C 11,3 km/h (2 Bft)
13.09.2017 18:03 15,6 °C 15,6 °C 84 % 1011,2 hPa 0,0 mm 9,4 km/h (2 Bft) W-NW 284 ° 0 min 0,000 mm 0,0 UV-I 47 W/m² 12,9 °C 15,6 °C 14,5 km/h (3 Bft)
13.09.2017 18:04 15,6 °C 15,6 °C 83 % 1011,3 hPa 0,0 mm 10,7 km/h (2 Bft) W 266 ° 0 min 0,000 mm 0,0 UV-I 53 W/m² 12,7 °C 15,6 °C 16,1 km/h (3 Bft)
13.09.2017 18:05 15,5 °C 15,6 °C 84 % 1011,4 hPa 0,0 mm 6,6 km/h (2 Bft) W-NW 284 ° 0 min 0,000 mm 0,0 UV-I 72 W/m² 12,8 °C 15,5 °C 12,9 km/h (3 Bft)
13.09.2017 18:06 15,6 °C 15,6 °C 84 % 1011,4 hPa 0,0 mm 7,8 km/h (2 Bft) W-SW 256 ° 0 min 0,000 mm 0,0 UV-I 95 W/m² 12,9 °C 15,6 °C 11,3 km/h (2 Bft)
13.09.2017 18:07 15,6 °C 15,6 °C 83 % 1011,3 hPa 0,0 mm 11,8 km/h (2 Bft) W 271 ° 0 min 0,000 mm 0,5 UV-I 90 W/m² 12,7 °C 15,6 °C 16,1 km/h (3 Bft)
13.09.2017 18:09 15,6 °C 15,6 °C 83 % 1011,5 hPa 0,0 mm 11,3 km/h (2 Bft) W-SW 256 ° 0 min 0,000 mm 0,0 UV-I 53 W/m² 12,7 °C 15,6 °C 17,7 km/h (3 Bft)
13.09.2017 18:10 15,6 °C 15,6 °C 83 % 1011,5 hPa 0,0 mm 16,0 km/h (3 Bft) W 265 ° 0 min 0,000 mm 0,0 UV-I 42 W/m² 12,7 °C 15,6 °C 22,5 km/h (4 Bft)
13.09.2017 18:11 15,6 °C 15,6 °C 83 % 1011,6 hPa 0,0 mm 10,1 km/h (2 Bft) W-SW 256 ° 0 min 0,000 mm 0,0 UV-I 35 W/m² 12,7 °C 15,6 °C 19,3 km/h (3 Bft)
13.09.2017 18:12 15,6 °C 15,6 °C 83 % 1011,5 hPa 0,0 mm 15,7 km/h (3 Bft) W 275 ° 0 min 0,000 mm 0,0 UV-I 33 W/m² 12,7 °C 15,6 °C 22,5 km/h (4 Bft)
13.09.2017 18:13 15,6 °C 15,6 °C 83 % 1011,6 hPa 0,0 mm 12,6 km/h (3 Bft) W 265 ° 0 min 0,000 mm 0,0 UV-I 35 W/m² 12,7 °C 15,6 °C 19,3 km/h (3 Bft)
13.09.2017 18:14 15,6 °C 15,6 °C 83 % 1011,4 hPa 0,0 mm 7,7 km/h (2 Bft) W-NW 300 ° 0 min 0,000 mm 0,0 UV-I 39 W/m² 12,7 °C 15,6 °C 11,3 km/h (2 Bft)
13.09.2017 18:15 15,6 °C 15,6 °C 83 % 1011,4 hPa 0,0 mm 11,0 km/h (2 Bft) W 276 ° 0 min 0,000 mm 0,0 UV-I 37 W/m² 12,7 °C 15,6 °C 17,7 km/h (3 Bft)
13.09.2017 18:16 15,5 °C 15,6 °C 83 % 1011,3 hPa 0,0 mm 14,0 km/h (3 Bft) W-SW 256 ° 0 min 0,000 mm 0,0 UV-I 37 W/m² 12,6 °C 15,5 °C 22,5 km/h (4 Bft)
13.09.2017 18:17 15,5 °C 15,5 °C 84 % 1011,3 hPa 0,0 mm 12,4 km/h (3 Bft) W 263 ° 0 min 0,000 mm 0,0 UV-I 39 W/m² 12,8 °C 15,5 °C 16,1 km/h (3 Bft)
13.09.2017 18:18 15,4 °C 15,5 °C 84 % 1011,3 hPa 0,0 mm 7,8 km/h (2 Bft) W 259 ° 0 min 0,000 mm 0,0 UV-I 37 W/m² 12,7 °C 15,4 °C 16,1 km/h (3 Bft)
13.09.2017 18:19 15,4 °C 15,4 °C 84 % 1011,2 hPa 0,0 mm 8,0 km/h (2 Bft) W-SW 256 ° 0 min 0,000 mm 0,0 UV-I 40 W/m² 12,7 °C 15,4 °C 17,7 km/h (3 Bft)
13.09.2017 18:20 15,4 °C 15,4 °C 83 % 1011,3 hPa 0,0 mm 9,5 km/h (2 Bft) W 271 ° 0 min 0,000 mm 0,0 UV-I 46 W/m² 12,5 °C 15,4 °C 19,3 km/h (3 Bft)
13.09.2017 18:21 15,4 °C 15,4 °C 83 % 1011,1 hPa 0,0 mm 8,2 km/h (2 Bft) W 264 ° 0 min 0,000 mm 0,0 UV-I 40 W/m² 12,5 °C 15,4 °C 12,9 km/h (3 Bft)
13.09.2017 18:22 15,4 °C 15,4 °C 84 % 1011,1 hPa 0,0 mm 9,4 km/h (2 Bft) W-SW 258 ° 0 min 0,000 mm 0,0 UV-I 33 W/m² 12,7 °C 15,4 °C 12,9 km/h (3 Bft)
13.09.2017 18:23 15,4 °C 15,4 °C 84 % 1011,1 hPa 0,0 mm 9,1 km/h (2 Bft) W 280 ° 0 min 0,000 mm 0,0 UV-I 33 W/m² 12,7 °C 15,4 °C 11,3 km/h (2 Bft)
13.09.2017 18:24 15,3 °C 15,4 °C 84 % 1011,1 hPa 0,0 mm 5,4 km/h (1 Bft) W-SW 252 ° 0 min 0,000 mm 0,0 UV-I 39 W/m² 12,6 °C 15,3 °C 11,3 km/h (2 Bft)
13.09.2017 18:25 15,3 °C 15,3 °C 84 % 1011,0 hPa 0,0 mm 5,3 km/h (1 Bft) W 267 ° 0 min 0,000 mm 0,0 UV-I 39 W/m² 12,6 °C 15,3 °C 9,7 km/h (2 Bft)
13.09.2017 18:26 15,3 °C 15,3 °C 84 % 1011,0 hPa 0,0 mm 5,8 km/h (2 Bft) W 261 ° 0 min 0,000 mm 0,0 UV-I 40 W/m² 12,6 °C 15,3 °C 9,7 km/h (2 Bft)
13.09.2017 18:27 15,3 °C 15,3 °C 84 % 1011,0 hPa 0,0 mm 7,4 km/h (2 Bft) W-SW 253 ° 0 min 0,000 mm 0,0 UV-I 39 W/m² 12,6 °C 15,3 °C 14,5 km/h (3 Bft)
13.09.2017 18:28 15,3 °C 15,3 °C 84 % 1011,0 hPa 0,0 mm 6,4 km/h (2 Bft) W 261 ° 0 min 0,000 mm 0,0 UV-I 33 W/m² 12,6 °C 15,3 °C 9,7 km/h (2 Bft)
13.09.2017 18:29 15,3 °C 15,3 °C 84 % 1010,9 hPa 0,0 mm 7,1 km/h (2 Bft) W 273 ° 0 min 0,000 mm 0,0 UV-I 30 W/m² 12,6 °C 15,3 °C 11,3 km/h (2 Bft)
13.09.2017 18:30 15,3 °C 15,3 °C 83 % 1010,9 hPa 0,0 mm 10,9 km/h (2 Bft) W 273 ° 0 min 0,000 mm 0,0 UV-I 28 W/m² 12,4 °C 15,3 °C 14,5 km/h (3 Bft)
13.09.2017 18:31 15,3 °C 15,3 °C 83 % 1011,0 hPa 0,0 mm 8,0 km/h (2 Bft) W-NW 296 ° 0 min 0,000 mm 0,0 UV-I 26 W/m² 12,4 °C 15,3 °C 11,3 km/h (2 Bft)
13.09.2017 18:32 15,3 °C 15,3 °C 84 % 1010,9 hPa 0,0 mm 9,2 km/h (2 Bft) NW 308 ° 0 min 0,000 mm 0,0 UV-I 26 W/m² 12,6 °C 15,3 °C 14,5 km/h (3 Bft)
13.09.2017 18:33 15,3 °C 15,3 °C 83 % 1010,9 hPa 0,0 mm 9,7 km/h (2 Bft) W-NW 297 ° 0 min 0,000 mm 0,0 UV-I 32 W/m² 12,4 °C 15,3 °C 12,9 km/h (3 Bft)
13.09.2017 18:34 15,3 °C 15,3 °C 83 % 1010,8 hPa 0,0 mm 4,8 km/h (1 Bft) NW 305 ° 0 min 0,000 mm 0,0 UV-I 32 W/m² 12,4 °C 15,3 °C 9,7 km/h (2 Bft)
13.09.2017 18:35 15,3 °C 15,3 °C 83 % 1010,8 hPa 0,0 mm 2,3 km/h (1 Bft) W-NW 284 ° 0 min 0,000 mm 0,0 UV-I 37 W/m² 12,4 °C 15,3 °C 4,8 km/h (1 Bft)
13.09.2017 18:36 15,3 °C 15,3 °C 84 % 1010,7 hPa 0,0 mm 1,8 km/h (1 Bft) W-SW 252 ° 0 min 0,000 mm 0,0 UV-I 33 W/m² 12,6 °C 15,3 °C 4,8 km/h (1 Bft)
13.09.2017 18:37 15,3 °C 15,3 °C 83 % 1010,7 hPa 0,0 mm 2,5 km/h (1 Bft) W-SW 247 ° 0 min 0,000 mm 0,0 UV-I 35 W/m² 12,4 °C 15,3 °C 4,8 km/h (1 Bft)
13.09.2017 18:38 15,3 °C 15,3 °C 83 % 1010,7 hPa 0,0 mm 0,5 km/h (0 Bft) W-SW 247 ° 0 min 0,000 mm 0,0 UV-I 32 W/m² 12,4 °C 15,3 °C 1,6 km/h (1 Bft)
13.09.2017 18:39 15,3 °C 15,3 °C 83 % 1010,6 hPa 0,0 mm 0,9 km/h (0 Bft) W-SW 247 ° 0 min 0,000 mm 0,0 UV-I 32 W/m² 12,4 °C 15,3 °C 3,2 km/h (1 Bft)
13.09.2017 18:40 15,4 °C 15,4 °C 83 % 1010,6 hPa 0,0 mm 0,4 km/h (0 Bft) W-SW 247 ° 0 min 0,000 mm 0,0 UV-I 33 W/m² 12,5 °C 15,4 °C 3,2 km/h (1 Bft)
13.09.2017 18:41 15,4 °C 15,4 °C 82 % 1010,6 hPa 0,0 mm 1,6 km/h (1 Bft) W-SW 248 ° 0 min 0,000 mm 0,0 UV-I 30 W/m² 12,3 °C 15,4 °C 4,8 km/h (1 Bft)
13.09.2017 18:42 15,4 °C 15,4 °C 82 % 1010,6 hPa 0,0 mm 1,5 km/h (1 Bft) W-SW 244 ° 0 min 0,000 mm 0,0 UV-I 26 W/m² 12,3 °C 15,4 °C 3,2 km/h (1 Bft)
13.09.2017 18:43 15,4 °C 15,4 °C 84 % 1010,5 hPa 0,0 mm 0,5 km/h (0 Bft) W-SW 244 ° 0 min 0,000 mm 0,0 UV-I 19 W/m² 12,7 °C 15,4 °C 1,6 km/h (1 Bft)
13.09.2017 18:44 15,3 °C 15,4 °C 85 % 1010,4 hPa 0,0 mm 0,7 km/h (0 Bft) W-SW 245 ° 0 min 0,000 mm 0,0 UV-I 16 W/m² 12,8 °C 15,3 °C 3,2 km/h (1 Bft)
13.09.2017 18:45 15,2 °C 15,3 °C 86 % 1010,4 hPa 0,0 mm 0,2 km/h (0 Bft) W-SW 245 ° 0 min 0,000 mm 0,0 UV-I 14 W/m² 12,9 °C 15,2 °C 3,2 km/h (1 Bft)
13.09.2017 18:46 15,1 °C 15,2 °C 85 % 1010,4 hPa 0,0 mm 1,7 km/h (1 Bft) W-SW 245 ° 0 min 0,000 mm 0,0 UV-I 16 W/m² 12,6 °C 15,1 °C 4,8 km/h (1 Bft)
13.09.2017 18:47 15,1 °C 15,1 °C 85 % 1010,5 hPa 0,0 mm 1,7 km/h (1 Bft) W-SW 245 ° 0 min 0,000 mm 0,0 UV-I 18 W/m² 12,6 °C 15,1 °C 3,2 km/h (1 Bft)
13.09.2017 18:48 15,1 °C 15,1 °C 85 % 1010,4 hPa 0,0 mm 0,1 km/h (0 Bft) W-SW 245 ° 0 min 0,000 mm 0,0 UV-I 19 W/m² 12,6 °C 15,1 °C 1,6 km/h (1 Bft)
13.09.2017 18:49 15,1 °C 15,1 °C 84 % 1010,4 hPa 0,0 mm 0,0 km/h (0 Bft) W-SW 245 ° 0 min 0,000 mm 0,0 UV-I 16 W/m² 12,4 °C 15,1 °C 0,0 km/h (0 Bft)
13.09.2017 18:50 15,2 °C 15,2 °C 85 % 1010,4 hPa 0,0 mm 1,1 km/h (1 Bft) W-SW 244 ° 0 min 0,000 mm 0,0 UV-I 12 W/m² 12,7 °C 15,2 °C 3,2 km/h (1 Bft)
13.09.2017 18:51 15,1 °C 15,2 °C 85 % 1010,2 hPa 0,0 mm 1,7 km/h (1 Bft) S 181 ° 0 min 0,000 mm 0,0 UV-I 12 W/m² 12,6 °C 15,1 °C 4,8 km/h (1 Bft)
13.09.2017 18:52 15,1 °C 15,1 °C 85 % 1010,2 hPa 0,0 mm 0,0 km/h (0 Bft) S 181 ° 0 min 0,000 mm 0,0 UV-I 12 W/m² 12,6 °C 15,1 °C 0,0 km/h (0 Bft)
13.09.2017 18:53 15,1 °C 15,1 °C 86 % 1010,3 hPa 0,0 mm 0,0 km/h (0 Bft) S 181 ° 0 min 0,000 mm 0,0 UV-I 11 W/m² 12,8 °C 15,1 °C 0,0 km/h (0 Bft)
13.09.2017 18:54 14,9 °C 15,1 °C 86 % 1010,3 hPa 0,0 mm 2,8 km/h (1 Bft) W 271 ° 0 min 0,000 mm 0,0 UV-I 14 W/m² 12,6 °C 14,9 °C 4,8 km/h (1 Bft)
13.09.2017 18:55 14,9 °C 14,9 °C 86 % 1010,3 hPa 0,0 mm 6,0 km/h (2 Bft) N-NW 327 ° 0 min 0,000 mm 0,0 UV-I 16 W/m² 12,6 °C 14,9 °C 9,7 km/h (2 Bft)
13.09.2017 18:56 15,0 °C 15,0 °C 86 % 1010,3 hPa 0,0 mm 8,7 km/h (2 Bft) W 267 ° 0 min 0,000 mm 0,0 UV-I 18 W/m² 12,7 °C 15,0 °C 12,9 km/h (3 Bft)
13.09.2017 18:57 15,0 °C 15,1 °C 86 % 1010,4 hPa 0,0 mm 4,8 km/h (1 Bft) W 271 ° 0 min 0,000 mm 0,0 UV-I 16 W/m² 12,7 °C 15,0 °C 8,0 km/h (2 Bft)
13.09.2017 18:58 15,1 °C 15,1 °C 85 % 1010,4 hPa 0,0 mm 4,4 km/h (1 Bft) W 261 ° 0 min 0,000 mm 0,0 UV-I 12 W/m² 12,6 °C 15,1 °C 6,4 km/h (2 Bft)
13.09.2017 18:59 15,2 °C 15,2 °C 85 % 1010,3 hPa 0,0 mm 4,8 km/h (1 Bft) W 270 ° 0 min 0,000 mm 0,0 UV-I 11 W/m² 12,7 °C 15,2 °C 9,7 km/h (2 Bft)
13.09.2017 19:00 15,1 °C 15,2 °C 85 % 1010,3 hPa 0,0 mm 3,1 km/h (1 Bft) W-NW 290 ° 0 min 0,000 mm 0,0 UV-I 11 W/m² 12,6 °C 15,1 °C 6,4 km/h (2 Bft)
13.09.2017 19:01 15,2 °C 15,2 °C 85 % 1010,2 hPa 0,0 mm 1,2 km/h (1 Bft) W-NW 289 ° 0 min 0,025 mm 0,0 UV-I 11 W/m² 12,7 °C 15,2 °C 3,2 km/h (1 Bft)
13.09.2017 19:02 15,2 °C 15,2 °C 84 % 1010,2 hPa 0,0 mm 6,2 km/h (2 Bft) S 190 ° 0 min 0,000 mm 0,0 UV-I 11 W/m² 12,5 °C 15,2 °C 8,0 km/h (2 Bft)
13.09.2017 19:03 15,2 °C 15,2 °C 84 % 1010,2 hPa 0,0 mm 8,2 km/h (2 Bft) S-SW 196 ° 0 min 0,000 mm 0,0 UV-I 11 W/m² 12,5 °C 15,2 °C 9,7 km/h (2 Bft)
13.09.2017 19:04 15,3 °C 15,3 °C 83 % 1010,1 hPa 0,0 mm 5,2 km/h (1 Bft) S-SW 194 ° 0 min 0,000 mm 0,0 UV-I 7 W/m² 12,4 °C 15,3 °C 6,4 km/h (2 Bft)
13.09.2017 19:05 15,3 °C 15,3 °C 83 % 1010,2 hPa 0,0 mm 5,1 km/h (1 Bft) S 186 ° 0 min 0,000 mm 0,0 UV-I 7 W/m² 12,4 °C 15,3 °C 8,0 km/h (2 Bft)
13.09.2017 19:06 15,3 °C 15,3 °C 83 % 1010,1 hPa 0,0 mm 2,6 km/h (1 Bft) S 186 ° 0 min 0,000 mm 0,0 UV-I 7 W/m² 12,4 °C 15,3 °C 4,8 km/h (1 Bft)
13.09.2017 19:07 15,3 °C 15,4 °C 84 % 1010,1 hPa 0,0 mm 0,1 km/h (0 Bft) S 186 ° 0 min 0,000 mm 0,0 UV-I 9 W/m² 12,6 °C 15,3 °C 1,6 km/h (1 Bft)
13.09.2017 19:08 15,3 °C 15,3 °C 84 % 1010,1 hPa 0,0 mm 0,3 km/h (0 Bft) S 186 ° 0 min 0,000 mm 0,0 UV-I 7 W/m² 12,6 °C 15,3 °C 1,6 km/h (1 Bft)
13.09.2017 19:09 15,2 °C 15,3 °C 84 % 1010,1 hPa 0,0 mm 0,0 km/h (0 Bft) S 186 ° 0 min 0,000 mm 0,0 UV-I 7 W/m² 12,5 °C 15,2 °C 0,0 km/h (0 Bft)
13.09.2017 19:10 15,2 °C 15,2 °C 85 % 1010,1 hPa 0,0 mm 0,0 km/h (0 Bft) S 186 ° 0 min 0,000 mm 0,0 UV-I 7 W/m² 12,7 °C 15,2 °C 0,0 km/h (0 Bft)
13.09.2017 19:11 15,1 °C 15,2 °C 85 % 1010,1 hPa 0,0 mm 0,0 km/h (0 Bft) S 186 ° 0 min 0,000 mm 0,0 UV-I 7 W/m² 12,6 °C 15,1 °C 0,0 km/h (0 Bft)
13.09.2017 19:12 15,1 °C 15,1 °C 84 % 1010,0 hPa 0,0 mm 3,6 km/h (1 Bft) O-SO 110 ° 0 min 0,000 mm 0,0 UV-I 11 W/m² 12,4 °C 15,1 °C 9,7 km/h (2 Bft)
13.09.2017 19:13 15,1 °C 15,1 °C 85 % 1009,9 hPa 0,0 mm 4,7 km/h (1 Bft) S-SW 200 ° 0 min 0,000 mm 0,0 UV-I 12 W/m² 12,6 °C 15,1 °C 11,3 km/h (2 Bft)
13.09.2017 19:14 15,2 °C 15,2 °C 84 % 1010,1 hPa 0,0 mm 4,8 km/h (1 Bft) NW 304 ° 0 min 0,000 mm 0,0 UV-I 14 W/m² 12,5 °C 15,2 °C 9,7 km/h (2 Bft)
13.09.2017 19:15 15,3 °C 15,3 °C 83 % 1010,0 hPa 0,0 mm 5,0 km/h (1 Bft) W 272 ° 0 min 0,000 mm 0,0 UV-I 14 W/m² 12,4 °C 15,3 °C 6,4 km/h (2 Bft)
13.09.2017 19:16 15,4 °C 15,4 °C 83 % 1010,0 hPa 0,0 mm 4,6 km/h (1 Bft) W 272 ° 0 min 0,000 mm 0,0 UV-I 14 W/m² 12,5 °C 15,4 °C 4,8 km/h (1 Bft)
13.09.2017 19:17 15,4 °C 15,4 °C 83 % 1010,1 hPa 0,0 mm 4,9 km/h (1 Bft) W 273 ° 0 min 0,000 mm 0,0 UV-I 12 W/m² 12,5 °C 15,4 °C 6,4 km/h (2 Bft)
13.09.2017 19:18 15,4 °C 15,4 °C 84 % 1010,0 hPa 0,0 mm 4,7 km/h (1 Bft) W 264 ° 0 min 0,000 mm 0,0 UV-I 9 W/m² 12,7 °C 15,4 °C 6,4 km/h (2 Bft)
13.09.2017 19:19 15,4 °C 15,4 °C 84 % 1010,0 hPa 0,0 mm 3,4 km/h (1 Bft) W 267 ° 0 min 0,000 mm 0,0 UV-I 7 W/m² 12,7 °C 15,4 °C 4,8 km/h (1 Bft)
13.09.2017 19:20 15,3 °C 15,4 °C 83 % 1009,9 hPa 0,0 mm 3,1 km/h (1 Bft) S 181 ° 0 min 0,000 mm 0,0 UV-I 7 W/m² 12,4 °C 15,3 °C 4,8 km/h (1 Bft)
13.09.2017 19:21 15,3 °C 15,3 °C 83 % 1010,0 hPa 0,0 mm 2,4 km/h (1 Bft) S 180 ° 0 min 0,000 mm 0,0 UV-I 7 W/m² 12,4 °C 15,3 °C 4,8 km/h (1 Bft)
13.09.2017 19:22 15,3 °C 15,3 °C 82 % 1009,8 hPa 0,0 mm 2,5 km/h (1 Bft) W-NW 285 ° 0 min 0,000 mm 0,0 UV-I 5 W/m² 12,2 °C 15,3 °C 6,4 km/h (2 Bft)
13.09.2017 19:23 15,2 °C 15,3 °C 83 % 1010,0 hPa 0,0 mm 5,2 km/h (1 Bft) W 273 ° 0 min 0,000 mm 0,0 UV-I 5 W/m² 12,3 °C 15,2 °C 9,7 km/h (2 Bft)
13.09.2017 19:24 15,3 °C 15,3 °C 83 % 1010,0 hPa 0,0 mm 2,4 km/h (1 Bft) W 260 ° 0 min 0,000 mm 0,0 UV-I 5 W/m² 12,4 °C 15,3 °C 4,8 km/h (1 Bft)
13.09.2017 19:25 15,2 °C 15,3 °C 83 % 1010,0 hPa 0,0 mm 0,7 km/h (0 Bft) W 260 ° 0 min 0,000 mm 0,0 UV-I 5 W/m² 12,3 °C 15,2 °C 1,6 km/h (1 Bft)
13.09.2017 19:26 15,2 °C 15,2 °C 82 % 1009,9 hPa 0,0 mm 1,6 km/h (1 Bft) W 261 ° 0 min 0,000 mm 0,0 UV-I 0 W/m² 12,1 °C 15,2 °C 3,2 km/h (1 Bft)
13.09.2017 19:27 15,2 °C 15,2 °C 82 % 1009,9 hPa 0,0 mm 1,6 km/h (1 Bft) W 261 ° 0 min 0,000 mm 0,0 UV-I 0 W/m² 12,1 °C 15,2 °C 3,2 km/h (1 Bft)
13.09.2017 19:28 15,2 °C 15,2 °C 81 % 1009,9 hPa 0,0 mm 0,7 km/h (0 Bft) W 261 ° 0 min 0,000 mm 0,0 UV-I 0 W/m² 12,0 °C 15,2 °C 1,6 km/h (1 Bft)
13.09.2017 19:29 15,3 °C 15,3 °C 80 % 1009,9 hPa 0,0 mm 0,3 km/h (0 Bft) W 261 ° 0 min 0,000 mm 0,0 UV-I 0 W/m² 11,9 °C 15,3 °C 1,6 km/h (1 Bft)
13.09.2017 19:30 15,4 °C 15,4 °C 81 % 1009,9 hPa 0,0 mm 0,2 km/h (0 Bft) W 261 ° 0 min 0,000 mm 0,0 UV-I 0 W/m² 12,2 °C 15,4 °C 1,6 km/h (1 Bft)
13.09.2017 19:31 15,4 °C 15,4 °C 80 % 1009,9 hPa 0,0 mm 4,8 km/h (1 Bft) SW 232 ° 0 min 0,000 mm 0,0 UV-I 0 W/m² 12,0 °C 15,4 °C 9,7 km/h (2 Bft)
13.09.2017 19:32 15,6 °C 15,6 °C 79 % 1009,9 hPa 0,0 mm 2,9 km/h (1 Bft) SW 217 ° 0 min 0,000 mm 0,0 UV-I 0 W/m² 12,0 °C 15,6 °C 4,8 km/h (1 Bft)
13.09.2017 19:33 15,6 °C 15,6 °C 80 % 1009,9 hPa 0,0 mm 0,2 km/h (0 Bft) SW 217 ° 0 min 0,000 mm 0,0 UV-I 0 W/m² 12,2 °C 15,6 °C 1,6 km/h (1 Bft)
13.09.2017 19:34 15,6 °C 15,6 °C 79 % 1009,9 hPa 0,0 mm 0,0 km/h (0 Bft) SW 217 ° 0 min 0,000 mm 0,0 UV-I 0 W/m² 12,0 °C 15,6 °C 0,0 km/h (0 Bft)
13.09.2017 19:35 15,6 °C 15,6 °C 80 % 1009,9 hPa 0,0 mm 0,4 km/h (0 Bft) SW 217 ° 0 min 0,000 mm 0,0 UV-I 0 W/m² 12,2 °C 15,6 °C 3,2 km/h (1 Bft)
13.09.2017 19:36 15,6 °C 15,6 °C 80 % 1009,9 hPa 0,0 mm 1,5 km/h (1 Bft) W 267 ° 0 min 0,000 mm 0,0 UV-I 0 W/m² 12,2 °C 15,6 °C 4,8 km/h (1 Bft)
13.09.2017 19:37 15,5 °C 15,6 °C 80 % 1009,9 hPa 0,0 mm 0,3 km/h (0 Bft) W 267 ° 0 min 0,000 mm 0,0 UV-I 0 W/m² 12,1 °C 15,5 °C 1,6 km/h (1 Bft)
13.09.2017 19:38 15,4 °C 15,5 °C 80 % 1009,9 hPa 0,0 mm 2,1 km/h (1 Bft) W 267 ° 0 min 0,000 mm 0,0 UV-I 0 W/m² 12,0 °C 15,4 °C 3,2 km/h (1 Bft)
13.09.2017 19:39 15,4 °C 15,4 °C 80 % 1009,9 hPa 0,0 mm 2,3 km/h (1 Bft) W 267 ° 0 min 0,000 mm 0,0 UV-I 0 W/m² 12,0 °C 15,4 °C 3,2 km/h (1 Bft)
13.09.2017 19:40 15,3 °C 15,4 °C 80 % 1010,0 hPa 0,0 mm 2,1 km/h (1 Bft) W 267 ° 0 min 0,000 mm 0,0 UV-I 0 W/m² 11,9 °C 15,3 °C 3,2 km/h (1 Bft)
13.09.2017 19:41 15,3 °C 15,3 °C 81 % 1009,9 hPa 0,0 mm 0,6 km/h (0 Bft) W 267 ° 0 min 0,000 mm 0,0 UV-I 0 W/m² 12,1 °C 15,3 °C 3,2 km/h (1 Bft)
13.09.2017 19:42 15,3 °C 15,3 °C 81 % 1009,9 hPa 0,0 mm 0,0 km/h (0 Bft) W 267 ° 0 min 0,000 mm 0,0 UV-I 0 W/m² 12,1 °C 15,3 °C 0,0 km/h (0 Bft)
13.09.2017 19:43 15,2 °C 15,3 °C 80 % 1010,0 hPa 0,0 mm 0,0 km/h (0 Bft) W 267 ° 0 min 0,000 mm 0,0 UV-I 0 W/m² 11,8 °C 15,2 °C 0,0 km/h (0 Bft)
13.09.2017 19:44 15,2 °C 15,2 °C 80 % 1010,0 hPa 0,0 mm 1,4 km/h (1 Bft) W 266 ° 0 min 0,000 mm 0,0 UV-I 0 W/m² 11,8 °C 15,2 °C 3,2 km/h (1 Bft)
13.09.2017 19:45 15,2 °C 15,2 °C 80 % 1010,0 hPa 0,0 mm 3,8 km/h (1 Bft) W 275 ° 0 min 0,000 mm 0,0 UV-I 0 W/m² 11,8 °C 15,2 °C 6,4 km/h (2 Bft)
13.09.2017 19:46 15,2 °C 15,3 °C 81 % 1010,0 hPa 0,0 mm 2,3 km/h (1 Bft) W 275 ° 0 min 0,000 mm 0,0 UV-I 0 W/m² 12,0 °C 15,2 °C 3,2 km/h (1 Bft)
13.09.2017 19:47 15,2 °C 15,3 °C 81 % 1010,0 hPa 0,0 mm 0,5 km/h (0 Bft) W 275 ° 0 min 0,000 mm 0,0 UV-I 0 W/m² 12,0 °C 15,2 °C 1,6 km/h (1 Bft)
13.09.2017 19:48 15,2 °C 15,2 °C 81 % 1010,0 hPa 0,0 mm 1,1 km/h (1 Bft) W 275 ° 0 min 0,000 mm 0,0 UV-I 0 W/m² 12,0 °C 15,2 °C 3,2 km/h (1 Bft)
13.09.2017 19:49 15,2 °C 15,2 °C 81 % 1010,0 hPa 0,0 mm 1,8 km/h (1 Bft) W 275 ° 0 min 0,000 mm 0,0 UV-I 0 W/m² 12,0 °C 15,2 °C 3,2 km/h (1 Bft)
13.09.2017 19:50 15,3 °C 15,3 °C 80 % 1010,0 hPa 0,0 mm 0,0 km/h (0 Bft) W 275 ° 0 min 0,000 mm 0,0 UV-I 0 W/m² 11,9 °C 15,3 °C 0,0 km/h (0 Bft)
13.09.2017 19:51 15,3 °C 15,3 °C 79 % 1009,9 hPa 0,0 mm 0,0 km/h (0 Bft) W 275 ° 0 min 0,000 mm 0,0 UV-I 0 W/m² 11,7 °C 15,3 °C 0,0 km/h (0 Bft)
13.09.2017 19:52 15,4 °C 15,4 °C 79 % 1010,0 hPa 0,0 mm 0,4 km/h (0 Bft) W 275 ° 0 min 0,000 mm 0,0 UV-I 0 W/m² 11,8 °C 15,4 °C 1,6 km/h (1 Bft)
13.09.2017 19:53 15,6 °C 15,6 °C 79 % 1010,0 hPa 0,0 mm 0,0 km/h (0 Bft) W 275 ° 0 min 0,000 mm 0,0 UV-I 0 W/m² 12,0 °C 15,6 °C 0,0 km/h (0 Bft)
13.09.2017 19:54 15,7 °C 15,7 °C 78 % 1009,9 hPa 0,0 mm 0,1 km/h (0 Bft) W 275 ° 0 min 0,000 mm 0,0 UV-I 0 W/m² 11,9 °C 15,7 °C 1,6 km/h (1 Bft)
13.09.2017 19:55 15,8 °C 15,8 °C 78 % 1010,0 hPa 0,0 mm 0,1 km/h (0 Bft) W 275 ° 0 min 0,000 mm 0,0 UV-I 0 W/m² 12,0 °C 15,8 °C 1,6 km/h (1 Bft)
13.09.2017 19:56 15,9 °C 15,9 °C 77 % 1009,8 hPa 0,0 mm 1,8 km/h (1 Bft) W 275 ° 0 min 0,000 mm 0,0 UV-I 0 W/m² 11,9 °C 15,9 °C 3,2 km/h (1 Bft)
13.09.2017 19:57 15,9 °C 15,9 °C 78 % 1010,0 hPa 0,0 mm 0,6 km/h (0 Bft) W-NW 290 ° 0 min 0,000 mm 0,0 UV-I 0 W/m² 12,1 °C 15,9 °C 3,2 km/h (1 Bft)
13.09.2017 19:58 15,9 °C 15,9 °C 78 % 1009,9 hPa 0,0 mm 2,1 km/h (1 Bft) W-NW 290 ° 0 min 0,000 mm 0,0 UV-I 0 W/m² 12,1 °C 15,9 °C 3,2 km/h (1 Bft)
13.09.2017 19:59 15,8 °C 15,9 °C 77 % 1010,0 hPa 0,0 mm 3,1 km/h (1 Bft) W-NW 285 ° 0 min 0,000 mm 0,0 UV-I 0 W/m² 11,8 °C 15,8 °C 4,8 km/h (1 Bft)
13.09.2017 20:00 15,8 °C 15,8 °C 77 % 1009,9 hPa 0,0 mm 1,3 km/h (1 Bft) W-NW 285 ° 0 min 0,000 mm 0,0 UV-I 0 W/m² 11,8 °C 15,8 °C 3,2 km/h (1 Bft)
13.09.2017 20:01 15,8 °C 15,8 °C 78 % 1010,0 hPa 0,0 mm 3,2 km/h (1 Bft) W 259 ° 0 min 0,000 mm 0,0 UV-I 0 W/m² 12,0 °C 15,8 °C 6,4 km/h (2 Bft)
13.09.2017 20:02 15,8 °C 15,8 °C 77 % 1009,9 hPa 0,0 mm 2,5 km/h (1 Bft) W-SW 250 ° 0 min 0,000 mm 0,0 UV-I 0 W/m² 11,8 °C 15,8 °C 4,8 km/h (1 Bft)
13.09.2017 20:03 15,8 °C 15,9 °C 77 % 1009,9 hPa 0,0 mm 3,9 km/h (1 Bft) W-SW 242 ° 0 min 0,000 mm 0,0 UV-I 0 W/m² 11,8 °C 15,8 °C 6,4 km/h (2 Bft)
13.09.2017 20:04 15,9 °C 15,9 °C 77 % 1009,9 hPa 0,0 mm 1,1 km/h (1 Bft) W-SW 257 ° 0 min 0,000 mm 0,0 UV-I 0 W/m² 11,9 °C 15,9 °C 4,8 km/h (1 Bft)
13.09.2017 20:05 15,9 °C 15,9 °C 77 % 1009,9 hPa 0,0 mm 2,5 km/h (1 Bft) W-SW 258 ° 0 min 0,000 mm 0,0 UV-I 0 W/m² 11,9 °C 15,9 °C 4,8 km/h (1 Bft)
13.09.2017 20:06 15,9 °C 15,9 °C 77 % 1009,9 hPa 0,0 mm 1,3 km/h (1 Bft) S-SW 209 ° 0 min 0,000 mm 0,0 UV-I 0 W/m² 11,9 °C 15,9 °C 3,2 km/h (1 Bft)
13.09.2017 20:07 15,9 °C 15,9 °C 77 % 1009,9 hPa 0,0 mm 2,0 km/h (1 Bft) S-SW 210 ° 0 min 0,000 mm 0,0 UV-I 0 W/m² 11,9 °C 15,9 °C 3,2 km/h (1 Bft)
13.09.2017 20:08 16,1 °C 16,1 °C 76 % 1009,9 hPa 0,0 mm 0,9 km/h (0 Bft) S-SW 210 ° 0 min 0,000 mm 0,0 UV-I 0 W/m² 11,9 °C 16,1 °C 3,2 km/h (1 Bft)
13.09.2017 20:09 16,1 °C 16,1 °C 75 % 1009,9 hPa 0,0 mm 3,9 km/h (1 Bft) SW 227 ° 0 min 0,000 mm 0,0 UV-I 0 W/m² 11,7 °C 16,1 °C 9,7 km/h (2 Bft)
13.09.2017 20:10 16,2 °C 16,2 °C 75 % 1009,8 hPa 0,0 mm 1,8 km/h (1 Bft) SW 217 ° 0 min 0,000 mm 0,0 UV-I 0 W/m² 11,8 °C 16,2 °C 4,8 km/h (1 Bft)
13.09.2017 20:11 16,3 °C 16,3 °C 74 % 1009,8 hPa 0,0 mm 5,0 km/h (1 Bft) SW 231 ° 0 min 0,000 mm 0,0 UV-I 0 W/m² 11,7 °C 16,3 °C 8,0 km/h (2 Bft)
13.09.2017 20:12 16,4 °C 16,4 °C 74 % 1009,9 hPa 0,0 mm 2,7 km/h (1 Bft) SW 217 ° 0 min 0,000 mm 0,0 UV-I 0 W/m² 11,8 °C 16,4 °C 6,4 km/h (2 Bft)
13.09.2017 20:13 16,5 °C 16,5 °C 74 % 1009,9 hPa 0,0 mm 2,4 km/h (1 Bft) S-SW 197 ° 0 min 0,000 mm 0,0 UV-I 0 W/m² 11,8 °C 16,5 °C 6,4 km/h (2 Bft)
13.09.2017 20:14 16,6 °C 16,6 °C 73 % 1009,9 hPa 0,0 mm 1,1 km/h (1 Bft) S-SW 197 ° 0 min 0,000 mm 0,0 UV-I 0 W/m² 11,7 °C 16,6 °C 4,8 km/h (1 Bft)
13.09.2017 20:15 16,7 °C 16,7 °C 73 % 1009,9 hPa 0,0 mm 0,1 km/h (0 Bft) S-SW 198 ° 0 min 0,000 mm 0,0 UV-I 0 W/m² 11,8 °C 16,7 °C 1,6 km/h (1 Bft)
13.09.2017 20:16 16,7 °C 16,7 °C 73 % 1009,9 hPa 0,0 mm 0,0 km/h (0 Bft) S-SW 198 ° 0 min 0,000 mm 0,0 UV-I 0 W/m² 11,8 °C 16,7 °C 0,0 km/h (0 Bft)
13.09.2017 20:17 16,7 °C 16,7 °C 72 % 1009,9 hPa 0,0 mm 0,0 km/h (0 Bft) S-SW 198 ° 0 min 0,000 mm 0,0 UV-I 0 W/m² 11,6 °C 16,7 °C 0,0 km/h (0 Bft)
13.09.2017 20:18 16,7 °C 16,8 °C 73 % 1009,9 hPa 0,0 mm 0,0 km/h (0 Bft) S-SW 198 ° 0 min 0,000 mm 0,0 UV-I 0 W/m² 11,8 °C 16,7 °C 0,0 km/h (0 Bft)
13.09.2017 20:19 16,8 °C 16,8 °C 72 % 1009,9 hPa 0,0 mm 0,0 km/h (0 Bft) S-SW 198 ° 0 min 0,000 mm 0,0 UV-I 0 W/m² 11,7 °C 16,8 °C 0,0 km/h (0 Bft)
13.09.2017 20:20 16,8 °C 16,8 °C 73 % 1009,9 hPa 0,0 mm 2,4 km/h (1 Bft) S-SW 198 ° 0 min 0,000 mm 0,0 UV-I 0 W/m² 11,9 °C 16,8 °C 4,8 km/h (1 Bft)
13.09.2017 20:21 16,7 °C 16,8 °C 73 % 1010,0 hPa 0,0 mm 2,5 km/h (1 Bft) S 186 ° 0 min 0,000 mm 0,0 UV-I 0 W/m² 11,8 °C 16,7 °C 6,4 km/h (2 Bft)
13.09.2017 20:22 16,7 °C 16,7 °C 75 % 1010,0 hPa 0,0 mm 0,7 km/h (0 Bft) S 186 ° 0 min 0,000 mm 0,0 UV-I 0 W/m² 12,2 °C 16,7 °C 3,2 km/h (1 Bft)
13.09.2017 20:23 16,6 °C 16,7 °C 74 % 1010,0 hPa 0,0 mm 3,0 km/h (1 Bft) S 180 ° 0 min 0,000 mm 0,0 UV-I 0 W/m² 11,9 °C 16,6 °C 8,0 km/h (2 Bft)
13.09.2017 20:24 16,5 °C 16,6 °C 74 % 1010,0 hPa 0,0 mm 3,8 km/h (1 Bft) S-SW 207 ° 0 min 0,000 mm 0,0 UV-I 0 W/m² 11,8 °C 16,5 °C 8,0 km/h (2 Bft)
13.09.2017 20:25 16,4 °C 16,5 °C 74 % 1010,0 hPa 0,0 mm 2,9 km/h (1 Bft) S 171 ° 0 min 0,000 mm 0,0 UV-I 0 W/m² 11,8 °C 16,4 °C 6,4 km/h (2 Bft)
13.09.2017 20:26 16,4 °C 16,4 °C 75 % 1009,9 hPa 0,0 mm 0,2 km/h (0 Bft) S 171 ° 0 min 0,000 mm 0,0 UV-I 0 W/m² 12,0 °C 16,4 °C 1,6 km/h (1 Bft)
13.09.2017 20:27 16,4 °C 16,4 °C 75 % 1010,0 hPa 0,0 mm 0,1 km/h (0 Bft) S 171 ° 0 min 0,000 mm 0,0 UV-I 0 W/m² 12,0 °C 16,4 °C 1,6 km/h (1 Bft)
13.09.2017 20:28 16,3 °C 16,4 °C 76 % 1010,0 hPa 0,0 mm 2,0 km/h (1 Bft) S 171 ° 0 min 0,000 mm 0,0 UV-I 0 W/m² 12,1 °C 16,3 °C 3,2 km/h (1 Bft)
13.09.2017 20:29 16,3 °C 16,3 °C 76 % 1010,0 hPa 0,0 mm 1,7 km/h (1 Bft) S 171 ° 0 min 0,000 mm 0,0 UV-I 0 W/m² 12,1 °C 16,3 °C 3,2 km/h (1 Bft)
13.09.2017 20:30 16,2 °C 16,3 °C 77 % 1010,0 hPa 0,0 mm 2,0 km/h (1 Bft) S 186 ° 0 min 0,000 mm 0,0 UV-I 0 W/m² 12,2 °C 16,2 °C 6,4 km/h (2 Bft)
13.09.2017 20:31 16,1 °C 16,2 °C 77 % 1010,0 hPa 0,0 mm 2,5 km/h (1 Bft) S-SW 192 ° 0 min 0,000 mm 0,0 UV-I 0 W/m² 12,1 °C 16,1 °C 4,8 km/h (1 Bft)
13.09.2017 20:32 16,1 °C 16,1 °C 77 % 1010,1 hPa 0,0 mm 2,3 km/h (1 Bft) S 188 ° 0 min 0,000 mm 0,0 UV-I 0 W/m² 12,1 °C 16,1 °C 6,4 km/h (2 Bft)
13.09.2017 20:33 16,0 °C 16,1 °C 78 % 1010,0 hPa 0,0 mm 2,7 km/h (1 Bft) S 189 ° 0 min 0,000 mm 0,0 UV-I 0 W/m² 12,2 °C 16,0 °C 4,8 km/h (1 Bft)
13.09.2017 20:34 15,9 °C 16,0 °C 78 % 1010,2 hPa 0,0 mm 3,9 km/h (1 Bft) S-SW 213 ° 0 min 0,000 mm 0,0 UV-I 0 W/m² 12,1 °C 15,9 °C 6,4 km/h (2 Bft)
13.09.2017 20:35 15,8 °C 15,9 °C 78 % 1010,2 hPa 0,0 mm 1,9 km/h (1 Bft) S-SW 198 ° 0 min 0,000 mm 0,0 UV-I 0 W/m² 12,0 °C 15,8 °C 4,8 km/h (1 Bft)
13.09.2017 20:36 15,8 °C 15,8 °C 78 % 1010,1 hPa 0,0 mm 1,6 km/h (1 Bft) S-SW 194 ° 0 min 0,000 mm 0,0 UV-I 0 W/m² 12,0 °C 15,8 °C 3,2 km/h (1 Bft)
13.09.2017 20:37 15,8 °C 15,8 °C 78 % 1010,1 hPa 0,0 mm 0,9 km/h (0 Bft) S-SW 194 ° 0 min 0,000 mm 0,0 UV-I 0 W/m² 12,0 °C 15,8 °C 3,2 km/h (1 Bft)
13.09.2017 20:38 15,7 °C 15,8 °C 79 % 1010,1 hPa 0,0 mm 3,8 km/h (1 Bft) S-SW 201 ° 0 min 0,000 mm 0,0 UV-I 0 W/m² 12,1 °C 15,7 °C 4,8 km/h (1 Bft)
13.09.2017 20:39 15,7 °C 15,7 °C 79 % 1010,1 hPa 0,0 mm 3,7 km/h (1 Bft) S-SW 194 ° 0 min 0,000 mm 0,0 UV-I 0 W/m² 12,1 °C 15,7 °C 8,0 km/h (2 Bft)
13.09.2017 20:40 15,7 °C 15,7 °C 79 % 1010,0 hPa 0,0 mm 5,9 km/h (2 Bft) S-SW 213 ° 0 min 0,000 mm 0,0 UV-I 0 W/m² 12,1 °C 15,7 °C 8,0 km/h (2 Bft)
13.09.2017 20:41 15,6 °C 15,7 °C 80 % 1010,1 hPa 0,0 mm 3,4 km/h (1 Bft) S-SW 202 ° 0 min 0,000 mm 0,0 UV-I 0 W/m² 12,2 °C 15,6 °C 6,4 km/h (2 Bft)
13.09.2017 20:42 15,4 °C 15,6 °C 81 % 1010,1 hPa 0,0 mm 1,0 km/h (0 Bft) S-SW 202 ° 0 min 0,000 mm 0,0 UV-I 0 W/m² 12,2 °C 15,4 °C 1,6 km/h (1 Bft)
13.09.2017 20:43 15,3 °C 15,4 °C 81 % 1010,1 hPa 0,0 mm 1,0 km/h (0 Bft) S-SW 202 ° 0 min 0,000 mm 0,0 UV-I 0 W/m² 12,1 °C 15,3 °C 3,2 km/h (1 Bft)
13.09.2017 20:44 15,2 °C 15,3 °C 81 % 1010,1 hPa 0,0 mm 0,0 km/h (0 Bft) S-SW 202 ° 0 min 0,000 mm 0,0 UV-I 0 W/m² 12,0 °C 15,2 °C 0,0 km/h (0 Bft)
13.09.2017 20:45 15,1 °C 15,2 °C 82 % 1010,1 hPa 0,0 mm 2,7 km/h (1 Bft) S-SW 202 ° 0 min 0,000 mm 0,0 UV-I 0 W/m² 12,0 °C 15,1 °C 3,2 km/h (1 Bft)
13.09.2017 20:46 15,1 °C 15,2 °C 82 % 1010,1 hPa 0,0 mm 1,8 km/h (1 Bft) S-SW 202 ° 0 min 0,000 mm 0,0 UV-I 0 W/m² 12,0 °C 15,1 °C 3,2 km/h (1 Bft)
13.09.2017 20:47 15,0 °C 15,1 °C 82 % 1010,1 hPa 0,0 mm 2,7 km/h (1 Bft) S-SW 200 ° 0 min 0,000 mm 0,0 UV-I 0 W/m² 12,0 °C 15,0 °C 4,8 km/h (1 Bft)
13.09.2017 20:48 15,0 °C 15,0 °C 82 % 1010,1 hPa 0,0 mm 0,9 km/h (0 Bft) S-SW 206 ° 0 min 0,000 mm 0,0 UV-I 0 W/m² 12,0 °C 15,0 °C 1,6 km/h (1 Bft)
13.09.2017 20:49 14,9 °C 15,0 °C 82 % 1010,2 hPa 0,0 mm 1,0 km/h (0 Bft) S-SW 198 ° 0 min 0,000 mm 0,0 UV-I 0 W/m² 11,9 °C 14,9 °C 1,6 km/h (1 Bft)
13.09.2017 20:50 14,9 °C 15,0 °C 82 % 1010,2 hPa 0,0 mm 2,3 km/h (1 Bft) S-SW 194 ° 0 min 0,000 mm 0,0 UV-I 0 W/m² 11,9 °C 14,9 °C 4,8 km/h (1 Bft)
13.09.2017 20:51 14,9 °C 15,0 °C 82 % 1010,2 hPa 0,0 mm 0,7 km/h (0 Bft) S-SW 194 ° 0 min 0,000 mm 0,0 UV-I 0 W/m² 11,9 °C 14,9 °C 3,2 km/h (1 Bft)
13.09.2017 20:52 14,9 °C 14,9 °C 82 % 1010,2 hPa 0,0 mm 0,9 km/h (0 Bft) S-SW 194 ° 0 min 0,000 mm 0,0 UV-I 0 W/m² 11,9 °C 14,9 °C 3,2 km/h (1 Bft)
13.09.2017 20:53 15,0 °C 15,0 °C 81 % 1010,3 hPa 0,0 mm 0,3 km/h (0 Bft) S-SW 194 ° 0 min 0,000 mm 0,0 UV-I 0 W/m² 11,8 °C 15,0 °C 1,6 km/h (1 Bft)
13.09.2017 20:54 15,1 °C 15,1 °C 81 % 1010,2 hPa 0,0 mm 0,0 km/h (0 Bft) S-SW 194 ° 0 min 0,000 mm 0,0 UV-I 0 W/m² 11,9 °C 15,1 °C 0,0 km/h (0 Bft)
13.09.2017 20:55 15,1 °C 15,2 °C 81 % 1010,2 hPa 0,0 mm 1,2 km/h (1 Bft) S-SW 194 ° 0 min 0,000 mm 0,0 UV-I 0 W/m² 11,9 °C 15,1 °C 4,8 km/h (1 Bft)
13.09.2017 20:56 15,2 °C 15,2 °C 80 % 1010,3 hPa 0,0 mm 1,9 km/h (1 Bft) S-SW 205 ° 0 min 0,000 mm 0,0 UV-I 0 W/m² 11,8 °C 15,2 °C 4,8 km/h (1 Bft)
13.09.2017 20:57 15,2 °C 15,2 °C 80 % 1010,2 hPa 0,0 mm 2,3 km/h (1 Bft) S-SO 167 ° 0 min 0,000 mm 0,0 UV-I 0 W/m² 11,8 °C 15,2 °C 4,8 km/h (1 Bft)
13.09.2017 20:58 15,3 °C 15,3 °C 79 % 1010,2 hPa 0,0 mm 0,1 km/h (0 Bft) S-SO 167 ° 0 min 0,000 mm 0,0 UV-I 0 W/m² 11,7 °C 15,3 °C 1,6 km/h (1 Bft)
13.09.2017 20:59 15,4 °C 15,4 °C 79 % 1010,2 hPa 0,0 mm 0,5 km/h (0 Bft) S-SO 167 ° 0 min 0,000 mm 0,0 UV-I 0 W/m² 11,8 °C 15,4 °C 4,8 km/h (1 Bft)
13.09.2017 21:00 15,4 °C 15,4 °C 79 % 1010,2 hPa 0,0 mm 0,0 km/h (0 Bft) S-SO 167 ° 0 min 0,000 mm 0,0 UV-I 0 W/m² 11,8 °C 15,4 °C 0,0 km/h (0 Bft)
13.09.2017 21:01 15,6 °C 15,6 °C 78 % 1010,2 hPa 0,0 mm 0,0 km/h (0 Bft) S 172 ° 0 min 0,025 mm 0,0 UV-I 0 W/m² 11,8 °C 15,6 °C 0,0 km/h (0 Bft)
13.09.2017 21:02 15,6 °C 15,6 °C 78 % 1010,2 hPa 0,0 mm 2,0 km/h (1 Bft) W-SW 246 ° 0 min 0,000 mm 0,0 UV-I 0 W/m² 11,8 °C 15,6 °C 4,8 km/h (1 Bft)
13.09.2017 21:03 15,6 °C 15,6 °C 78 % 1010,2 hPa 0,0 mm 2,6 km/h (1 Bft) SW 228 ° 0 min 0,000 mm 0,0 UV-I 0 W/m² 11,8 °C 15,6 °C 4,8 km/h (1 Bft)
13.09.2017 21:04 15,5 °C 15,6 °C 79 % 1010,3 hPa 0,0 mm 3,1 km/h (1 Bft) W-SW 248 ° 0 min 0,000 mm 0,0 UV-I 0 W/m² 11,9 °C 15,5 °C 4,8 km/h (1 Bft)
13.09.2017 21:05 15,4 °C 15,5 °C 79 % 1010,2 hPa 0,0 mm 2,5 km/h (1 Bft) W-SW 257 ° 0 min 0,000 mm 0,0 UV-I 0 W/m² 11,8 °C 15,4 °C 4,8 km/h (1 Bft)
13.09.2017 21:06 15,3 °C 15,4 °C 79 % 1010,2 hPa 0,0 mm 2,9 km/h (1 Bft) W-SW 258 ° 0 min 0,000 mm 0,0 UV-I 0 W/m² 11,7 °C 15,3 °C 4,8 km/h (1 Bft)
13.09.2017 21:07 15,2 °C 15,3 °C 81 % 1010,3 hPa 0,0 mm 1,9 km/h (1 Bft) W-SW 258 ° 0 min 0,000 mm 0,0 UV-I 0 W/m² 12,0 °C 15,2 °C 3,2 km/h (1 Bft)
13.09.2017 21:08 15,1 °C 15,2 °C 81 % 1010,2 hPa 0,0 mm 1,0 km/h (0 Bft) W 261 ° 0 min 0,000 mm 0,0 UV-I 0 W/m² 11,9 °C 15,1 °C 3,2 km/h (1 Bft)
13.09.2017 21:09 14,9 °C 15,1 °C 82 % 1010,2 hPa 0,0 mm 1,3 km/h (1 Bft) W 261 ° 0 min 0,000 mm 0,0 UV-I 0 W/m² 11,9 °C 14,9 °C 3,2 km/h (1 Bft)
13.09.2017 21:10 14,8 °C 14,9 °C 83 % 1010,2 hPa 0,0 mm 2,3 km/h (1 Bft) W 261 ° 0 min 0,000 mm 0,0 UV-I 0 W/m² 11,9 °C 14,8 °C 4,8 km/h (1 Bft)
13.09.2017 21:11 14,6 °C 14,8 °C 83 % 1010,2 hPa 0,0 mm 0,4 km/h (0 Bft) W 261 ° 0 min 0,000 mm 0,0 UV-I 0 W/m² 11,7 °C 14,6 °C 1,6 km/h (1 Bft)
13.09.2017 21:12 14,4 °C 14,6 °C 84 % 1010,3 hPa 0,0 mm 0,0 km/h (0 Bft) W 261 ° 0 min 0,000 mm 0,0 UV-I 0 W/m² 11,7 °C 14,4 °C 0,0 km/h (0 Bft)
13.09.2017 21:13 14,3 °C 14,4 °C 84 % 1010,2 hPa 0,0 mm 0,6 km/h (0 Bft) W-SW 246 ° 0 min 0,000 mm 0,0 UV-I 0 W/m² 11,6 °C 14,3 °C 3,2 km/h (1 Bft)
13.09.2017 21:14 14,3 °C 14,3 °C 84 % 1010,3 hPa 0,0 mm 0,4 km/h (0 Bft) W-SW 246 ° 0 min 0,000 mm 0,0 UV-I 0 W/m² 11,6 °C 14,3 °C 1,6 km/h (1 Bft)
13.09.2017 21:15 14,3 °C 14,3 °C 83 % 1010,2 hPa 0,0 mm 1,6 km/h (1 Bft) W-SW 254 ° 0 min 0,000 mm 0,0 UV-I 0 W/m² 11,5 °C 14,3 °C 3,2 km/h (1 Bft)
13.09.2017 21:16 14,4 °C 14,4 °C 83 % 1010,2 hPa 0,0 mm 3,1 km/h (1 Bft) W-SW 257 ° 0 min 0,000 mm 0,0 UV-I 0 W/m² 11,5 °C 14,4 °C 6,4 km/h (2 Bft)
13.09.2017 21:17 14,4 °C 14,4 °C 83 % 1010,2 hPa 0,0 mm 3,3 km/h (1 Bft) W 260 ° 0 min 0,000 mm 0,0 UV-I 0 W/m² 11,5 °C 14,4 °C 4,8 km/h (1 Bft)
13.09.2017 21:18 14,6 °C 14,6 °C 82 % 1010,3 hPa 0,0 mm 3,5 km/h (1 Bft) W 269 ° 0 min 0,000 mm 0,0 UV-I 0 W/m² 11,6 °C 14,6 °C 4,8 km/h (1 Bft)
13.09.2017 21:19 14,7 °C 14,7 °C 81 % 1010,2 hPa 0,0 mm 3,6 km/h (1 Bft) W 265 ° 0 min 0,000 mm 0,0 UV-I 0 W/m² 11,5 °C 14,7 °C 6,4 km/h (2 Bft)
13.09.2017 21:20 14,7 °C 14,7 °C 82 % 1010,2 hPa 0,0 mm 4,6 km/h (1 Bft) W 271 ° 0 min 0,000 mm 0,0 UV-I 0 W/m² 11,7 °C 14,7 °C 6,4 km/h (2 Bft)
13.09.2017 21:21 14,8 °C 14,8 °C 82 % 1010,2 hPa 0,0 mm 4,8 km/h (1 Bft) W-SW 258 ° 0 min 0,000 mm 0,0 UV-I 0 W/m² 11,8 °C 14,8 °C 6,4 km/h (2 Bft)
13.09.2017 21:22 14,8 °C 14,8 °C 81 % 1010,2 hPa 0,0 mm 5,4 km/h (1 Bft) SW 236 ° 0 min 0,000 mm 0,0 UV-I 0 W/m² 11,6 °C 14,8 °C 9,7 km/h (2 Bft)
13.09.2017 21:23 14,8 °C 14,8 °C 81 % 1010,2 hPa 0,0 mm 3,7 km/h (1 Bft) W 266 ° 0 min 0,000 mm 0,0 UV-I 0 W/m² 11,6 °C 14,8 °C 4,8 km/h (1 Bft)
13.09.2017 21:24 14,9 °C 14,9 °C 80 % 1010,3 hPa 0,0 mm 2,9 km/h (1 Bft) W-SW 255 ° 0 min 0,000 mm 0,0 UV-I 0 W/m² 11,5 °C 14,9 °C 4,8 km/h (1 Bft)
13.09.2017 21:25 15,0 °C 15,0 °C 81 % 1010,3 hPa 0,0 mm 5,0 km/h (1 Bft) W 267 ° 0 min 0,000 mm 0,0 UV-I 0 W/m² 11,8 °C 15,0 °C 6,4 km/h (2 Bft)
13.09.2017 21:26 14,9 °C 15,0 °C 81 % 1010,2 hPa 0,0 mm 3,7 km/h (1 Bft) W-SW 247 ° 0 min 0,000 mm 0,0 UV-I 0 W/m² 11,7 °C 14,9 °C 6,4 km/h (2 Bft)
13.09.2017 21:27 14,9 °C 14,9 °C 80 % 1010,2 hPa 0,0 mm 2,4 km/h (1 Bft) SW 228 ° 0 min 0,000 mm 0,0 UV-I 0 W/m² 11,5 °C 14,9 °C 4,8 km/h (1 Bft)
13.09.2017 21:28 14,9 °C 14,9 °C 80 % 1010,2 hPa 0,0 mm 0,1 km/h (0 Bft) SW 228 ° 0 min 0,000 mm 0,0 UV-I 0 W/m² 11,5 °C 14,9 °C 1,6 km/h (1 Bft)
13.09.2017 21:29 15,0 °C 15,0 °C 80 % 1010,2 hPa 0,0 mm 0,2 km/h (0 Bft) SW 228 ° 0 min 0,000 mm 0,0 UV-I 0 W/m² 11,6 °C 15,0 °C 1,6 km/h (1 Bft)
13.09.2017 21:30 15,1 °C 15,1 °C 79 % 1010,2 hPa 0,0 mm 3,2 km/h (1 Bft) W-SW 257 ° 0 min 0,000 mm 0,0 UV-I 0 W/m² 11,5 °C 15,1 °C 4,8 km/h (1 Bft)
13.09.2017 21:31 15,1 °C 15,1 °C 79 % 1010,2 hPa 0,0 mm 3,4 km/h (1 Bft) W-SW 257 ° 0 min 0,000 mm 0,0 UV-I 0 W/m² 11,5 °C 15,1 °C 4,8 km/h (1 Bft)
13.09.2017 21:32 15,1 °C 15,1 °C 79 % 1010,1 hPa 0,0 mm 3,0 km/h (1 Bft) W-SW 252 ° 0 min 0,000 mm 0,0 UV-I 0 W/m² 11,5 °C 15,1 °C 4,8 km/h (1 Bft)
13.09.2017 21:33 15,1 °C 15,2 °C 79 % 1010,1 hPa 0,0 mm 2,0 km/h (1 Bft) W-SW 249 ° 0 min 0,000 mm 0,0 UV-I 0 W/m² 11,5 °C 15,1 °C 3,2 km/h (1 Bft)
13.09.2017 21:34 15,2 °C 15,2 °C 79 % 1010,1 hPa 0,0 mm 2,0 km/h (1 Bft) W-SW 249 ° 0 min 0,000 mm 0,0 UV-I 0 W/m² 11,6 °C 15,2 °C 3,2 km/h (1 Bft)
13.09.2017 21:35 15,2 °C 15,2 °C 79 % 1010,1 hPa 0,0 mm 2,3 km/h (1 Bft) W-SW 242 ° 0 min 0,000 mm 0,0 UV-I 0 W/m² 11,6 °C 15,2 °C 6,4 km/h (2 Bft)
13.09.2017 21:36 15,3 °C 15,3 °C 78 % 1010,2 hPa 0,0 mm 1,7 km/h (1 Bft) SW 232 ° 0 min 0,000 mm 0,0 UV-I 0 W/m² 11,5 °C 15,3 °C 6,4 km/h (2 Bft)
13.09.2017 21:37 15,3 °C 15,3 °C 77 % 1010,1 hPa 0,0 mm 0,5 km/h (0 Bft) SW 223 ° 0 min 0,000 mm 0,0 UV-I 0 W/m² 11,3 °C 15,3 °C 3,2 km/h (1 Bft)
13.09.2017 21:38 15,4 °C 15,4 °C 77 % 1010,1 hPa 0,0 mm 0,6 km/h (0 Bft) SW 223 ° 0 min 0,000 mm 0,0 UV-I 0 W/m² 11,4 °C 15,4 °C 1,6 km/h (1 Bft)
13.09.2017 21:39 15,4 °C 15,4 °C 77 % 1010,0 hPa 0,0 mm 2,4 km/h (1 Bft) W-SW 246 ° 0 min 0,000 mm 0,0 UV-I 0 W/m² 11,4 °C 15,4 °C 4,8 km/h (1 Bft)
13.09.2017 21:40 15,6 °C 15,6 °C 76 % 1010,1 hPa 0,0 mm 0,3 km/h (0 Bft) W-SW 246 ° 0 min 0,000 mm 0,0 UV-I 0 W/m² 11,4 °C 15,6 °C 1,6 km/h (1 Bft)
13.09.2017 21:41 15,6 °C 15,6 °C 76 % 1010,0 hPa 0,0 mm 0,0 km/h (0 Bft) W-SW 246 ° 0 min 0,000 mm 0,0 UV-I 0 W/m² 11,4 °C 15,6 °C 0,0 km/h (0 Bft)
13.09.2017 21:42 15,7 °C 15,7 °C 75 % 1010,1 hPa 0,0 mm 1,1 km/h (1 Bft) SW 229 ° 0 min 0,000 mm 0,0 UV-I 0 W/m² 11,3 °C 15,7 °C 3,2 km/h (1 Bft)
13.09.2017 21:43 15,7 °C 15,7 °C 75 % 1010,1 hPa 0,0 mm 2,4 km/h (1 Bft) W 273 ° 0 min 0,000 mm 0,0 UV-I 0 W/m² 11,3 °C 15,7 °C 4,8 km/h (1 Bft)
13.09.2017 21:44 15,8 °C 15,8 °C 75 % 1010,1 hPa 0,0 mm 4,6 km/h (1 Bft) W 259 ° 0 min 0,000 mm 0,0 UV-I 0 W/m² 11,4 °C 15,8 °C 6,4 km/h (2 Bft)
13.09.2017 21:45 15,7 °C 15,8 °C 75 % 1010,0 hPa 0,0 mm 1,4 km/h (1 Bft) W 259 ° 0 min 0,000 mm 0,0 UV-I 0 W/m² 11,3 °C 15,7 °C 4,8 km/h (1 Bft)
13.09.2017 21:46 15,7 °C 15,7 °C 75 % 1010,0 hPa 0,0 mm 4,2 km/h (1 Bft) SW 227 ° 0 min 0,000 mm 0,0 UV-I 0 W/m² 11,3 °C 15,7 °C 8,0 km/h (2 Bft)
13.09.2017 21:47 15,7 °C 15,7 °C 75 % 1010,0 hPa 0,0 mm 5,2 km/h (1 Bft) SW 232 ° 0 min 0,000 mm 0,0 UV-I 0 W/m² 11,3 °C 15,7 °C 12,9 km/h (3 Bft)
13.09.2017 21:48 15,7 °C 15,7 °C 75 % 1010,0 hPa 0,0 mm 2,2 km/h (1 Bft) SW 229 ° 0 min 0,000 mm 0,0 UV-I 0 W/m² 11,3 °C 15,7 °C 8,0 km/h (2 Bft)
13.09.2017 21:49 15,7 °C 15,7 °C 75 % 1010,0 hPa 0,0 mm 7,1 km/h (2 Bft) SW 217 ° 0 min 0,000 mm 0,0 UV-I 0 W/m² 11,3 °C 15,7 °C 12,9 km/h (3 Bft)
13.09.2017 21:50 15,8 °C 15,8 °C 74 % 1010,0 hPa 0,0 mm 4,6 km/h (1 Bft) W 278 ° 0 min 0,000 mm 0,0 UV-I 0 W/m² 11,2 °C 15,8 °C 11,3 km/h (2 Bft)
13.09.2017 21:51 15,8 °C 15,8 °C 74 % 1010,0 hPa 0,0 mm 4,0 km/h (1 Bft) W-SW 243 ° 0 min 0,000 mm 0,0 UV-I 0 W/m² 11,2 °C 15,8 °C 9,7 km/h (2 Bft)
13.09.2017 21:52 15,8 °C 15,8 °C 74 % 1010,0 hPa 0,0 mm 1,9 km/h (1 Bft) SW 217 ° 0 min 0,000 mm 0,0 UV-I 0 W/m² 11,2 °C 15,8 °C 3,2 km/h (1 Bft)
13.09.2017 21:53 15,8 °C 15,8 °C 74 % 1010,0 hPa 0,0 mm 1,4 km/h (1 Bft) SW 219 ° 0 min 0,000 mm 0,0 UV-I 0 W/m² 11,2 °C 15,8 °C 3,2 km/h (1 Bft)
13.09.2017 21:54 15,8 °C 15,8 °C 74 % 1010,0 hPa 0,0 mm 3,5 km/h (1 Bft) SW 224 ° 0 min 0,000 mm 0,0 UV-I 0 W/m² 11,2 °C 15,8 °C 9,7 km/h (2 Bft)
13.09.2017 21:55 15,8 °C 15,8 °C 74 % 1010,0 hPa 0,0 mm 5,2 km/h (1 Bft) W-SW 246 ° 0 min 0,000 mm 0,0 UV-I 0 W/m² 11,2 °C 15,8 °C 8,0 km/h (2 Bft)
13.09.2017 21:56 15,8 °C 15,8 °C 74 % 1010,0 hPa 0,0 mm 3,9 km/h (1 Bft) W-SW 248 ° 0 min 0,000 mm 0,0 UV-I 0 W/m² 11,2 °C 15,8 °C 6,4 km/h (2 Bft)
13.09.2017 21:57 15,8 °C 15,8 °C 73 % 1010,0 hPa 0,0 mm 2,7 km/h (1 Bft) SW 230 ° 0 min 0,000 mm 0,0 UV-I 0 W/m² 11,0 °C 15,8 °C 6,4 km/h (2 Bft)
13.09.2017 21:58 15,9 °C 15,9 °C 73 % 1009,9 hPa 0,0 mm 4,4 km/h (1 Bft) W 260 ° 0 min 0,000 mm 0,0 UV-I 0 W/m² 11,1 °C 15,9 °C 9,7 km/h (2 Bft)
13.09.2017 21:59 15,9 °C 15,9 °C 73 % 1009,9 hPa 0,0 mm 5,5 km/h (1 Bft) W 263 ° 0 min 0,000 mm 0,0 UV-I 0 W/m² 11,1 °C 15,9 °C 12,9 km/h (3 Bft)
13.09.2017 22:00 15,9 °C 15,9 °C 73 % 1009,9 hPa 0,0 mm 7,2 km/h (2 Bft) W 259 ° 0 min 0,000 mm 0,0 UV-I 0 W/m² 11,1 °C 15,9 °C 11,3 km/h (2 Bft)
13.09.2017 22:01 15,9 °C 15,9 °C 73 % 1009,9 hPa 0,0 mm 5,5 km/h (1 Bft) SW 232 ° 0 min 0,026 mm 0,0 UV-I 0 W/m² 11,1 °C 15,9 °C 8,0 km/h (2 Bft)
13.09.2017 22:02 15,9 °C 15,9 °C 73 % 1009,9 hPa 0,0 mm 5,7 km/h (1 Bft) W 266 ° 0 min 0,000 mm 0,0 UV-I 0 W/m² 11,1 °C 15,9 °C 9,7 km/h (2 Bft)
13.09.2017 22:04 16,1 °C 16,1 °C 73 % 1009,9 hPa 0,0 mm 7,1 km/h (2 Bft) W 263 ° 0 min 0,000 mm 0,0 UV-I 0 W/m² 11,3 °C 16,1 °C 14,5 km/h (3 Bft)
13.09.2017 22:05 16,1 °C 16,1 °C 72 % 1009,9 hPa 0,0 mm 5,2 km/h (1 Bft) W 273 ° 0 min 0,000 mm 0,0 UV-I 0 W/m² 11,0 °C 16,1 °C 9,7 km/h (2 Bft)
13.09.2017 22:06 16,0 °C 16,1 °C 72 % 1009,9 hPa 0,0 mm 5,4 km/h (1 Bft) W 263 ° 0 min 0,000 mm 0,0 UV-I 0 W/m² 11,0 °C 16,0 °C 9,7 km/h (2 Bft)
13.09.2017 22:07 15,9 °C 16,0 °C 73 % 1009,9 hPa 0,0 mm 5,1 km/h (1 Bft) W-SW 254 ° 0 min 0,000 mm 0,0 UV-I 0 W/m² 11,1 °C 15,9 °C 9,7 km/h (2 Bft)
13.09.2017 22:08 15,8 °C 15,9 °C 73 % 1009,9 hPa 0,0 mm 9,1 km/h (2 Bft) W 263 ° 0 min 0,000 mm 0,0 UV-I 0 W/m² 11,0 °C 15,8 °C 12,9 km/h (3 Bft)
13.09.2017 22:09 15,7 °C 15,8 °C 74 % 1009,9 hPa 0,0 mm 7,7 km/h (2 Bft) W-SW 238 ° 0 min 0,000 mm 0,0 UV-I 0 W/m² 11,1 °C 15,7 °C 11,3 km/h (2 Bft)
13.09.2017 22:10 15,7 °C 15,7 °C 73 % 1010,0 hPa 0,0 mm 3,2 km/h (1 Bft) SW 221 ° 0 min 0,000 mm 0,0 UV-I 0 W/m² 10,9 °C 15,7 °C 6,4 km/h (2 Bft)
13.09.2017 22:11 15,7 °C 15,7 °C 73 % 1009,9 hPa 0,0 mm 3,4 km/h (1 Bft) W-SW 249 ° 0 min 0,000 mm 0,0 UV-I 0 W/m² 10,9 °C 15,7 °C 4,8 km/h (1 Bft)
13.09.2017 22:12 15,6 °C 15,7 °C 73 % 1009,9 hPa 0,0 mm 1,9 km/h (1 Bft) SW 222 ° 0 min 0,000 mm 0,0 UV-I 0 W/m² 10,8 °C 15,6 °C 4,8 km/h (1 Bft)
13.09.2017 22:13 15,7 °C 15,7 °C 73 % 1010,0 hPa 0,0 mm 1,6 km/h (1 Bft) SW 234 ° 0 min 0,000 mm 0,0 UV-I 0 W/m² 10,9 °C 15,7 °C 4,8 km/h (1 Bft)
13.09.2017 22:14 15,7 °C 15,7 °C 73 % 1010,0 hPa 0,0 mm 1,5 km/h (1 Bft) S-SW 196 ° 0 min 0,000 mm 0,0 UV-I 0 W/m² 10,9 °C 15,7 °C 3,2 km/h (1 Bft)
13.09.2017 22:15 15,8 °C 15,8 °C 73 % 1009,9 hPa 0,0 mm 2,7 km/h (1 Bft) S-SW 196 ° 0 min 0,000 mm 0,0 UV-I 0 W/m² 11,0 °C 15,8 °C 3,2 km/h (1 Bft)
13.09.2017 22:16 15,8 °C 15,8 °C 73 % 1009,9 hPa 0,0 mm 3,4 km/h (1 Bft) W-SW 252 ° 0 min 0,000 mm 0,0 UV-I 0 W/m² 11,0 °C 15,8 °C 6,4 km/h (2 Bft)
13.09.2017 22:17 15,8 °C 15,8 °C 72 % 1009,9 hPa 0,0 mm 1,5 km/h (1 Bft) SW 226 ° 0 min 0,000 mm 0,0 UV-I 0 W/m² 10,8 °C 15,8 °C 4,8 km/h (1 Bft)
13.09.2017 22:18 15,9 °C 15,9 °C 72 % 1009,8 hPa 0,0 mm 2,3 km/h (1 Bft) SW 227 ° 0 min 0,000 mm 0,0 UV-I 0 W/m² 10,9 °C 15,9 °C 4,8 km/h (1 Bft)
13.09.2017 22:19 16,1 °C 16,1 °C 71 % 1009,8 hPa 0,0 mm 4,6 km/h (1 Bft) S-SW 194 ° 0 min 0,000 mm 0,0 UV-I 0 W/m² 10,8 °C 16,1 °C 6,4 km/h (2 Bft)
13.09.2017 22:20 16,1 °C 16,1 °C 71 % 1009,8 hPa 0,0 mm 1,3 km/h (1 Bft) S-SW 194 ° 0 min 0,000 mm 0,0 UV-I 0 W/m² 10,8 °C 16,1 °C 3,2 km/h (1 Bft)
13.09.2017 22:21 16,3 °C 16,3 °C 70 % 1009,8 hPa 0,0 mm 2,1 km/h (1 Bft) S-SW 193 ° 0 min 0,000 mm 0,0 UV-I 0 W/m² 10,8 °C 16,3 °C 6,4 km/h (2 Bft)
13.09.2017 22:22 16,3 °C 16,3 °C 70 % 1009,8 hPa 0,0 mm 3,6 km/h (1 Bft) W 272 ° 0 min 0,000 mm 0,0 UV-I 0 W/m² 10,8 °C 16,3 °C 4,8 km/h (1 Bft)
13.09.2017 22:23 16,3 °C 16,3 °C 70 % 1009,8 hPa 0,0 mm 5,0 km/h (1 Bft) S 173 ° 0 min 0,000 mm 0,0 UV-I 0 W/m² 10,8 °C 16,3 °C 9,7 km/h (2 Bft)
13.09.2017 22:24 16,3 °C 16,4 °C 70 % 1009,7 hPa 0,0 mm 6,2 km/h (2 Bft) W-SW 251 ° 0 min 0,000 mm 0,0 UV-I 0 W/m² 10,8 °C 16,3 °C 16,1 km/h (3 Bft)
13.09.2017 22:25 16,3 °C 16,4 °C 69 % 1009,8 hPa 0,0 mm 2,8 km/h (1 Bft) W-SW 254 ° 0 min 0,000 mm 0,0 UV-I 0 W/m² 10,6 °C 16,3 °C 6,4 km/h (2 Bft)
13.09.2017 22:26 16,3 °C 16,4 °C 70 % 1009,7 hPa 0,0 mm 5,2 km/h (1 Bft) SW 230 ° 0 min 0,000 mm 0,0 UV-I 0 W/m² 10,8 °C 16,3 °C 9,7 km/h (2 Bft)
13.09.2017 22:27 16,3 °C 16,3 °C 69 % 1009,7 hPa 0,0 mm 3,8 km/h (1 Bft) W-SW 252 ° 0 min 0,000 mm 0,0 UV-I 0 W/m² 10,6 °C 16,3 °C 9,7 km/h (2 Bft)
13.09.2017 22:28 16,3 °C 16,3 °C 70 % 1009,7 hPa 0,0 mm 3,2 km/h (1 Bft) W-SW 250 ° 0 min 0,000 mm 0,0 UV-I 0 W/m² 10,8 °C 16,3 °C 6,4 km/h (2 Bft)
13.09.2017 22:29 16,3 °C 16,3 °C 69 % 1009,7 hPa 0,0 mm 2,5 km/h (1 Bft) W-SW 254 ° 0 min 0,000 mm 0,0 UV-I 0 W/m² 10,6 °C 16,3 °C 4,8 km/h (1 Bft)
13.09.2017 22:30 16,3 °C 16,4 °C 70 % 1009,7 hPa 0,0 mm 5,2 km/h (1 Bft) SW 226 ° 0 min 0,000 mm 0,0 UV-I 0 W/m² 10,8 °C 16,3 °C 9,7 km/h (2 Bft)
13.09.2017 22:31 16,3 °C 16,3 °C 69 % 1009,7 hPa 0,0 mm 3,4 km/h (1 Bft) S-SW 196 ° 0 min 0,000 mm 0,0 UV-I 0 W/m² 10,6 °C 16,3 °C 6,4 km/h (2 Bft)
13.09.2017 22:32 16,4 °C 16,4 °C 69 % 1009,7 hPa 0,0 mm 2,7 km/h (1 Bft) S-SW 192 ° 0 min 0,000 mm 0,0 UV-I 0 W/m² 10,7 °C 16,4 °C 6,4 km/h (2 Bft)
13.09.2017 22:33 16,4 °C 16,4 °C 69 % 1009,7 hPa 0,0 mm 3,6 km/h (1 Bft) SW 217 ° 0 min 0,000 mm 0,0 UV-I 0 W/m² 10,7 °C 16,4 °C 6,4 km/h (2 Bft)
13.09.2017 22:34 16,5 °C 16,5 °C 69 % 1009,7 hPa 0,0 mm 1,6 km/h (1 Bft) W-SW 246 ° 0 min 0,000 mm 0,0 UV-I 0 W/m² 10,8 °C 16,5 °C 6,4 km/h (2 Bft)
13.09.2017 22:35 16,4 °C 16,5 °C 68 % 1009,7 hPa 0,0 mm 0,7 km/h (0 Bft) W-SW 257 ° 0 min 0,000 mm 0,0 UV-I 0 W/m² 10,5 °C 16,4 °C 3,2 km/h (1 Bft)
13.09.2017 22:36 16,5 °C 16,6 °C 68 % 1009,6 hPa 0,0 mm 1,1 km/h (1 Bft) SW 234 ° 0 min 0,000 mm 0,0 UV-I 0 W/m² 10,6 °C 16,5 °C 4,8 km/h (1 Bft)
13.09.2017 22:37 16,5 °C 16,6 °C 69 % 1009,5 hPa 0,0 mm 0,8 km/h (0 Bft) SW 233 ° 0 min 0,000 mm 0,0 UV-I 0 W/m² 10,8 °C 16,5 °C 3,2 km/h (1 Bft)
13.09.2017 22:38 16,4 °C 16,5 °C 69 % 1009,5 hPa 0,0 mm 1,4 km/h (1 Bft) SW 233 ° 0 min 0,000 mm 0,0 UV-I 0 W/m² 10,7 °C 16,4 °C 1,6 km/h (1 Bft)
13.09.2017 22:39 16,4 °C 16,5 °C 68 % 1009,5 hPa 0,0 mm 2,9 km/h (1 Bft) S-SW 198 ° 0 min 0,000 mm 0,0 UV-I 0 W/m² 10,5 °C 16,4 °C 4,8 km/h (1 Bft)
13.09.2017 22:40 16,4 °C 16,4 °C 69 % 1009,5 hPa 0,0 mm 2,5 km/h (1 Bft) SW 221 ° 0 min 0,000 mm 0,0 UV-I 0 W/m² 10,7 °C 16,4 °C 4,8 km/h (1 Bft)
13.09.2017 22:41 16,3 °C 16,4 °C 69 % 1009,5 hPa 0,0 mm 0,2 km/h (0 Bft) SW 221 ° 0 min 0,000 mm 0,0 UV-I 0 W/m² 10,6 °C 16,3 °C 1,6 km/h (1 Bft)
13.09.2017 22:42 16,3 °C 16,3 °C 69 % 1009,5 hPa 0,0 mm 1,8 km/h (1 Bft) S 175 ° 0 min 0,000 mm 0,0 UV-I 0 W/m² 10,6 °C 16,3 °C 6,4 km/h (2 Bft)
13.09.2017 22:43 16,3 °C 16,3 °C 70 % 1009,5 hPa 0,0 mm 2,1 km/h (1 Bft) S 175 ° 0 min 0,000 mm 0,0 UV-I 0 W/m² 10,8 °C 16,3 °C 4,8 km/h (1 Bft)
13.09.2017 22:44 16,1 °C 16,3 °C 71 % 1009,5 hPa 0,0 mm 1,0 km/h (0 Bft) S 175 ° 0 min 0,000 mm 0,0 UV-I 0 W/m² 10,8 °C 16,1 °C 3,2 km/h (1 Bft)
13.09.2017 22:45 15,9 °C 16,1 °C 71 % 1009,5 hPa 0,0 mm 0,9 km/h (0 Bft) S 175 ° 0 min 0,000 mm 0,0 UV-I 0 W/m² 10,6 °C 15,9 °C 3,2 km/h (1 Bft)
13.09.2017 22:46 15,8 °C 15,9 °C 71 % 1009,6 hPa 0,0 mm 1,9 km/h (1 Bft) S 175 ° 0 min 0,000 mm 0,0 UV-I 0 W/m² 10,6 °C 15,8 °C 3,2 km/h (1 Bft)
13.09.2017 22:47 15,8 °C 15,8 °C 72 % 1009,6 hPa 0,0 mm 2,5 km/h (1 Bft) S 175 ° 0 min 0,000 mm 0,0 UV-I 0 W/m² 10,8 °C 15,8 °C 4,8 km/h (1 Bft)
13.09.2017 22:48 15,6 °C 15,8 °C 72 % 1009,6 hPa 0,0 mm 3,3 km/h (1 Bft) S 175 ° 0 min 0,000 mm 0,0 UV-I 0 W/m² 10,6 °C 15,6 °C 4,8 km/h (1 Bft)
13.09.2017 22:49 15,5 °C 15,6 °C 72 % 1009,6 hPa 0,0 mm 2,5 km/h (1 Bft) S 175 ° 0 min 0,000 mm 0,0 UV-I 0 W/m² 10,5 °C 15,5 °C 3,2 km/h (1 Bft)
13.09.2017 22:50 15,3 °C 15,5 °C 73 % 1009,7 hPa 0,0 mm 4,4 km/h (1 Bft) S 186 ° 0 min 0,000 mm 0,0 UV-I 0 W/m² 10,5 °C 15,3 °C 6,4 km/h (2 Bft)
13.09.2017 22:51 15,3 °C 15,3 °C 73 % 1009,7 hPa 0,0 mm 3,8 km/h (1 Bft) S 185 ° 0 min 0,000 mm 0,0 UV-I 0 W/m² 10,5 °C 15,3 °C 6,4 km/h (2 Bft)
13.09.2017 22:52 15,2 °C 15,3 °C 74 % 1009,7 hPa 0,0 mm 5,2 km/h (1 Bft) S 184 ° 0 min 0,000 mm 0,0 UV-I 0 W/m² 10,6 °C 15,2 °C 8,0 km/h (2 Bft)
13.09.2017 22:53 15,0 °C 15,2 °C 75 % 1009,7 hPa 0,0 mm 5,0 km/h (1 Bft) S 180 ° 0 min 0,000 mm 0,0 UV-I 0 W/m² 10,6 °C 15,0 °C 6,4 km/h (2 Bft)
13.09.2017 22:54 14,8 °C 15,0 °C 76 % 1009,7 hPa 0,0 mm 3,5 km/h (1 Bft) S 180 ° 0 min 0,000 mm 0,0 UV-I 0 W/m² 10,6 °C 14,8 °C 4,8 km/h (1 Bft)
13.09.2017 22:55 14,6 °C 14,8 °C 77 % 1009,7 hPa 0,0 mm 2,6 km/h (1 Bft) S 180 ° 0 min 0,000 mm 0,0 UV-I 0 W/m² 10,6 °C 14,6 °C 3,2 km/h (1 Bft)
13.09.2017 22:56 14,4 °C 14,6 °C 77 % 1009,7 hPa 0,0 mm 4,0 km/h (1 Bft) S 181 ° 0 min 0,000 mm 0,0 UV-I 0 W/m² 10,4 °C 14,4 °C 6,4 km/h (2 Bft)
13.09.2017 22:57 14,2 °C 14,4 °C 78 % 1009,6 hPa 0,0 mm 5,5 km/h (1 Bft) S-SO 167 ° 0 min 0,000 mm 0,0 UV-I 0 W/m² 10,4 °C 14,2 °C 8,0 km/h (2 Bft)
13.09.2017 22:58 14,2 °C 14,3 °C 79 % 1009,6 hPa 0,0 mm 4,2 km/h (1 Bft) S 178 ° 0 min 0,000 mm 0,0 UV-I 0 W/m² 10,6 °C 14,2 °C 6,4 km/h (2 Bft)
13.09.2017 22:59 14,1 °C 14,2 °C 80 % 1009,5 hPa 0,0 mm 4,4 km/h (1 Bft) S 175 ° 0 min 0,000 mm 0,0 UV-I 0 W/m² 10,7 °C 14,1 °C 6,4 km/h (2 Bft)
13.09.2017 23:00 14,2 °C 14,2 °C 78 % 1009,6 hPa 0,0 mm 4,7 km/h (1 Bft) S 177 ° 0 min 0,000 mm 0,0 UV-I 0 W/m² 10,4 °C 14,2 °C 8,0 km/h (2 Bft)
13.09.2017 23:01 14,1 °C 14,2 °C 79 % 1009,5 hPa 0,0 mm 4,5 km/h (1 Bft) S 183 ° 0 min 0,025 mm 0,0 UV-I 0 W/m² 10,5 °C 14,1 °C 6,4 km/h (2 Bft)
13.09.2017 23:02 14,1 °C 14,1 °C 79 % 1009,5 hPa 0,0 mm 4,4 km/h (1 Bft) S-SO 164 ° 0 min 0,000 mm 0,0 UV-I 0 W/m² 10,5 °C 14,1 °C 6,4 km/h (2 Bft)
13.09.2017 23:03 14,0 °C 14,1 °C 79 % 1009,5 hPa 0,0 mm 5,5 km/h (1 Bft) S-SO 166 ° 0 min 0,000 mm 0,0 UV-I 0 W/m² 10,4 °C 14,0 °C 8,0 km/h (2 Bft)
13.09.2017 23:04 14,0 °C 14,1 °C 79 % 1009,5 hPa 0,0 mm 4,2 km/h (1 Bft) S-SO 167 ° 0 min 0,000 mm 0,0 UV-I 0 W/m² 10,4 °C 14,0 °C 8,0 km/h (2 Bft)
13.09.2017 23:05 14,0 °C 14,1 °C 80 % 1009,4 hPa 0,0 mm 3,6 km/h (1 Bft) S-SO 167 ° 0 min 0,000 mm 0,0 UV-I 0 W/m² 10,6 °C 14,0 °C 6,4 km/h (2 Bft)
13.09.2017 23:06 13,9 °C 14,0 °C 80 % 1009,5 hPa 0,0 mm 5,5 km/h (1 Bft) S-SO 167 ° 0 min 0,000 mm 0,0 UV-I 0 W/m² 10,5 °C 13,9 °C 8,0 km/h (2 Bft)
13.09.2017 23:07 13,9 °C 14,0 °C 80 % 1009,5 hPa 0,0 mm 5,0 km/h (1 Bft) S-SO 167 ° 0 min 0,000 mm 0,0 UV-I 0 W/m² 10,5 °C 13,9 °C 6,4 km/h (2 Bft)
13.09.2017 23:08 13,8 °C 13,9 °C 80 % 1009,5 hPa 0,0 mm 6,8 km/h (2 Bft) S-SW 206 ° 0 min 0,000 mm 0,0 UV-I 0 W/m² 10,4 °C 13,8 °C 11,3 km/h (2 Bft)
13.09.2017 23:09 13,8 °C 13,8 °C 81 % 1009,4 hPa 0,0 mm 3,1 km/h (1 Bft) S-SW 192 ° 0 min 0,000 mm 0,0 UV-I 0 W/m² 10,6 °C 13,8 °C 4,8 km/h (1 Bft)
13.09.2017 23:10 13,8 °C 13,8 °C 80 % 1009,4 hPa 0,0 mm 4,5 km/h (1 Bft) S-SW 192 ° 0 min 0,000 mm 0,0 UV-I 0 W/m² 10,4 °C 13,8 °C 6,4 km/h (2 Bft)
13.09.2017 23:11 13,8 °C 13,8 °C 80 % 1009,5 hPa 0,0 mm 4,6 km/h (1 Bft) S-SW 192 ° 0 min 0,000 mm 0,0 UV-I 0 W/m² 10,4 °C 13,8 °C 6,4 km/h (2 Bft)
13.09.2017 23:12 13,8 °C 13,8 °C 80 % 1009,4 hPa 0,0 mm 4,1 km/h (1 Bft) S-SW 192 ° 0 min 0,000 mm 0,0 UV-I 0 W/m² 10,4 °C 13,8 °C 6,4 km/h (2 Bft)
13.09.2017 23:13 13,8 °C 13,8 °C 81 % 1009,4 hPa 0,0 mm 6,3 km/h (2 Bft) S-SO 167 ° 0 min 0,000 mm 0,0 UV-I 0 W/m² 10,6 °C 13,8 °C 8,0 km/h (2 Bft)
13.09.2017 23:14 13,7 °C 13,8 °C 81 % 1009,3 hPa 0,0 mm 3,8 km/h (1 Bft) S-SO 167 ° 0 min 0,000 mm 0,0 UV-I 0 W/m² 10,5 °C 13,7 °C 4,8 km/h (1 Bft)
13.09.2017 23:15 13,6 °C 13,7 °C 81 % 1009,4 hPa 0,0 mm 2,3 km/h (1 Bft) S-SO 167 ° 0 min 0,000 mm 0,0 UV-I 0 W/m² 10,4 °C 13,6 °C 4,8 km/h (1 Bft)
13.09.2017 23:16 13,5 °C 13,6 °C 81 % 1009,4 hPa 0,0 mm 2,8 km/h (1 Bft) S-SO 167 ° 0 min 0,000 mm 0,0 UV-I 0 W/m² 10,3 °C 13,5 °C 6,4 km/h (2 Bft)
13.09.2017 23:17 13,3 °C 13,5 °C 81 % 1009,4 hPa 0,0 mm 0,4 km/h (0 Bft) S-SO 167 ° 0 min 0,000 mm 0,0 UV-I 0 W/m² 10,1 °C 13,3 °C 1,6 km/h (1 Bft)
13.09.2017 23:18 13,2 °C 13,3 °C 82 % 1009,3 hPa 0,0 mm 0,2 km/h (0 Bft) S-SO 167 ° 0 min 0,000 mm 0,0 UV-I 0 W/m² 10,2 °C 13,2 °C 1,6 km/h (1 Bft)
13.09.2017 23:19 13,2 °C 13,2 °C 82 % 1009,4 hPa 0,0 mm 0,0 km/h (0 Bft) S-SO 167 ° 0 min 0,000 mm 0,0 UV-I 0 W/m² 10,2 °C 13,2 °C 0,0 km/h (0 Bft)
13.09.2017 23:20 13,2 °C 13,2 °C 82 % 1009,4 hPa 0,0 mm 0,4 km/h (0 Bft) S-SO 167 ° 0 min 0,000 mm 0,0 UV-I 0 W/m² 10,2 °C 13,2 °C 1,6 km/h (1 Bft)
13.09.2017 23:21 13,2 °C 13,2 °C 82 % 1009,3 hPa 0,0 mm 4,5 km/h (1 Bft) S 186 ° 0 min 0,000 mm 0,0 UV-I 0 W/m² 10,2 °C 13,2 °C 6,4 km/h (2 Bft)
13.09.2017 23:22 13,2 °C 13,2 °C 82 % 1009,3 hPa 0,0 mm 3,4 km/h (1 Bft) S 186 ° 0 min 0,000 mm 0,0 UV-I 0 W/m² 10,2 °C 13,2 °C 4,8 km/h (1 Bft)
13.09.2017 23:23 13,2 °C 13,2 °C 83 % 1009,3 hPa 0,0 mm 2,6 km/h (1 Bft) S 186 ° 0 min 0,000 mm 0,0 UV-I 0 W/m² 10,4 °C 13,2 °C 4,8 km/h (1 Bft)
13.09.2017 23:24 13,2 °C 13,2 °C 82 % 1009,3 hPa 0,0 mm 1,1 km/h (1 Bft) S 186 ° 0 min 0,000 mm 0,0 UV-I 0 W/m² 10,2 °C 13,2 °C 3,2 km/h (1 Bft)
13.09.2017 23:25 13,2 °C 13,2 °C 82 % 1009,3 hPa 0,0 mm 1,7 km/h (1 Bft) S 186 ° 0 min 0,000 mm 0,0 UV-I 0 W/m² 10,2 °C 13,2 °C 3,2 km/h (1 Bft)
13.09.2017 23:26 13,2 °C 13,2 °C 82 % 1009,4 hPa 0,0 mm 1,8 km/h (1 Bft) S 186 ° 0 min 0,000 mm 0,0 UV-I 0 W/m² 10,2 °C 13,2 °C 3,2 km/h (1 Bft)
13.09.2017 23:27 13,1 °C 13,2 °C 82 % 1009,4 hPa 0,0 mm 1,2 km/h (1 Bft) S 186 ° 0 min 0,000 mm 0,0 UV-I 0 W/m² 10,1 °C 13,1 °C 3,2 km/h (1 Bft)
13.09.2017 23:28 13,1 °C 13,1 °C 83 % 1009,4 hPa 0,0 mm 0,2 km/h (0 Bft) S 186 ° 0 min 0,000 mm 0,0 UV-I 0 W/m² 10,3 °C 13,1 °C 1,6 km/h (1 Bft)
13.09.2017 23:29 13,1 °C 13,1 °C 83 % 1009,5 hPa 0,0 mm 3,0 km/h (1 Bft) S 186 ° 0 min 0,000 mm 0,0 UV-I 0 W/m² 10,3 °C 13,1 °C 4,8 km/h (1 Bft)
13.09.2017 23:30 13,0 °C 13,1 °C 83 % 1009,4 hPa 0,0 mm 2,6 km/h (1 Bft) S 186 ° 0 min 0,000 mm 0,0 UV-I 0 W/m² 10,2 °C 13,0 °C 4,8 km/h (1 Bft)
13.09.2017 23:31 13,0 °C 13,0 °C 83 % 1009,2 hPa 0,0 mm 3,2 km/h (1 Bft) S-SO 164 ° 0 min 0,000 mm 0,0 UV-I 0 W/m² 10,2 °C 13,0 °C 6,4 km/h (2 Bft)
13.09.2017 23:32 12,9 °C 13,0 °C 83 % 1009,2 hPa 0,0 mm 4,3 km/h (1 Bft) S-SO 160 ° 0 min 0,000 mm 0,0 UV-I 0 W/m² 10,1 °C 12,9 °C 8,0 km/h (2 Bft)
13.09.2017 23:33 12,9 °C 12,9 °C 84 % 1009,2 hPa 0,0 mm 3,4 km/h (1 Bft) S-SO 160 ° 0 min 0,000 mm 0,0 UV-I 0 W/m² 10,3 °C 12,9 °C 6,4 km/h (2 Bft)
13.09.2017 23:34 12,9 °C 13,0 °C 83 % 1009,3 hPa 0,0 mm 2,1 km/h (1 Bft) S-SO 160 ° 0 min 0,000 mm 0,0 UV-I 0 W/m² 10,1 °C 12,9 °C 3,2 km/h (1 Bft)
13.09.2017 23:35 12,9 °C 13,0 °C 82 % 1009,3 hPa 0,0 mm 2,3 km/h (1 Bft) S 185 ° 0 min 0,000 mm 0,0 UV-I 0 W/m² 9,9 °C 12,9 °C 4,8 km/h (1 Bft)
13.09.2017 23:36 12,9 °C 12,9 °C 84 % 1009,1 hPa 0,0 mm 1,1 km/h (1 Bft) S 185 ° 0 min 0,000 mm 0,0 UV-I 0 W/m² 10,3 °C 12,9 °C 3,2 km/h (1 Bft)
13.09.2017 23:37 12,9 °C 12,9 °C 83 % 1009,2 hPa 0,0 mm 0,0 km/h (0 Bft) S 185 ° 0 min 0,000 mm 0,0 UV-I 0 W/m² 10,1 °C 12,9 °C 0,0 km/h (0 Bft)
13.09.2017 23:38 12,9 °C 12,9 °C 83 % 1009,2 hPa 0,0 mm 0,4 km/h (0 Bft) S 185 ° 0 min 0,000 mm 0,0 UV-I 0 W/m² 10,1 °C 12,9 °C 3,2 km/h (1 Bft)
13.09.2017 23:39 12,9 °C 12,9 °C 83 % 1009,1 hPa 0,0 mm 0,7 km/h (0 Bft) S 185 ° 0 min 0,000 mm 0,0 UV-I 0 W/m² 10,1 °C 12,9 °C 3,2 km/h (1 Bft)
13.09.2017 23:40 12,9 °C 12,9 °C 83 % 1009,1 hPa 0,0 mm 0,0 km/h (0 Bft) S 185 ° 0 min 0,000 mm 0,0 UV-I 0 W/m² 10,1 °C 12,9 °C 0,0 km/h (0 Bft)
13.09.2017 23:41 12,9 °C 12,9 °C 83 % 1009,2 hPa 0,0 mm 0,0 km/h (0 Bft) S-SW 195 ° 0 min 0,000 mm 0,0 UV-I 0 W/m² 10,1 °C 12,9 °C 0,0 km/h (0 Bft)
13.09.2017 23:42 12,9 °C 12,9 °C 83 % 1009,2 hPa 0,0 mm 0,0 km/h (0 Bft) S-SW 195 ° 0 min 0,000 mm 0,0 UV-I 0 W/m² 10,1 °C 12,9 °C 0,0 km/h (0 Bft)
13.09.2017 23:43 12,9 °C 12,9 °C 84 % 1009,1 hPa 0,0 mm 0,0 km/h (0 Bft) S-SW 195 ° 0 min 0,000 mm 0,0 UV-I 0 W/m² 10,3 °C 12,9 °C 0,0 km/h (0 Bft)
13.09.2017 23:44 12,9 °C 12,9 °C 84 % 1009,1 hPa 0,0 mm 0,0 km/h (0 Bft) S-SW 195 ° 0 min 0,000 mm 0,0 UV-I 0 W/m² 10,3 °C 12,9 °C 0,0 km/h (0 Bft)
13.09.2017 23:45 12,8 °C 12,9 °C 83 % 1009,2 hPa 0,0 mm 0,0 km/h (0 Bft) S-SW 195 ° 0 min 0,000 mm 0,0 UV-I 0 W/m² 10,0 °C 12,8 °C 0,0 km/h (0 Bft)
13.09.2017 23:46 12,8 °C 12,8 °C 83 % 1009,1 hPa 0,0 mm 0,0 km/h (0 Bft) S-SW 195 ° 0 min 0,000 mm 0,0 UV-I 0 W/m² 10,0 °C 12,8 °C 0,0 km/h (0 Bft)
13.09.2017 23:47 12,7 °C 12,8 °C 83 % 1009,1 hPa 0,0 mm 0,0 km/h (0 Bft) S-SW 195 ° 0 min 0,000 mm 0,0 UV-I 0 W/m² 9,9 °C 12,7 °C 0,0 km/h (0 Bft)
13.09.2017 23:48 12,4 °C 12,7 °C 83 % 1009,1 hPa 0,0 mm 0,0 km/h (0 Bft) S-SW 195 ° 0 min 0,000 mm 0,0 UV-I 0 W/m² 9,6 °C 12,4 °C 0,0 km/h (0 Bft)
13.09.2017 23:49 12,2 °C 12,4 °C 83 % 1009,1 hPa 0,0 mm 0,0 km/h (0 Bft) S-SW 195 ° 0 min 0,000 mm 0,0 UV-I 0 W/m² 9,4 °C 12,2 °C 0,0 km/h (0 Bft)
13.09.2017 23:50 11,9 °C 12,2 °C 84 % 1009,1 hPa 0,0 mm 0,0 km/h (0 Bft) S-SW 195 ° 0 min 0,000 mm 0,0 UV-I 0 W/m² 9,3 °C 11,9 °C 0,0 km/h (0 Bft)
13.09.2017 23:51 11,7 °C 11,9 °C 85 % 1009,1 hPa 0,0 mm 0,0 km/h (0 Bft) S-SW 195 ° 0 min 0,000 mm 0,0 UV-I 0 W/m² 9,3 °C 11,7 °C 0,0 km/h (0 Bft)
13.09.2017 23:52 11,6 °C 11,7 °C 86 % 1009,1 hPa 0,0 mm 0,0 km/h (0 Bft) S-SW 195 ° 0 min 0,000 mm 0,0 UV-I 0 W/m² 9,3 °C 11,6 °C 0,0 km/h (0 Bft)
13.09.2017 23:53 11,5 °C 11,6 °C 87 % 1009,1 hPa 0,0 mm 0,0 km/h (0 Bft) S-SW 195 ° 0 min 0,000 mm 0,0 UV-I 0 W/m² 9,4 °C 11,5 °C 0,0 km/h (0 Bft)
13.09.2017 23:54 11,5 °C 11,5 °C 87 % 1009,1 hPa 0,0 mm 0,0 km/h (0 Bft) S-SW 195 ° 0 min 0,000 mm 0,0 UV-I 0 W/m² 9,4 °C 11,5 °C 0,0 km/h (0 Bft)
13.09.2017 23:55 11,6 °C 11,6 °C 88 % 1009,0 hPa 0,0 mm 2,0 km/h (1 Bft) S-SW 194 ° 0 min 0,000 mm 0,0 UV-I 0 W/m² 9,7 °C 11,6 °C 4,8 km/h (1 Bft)
13.09.2017 23:56 11,7 °C 11,7 °C 88 % 1009,0 hPa 0,0 mm 2,4 km/h (1 Bft) S-SW 194 ° 0 min 0,000 mm 0,0 UV-I 0 W/m² 9,8 °C 11,7 °C 3,2 km/h (1 Bft)
13.09.2017 23:57 11,7 °C 11,7 °C 88 % 1009,0 hPa 0,0 mm 1,7 km/h (1 Bft) S-SW 194 ° 0 min 0,000 mm 0,0 UV-I 0 W/m² 9,8 °C 11,7 °C 3,2 km/h (1 Bft)
13.09.2017 23:58 11,8 °C 11,8 °C 88 % 1008,9 hPa 0,0 mm 0,7 km/h (0 Bft) S-SW 194 ° 0 min 0,000 mm 0,0 UV-I 0 W/m² 9,9 °C 11,8 °C 3,2 km/h (1 Bft)
13.09.2017 23:59 11,8 °C 11,8 °C 87 % 1008,9 hPa 0,0 mm 0,0 km/h (0 Bft) S-SW 194 ° 0 min 0,000 mm 0,0 UV-I 0 W/m² 9,7 °C 11,8 °C 0,0 km/h (0 Bft)
_ Min-Zeit 05:57 05:57 12:10 23:59 - 23:59 - - - - - - 05:51 05:57 23:59
Minimum _ 3,8 °C 3,8 °C 58 % 1008,9 hPa - 0,0 km/h (0 Bft) - - - - - - 2,5 °C 3,8 °C 0,0 km/h (0 Bft)
_ Max-Zeit 12:06 12:07 06:03 02:09 23:59 15:37 - - 15:06 15:01 12:02 14:49 17:39 12:06 15:37
Maximum _ 19,6 °C 19,6 °C 93 % 1016,3 hPa 0,0 mm 23,6 km/h
W (4 Bft)
- - 1 min 0,254 mm 5,4 UV-I 835 W/m² 13,4 °C 19,6 °C 40,2 km/h
S (6 Bft)
Durchschnitt _ 12,0 °C 12,1 °C 80 % 1012,6 hPa #0,0 mm 3,9 km/h (1 Bft) W - #2:02 h #1,600 mm 1,8 UV-I 95 W/m² 8,5 °C 12,0 °C 6,9 km/h (2 Bft)